<?xml version='1.0' encoding='UTF-8'?><gpx version="1.1" creator="JPX - https://github.com/jenetics/jpx" xmlns="http://www.topografix.com/GPX/1/1"><trk><trkseg><trkpt lat="42.5247768" lon="12.3667283"><ele>318.0</ele><time>2026-03-30T13:10:16.713Z</time></trkpt><trkpt lat="42.5248049" lon="12.3668165"><ele>318.0</ele><time>2026-03-30T13:10:18.505Z</time></trkpt><trkpt lat="42.5248884" lon="12.3670285"><ele>318.0</ele><time>2026-03-30T13:10:19.712Z</time></trkpt><trkpt lat="42.5249459" lon="12.3671499"><ele>318.0</ele><time>2026-03-30T13:10:20.691Z</time></trkpt><trkpt lat="42.525008" lon="12.3672699"><ele>318.8</ele><time>2026-03-30T13:10:21.716Z</time></trkpt><trkpt lat="42.5250628" lon="12.3673838"><ele>319.6</ele><time>2026-03-30T13:10:22.713Z</time></trkpt><trkpt lat="42.5251091" lon="12.3674928"><ele>320.40000000000003</ele><time>2026-03-30T13:10:23.692Z</time></trkpt><trkpt lat="42.5251586" lon="12.3676043"><ele>321.20000000000005</ele><time>2026-03-30T13:10:24.7Z</time></trkpt><trkpt lat="42.525203" lon="12.3677249"><ele>322.0</ele><time>2026-03-30T13:10:25.703Z</time></trkpt><trkpt lat="42.5252581" lon="12.3678447"><ele>322.0</ele><time>2026-03-30T13:10:26.708Z</time></trkpt><trkpt lat="42.5253155" lon="12.3679522"><ele>322.0</ele><time>2026-03-30T13:10:27.714Z</time></trkpt><trkpt lat="42.5253777" lon="12.3680587"><ele>322.0</ele><time>2026-03-30T13:10:28.712Z</time></trkpt><trkpt lat="42.5254403" lon="12.3681624"><ele>322.0</ele><time>2026-03-30T13:10:29.712Z</time></trkpt><trkpt lat="42.5255015" lon="12.3682671"><ele>322.0</ele><time>2026-03-30T13:10:30.707Z</time></trkpt><trkpt lat="42.5255594" lon="12.3683788"><ele>322.75</ele><time>2026-03-30T13:10:31.698Z</time></trkpt><trkpt lat="42.5256186" lon="12.3685132"><ele>323.5</ele><time>2026-03-30T13:10:32.708Z</time></trkpt><trkpt lat="42.5256845" lon="12.3686537"><ele>324.25</ele><time>2026-03-30T13:10:33.712Z</time></trkpt><trkpt lat="42.5257522" lon="12.3687865"><ele>325.0</ele><time>2026-03-30T13:10:34.717Z</time></trkpt><trkpt lat="42.5258155" lon="12.3689224"><ele>325.5</ele><time>2026-03-30T13:10:35.715Z</time></trkpt><trkpt lat="42.5258895" lon="12.3690547"><ele>326.0</ele><time>2026-03-30T13:10:36.711Z</time></trkpt><trkpt lat="42.5259601" lon="12.3691821"><ele>326.5</ele><time>2026-03-30T13:10:37.701Z</time></trkpt><trkpt lat="42.5260396" lon="12.3692991"><ele>327.0</ele><time>2026-03-30T13:10:38.703Z</time></trkpt><trkpt lat="42.526117" lon="12.3693966"><ele>327.0</ele><time>2026-03-30T13:10:39.707Z</time></trkpt><trkpt lat="42.5261985" lon="12.3694761"><ele>327.0</ele><time>2026-03-30T13:10:40.72Z</time></trkpt><trkpt lat="42.5262824" lon="12.3695546"><ele>327.0</ele><time>2026-03-30T13:10:41.719Z</time></trkpt><trkpt lat="42.526379" lon="12.3696339"><ele>327.0</ele><time>2026-03-30T13:10:42.706Z</time></trkpt><trkpt lat="42.5264851" lon="12.369713"><ele>327.0</ele><time>2026-03-30T13:10:43.722Z</time></trkpt><trkpt lat="42.5265826" lon="12.3697821"><ele>326.8333333333333</ele><time>2026-03-30T13:10:44.722Z</time></trkpt><trkpt lat="42.5266687" lon="12.3698438"><ele>326.6666666666667</ele><time>2026-03-30T13:10:45.723Z</time></trkpt><trkpt lat="42.5267459" lon="12.3698995"><ele>326.5</ele><time>2026-03-30T13:10:46.712Z</time></trkpt><trkpt lat="42.5268219" lon="12.3699467"><ele>326.33333333333337</ele><time>2026-03-30T13:10:47.693Z</time></trkpt><trkpt lat="42.5268923" lon="12.3699798"><ele>326.1666666666667</ele><time>2026-03-30T13:10:48.691Z</time></trkpt><trkpt lat="42.5269614" lon="12.3700191"><ele>326.0</ele><time>2026-03-30T13:10:49.703Z</time></trkpt><trkpt lat="42.5270277" lon="12.3700613"><ele>326.33333333333337</ele><time>2026-03-30T13:10:50.691Z</time></trkpt><trkpt lat="42.5270921" lon="12.3701011"><ele>326.6666666666667</ele><time>2026-03-30T13:10:51.703Z</time></trkpt><trkpt lat="42.5271551" lon="12.3701528"><ele>327.0</ele><time>2026-03-30T13:10:52.707Z</time></trkpt><trkpt lat="42.5272209" lon="12.3702086"><ele>327.3333333333333</ele><time>2026-03-30T13:10:53.704Z</time></trkpt><trkpt lat="42.5272889" lon="12.3702712"><ele>327.66666666666663</ele><time>2026-03-30T13:10:54.698Z</time></trkpt><trkpt lat="42.5273748" lon="12.3703342"><ele>328.0</ele><time>2026-03-30T13:10:55.711Z</time></trkpt><trkpt lat="42.5274873" lon="12.3704052"><ele>328.0</ele><time>2026-03-30T13:10:56.707Z</time></trkpt><trkpt lat="42.5275945" lon="12.3704832"><ele>328.0</ele><time>2026-03-30T13:10:57.712Z</time></trkpt><trkpt lat="42.5276933" lon="12.3705582"><ele>328.0</ele><time>2026-03-30T13:10:58.713Z</time></trkpt><trkpt lat="42.5277818" lon="12.3706189"><ele>328.0</ele><time>2026-03-30T13:10:59.707Z</time></trkpt><trkpt lat="42.5278645" lon="12.3706759"><ele>328.0</ele><time>2026-03-30T13:11:00.718Z</time></trkpt><trkpt lat="42.527945" lon="12.3707289"><ele>328.59999999999997</ele><time>2026-03-30T13:11:01.701Z</time></trkpt><trkpt lat="42.5280226" lon="12.3707855"><ele>329.2</ele><time>2026-03-30T13:11:02.712Z</time></trkpt><trkpt lat="42.52809" lon="12.3708448"><ele>329.8</ele><time>2026-03-30T13:11:03.712Z</time></trkpt><trkpt lat="42.5281844" lon="12.3709386"><ele>330.4</ele><time>2026-03-30T13:11:05.707Z</time></trkpt><trkpt lat="42.5283061" lon="12.3710875"><ele>331.0</ele><time>2026-03-30T13:11:08.698Z</time></trkpt><trkpt lat="42.5283552" lon="12.3711702"><ele>331.0</ele><time>2026-03-30T13:11:09.702Z</time></trkpt><trkpt lat="42.5284117" lon="12.3712685"><ele>331.0</ele><time>2026-03-30T13:11:10.705Z</time></trkpt><trkpt lat="42.5284682" lon="12.3713676"><ele>331.0</ele><time>2026-03-30T13:11:11.708Z</time></trkpt><trkpt lat="42.5285211" lon="12.3714728"><ele>331.0</ele><time>2026-03-30T13:11:12.716Z</time></trkpt><trkpt lat="42.5285742" lon="12.3715837"><ele>331.0</ele><time>2026-03-30T13:11:13.709Z</time></trkpt><trkpt lat="42.528625" lon="12.3716813"><ele>330.8</ele><time>2026-03-30T13:11:14.71Z</time></trkpt><trkpt lat="42.5286749" lon="12.3717713"><ele>330.6</ele><time>2026-03-30T13:11:15.719Z</time></trkpt><trkpt lat="42.5287393" lon="12.3718557"><ele>330.4</ele><time>2026-03-30T13:11:16.706Z</time></trkpt><trkpt lat="42.5288006" lon="12.3719167"><ele>330.2</ele><time>2026-03-30T13:11:17.724Z</time></trkpt><trkpt lat="42.5288806" lon="12.3719982"><ele>330.0</ele><time>2026-03-30T13:11:19.707Z</time></trkpt><trkpt lat="42.5289012" lon="12.3721499"><ele>330.8</ele><time>2026-03-30T13:11:21.708Z</time></trkpt><trkpt lat="42.5288954" lon="12.3722497"><ele>331.6</ele><time>2026-03-30T13:11:22.708Z</time></trkpt><trkpt lat="42.5288987" lon="12.3723611"><ele>332.4</ele><time>2026-03-30T13:11:23.704Z</time></trkpt><trkpt lat="42.5288992" lon="12.3724736"><ele>333.2</ele><time>2026-03-30T13:11:25.434Z</time></trkpt><trkpt lat="42.5288861" lon="12.3727017"><ele>334.0</ele><time>2026-03-30T13:11:26.704Z</time></trkpt><trkpt lat="42.5288914" lon="12.3728304"><ele>334.0</ele><time>2026-03-30T13:11:27.699Z</time></trkpt><trkpt lat="42.5289137" lon="12.3729609"><ele>334.0</ele><time>2026-03-30T13:11:28.711Z</time></trkpt><trkpt lat="42.528937" lon="12.3730613"><ele>334.0</ele><time>2026-03-30T13:11:29.707Z</time></trkpt><trkpt lat="42.5289764" lon="12.3731692"><ele>334.0</ele><time>2026-03-30T13:11:31.705Z</time></trkpt><trkpt lat="42.5290259" lon="12.3732967"><ele>334.0</ele><time>2026-03-30T13:11:33.698Z</time></trkpt><trkpt lat="42.5290618" lon="12.3733879"><ele>334.0</ele><time>2026-03-30T13:11:34.709Z</time></trkpt><trkpt lat="42.5291057" lon="12.373481"><ele>333.3333333333333</ele><time>2026-03-30T13:11:35.705Z</time></trkpt><trkpt lat="42.5291414" lon="12.3735792"><ele>332.66666666666663</ele><time>2026-03-30T13:11:36.695Z</time></trkpt><trkpt lat="42.5291785" lon="12.3736753"><ele>332.0</ele><time>2026-03-30T13:11:37.699Z</time></trkpt><trkpt lat="42.5292123" lon="12.373748"><ele>331.3333333333333</ele><time>2026-03-30T13:11:38.707Z</time></trkpt><trkpt lat="42.5292674" lon="12.3739039"><ele>330.6666666666667</ele><time>2026-03-30T13:11:40.7Z</time></trkpt><trkpt lat="42.5293064" lon="12.3739813"><ele>330.0</ele><time>2026-03-30T13:11:41.718Z</time></trkpt><trkpt lat="42.5293529" lon="12.3740692"><ele>330.0</ele><time>2026-03-30T13:11:42.704Z</time></trkpt><trkpt lat="42.5294008" lon="12.3741467"><ele>330.0</ele><time>2026-03-30T13:11:43.716Z</time></trkpt><trkpt lat="42.5294493" lon="12.3742226"><ele>330.0</ele><time>2026-03-30T13:11:44.705Z</time></trkpt><trkpt lat="42.5294993" lon="12.3742965"><ele>330.0</ele><time>2026-03-30T13:11:45.715Z</time></trkpt><trkpt lat="42.5295561" lon="12.3744114"><ele>330.0</ele><time>2026-03-30T13:11:47.707Z</time></trkpt><trkpt lat="42.5295924" lon="12.3745452"><ele>330.0</ele><time>2026-03-30T13:11:49.71Z</time></trkpt><trkpt lat="42.5296313" lon="12.3746937"><ele>332.4</ele><time>2026-03-30T13:11:52.389Z</time></trkpt><trkpt lat="42.5296847" lon="12.3748465"><ele>334.8</ele><time>2026-03-30T13:11:53.708Z</time></trkpt><trkpt lat="42.5297401" lon="12.3749883"><ele>337.20000000000005</ele><time>2026-03-30T13:11:55.715Z</time></trkpt><trkpt lat="42.5297645" lon="12.3750941"><ele>339.6</ele><time>2026-03-30T13:11:57.709Z</time></trkpt><trkpt lat="42.5297775" lon="12.375201"><ele>342.0</ele><time>2026-03-30T13:11:59.709Z</time></trkpt><trkpt lat="42.5297972" lon="12.3753576"><ele>342.0</ele><time>2026-03-30T13:12:01.715Z</time></trkpt><trkpt lat="42.5298137" lon="12.375462"><ele>342.0</ele><time>2026-03-30T13:12:02.708Z</time></trkpt><trkpt lat="42.5298406" lon="12.3755735"><ele>342.0</ele><time>2026-03-30T13:12:03.715Z</time></trkpt><trkpt lat="42.5298772" lon="12.3756963"><ele>342.0</ele><time>2026-03-30T13:12:04.704Z</time></trkpt><trkpt lat="42.5299239" lon="12.3758245"><ele>342.0</ele><time>2026-03-30T13:12:05.713Z</time></trkpt><trkpt lat="42.5299758" lon="12.3759571"><ele>342.0</ele><time>2026-03-30T13:12:06.709Z</time></trkpt><trkpt lat="42.5300362" lon="12.3760871"><ele>342.0</ele><time>2026-03-30T13:12:07.709Z</time></trkpt><trkpt lat="42.5301163" lon="12.3762238"><ele>342.0</ele><time>2026-03-30T13:12:08.695Z</time></trkpt><trkpt lat="42.530199" lon="12.3763348"><ele>342.0</ele><time>2026-03-30T13:12:09.717Z</time></trkpt><trkpt lat="42.5302866" lon="12.3764357"><ele>341.25</ele><time>2026-03-30T13:12:10.711Z</time></trkpt><trkpt lat="42.5303807" lon="12.3765337"><ele>340.5</ele><time>2026-03-30T13:12:11.713Z</time></trkpt><trkpt lat="42.5304836" lon="12.3766369"><ele>339.75</ele><time>2026-03-30T13:12:12.71Z</time></trkpt><trkpt lat="42.5306021" lon="12.3767457"><ele>339.0</ele><time>2026-03-30T13:12:13.71Z</time></trkpt><trkpt lat="42.5307065" lon="12.3768556"><ele>339.0</ele><time>2026-03-30T13:12:14.721Z</time></trkpt><trkpt lat="42.5307989" lon="12.3769623"><ele>339.0</ele><time>2026-03-30T13:12:15.719Z</time></trkpt><trkpt lat="42.5308759" lon="12.3770749"><ele>339.0</ele><time>2026-03-30T13:12:16.723Z</time></trkpt><trkpt lat="42.5309458" lon="12.377185"><ele>339.0</ele><time>2026-03-30T13:12:17.72Z</time></trkpt><trkpt lat="42.5310222" lon="12.3772907"><ele>338.25</ele><time>2026-03-30T13:12:18.721Z</time></trkpt><trkpt lat="42.5311062" lon="12.3773932"><ele>337.5</ele><time>2026-03-30T13:12:19.723Z</time></trkpt><trkpt lat="42.531205" lon="12.3774857"><ele>336.75</ele><time>2026-03-30T13:12:20.717Z</time></trkpt><trkpt lat="42.5313204" lon="12.3775573"><ele>336.0</ele><time>2026-03-30T13:12:21.723Z</time></trkpt><trkpt lat="42.531454" lon="12.3776168"><ele>336.0</ele><time>2026-03-30T13:12:22.715Z</time></trkpt><trkpt lat="42.5315787" lon="12.3776686"><ele>336.0</ele><time>2026-03-30T13:12:23.717Z</time></trkpt><trkpt lat="42.5316961" lon="12.3777124"><ele>336.0</ele><time>2026-03-30T13:12:24.717Z</time></trkpt><trkpt lat="42.5318035" lon="12.3777567"><ele>336.0</ele><time>2026-03-30T13:12:25.714Z</time></trkpt><trkpt lat="42.5319155" lon="12.3778127"><ele>336.0</ele><time>2026-03-30T13:12:26.712Z</time></trkpt><trkpt lat="42.5320342" lon="12.3778756"><ele>336.0</ele><time>2026-03-30T13:12:27.721Z</time></trkpt><trkpt lat="42.5321565" lon="12.3779349"><ele>336.0</ele><time>2026-03-30T13:12:28.713Z</time></trkpt><trkpt lat="42.5322533" lon="12.377981"><ele>336.0</ele><time>2026-03-30T13:12:29.699Z</time></trkpt><trkpt lat="42.5323282" lon="12.3780281"><ele>336.0</ele><time>2026-03-30T13:12:30.711Z</time></trkpt><trkpt lat="42.5323944" lon="12.3781027"><ele>334.6</ele><time>2026-03-30T13:12:31.715Z</time></trkpt><trkpt lat="42.532467" lon="12.3781914"><ele>333.20000000000005</ele><time>2026-03-30T13:12:32.717Z</time></trkpt><trkpt lat="42.5325483" lon="12.3782827"><ele>331.79999999999995</ele><time>2026-03-30T13:12:33.714Z</time></trkpt><trkpt lat="42.5326331" lon="12.3783512"><ele>330.4</ele><time>2026-03-30T13:12:34.703Z</time></trkpt><trkpt lat="42.5327189" lon="12.3784096"><ele>329.0</ele><time>2026-03-30T13:12:35.712Z</time></trkpt><trkpt lat="42.5328048" lon="12.3784719"><ele>331.6</ele><time>2026-03-30T13:12:36.719Z</time></trkpt><trkpt lat="42.5328905" lon="12.3785408"><ele>334.2</ele><time>2026-03-30T13:12:37.709Z</time></trkpt><trkpt lat="42.532972" lon="12.3786192"><ele>336.8</ele><time>2026-03-30T13:12:38.708Z</time></trkpt><trkpt lat="42.5330557" lon="12.3786947"><ele>339.40000000000003</ele><time>2026-03-30T13:12:39.708Z</time></trkpt><trkpt lat="42.5331411" lon="12.3787723"><ele>342.0</ele><time>2026-03-30T13:12:40.709Z</time></trkpt><trkpt lat="42.5332433" lon="12.378846"><ele>341.20000000000005</ele><time>2026-03-30T13:12:41.706Z</time></trkpt><trkpt lat="42.5333537" lon="12.3789033"><ele>340.4</ele><time>2026-03-30T13:12:42.712Z</time></trkpt><trkpt lat="42.5334515" lon="12.3789459"><ele>339.6</ele><time>2026-03-30T13:12:43.713Z</time></trkpt><trkpt lat="42.5335414" lon="12.3789899"><ele>338.79999999999995</ele><time>2026-03-30T13:12:44.708Z</time></trkpt><trkpt lat="42.5336394" lon="12.3790499"><ele>338.0</ele><time>2026-03-30T13:12:45.716Z</time></trkpt><trkpt lat="42.5337407" lon="12.3791189"><ele>338.0</ele><time>2026-03-30T13:12:46.712Z</time></trkpt><trkpt lat="42.5338435" lon="12.3791697"><ele>338.0</ele><time>2026-03-30T13:12:47.715Z</time></trkpt><trkpt lat="42.5339347" lon="12.3792201"><ele>338.0</ele><time>2026-03-30T13:12:48.722Z</time></trkpt><trkpt lat="42.5340236" lon="12.3792672"><ele>338.0</ele><time>2026-03-30T13:12:49.723Z</time></trkpt><trkpt lat="42.5341255" lon="12.3792866"><ele>338.0</ele><time>2026-03-30T13:12:50.711Z</time></trkpt><trkpt lat="42.5342265" lon="12.37929"><ele>338.0</ele><time>2026-03-30T13:12:51.711Z</time></trkpt><trkpt lat="42.5343269" lon="12.3792821"><ele>338.0</ele><time>2026-03-30T13:12:52.723Z</time></trkpt><trkpt lat="42.5344369" lon="12.3792693"><ele>338.0</ele><time>2026-03-30T13:12:53.717Z</time></trkpt><trkpt lat="42.5345659" lon="12.3792579"><ele>338.0</ele><time>2026-03-30T13:12:54.714Z</time></trkpt><trkpt lat="42.5346899" lon="12.3792558"><ele>338.5</ele><time>2026-03-30T13:12:55.719Z</time></trkpt><trkpt lat="42.5348012" lon="12.3792595"><ele>339.0</ele><time>2026-03-30T13:12:56.71Z</time></trkpt><trkpt lat="42.5348922" lon="12.3792596"><ele>339.5</ele><time>2026-03-30T13:12:57.71Z</time></trkpt><trkpt lat="42.5349716" lon="12.3792484"><ele>340.0</ele><time>2026-03-30T13:12:58.712Z</time></trkpt><trkpt lat="42.5350436" lon="12.3792205"><ele>340.5</ele><time>2026-03-30T13:12:59.724Z</time></trkpt><trkpt lat="42.5351155" lon="12.3791832"><ele>341.0</ele><time>2026-03-30T13:13:00.723Z</time></trkpt><trkpt lat="42.5351798" lon="12.3791676"><ele>341.0</ele><time>2026-03-30T13:13:01.711Z</time></trkpt><trkpt lat="42.5353027" lon="12.3791959"><ele>341.0</ele><time>2026-03-30T13:13:03.719Z</time></trkpt><trkpt lat="42.5353526" lon="12.3792505"><ele>341.0</ele><time>2026-03-30T13:13:04.708Z</time></trkpt><trkpt lat="42.5353883" lon="12.3793351"><ele>341.0</ele><time>2026-03-30T13:13:06.72Z</time></trkpt><trkpt lat="42.5354674" lon="12.3793755"><ele>341.0</ele><time>2026-03-30T13:13:09.72Z</time></trkpt><trkpt lat="42.5356067" lon="12.3793345"><ele>342.8</ele><time>2026-03-30T13:13:11.719Z</time></trkpt><trkpt lat="42.5356996" lon="12.3793005"><ele>344.6</ele><time>2026-03-30T13:13:12.719Z</time></trkpt><trkpt lat="42.5357962" lon="12.3792615"><ele>346.4</ele><time>2026-03-30T13:13:13.718Z</time></trkpt><trkpt lat="42.5358949" lon="12.3792335"><ele>348.2</ele><time>2026-03-30T13:13:14.721Z</time></trkpt><trkpt lat="42.5359987" lon="12.3792175"><ele>350.0</ele><time>2026-03-30T13:13:15.71Z</time></trkpt><trkpt lat="42.53611" lon="12.379205"><ele>351.25</ele><time>2026-03-30T13:13:16.715Z</time></trkpt><trkpt lat="42.5362242" lon="12.3791975"><ele>352.5</ele><time>2026-03-30T13:13:17.709Z</time></trkpt><trkpt lat="42.5363404" lon="12.3791981"><ele>353.75</ele><time>2026-03-30T13:13:18.721Z</time></trkpt><trkpt lat="42.5364646" lon="12.3792019"><ele>355.0</ele><time>2026-03-30T13:13:19.717Z</time></trkpt><trkpt lat="42.5365943" lon="12.3792071"><ele>355.0</ele><time>2026-03-30T13:13:20.724Z</time></trkpt><trkpt lat="42.5367347" lon="12.3792111"><ele>355.0</ele><time>2026-03-30T13:13:21.718Z</time></trkpt><trkpt lat="42.5368859" lon="12.3792203"><ele>355.0</ele><time>2026-03-30T13:13:22.709Z</time></trkpt><trkpt lat="42.5370365" lon="12.3792297"><ele>355.0</ele><time>2026-03-30T13:13:23.705Z</time></trkpt><trkpt lat="42.5371826" lon="12.3792414"><ele>355.75</ele><time>2026-03-30T13:13:24.715Z</time></trkpt><trkpt lat="42.5373164" lon="12.3792502"><ele>356.5</ele><time>2026-03-30T13:13:25.714Z</time></trkpt><trkpt lat="42.5374465" lon="12.3792605"><ele>357.25</ele><time>2026-03-30T13:13:26.712Z</time></trkpt><trkpt lat="42.5375781" lon="12.3792774"><ele>358.0</ele><time>2026-03-30T13:13:27.71Z</time></trkpt><trkpt lat="42.5377081" lon="12.3792955"><ele>358.0</ele><time>2026-03-30T13:13:28.714Z</time></trkpt><trkpt lat="42.5378282" lon="12.3793131"><ele>358.0</ele><time>2026-03-30T13:13:29.706Z</time></trkpt><trkpt lat="42.5379337" lon="12.379328"><ele>358.0</ele><time>2026-03-30T13:13:30.714Z</time></trkpt><trkpt lat="42.5380409" lon="12.379336"><ele>358.0</ele><time>2026-03-30T13:13:31.705Z</time></trkpt><trkpt lat="42.538158" lon="12.3793102"><ele>358.59999999999997</ele><time>2026-03-30T13:13:32.7Z</time></trkpt><trkpt lat="42.538266" lon="12.3792543"><ele>359.2</ele><time>2026-03-30T13:13:33.715Z</time></trkpt><trkpt lat="42.538362" lon="12.3791735"><ele>359.8</ele><time>2026-03-30T13:13:34.712Z</time></trkpt><trkpt lat="42.5384403" lon="12.3790736"><ele>360.4</ele><time>2026-03-30T13:13:35.71Z</time></trkpt><trkpt lat="42.538499" lon="12.3789577"><ele>361.0</ele><time>2026-03-30T13:13:36.695Z</time></trkpt><trkpt lat="42.5385418" lon="12.3788315"><ele>361.5</ele><time>2026-03-30T13:13:37.704Z</time></trkpt><trkpt lat="42.5385665" lon="12.378686"><ele>362.0</ele><time>2026-03-30T13:13:38.704Z</time></trkpt><trkpt lat="42.5385765" lon="12.378516"><ele>362.5</ele><time>2026-03-30T13:13:39.714Z</time></trkpt><trkpt lat="42.5385903" lon="12.3783408"><ele>363.0</ele><time>2026-03-30T13:13:40.714Z</time></trkpt><trkpt lat="42.5386102" lon="12.3781642"><ele>363.5</ele><time>2026-03-30T13:13:41.705Z</time></trkpt><trkpt lat="42.5386319" lon="12.3779841"><ele>364.0</ele><time>2026-03-30T13:13:42.713Z</time></trkpt><trkpt lat="42.5386509" lon="12.3778042"><ele>364.5</ele><time>2026-03-30T13:13:43.712Z</time></trkpt><trkpt lat="42.5386719" lon="12.3776266"><ele>365.0</ele><time>2026-03-30T13:13:44.707Z</time></trkpt><trkpt lat="42.5386953" lon="12.3774473"><ele>365.0</ele><time>2026-03-30T13:13:45.718Z</time></trkpt><trkpt lat="42.5387165" lon="12.3772667"><ele>365.0</ele><time>2026-03-30T13:13:46.717Z</time></trkpt><trkpt lat="42.5387372" lon="12.3770826"><ele>365.0</ele><time>2026-03-30T13:13:47.71Z</time></trkpt><trkpt lat="42.538758" lon="12.3769155"><ele>365.0</ele><time>2026-03-30T13:13:48.704Z</time></trkpt><trkpt lat="42.5387812" lon="12.3767524"><ele>365.75</ele><time>2026-03-30T13:13:49.717Z</time></trkpt><trkpt lat="42.5388033" lon="12.376587"><ele>366.5</ele><time>2026-03-30T13:13:50.725Z</time></trkpt><trkpt lat="42.5388291" lon="12.376415"><ele>367.25</ele><time>2026-03-30T13:13:51.717Z</time></trkpt><trkpt lat="42.5388526" lon="12.3762377"><ele>368.0</ele><time>2026-03-30T13:13:52.713Z</time></trkpt><trkpt lat="42.5388726" lon="12.3760581"><ele>368.0</ele><time>2026-03-30T13:13:53.719Z</time></trkpt><trkpt lat="42.538893" lon="12.3758769"><ele>368.0</ele><time>2026-03-30T13:13:54.715Z</time></trkpt><trkpt lat="42.5389149" lon="12.3756971"><ele>368.0</ele><time>2026-03-30T13:13:55.717Z</time></trkpt><trkpt lat="42.5389371" lon="12.3755185"><ele>368.0</ele><time>2026-03-30T13:13:56.715Z</time></trkpt><trkpt lat="42.5389602" lon="12.3753476"><ele>367.75</ele><time>2026-03-30T13:13:57.703Z</time></trkpt><trkpt lat="42.5389809" lon="12.3751812"><ele>367.5</ele><time>2026-03-30T13:13:58.71Z</time></trkpt><trkpt lat="42.5389975" lon="12.3750113"><ele>367.25</ele><time>2026-03-30T13:13:59.71Z</time></trkpt><trkpt lat="42.5390156" lon="12.3748392"><ele>367.0</ele><time>2026-03-30T13:14:00.721Z</time></trkpt><trkpt lat="42.5390375" lon="12.3746677"><ele>368.0</ele><time>2026-03-30T13:14:01.72Z</time></trkpt><trkpt lat="42.5390623" lon="12.3744916"><ele>369.0</ele><time>2026-03-30T13:14:02.704Z</time></trkpt><trkpt lat="42.5390883" lon="12.374313"><ele>370.0</ele><time>2026-03-30T13:14:03.714Z</time></trkpt><trkpt lat="42.5391109" lon="12.3741286"><ele>371.0</ele><time>2026-03-30T13:14:04.707Z</time></trkpt><trkpt lat="42.5391395" lon="12.3739421"><ele>371.5</ele><time>2026-03-30T13:14:05.714Z</time></trkpt><trkpt lat="42.5391663" lon="12.373749"><ele>372.0</ele><time>2026-03-30T13:14:06.714Z</time></trkpt><trkpt lat="42.5391915" lon="12.3735531"><ele>372.5</ele><time>2026-03-30T13:14:07.723Z</time></trkpt><trkpt lat="42.5392159" lon="12.3733546"><ele>373.0</ele><time>2026-03-30T13:14:08.711Z</time></trkpt><trkpt lat="42.5392358" lon="12.3731647"><ele>372.75</ele><time>2026-03-30T13:14:09.723Z</time></trkpt><trkpt lat="42.5392528" lon="12.3729853"><ele>372.5</ele><time>2026-03-30T13:14:10.708Z</time></trkpt><trkpt lat="42.5392731" lon="12.3728098"><ele>372.25</ele><time>2026-03-30T13:14:11.724Z</time></trkpt><trkpt lat="42.5392934" lon="12.3726392"><ele>372.0</ele><time>2026-03-30T13:14:12.716Z</time></trkpt><trkpt lat="42.5393146" lon="12.3724679"><ele>372.0</ele><time>2026-03-30T13:14:13.714Z</time></trkpt><trkpt lat="42.5393321" lon="12.3723022"><ele>372.0</ele><time>2026-03-30T13:14:14.711Z</time></trkpt><trkpt lat="42.5393499" lon="12.3721434"><ele>372.0</ele><time>2026-03-30T13:14:15.703Z</time></trkpt><trkpt lat="42.5393707" lon="12.3719766"><ele>372.0</ele><time>2026-03-30T13:14:16.698Z</time></trkpt><trkpt lat="42.5393948" lon="12.3718043"><ele>372.0</ele><time>2026-03-30T13:14:17.716Z</time></trkpt><trkpt lat="42.5394189" lon="12.3716295"><ele>372.0</ele><time>2026-03-30T13:14:18.719Z</time></trkpt><trkpt lat="42.5394416" lon="12.3714667"><ele>372.0</ele><time>2026-03-30T13:14:19.717Z</time></trkpt><trkpt lat="42.5394656" lon="12.3713143"><ele>372.0</ele><time>2026-03-30T13:14:20.71Z</time></trkpt><trkpt lat="42.5394858" lon="12.3711607"><ele>372.0</ele><time>2026-03-30T13:14:21.703Z</time></trkpt><trkpt lat="42.5394989" lon="12.3710099"><ele>372.0</ele><time>2026-03-30T13:14:22.716Z</time></trkpt><trkpt lat="42.5395119" lon="12.3708622"><ele>372.0</ele><time>2026-03-30T13:14:23.706Z</time></trkpt><trkpt lat="42.5395239" lon="12.3707165"><ele>372.0</ele><time>2026-03-30T13:14:24.716Z</time></trkpt><trkpt lat="42.5395383" lon="12.3705708"><ele>372.0</ele><time>2026-03-30T13:14:25.717Z</time></trkpt><trkpt lat="42.5395582" lon="12.3704237"><ele>371.8</ele><time>2026-03-30T13:14:26.705Z</time></trkpt><trkpt lat="42.5395769" lon="12.3702839"><ele>371.6</ele><time>2026-03-30T13:14:27.712Z</time></trkpt><trkpt lat="42.539593" lon="12.3701521"><ele>371.40000000000003</ele><time>2026-03-30T13:14:28.71Z</time></trkpt><trkpt lat="42.5396074" lon="12.3700259"><ele>371.20000000000005</ele><time>2026-03-30T13:14:29.709Z</time></trkpt><trkpt lat="42.5396255" lon="12.3699082"><ele>371.0</ele><time>2026-03-30T13:14:30.717Z</time></trkpt><trkpt lat="42.5396462" lon="12.3697949"><ele>370.1666666666667</ele><time>2026-03-30T13:14:31.712Z</time></trkpt><trkpt lat="42.5396657" lon="12.369678"><ele>369.33333333333337</ele><time>2026-03-30T13:14:32.707Z</time></trkpt><trkpt lat="42.5396827" lon="12.3695691"><ele>368.5</ele><time>2026-03-30T13:14:33.713Z</time></trkpt><trkpt lat="42.5396965" lon="12.3694646"><ele>367.6666666666667</ele><time>2026-03-30T13:14:34.712Z</time></trkpt><trkpt lat="42.539708" lon="12.3693521"><ele>366.8333333333333</ele><time>2026-03-30T13:14:35.704Z</time></trkpt><trkpt lat="42.5397212" lon="12.3692397"><ele>366.0</ele><time>2026-03-30T13:14:36.711Z</time></trkpt><trkpt lat="42.5397387" lon="12.3691109"><ele>366.0</ele><time>2026-03-30T13:14:37.713Z</time></trkpt><trkpt lat="42.5397585" lon="12.3689636"><ele>366.0</ele><time>2026-03-30T13:14:38.716Z</time></trkpt><trkpt lat="42.5397711" lon="12.3687979"><ele>366.0</ele><time>2026-03-30T13:14:39.711Z</time></trkpt><trkpt lat="42.5397815" lon="12.3686274"><ele>366.0</ele><time>2026-03-30T13:14:40.706Z</time></trkpt><trkpt lat="42.5397988" lon="12.3684481"><ele>364.75</ele><time>2026-03-30T13:14:41.706Z</time></trkpt><trkpt lat="42.53982" lon="12.368274"><ele>363.5</ele><time>2026-03-30T13:14:42.715Z</time></trkpt><trkpt lat="42.5398372" lon="12.3681129"><ele>362.25</ele><time>2026-03-30T13:14:43.713Z</time></trkpt><trkpt lat="42.539853" lon="12.3679471"><ele>361.0</ele><time>2026-03-30T13:14:44.716Z</time></trkpt><trkpt lat="42.5398677" lon="12.3677711"><ele>360.5</ele><time>2026-03-30T13:14:45.723Z</time></trkpt><trkpt lat="42.539874" lon="12.3675983"><ele>360.0</ele><time>2026-03-30T13:14:46.725Z</time></trkpt><trkpt lat="42.5398812" lon="12.3674317"><ele>359.5</ele><time>2026-03-30T13:14:47.718Z</time></trkpt><trkpt lat="42.5398911" lon="12.3672649"><ele>359.0</ele><time>2026-03-30T13:14:48.717Z</time></trkpt><trkpt lat="42.5398968" lon="12.3671037"><ele>359.0</ele><time>2026-03-30T13:14:49.722Z</time></trkpt><trkpt lat="42.5399014" lon="12.36694"><ele>359.0</ele><time>2026-03-30T13:14:50.729Z</time></trkpt><trkpt lat="42.5399063" lon="12.3667673"><ele>359.0</ele><time>2026-03-30T13:14:51.723Z</time></trkpt><trkpt lat="42.5399117" lon="12.3665899"><ele>359.0</ele><time>2026-03-30T13:14:52.719Z</time></trkpt><trkpt lat="42.539917" lon="12.3664066"><ele>357.5</ele><time>2026-03-30T13:14:53.721Z</time></trkpt><trkpt lat="42.5399209" lon="12.3662193"><ele>356.0</ele><time>2026-03-30T13:14:54.72Z</time></trkpt><trkpt lat="42.5399281" lon="12.3660389"><ele>354.5</ele><time>2026-03-30T13:14:55.717Z</time></trkpt><trkpt lat="42.5399356" lon="12.365873"><ele>353.0</ele><time>2026-03-30T13:14:56.719Z</time></trkpt><trkpt lat="42.5399404" lon="12.3657158"><ele>353.0</ele><time>2026-03-30T13:14:57.72Z</time></trkpt><trkpt lat="42.5399425" lon="12.3655688"><ele>353.0</ele><time>2026-03-30T13:14:58.701Z</time></trkpt><trkpt lat="42.5399423" lon="12.3654225"><ele>353.0</ele><time>2026-03-30T13:15:00.41Z</time></trkpt><trkpt lat="42.5399322" lon="12.365137"><ele>353.0</ele><time>2026-03-30T13:15:01.701Z</time></trkpt><trkpt lat="42.5399229" lon="12.3649979"><ele>352.4</ele><time>2026-03-30T13:15:02.699Z</time></trkpt><trkpt lat="42.5399067" lon="12.3648728"><ele>351.79999999999995</ele><time>2026-03-30T13:15:03.701Z</time></trkpt><trkpt lat="42.5398736" lon="12.3647552"><ele>351.2</ele><time>2026-03-30T13:15:04.719Z</time></trkpt><trkpt lat="42.5398171" lon="12.3646443"><ele>350.6</ele><time>2026-03-30T13:15:05.712Z</time></trkpt><trkpt lat="42.5397455" lon="12.3645399"><ele>350.0</ele><time>2026-03-30T13:15:06.713Z</time></trkpt><trkpt lat="42.5396631" lon="12.3644407"><ele>350.0</ele><time>2026-03-30T13:15:07.718Z</time></trkpt><trkpt lat="42.5395707" lon="12.3643483"><ele>350.0</ele><time>2026-03-30T13:15:08.712Z</time></trkpt><trkpt lat="42.5394743" lon="12.3642566"><ele>350.0</ele><time>2026-03-30T13:15:09.716Z</time></trkpt><trkpt lat="42.5393743" lon="12.3641659"><ele>350.0</ele><time>2026-03-30T13:15:10.716Z</time></trkpt><trkpt lat="42.5392754" lon="12.364075"><ele>350.5</ele><time>2026-03-30T13:15:11.718Z</time></trkpt><trkpt lat="42.5391712" lon="12.3639867"><ele>351.0</ele><time>2026-03-30T13:15:12.712Z</time></trkpt><trkpt lat="42.5390664" lon="12.3638956"><ele>351.5</ele><time>2026-03-30T13:15:13.712Z</time></trkpt><trkpt lat="42.5389577" lon="12.3637962"><ele>352.0</ele><time>2026-03-30T13:15:14.72Z</time></trkpt><trkpt lat="42.5388483" lon="12.3636942"><ele>353.0</ele><time>2026-03-30T13:15:15.719Z</time></trkpt><trkpt lat="42.5387448" lon="12.3635959"><ele>354.0</ele><time>2026-03-30T13:15:16.692Z</time></trkpt><trkpt lat="42.5386438" lon="12.3635068"><ele>355.0</ele><time>2026-03-30T13:15:17.714Z</time></trkpt><trkpt lat="42.53855" lon="12.363428"><ele>356.0</ele><time>2026-03-30T13:15:18.718Z</time></trkpt><trkpt lat="42.5384612" lon="12.3633591"><ele>356.0</ele><time>2026-03-30T13:15:19.72Z</time></trkpt><trkpt lat="42.538363" lon="12.3632861"><ele>356.0</ele><time>2026-03-30T13:15:20.713Z</time></trkpt><trkpt lat="42.538265" lon="12.3632143"><ele>356.0</ele><time>2026-03-30T13:15:21.718Z</time></trkpt><trkpt lat="42.5381705" lon="12.3631333"><ele>356.0</ele><time>2026-03-30T13:15:22.707Z</time></trkpt><trkpt lat="42.5380816" lon="12.3630457"><ele>356.0</ele><time>2026-03-30T13:15:23.71Z</time></trkpt><trkpt lat="42.5379859" lon="12.3629479"><ele>356.4</ele><time>2026-03-30T13:15:24.708Z</time></trkpt><trkpt lat="42.5378954" lon="12.3628494"><ele>356.8</ele><time>2026-03-30T13:15:25.721Z</time></trkpt><trkpt lat="42.5378161" lon="12.3627521"><ele>357.2</ele><time>2026-03-30T13:15:26.699Z</time></trkpt><trkpt lat="42.5377437" lon="12.3626518"><ele>357.59999999999997</ele><time>2026-03-30T13:15:27.717Z</time></trkpt><trkpt lat="42.5376808" lon="12.3625398"><ele>358.0</ele><time>2026-03-30T13:15:28.719Z</time></trkpt><trkpt lat="42.537626" lon="12.3624207"><ele>357.0</ele><time>2026-03-30T13:15:29.722Z</time></trkpt><trkpt lat="42.5375768" lon="12.3622886"><ele>356.0</ele><time>2026-03-30T13:15:30.717Z</time></trkpt><trkpt lat="42.5375433" lon="12.362128"><ele>355.0</ele><time>2026-03-30T13:15:31.72Z</time></trkpt><trkpt lat="42.5375181" lon="12.3619563"><ele>354.0</ele><time>2026-03-30T13:15:32.718Z</time></trkpt><trkpt lat="42.537491" lon="12.3617979"><ele>353.4</ele><time>2026-03-30T13:15:33.724Z</time></trkpt><trkpt lat="42.5374653" lon="12.3616506"><ele>352.79999999999995</ele><time>2026-03-30T13:15:34.716Z</time></trkpt><trkpt lat="42.5374398" lon="12.3615109"><ele>352.20000000000005</ele><time>2026-03-30T13:15:35.725Z</time></trkpt><trkpt lat="42.5374127" lon="12.3613792"><ele>351.6</ele><time>2026-03-30T13:15:36.693Z</time></trkpt><trkpt lat="42.5373918" lon="12.3612627"><ele>351.0</ele><time>2026-03-30T13:15:37.717Z</time></trkpt><trkpt lat="42.537373" lon="12.3611633"><ele>350.4</ele><time>2026-03-30T13:15:38.709Z</time></trkpt><trkpt lat="42.5373592" lon="12.361073"><ele>349.8</ele><time>2026-03-30T13:15:39.721Z</time></trkpt><trkpt lat="42.5373449" lon="12.3609174"><ele>349.2</ele><time>2026-03-30T13:15:41.716Z</time></trkpt><trkpt lat="42.537353" lon="12.3608024"><ele>348.59999999999997</ele><time>2026-03-30T13:15:43.709Z</time></trkpt><trkpt lat="42.5374501" lon="12.3606853"><ele>348.0</ele><time>2026-03-30T13:15:45.697Z</time></trkpt><trkpt lat="42.5375452" lon="12.3606414"><ele>348.0</ele><time>2026-03-30T13:15:46.717Z</time></trkpt><trkpt lat="42.5376568" lon="12.3605919"><ele>348.0</ele><time>2026-03-30T13:15:47.697Z</time></trkpt><trkpt lat="42.5377781" lon="12.3605229"><ele>348.0</ele><time>2026-03-30T13:15:48.703Z</time></trkpt><trkpt lat="42.537904" lon="12.3604325"><ele>348.0</ele><time>2026-03-30T13:15:49.71Z</time></trkpt><trkpt lat="42.5380337" lon="12.3603328"><ele>347.75</ele><time>2026-03-30T13:15:50.721Z</time></trkpt><trkpt lat="42.5381635" lon="12.3602409"><ele>347.5</ele><time>2026-03-30T13:15:51.707Z</time></trkpt><trkpt lat="42.5382831" lon="12.3601584"><ele>347.25</ele><time>2026-03-30T13:15:52.711Z</time></trkpt><trkpt lat="42.5384038" lon="12.3600735"><ele>347.0</ele><time>2026-03-30T13:15:53.718Z</time></trkpt><trkpt lat="42.5385294" lon="12.3599832"><ele>347.0</ele><time>2026-03-30T13:15:54.708Z</time></trkpt><trkpt lat="42.5386541" lon="12.3598957"><ele>347.0</ele><time>2026-03-30T13:15:55.721Z</time></trkpt><trkpt lat="42.5387792" lon="12.3598117"><ele>347.0</ele><time>2026-03-30T13:15:56.728Z</time></trkpt><trkpt lat="42.5389079" lon="12.3597169"><ele>347.0</ele><time>2026-03-30T13:15:57.714Z</time></trkpt><trkpt lat="42.5390382" lon="12.3596232"><ele>347.5</ele><time>2026-03-30T13:15:58.718Z</time></trkpt><trkpt lat="42.5391664" lon="12.3595279"><ele>348.0</ele><time>2026-03-30T13:15:59.724Z</time></trkpt><trkpt lat="42.5392961" lon="12.359434"><ele>348.5</ele><time>2026-03-30T13:16:00.703Z</time></trkpt><trkpt lat="42.5394263" lon="12.3593361"><ele>349.0</ele><time>2026-03-30T13:16:01.716Z</time></trkpt><trkpt lat="42.5395578" lon="12.3592433"><ele>350.0</ele><time>2026-03-30T13:16:02.719Z</time></trkpt><trkpt lat="42.5396889" lon="12.3591467"><ele>351.0</ele><time>2026-03-30T13:16:03.713Z</time></trkpt><trkpt lat="42.5398199" lon="12.3590524"><ele>352.0</ele><time>2026-03-30T13:16:04.719Z</time></trkpt><trkpt lat="42.5399529" lon="12.3589586"><ele>353.0</ele><time>2026-03-30T13:16:05.722Z</time></trkpt><trkpt lat="42.5400855" lon="12.3588624"><ele>353.0</ele><time>2026-03-30T13:16:06.719Z</time></trkpt><trkpt lat="42.5402107" lon="12.3587726"><ele>353.0</ele><time>2026-03-30T13:16:07.718Z</time></trkpt><trkpt lat="42.5403189" lon="12.3586877"><ele>353.0</ele><time>2026-03-30T13:16:08.715Z</time></trkpt><trkpt lat="42.5404228" lon="12.3586063"><ele>353.0</ele><time>2026-03-30T13:16:09.709Z</time></trkpt><trkpt lat="42.5405167" lon="12.3585318"><ele>354.1666666666667</ele><time>2026-03-30T13:16:10.717Z</time></trkpt><trkpt lat="42.5406036" lon="12.3584668"><ele>355.33333333333337</ele><time>2026-03-30T13:16:11.713Z</time></trkpt><trkpt lat="42.5406862" lon="12.3584126"><ele>356.5</ele><time>2026-03-30T13:16:12.711Z</time></trkpt><trkpt lat="42.5407563" lon="12.358363"><ele>357.6666666666667</ele><time>2026-03-30T13:16:13.717Z</time></trkpt><trkpt lat="42.5408137" lon="12.3583227"><ele>358.8333333333333</ele><time>2026-03-30T13:16:14.714Z</time></trkpt><trkpt lat="42.5409137" lon="12.3583238"><ele>360.0</ele><time>2026-03-30T13:16:16.706Z</time></trkpt><trkpt lat="42.5409631" lon="12.3584484"><ele>360.0</ele><time>2026-03-30T13:16:18.706Z</time></trkpt><trkpt lat="42.5409864" lon="12.3585337"><ele>360.0</ele><time>2026-03-30T13:16:19.716Z</time></trkpt><trkpt lat="42.5410096" lon="12.3586366"><ele>360.0</ele><time>2026-03-30T13:16:20.705Z</time></trkpt><trkpt lat="42.5410385" lon="12.358753"><ele>360.0</ele><time>2026-03-30T13:16:21.721Z</time></trkpt><trkpt lat="42.5410678" lon="12.3588787"><ele>360.0</ele><time>2026-03-30T13:16:22.711Z</time></trkpt><trkpt lat="42.5410974" lon="12.3590126"><ele>360.0</ele><time>2026-03-30T13:16:23.715Z</time></trkpt><trkpt lat="42.5411472" lon="12.3591563"><ele>360.0</ele><time>2026-03-30T13:16:24.712Z</time></trkpt><trkpt lat="42.5412136" lon="12.3593275"><ele>360.0</ele><time>2026-03-30T13:16:25.724Z</time></trkpt><trkpt lat="42.54128" lon="12.3594919"><ele>360.0</ele><time>2026-03-30T13:16:26.711Z</time></trkpt><trkpt lat="42.5413463" lon="12.3596517"><ele>360.0</ele><time>2026-03-30T13:16:27.722Z</time></trkpt><trkpt lat="42.5414141" lon="12.3598034"><ele>361.0</ele><time>2026-03-30T13:16:28.716Z</time></trkpt><trkpt lat="42.5414781" lon="12.3599475"><ele>362.0</ele><time>2026-03-30T13:16:29.722Z</time></trkpt><trkpt lat="42.5415461" lon="12.3601014"><ele>363.0</ele><time>2026-03-30T13:16:30.713Z</time></trkpt><trkpt lat="42.5416114" lon="12.3602572"><ele>364.0</ele><time>2026-03-30T13:16:31.715Z</time></trkpt><trkpt lat="42.5416925" lon="12.36041"><ele>364.5</ele><time>2026-03-30T13:16:32.722Z</time></trkpt><trkpt lat="42.5417701" lon="12.3605464"><ele>365.0</ele><time>2026-03-30T13:16:33.698Z</time></trkpt><trkpt lat="42.5418418" lon="12.3606695"><ele>365.5</ele><time>2026-03-30T13:16:34.714Z</time></trkpt><trkpt lat="42.5419105" lon="12.3607901"><ele>366.0</ele><time>2026-03-30T13:16:35.713Z</time></trkpt><trkpt lat="42.5419688" lon="12.3609169"><ele>366.0</ele><time>2026-03-30T13:16:36.72Z</time></trkpt><trkpt lat="42.5420304" lon="12.3610412"><ele>366.0</ele><time>2026-03-30T13:16:37.713Z</time></trkpt><trkpt lat="42.5420885" lon="12.361157"><ele>366.0</ele><time>2026-03-30T13:16:38.715Z</time></trkpt><trkpt lat="42.5421428" lon="12.3612638"><ele>366.0</ele><time>2026-03-30T13:16:39.711Z</time></trkpt><trkpt lat="42.5422096" lon="12.3613699"><ele>366.0</ele><time>2026-03-30T13:16:40.724Z</time></trkpt><trkpt lat="42.542301" lon="12.3614728"><ele>366.0</ele><time>2026-03-30T13:16:41.72Z</time></trkpt><trkpt lat="42.5424101" lon="12.3615846"><ele>366.0</ele><time>2026-03-30T13:16:42.718Z</time></trkpt><trkpt lat="42.5425279" lon="12.3617049"><ele>366.0</ele><time>2026-03-30T13:16:43.723Z</time></trkpt><trkpt lat="42.5426546" lon="12.3618291"><ele>366.0</ele><time>2026-03-30T13:16:44.708Z</time></trkpt><trkpt lat="42.5427755" lon="12.3619535"><ele>365.5</ele><time>2026-03-30T13:16:45.723Z</time></trkpt><trkpt lat="42.5428864" lon="12.3620656"><ele>365.0</ele><time>2026-03-30T13:16:46.722Z</time></trkpt><trkpt lat="42.5429982" lon="12.362172"><ele>364.5</ele><time>2026-03-30T13:16:47.72Z</time></trkpt><trkpt lat="42.5431077" lon="12.3622734"><ele>364.0</ele><time>2026-03-30T13:16:48.715Z</time></trkpt><trkpt lat="42.543219" lon="12.3623718"><ele>364.0</ele><time>2026-03-30T13:16:49.727Z</time></trkpt><trkpt lat="42.5433322" lon="12.3624839"><ele>364.0</ele><time>2026-03-30T13:16:50.721Z</time></trkpt><trkpt lat="42.5434466" lon="12.3626048"><ele>364.0</ele><time>2026-03-30T13:16:51.719Z</time></trkpt><trkpt lat="42.5435606" lon="12.362737"><ele>364.0</ele><time>2026-03-30T13:16:52.707Z</time></trkpt><trkpt lat="42.5436705" lon="12.3628583"><ele>364.5</ele><time>2026-03-30T13:16:53.719Z</time></trkpt><trkpt lat="42.5437768" lon="12.3629715"><ele>365.0</ele><time>2026-03-30T13:16:54.726Z</time></trkpt><trkpt lat="42.54388" lon="12.3630923"><ele>365.5</ele><time>2026-03-30T13:16:55.721Z</time></trkpt><trkpt lat="42.5439814" lon="12.3632182"><ele>366.0</ele><time>2026-03-30T13:16:56.712Z</time></trkpt><trkpt lat="42.5440859" lon="12.3633407"><ele>366.0</ele><time>2026-03-30T13:16:57.723Z</time></trkpt><trkpt lat="42.5441918" lon="12.363463"><ele>366.0</ele><time>2026-03-30T13:16:58.722Z</time></trkpt><trkpt lat="42.544296" lon="12.3635879"><ele>366.0</ele><time>2026-03-30T13:16:59.718Z</time></trkpt><trkpt lat="42.5443993" lon="12.3637111"><ele>366.0</ele><time>2026-03-30T13:17:00.724Z</time></trkpt><trkpt lat="42.5445019" lon="12.3638321"><ele>368.5</ele><time>2026-03-30T13:17:01.718Z</time></trkpt><trkpt lat="42.5446043" lon="12.3639607"><ele>371.0</ele><time>2026-03-30T13:17:02.718Z</time></trkpt><trkpt lat="42.5447087" lon="12.3641092"><ele>373.5</ele><time>2026-03-30T13:17:03.715Z</time></trkpt><trkpt lat="42.5447965" lon="12.3642506"><ele>376.0</ele><time>2026-03-30T13:17:04.706Z</time></trkpt><trkpt lat="42.5448827" lon="12.3643664"><ele>376.0</ele><time>2026-03-30T13:17:05.719Z</time></trkpt><trkpt lat="42.5449749" lon="12.364468"><ele>376.0</ele><time>2026-03-30T13:17:06.717Z</time></trkpt><trkpt lat="42.545076" lon="12.3645547"><ele>376.0</ele><time>2026-03-30T13:17:07.721Z</time></trkpt><trkpt lat="42.5451846" lon="12.3646289"><ele>376.0</ele><time>2026-03-30T13:17:08.709Z</time></trkpt><trkpt lat="42.5452847" lon="12.3646847"><ele>376.16666666666663</ele><time>2026-03-30T13:17:09.712Z</time></trkpt><trkpt lat="42.5453656" lon="12.3647241"><ele>376.3333333333333</ele><time>2026-03-30T13:17:10.718Z</time></trkpt><trkpt lat="42.54544" lon="12.364755"><ele>376.5</ele><time>2026-03-30T13:17:11.692Z</time></trkpt><trkpt lat="42.5454999" lon="12.3647984"><ele>376.6666666666667</ele><time>2026-03-30T13:17:12.715Z</time></trkpt><trkpt lat="42.5455437" lon="12.3648699"><ele>376.83333333333337</ele><time>2026-03-30T13:17:13.712Z</time></trkpt><trkpt lat="42.5455797" lon="12.3649661"><ele>377.0</ele><time>2026-03-30T13:17:14.712Z</time></trkpt><trkpt lat="42.5456136" lon="12.3650851"><ele>377.0</ele><time>2026-03-30T13:17:15.698Z</time></trkpt><trkpt lat="42.5456326" lon="12.365212"><ele>377.0</ele><time>2026-03-30T13:17:16.7Z</time></trkpt><trkpt lat="42.545651" lon="12.3653444"><ele>377.0</ele><time>2026-03-30T13:17:17.714Z</time></trkpt><trkpt lat="42.5456744" lon="12.365476"><ele>377.0</ele><time>2026-03-30T13:17:18.694Z</time></trkpt><trkpt lat="42.5457076" lon="12.3656208"><ele>377.0</ele><time>2026-03-30T13:17:19.717Z</time></trkpt><trkpt lat="42.5457399" lon="12.3657778"><ele>374.75</ele><time>2026-03-30T13:17:20.708Z</time></trkpt><trkpt lat="42.5457744" lon="12.3659331"><ele>372.5</ele><time>2026-03-30T13:17:21.719Z</time></trkpt><trkpt lat="42.5458004" lon="12.3660893"><ele>370.25</ele><time>2026-03-30T13:17:22.714Z</time></trkpt><trkpt lat="42.5458237" lon="12.3662538"><ele>368.0</ele><time>2026-03-30T13:17:23.715Z</time></trkpt><trkpt lat="42.5458521" lon="12.3664128"><ele>367.79999999999995</ele><time>2026-03-30T13:17:24.708Z</time></trkpt><trkpt lat="42.54588" lon="12.3665568"><ele>367.6</ele><time>2026-03-30T13:17:25.694Z</time></trkpt><trkpt lat="42.5459073" lon="12.3667003"><ele>367.4</ele><time>2026-03-30T13:17:26.695Z</time></trkpt><trkpt lat="42.5459368" lon="12.3668482"><ele>367.20000000000005</ele><time>2026-03-30T13:17:27.71Z</time></trkpt><trkpt lat="42.5459665" lon="12.3669873"><ele>367.0</ele><time>2026-03-30T13:17:28.713Z</time></trkpt><trkpt lat="42.5459911" lon="12.3671178"><ele>367.16666666666663</ele><time>2026-03-30T13:17:29.701Z</time></trkpt><trkpt lat="42.5460113" lon="12.3672435"><ele>367.3333333333333</ele><time>2026-03-30T13:17:30.714Z</time></trkpt><trkpt lat="42.5460315" lon="12.3673659"><ele>367.5</ele><time>2026-03-30T13:17:31.698Z</time></trkpt><trkpt lat="42.5460523" lon="12.3674812"><ele>367.6666666666667</ele><time>2026-03-30T13:17:32.699Z</time></trkpt><trkpt lat="42.5460719" lon="12.3675886"><ele>367.83333333333337</ele><time>2026-03-30T13:17:33.7Z</time></trkpt><trkpt lat="42.5460902" lon="12.3676944"><ele>368.0</ele><time>2026-03-30T13:17:34.7Z</time></trkpt><trkpt lat="42.546105" lon="12.3678036"><ele>368.0</ele><time>2026-03-30T13:17:35.703Z</time></trkpt><trkpt lat="42.54612" lon="12.3678974"><ele>368.0</ele><time>2026-03-30T13:17:36.702Z</time></trkpt><trkpt lat="42.5461467" lon="12.3680313"><ele>368.0</ele><time>2026-03-30T13:17:38.704Z</time></trkpt><trkpt lat="42.546209" lon="12.368082"><ele>368.0</ele><time>2026-03-30T13:17:40.7Z</time></trkpt><trkpt lat="42.5462856" lon="12.3679959"><ele>368.0</ele><time>2026-03-30T13:17:42.692Z</time></trkpt><trkpt lat="42.5463126" lon="12.3679145"><ele>368.0</ele><time>2026-03-30T13:17:43.697Z</time></trkpt><trkpt lat="42.5463439" lon="12.367827"><ele>368.59999999999997</ele><time>2026-03-30T13:17:44.727Z</time></trkpt><trkpt lat="42.5463962" lon="12.3677138"><ele>369.2</ele><time>2026-03-30T13:17:45.696Z</time></trkpt><trkpt lat="42.5464665" lon="12.3675916"><ele>369.8</ele><time>2026-03-30T13:17:46.706Z</time></trkpt><trkpt lat="42.5465297" lon="12.3674668"><ele>370.4</ele><time>2026-03-30T13:17:47.696Z</time></trkpt><trkpt lat="42.5465888" lon="12.367349"><ele>371.0</ele><time>2026-03-30T13:17:48.707Z</time></trkpt><trkpt lat="42.5466608" lon="12.3672447"><ele>371.4</ele><time>2026-03-30T13:17:49.722Z</time></trkpt><trkpt lat="42.5467332" lon="12.367153"><ele>371.8</ele><time>2026-03-30T13:17:50.718Z</time></trkpt><trkpt lat="42.5468059" lon="12.3670762"><ele>372.2</ele><time>2026-03-30T13:17:51.709Z</time></trkpt><trkpt lat="42.5468867" lon="12.3670231"><ele>372.59999999999997</ele><time>2026-03-30T13:17:52.709Z</time></trkpt><trkpt lat="42.5469757" lon="12.3669827"><ele>373.0</ele><time>2026-03-30T13:17:53.71Z</time></trkpt><trkpt lat="42.5470779" lon="12.3669617"><ele>373.79999999999995</ele><time>2026-03-30T13:17:54.709Z</time></trkpt><trkpt lat="42.5471823" lon="12.3669457"><ele>374.6</ele><time>2026-03-30T13:17:55.731Z</time></trkpt><trkpt lat="42.547289" lon="12.3669296"><ele>375.4</ele><time>2026-03-30T13:17:56.712Z</time></trkpt><trkpt lat="42.5473849" lon="12.3668996"><ele>376.20000000000005</ele><time>2026-03-30T13:17:57.719Z</time></trkpt><trkpt lat="42.5474675" lon="12.3668624"><ele>377.0</ele><time>2026-03-30T13:17:58.715Z</time></trkpt><trkpt lat="42.5475361" lon="12.3668303"><ele>377.0</ele><time>2026-03-30T13:17:59.717Z</time></trkpt><trkpt lat="42.5476014" lon="12.3668012"><ele>377.0</ele><time>2026-03-30T13:18:00.711Z</time></trkpt><trkpt lat="42.5476632" lon="12.366771"><ele>377.0</ele><time>2026-03-30T13:18:01.722Z</time></trkpt><trkpt lat="42.5477221" lon="12.3667321"><ele>377.0</ele><time>2026-03-30T13:18:02.713Z</time></trkpt><trkpt lat="42.5478324" lon="12.3666472"><ele>377.0</ele><time>2026-03-30T13:18:04.709Z</time></trkpt><trkpt lat="42.5478926" lon="12.3666115"><ele>377.0</ele><time>2026-03-30T13:18:05.722Z</time></trkpt><trkpt lat="42.5479598" lon="12.3665973"><ele>377.1666666666667</ele><time>2026-03-30T13:18:06.717Z</time></trkpt><trkpt lat="42.5480352" lon="12.3666002"><ele>377.33333333333337</ele><time>2026-03-30T13:18:07.727Z</time></trkpt><trkpt lat="42.5481132" lon="12.3666076"><ele>377.5</ele><time>2026-03-30T13:18:08.714Z</time></trkpt><trkpt lat="42.548189" lon="12.3666234"><ele>377.6666666666667</ele><time>2026-03-30T13:18:09.72Z</time></trkpt><trkpt lat="42.5482678" lon="12.3666448"><ele>377.8333333333333</ele><time>2026-03-30T13:18:10.723Z</time></trkpt><trkpt lat="42.5483464" lon="12.3666655"><ele>378.0</ele><time>2026-03-30T13:18:11.7Z</time></trkpt><trkpt lat="42.54842" lon="12.3666749"><ele>378.0</ele><time>2026-03-30T13:18:12.717Z</time></trkpt><trkpt lat="42.5484974" lon="12.3666585"><ele>378.0</ele><time>2026-03-30T13:18:13.715Z</time></trkpt><trkpt lat="42.5485822" lon="12.3666173"><ele>378.0</ele><time>2026-03-30T13:18:14.721Z</time></trkpt><trkpt lat="42.5486685" lon="12.3665627"><ele>378.0</ele><time>2026-03-30T13:18:15.723Z</time></trkpt><trkpt lat="42.5487668" lon="12.366502"><ele>378.0</ele><time>2026-03-30T13:18:16.722Z</time></trkpt><trkpt lat="42.5488677" lon="12.3664382"><ele>377.79999999999995</ele><time>2026-03-30T13:18:17.726Z</time></trkpt><trkpt lat="42.5489647" lon="12.3663712"><ele>377.6</ele><time>2026-03-30T13:18:18.717Z</time></trkpt><trkpt lat="42.549049" lon="12.3663136"><ele>377.4</ele><time>2026-03-30T13:18:19.716Z</time></trkpt><trkpt lat="42.5491287" lon="12.3662617"><ele>377.20000000000005</ele><time>2026-03-30T13:18:20.717Z</time></trkpt><trkpt lat="42.5492104" lon="12.366222"><ele>377.0</ele><time>2026-03-30T13:18:21.72Z</time></trkpt><trkpt lat="42.5493014" lon="12.3661962"><ele>378.0</ele><time>2026-03-30T13:18:22.706Z</time></trkpt><trkpt lat="42.5493963" lon="12.3661868"><ele>379.0</ele><time>2026-03-30T13:18:23.721Z</time></trkpt><trkpt lat="42.549485" lon="12.3661822"><ele>380.0</ele><time>2026-03-30T13:18:25.504Z</time></trkpt><trkpt lat="42.5496629" lon="12.366177"><ele>381.0</ele><time>2026-03-30T13:18:26.708Z</time></trkpt><trkpt lat="42.5497553" lon="12.3661556"><ele>381.0</ele><time>2026-03-30T13:18:27.697Z</time></trkpt><trkpt lat="42.5498432" lon="12.3661339"><ele>381.0</ele><time>2026-03-30T13:18:28.703Z</time></trkpt><trkpt lat="42.5499252" lon="12.3661159"><ele>381.0</ele><time>2026-03-30T13:18:29.7Z</time></trkpt><trkpt lat="42.5500083" lon="12.3660958"><ele>381.0</ele><time>2026-03-30T13:18:30.707Z</time></trkpt><trkpt lat="42.5501018" lon="12.3660512"><ele>381.0</ele><time>2026-03-30T13:18:31.706Z</time></trkpt><trkpt lat="42.5502008" lon="12.3659817"><ele>381.0</ele><time>2026-03-30T13:18:32.69Z</time></trkpt><trkpt lat="42.5502989" lon="12.365901"><ele>381.0</ele><time>2026-03-30T13:18:33.714Z</time></trkpt><trkpt lat="42.5503895" lon="12.365821"><ele>381.0</ele><time>2026-03-30T13:18:34.718Z</time></trkpt><trkpt lat="42.5504742" lon="12.365749"><ele>381.0</ele><time>2026-03-30T13:18:35.719Z</time></trkpt><trkpt lat="42.5505565" lon="12.3656833"><ele>381.0</ele><time>2026-03-30T13:18:36.705Z</time></trkpt><trkpt lat="42.5506341" lon="12.3656105"><ele>380.8</ele><time>2026-03-30T13:18:37.696Z</time></trkpt><trkpt lat="42.5507048" lon="12.3655269"><ele>380.6</ele><time>2026-03-30T13:18:38.71Z</time></trkpt><trkpt lat="42.5507576" lon="12.3654324"><ele>380.4</ele><time>2026-03-30T13:18:39.697Z</time></trkpt><trkpt lat="42.5507887" lon="12.365323"><ele>380.2</ele><time>2026-03-30T13:18:40.705Z</time></trkpt><trkpt lat="42.5507983" lon="12.365196"><ele>380.0</ele><time>2026-03-30T13:18:41.71Z</time></trkpt><trkpt lat="42.5507912" lon="12.3650675"><ele>380.0</ele><time>2026-03-30T13:18:42.718Z</time></trkpt><trkpt lat="42.550786" lon="12.3649425"><ele>380.0</ele><time>2026-03-30T13:18:43.706Z</time></trkpt><trkpt lat="42.5507931" lon="12.3648277"><ele>380.0</ele><time>2026-03-30T13:18:44.723Z</time></trkpt><trkpt lat="42.5508252" lon="12.364721"><ele>380.0</ele><time>2026-03-30T13:18:45.712Z</time></trkpt><trkpt lat="42.5508705" lon="12.3646377"><ele>380.0</ele><time>2026-03-30T13:18:46.703Z</time></trkpt><trkpt lat="42.5509167" lon="12.3645646"><ele>380.0</ele><time>2026-03-30T13:18:47.709Z</time></trkpt><trkpt lat="42.5509652" lon="12.3644873"><ele>379.33333333333337</ele><time>2026-03-30T13:18:48.711Z</time></trkpt><trkpt lat="42.5510186" lon="12.3644139"><ele>378.6666666666667</ele><time>2026-03-30T13:18:49.704Z</time></trkpt><trkpt lat="42.5510878" lon="12.3643365"><ele>378.0</ele><time>2026-03-30T13:18:50.702Z</time></trkpt><trkpt lat="42.551163" lon="12.3642663"><ele>377.3333333333333</ele><time>2026-03-30T13:18:51.709Z</time></trkpt><trkpt lat="42.5512399" lon="12.3642102"><ele>376.66666666666663</ele><time>2026-03-30T13:18:52.706Z</time></trkpt><trkpt lat="42.5513189" lon="12.3641584"><ele>376.0</ele><time>2026-03-30T13:18:53.714Z</time></trkpt><trkpt lat="42.5514" lon="12.364098"><ele>376.0</ele><time>2026-03-30T13:18:54.702Z</time></trkpt><trkpt lat="42.5514808" lon="12.3639952"><ele>376.0</ele><time>2026-03-30T13:18:55.708Z</time></trkpt><trkpt lat="42.5515606" lon="12.3638697"><ele>376.0</ele><time>2026-03-30T13:18:56.705Z</time></trkpt><trkpt lat="42.551643" lon="12.3637405"><ele>376.0</ele><time>2026-03-30T13:18:57.705Z</time></trkpt><trkpt lat="42.5517242" lon="12.363623"><ele>376.4</ele><time>2026-03-30T13:18:58.703Z</time></trkpt><trkpt lat="42.551805" lon="12.363509"><ele>376.8</ele><time>2026-03-30T13:18:59.716Z</time></trkpt><trkpt lat="42.5518823" lon="12.3633936"><ele>377.2</ele><time>2026-03-30T13:19:00.696Z</time></trkpt><trkpt lat="42.5519527" lon="12.3632936"><ele>377.59999999999997</ele><time>2026-03-30T13:19:01.711Z</time></trkpt><trkpt lat="42.5520144" lon="12.3632054"><ele>378.0</ele><time>2026-03-30T13:19:02.702Z</time></trkpt><trkpt lat="42.5520759" lon="12.3631243"><ele>378.0</ele><time>2026-03-30T13:19:03.702Z</time></trkpt><trkpt lat="42.5521414" lon="12.3630389"><ele>378.0</ele><time>2026-03-30T13:19:04.709Z</time></trkpt><trkpt lat="42.5522131" lon="12.3629363"><ele>378.0</ele><time>2026-03-30T13:19:05.703Z</time></trkpt><trkpt lat="42.5522763" lon="12.362832"><ele>378.0</ele><time>2026-03-30T13:19:06.72Z</time></trkpt><trkpt lat="42.5523354" lon="12.3627241"><ele>378.0</ele><time>2026-03-30T13:19:07.72Z</time></trkpt><trkpt lat="42.5523769" lon="12.362624"><ele>380.0</ele><time>2026-03-30T13:19:08.716Z</time></trkpt><trkpt lat="42.5524159" lon="12.3625232"><ele>382.0</ele><time>2026-03-30T13:19:09.716Z</time></trkpt><trkpt lat="42.5524529" lon="12.3624136"><ele>384.0</ele><time>2026-03-30T13:19:10.719Z</time></trkpt><trkpt lat="42.5524829" lon="12.3623059"><ele>386.0</ele><time>2026-03-30T13:19:11.707Z</time></trkpt><trkpt lat="42.552514" lon="12.3621993"><ele>388.0</ele><time>2026-03-30T13:19:12.711Z</time></trkpt><trkpt lat="42.5525446" lon="12.362092"><ele>390.0</ele><time>2026-03-30T13:19:13.718Z</time></trkpt><trkpt lat="42.5525738" lon="12.3619829"><ele>391.4</ele><time>2026-03-30T13:19:14.716Z</time></trkpt><trkpt lat="42.5525981" lon="12.3618701"><ele>392.8</ele><time>2026-03-30T13:19:15.707Z</time></trkpt><trkpt lat="42.552609" lon="12.3617388"><ele>394.20000000000005</ele><time>2026-03-30T13:19:16.707Z</time></trkpt><trkpt lat="42.5526036" lon="12.3616051"><ele>395.6</ele><time>2026-03-30T13:19:17.71Z</time></trkpt><trkpt lat="42.552586" lon="12.3614718"><ele>397.0</ele><time>2026-03-30T13:19:18.709Z</time></trkpt><trkpt lat="42.5525648" lon="12.3613459"><ele>397.6666666666667</ele><time>2026-03-30T13:19:19.707Z</time></trkpt><trkpt lat="42.5525457" lon="12.36123"><ele>398.33333333333337</ele><time>2026-03-30T13:19:20.714Z</time></trkpt><trkpt lat="42.552525" lon="12.3611006"><ele>399.0</ele><time>2026-03-30T13:19:21.718Z</time></trkpt><trkpt lat="42.5525042" lon="12.3609711"><ele>399.66666666666663</ele><time>2026-03-30T13:19:22.709Z</time></trkpt><trkpt lat="42.5524846" lon="12.3608525"><ele>400.3333333333333</ele><time>2026-03-30T13:19:23.706Z</time></trkpt><trkpt lat="42.5524761" lon="12.3607629"><ele>401.0</ele><time>2026-03-30T13:19:24.716Z</time></trkpt><trkpt lat="42.5524329" lon="12.3606495"><ele>400.99999999999994</ele><time>2026-03-30T13:19:26.716Z</time></trkpt><trkpt lat="42.5523587" lon="12.3606627"><ele>401.0</ele><time>2026-03-30T13:19:28.708Z</time></trkpt><trkpt lat="42.5523114" lon="12.3607235"><ele>401.0</ele><time>2026-03-30T13:19:30.696Z</time></trkpt><trkpt lat="42.5522528" lon="12.360795"><ele>401.0</ele><time>2026-03-30T13:19:33.652Z</time></trkpt><trkpt lat="42.5521594" lon="12.3608383"><ele>400.99999999999994</ele><time>2026-03-30T13:19:34.699Z</time></trkpt><trkpt lat="42.5520612" lon="12.3608563"><ele>401.0</ele><time>2026-03-30T13:19:36.711Z</time></trkpt><trkpt lat="42.5519729" lon="12.3609349"><ele>402.20000000000005</ele><time>2026-03-30T13:19:38.701Z</time></trkpt><trkpt lat="42.5518959" lon="12.361038"><ele>403.40000000000003</ele><time>2026-03-30T13:19:40.709Z</time></trkpt><trkpt lat="42.5518071" lon="12.361133"><ele>404.6</ele><time>2026-03-30T13:19:42.708Z</time></trkpt><trkpt lat="42.5517363" lon="12.3612556"><ele>405.8</ele><time>2026-03-30T13:19:44.699Z</time></trkpt><trkpt lat="42.5516697" lon="12.3613502"><ele>407.0</ele><time>2026-03-30T13:19:46.704Z</time></trkpt><trkpt lat="42.5515978" lon="12.3614084"><ele>407.0</ele><time>2026-03-30T13:19:48.702Z</time></trkpt><trkpt lat="42.5515023" lon="12.3614527"><ele>407.0</ele><time>2026-03-30T13:19:50.701Z</time></trkpt><trkpt lat="42.551411" lon="12.3615446"><ele>407.0</ele><time>2026-03-30T13:19:52.702Z</time></trkpt><trkpt lat="42.5513239" lon="12.3616802"><ele>407.0</ele><time>2026-03-30T13:19:54.701Z</time></trkpt><trkpt lat="42.5512763" lon="12.3617613"><ele>407.0</ele><time>2026-03-30T13:19:55.695Z</time></trkpt><trkpt lat="42.5512284" lon="12.361842"><ele>408.66666666666663</ele><time>2026-03-30T13:19:56.7Z</time></trkpt><trkpt lat="42.5511872" lon="12.3619139"><ele>410.3333333333333</ele><time>2026-03-30T13:19:57.697Z</time></trkpt><trkpt lat="42.5511433" lon="12.3619779"><ele>412.0</ele><time>2026-03-30T13:19:58.711Z</time></trkpt><trkpt lat="42.5510982" lon="12.3620481"><ele>413.66666666666663</ele><time>2026-03-30T13:19:59.709Z</time></trkpt><trkpt lat="42.5510541" lon="12.3621201"><ele>415.3333333333333</ele><time>2026-03-30T13:20:00.703Z</time></trkpt><trkpt lat="42.5509763" lon="12.3622444"><ele>417.0</ele><time>2026-03-30T13:20:02.709Z</time></trkpt><trkpt lat="42.5509027" lon="12.3623555"><ele>417.0</ele><time>2026-03-30T13:20:04.711Z</time></trkpt><trkpt lat="42.5508281" lon="12.3624735"><ele>417.0</ele><time>2026-03-30T13:20:06.703Z</time></trkpt><trkpt lat="42.5507639" lon="12.362585"><ele>417.0</ele><time>2026-03-30T13:20:08.705Z</time></trkpt><trkpt lat="42.5507108" lon="12.362693"><ele>417.0</ele><time>2026-03-30T13:20:10.704Z</time></trkpt><trkpt lat="42.5506511" lon="12.3627956"><ele>417.0</ele><time>2026-03-30T13:20:12.708Z</time></trkpt><trkpt lat="42.5505607" lon="12.3628677"><ele>417.0</ele><time>2026-03-30T13:20:14.718Z</time></trkpt><trkpt lat="42.5504623" lon="12.3629119"><ele>417.0</ele><time>2026-03-30T13:20:16.71Z</time></trkpt><trkpt lat="42.5503553" lon="12.3629525"><ele>417.0</ele><time>2026-03-30T13:20:18.714Z</time></trkpt><trkpt lat="42.5502758" lon="12.3630022"><ele>417.0</ele><time>2026-03-30T13:20:20.706Z</time></trkpt><trkpt lat="42.5502211" lon="12.3630597"><ele>417.0</ele><time>2026-03-30T13:20:22.707Z</time></trkpt><trkpt lat="42.5501632" lon="12.3631256"><ele>417.0</ele><time>2026-03-30T13:20:24.715Z</time></trkpt><trkpt lat="42.5501093" lon="12.3632208"><ele>416.8333333333333</ele><time>2026-03-30T13:20:26.71Z</time></trkpt><trkpt lat="42.5501148" lon="12.3633443"><ele>416.66666666666663</ele><time>2026-03-30T13:20:28.702Z</time></trkpt><trkpt lat="42.550135" lon="12.3634823"><ele>416.5</ele><time>2026-03-30T13:20:30.72Z</time></trkpt><trkpt lat="42.550111" lon="12.3635846"><ele>416.3333333333333</ele><time>2026-03-30T13:20:33.706Z</time></trkpt><trkpt lat="42.550046" lon="12.3636254"><ele>416.16666666666663</ele><time>2026-03-30T13:20:35.705Z</time></trkpt><trkpt lat="42.5499624" lon="12.363663"><ele>416.0</ele><time>2026-03-30T13:20:37.706Z</time></trkpt><trkpt lat="42.5498938" lon="12.3637146"><ele>416.0</ele><time>2026-03-30T13:20:39.708Z</time></trkpt><trkpt lat="42.5498463" lon="12.363776"><ele>416.0</ele><time>2026-03-30T13:20:41.712Z</time></trkpt><trkpt lat="42.5497854" lon="12.3638695"><ele>416.0</ele><time>2026-03-30T13:20:44.704Z</time></trkpt><trkpt lat="42.5497252" lon="12.363998"><ele>416.0</ele><time>2026-03-30T13:20:47.706Z</time></trkpt><trkpt lat="42.549675" lon="12.364137"><ele>416.0</ele><time>2026-03-30T13:20:49.709Z</time></trkpt><trkpt lat="42.5496202" lon="12.3642558"><ele>415.66666666666663</ele><time>2026-03-30T13:20:51.716Z</time></trkpt><trkpt lat="42.5495692" lon="12.3643515"><ele>415.3333333333333</ele><time>2026-03-30T13:20:53.707Z</time></trkpt><trkpt lat="42.5495158" lon="12.3644106"><ele>415.0</ele><time>2026-03-30T13:20:55.719Z</time></trkpt><trkpt lat="42.5494553" lon="12.3644616"><ele>414.66666666666663</ele><time>2026-03-30T13:20:57.717Z</time></trkpt><trkpt lat="42.5493895" lon="12.3644981"><ele>414.3333333333333</ele><time>2026-03-30T13:20:59.706Z</time></trkpt><trkpt lat="42.5493195" lon="12.3645614"><ele>414.0</ele><time>2026-03-30T13:21:02.708Z</time></trkpt><trkpt lat="42.5492629" lon="12.3646541"><ele>411.0</ele><time>2026-03-30T13:21:04.706Z</time></trkpt><trkpt lat="42.5492268" lon="12.3647593"><ele>408.0</ele><time>2026-03-30T13:21:06.715Z</time></trkpt><trkpt lat="42.5491519" lon="12.3648798"><ele>405.0</ele><time>2026-03-30T13:21:08.709Z</time></trkpt><trkpt lat="42.5490755" lon="12.3649822"><ele>402.0</ele><time>2026-03-30T13:21:10.716Z</time></trkpt><trkpt lat="42.5490161" lon="12.3650722"><ele>399.0</ele><time>2026-03-30T13:21:12.702Z</time></trkpt><trkpt lat="42.5489626" lon="12.3651198"><ele>399.0</ele><time>2026-03-30T13:21:14.722Z</time></trkpt><trkpt lat="42.5488837" lon="12.3651572"><ele>399.0</ele><time>2026-03-30T13:21:16.72Z</time></trkpt><trkpt lat="42.548763" lon="12.3652096"><ele>399.0</ele><time>2026-03-30T13:21:18.713Z</time></trkpt><trkpt lat="42.5487019" lon="12.3652378"><ele>399.0</ele><time>2026-03-30T13:21:19.716Z</time></trkpt><trkpt lat="42.5486106" lon="12.3652948"><ele>399.0</ele><time>2026-03-30T13:21:21.718Z</time></trkpt><trkpt lat="42.5485353" lon="12.3653318"><ele>399.1666666666667</ele><time>2026-03-30T13:21:23.712Z</time></trkpt><trkpt lat="42.5484131" lon="12.3653472"><ele>399.33333333333337</ele><time>2026-03-30T13:21:25.72Z</time></trkpt><trkpt lat="42.5483399" lon="12.3653559"><ele>399.5</ele><time>2026-03-30T13:21:26.709Z</time></trkpt><trkpt lat="42.5482637" lon="12.3653691"><ele>399.6666666666667</ele><time>2026-03-30T13:21:27.715Z</time></trkpt><trkpt lat="42.5482007" lon="12.3653737"><ele>399.83333333333337</ele><time>2026-03-30T13:21:28.718Z</time></trkpt><trkpt lat="42.5481374" lon="12.3653714"><ele>400.0</ele><time>2026-03-30T13:21:29.716Z</time></trkpt><trkpt lat="42.5480257" lon="12.3653524"><ele>400.0</ele><time>2026-03-30T13:21:31.723Z</time></trkpt><trkpt lat="42.5479316" lon="12.3652995"><ele>400.0</ele><time>2026-03-30T13:21:33.711Z</time></trkpt><trkpt lat="42.5478064" lon="12.3652444"><ele>400.0</ele><time>2026-03-30T13:21:35.709Z</time></trkpt><trkpt lat="42.5477406" lon="12.3652314"><ele>400.0</ele><time>2026-03-30T13:21:36.712Z</time></trkpt><trkpt lat="42.5476224" lon="12.3652295"><ele>400.0</ele><time>2026-03-30T13:21:38.716Z</time></trkpt><trkpt lat="42.5475597" lon="12.3652176"><ele>399.00000000000006</ele><time>2026-03-30T13:21:39.713Z</time></trkpt><trkpt lat="42.5474937" lon="12.3652021"><ele>398.0</ele><time>2026-03-30T13:21:40.716Z</time></trkpt><trkpt lat="42.5474291" lon="12.365191"><ele>397.0</ele><time>2026-03-30T13:21:41.715Z</time></trkpt><trkpt lat="42.5473263" lon="12.3651838"><ele>396.0</ele><time>2026-03-30T13:21:43.713Z</time></trkpt><trkpt lat="42.5472463" lon="12.3651522"><ele>395.00000000000006</ele><time>2026-03-30T13:21:45.714Z</time></trkpt><trkpt lat="42.5471773" lon="12.3651033"><ele>394.0</ele><time>2026-03-30T13:21:47.715Z</time></trkpt><trkpt lat="42.5470472" lon="12.3650439"><ele>392.2</ele><time>2026-03-30T13:21:50.7Z</time></trkpt><trkpt lat="42.5469508" lon="12.3650273"><ele>390.4</ele><time>2026-03-30T13:21:52.711Z</time></trkpt><trkpt lat="42.5468464" lon="12.3650163"><ele>388.6</ele><time>2026-03-30T13:21:54.712Z</time></trkpt><trkpt lat="42.5467501" lon="12.3650054"><ele>386.8</ele><time>2026-03-30T13:21:56.708Z</time></trkpt><trkpt lat="42.5466516" lon="12.3650015"><ele>385.0</ele><time>2026-03-30T13:21:58.713Z</time></trkpt><trkpt lat="42.5465477" lon="12.3649932"><ele>385.0</ele><time>2026-03-30T13:22:00.706Z</time></trkpt><trkpt lat="42.5464437" lon="12.3649796"><ele>385.0</ele><time>2026-03-30T13:22:02.707Z</time></trkpt><trkpt lat="42.5463441" lon="12.3649748"><ele>385.0</ele><time>2026-03-30T13:22:04.707Z</time></trkpt><trkpt lat="42.546238" lon="12.3649725"><ele>385.0</ele><time>2026-03-30T13:22:06.714Z</time></trkpt><trkpt lat="42.5461313" lon="12.364974"><ele>385.0</ele><time>2026-03-30T13:22:08.708Z</time></trkpt><trkpt lat="42.5460191" lon="12.3649525"><ele>383.0</ele><time>2026-03-30T13:22:10.711Z</time></trkpt><trkpt lat="42.5459072" lon="12.3649113"><ele>381.0</ele><time>2026-03-30T13:22:12.697Z</time></trkpt><trkpt lat="42.5458003" lon="12.3648657"><ele>379.0</ele><time>2026-03-30T13:22:14.708Z</time></trkpt><trkpt lat="42.5456838" lon="12.3648329"><ele>377.0</ele><time>2026-03-30T13:22:16.71Z</time></trkpt><trkpt lat="42.5455744" lon="12.3647881"><ele>377.0</ele><time>2026-03-30T13:22:18.709Z</time></trkpt><trkpt lat="42.5455138" lon="12.3647649"><ele>377.0</ele><time>2026-03-30T13:22:19.713Z</time></trkpt><trkpt lat="42.5454428" lon="12.3647364"><ele>377.0</ele><time>2026-03-30T13:22:20.704Z</time></trkpt><trkpt lat="42.5453608" lon="12.3646958"><ele>377.0</ele><time>2026-03-30T13:22:21.702Z</time></trkpt><trkpt lat="42.5452796" lon="12.36465"><ele>377.0</ele><time>2026-03-30T13:22:22.704Z</time></trkpt><trkpt lat="42.5451993" lon="12.3645972"><ele>377.0</ele><time>2026-03-30T13:22:23.712Z</time></trkpt><trkpt lat="42.5451178" lon="12.3645378"><ele>376.8</ele><time>2026-03-30T13:22:24.725Z</time></trkpt><trkpt lat="42.545037" lon="12.3644737"><ele>376.6</ele><time>2026-03-30T13:22:25.713Z</time></trkpt><trkpt lat="42.5449611" lon="12.3644074"><ele>376.40000000000003</ele><time>2026-03-30T13:22:26.713Z</time></trkpt><trkpt lat="42.5448891" lon="12.364332"><ele>376.20000000000005</ele><time>2026-03-30T13:22:27.715Z</time></trkpt><trkpt lat="42.5448125" lon="12.3642432"><ele>376.0</ele><time>2026-03-30T13:22:28.713Z</time></trkpt><trkpt lat="42.5447348" lon="12.3641425"><ele>376.0</ele><time>2026-03-30T13:22:29.718Z</time></trkpt><trkpt lat="42.5446582" lon="12.3640295"><ele>376.0</ele><time>2026-03-30T13:22:30.716Z</time></trkpt><trkpt lat="42.5445815" lon="12.3639245"><ele>376.0</ele><time>2026-03-30T13:22:31.695Z</time></trkpt><trkpt lat="42.544507" lon="12.3638269"><ele>376.0</ele><time>2026-03-30T13:22:32.694Z</time></trkpt><trkpt lat="42.5444242" lon="12.3637257"><ele>376.0</ele><time>2026-03-30T13:22:33.72Z</time></trkpt><trkpt lat="42.5443384" lon="12.3636407"><ele>373.5</ele><time>2026-03-30T13:22:34.719Z</time></trkpt><trkpt lat="42.5442513" lon="12.3635386"><ele>371.0</ele><time>2026-03-30T13:22:35.717Z</time></trkpt><trkpt lat="42.5441634" lon="12.3634396"><ele>368.5</ele><time>2026-03-30T13:22:36.701Z</time></trkpt><trkpt lat="42.5440755" lon="12.3633441"><ele>366.0</ele><time>2026-03-30T13:22:37.701Z</time></trkpt><trkpt lat="42.5439885" lon="12.3632421"><ele>366.0</ele><time>2026-03-30T13:22:38.72Z</time></trkpt><trkpt lat="42.5438992" lon="12.3631366"><ele>366.0</ele><time>2026-03-30T13:22:39.726Z</time></trkpt><trkpt lat="42.5438107" lon="12.3630311"><ele>366.0</ele><time>2026-03-30T13:22:40.716Z</time></trkpt><trkpt lat="42.5437229" lon="12.3629219"><ele>366.0</ele><time>2026-03-30T13:22:41.725Z</time></trkpt><trkpt lat="42.5436269" lon="12.3628121"><ele>365.5</ele><time>2026-03-30T13:22:42.723Z</time></trkpt><trkpt lat="42.5435299" lon="12.3626947"><ele>365.0</ele><time>2026-03-30T13:22:43.725Z</time></trkpt><trkpt lat="42.5434273" lon="12.3625782"><ele>364.5</ele><time>2026-03-30T13:22:44.712Z</time></trkpt><trkpt lat="42.5433206" lon="12.3624644"><ele>364.0</ele><time>2026-03-30T13:22:45.715Z</time></trkpt><trkpt lat="42.5432123" lon="12.3623485"><ele>364.0</ele><time>2026-03-30T13:22:46.721Z</time></trkpt><trkpt lat="42.5431027" lon="12.3622359"><ele>364.0</ele><time>2026-03-30T13:22:47.715Z</time></trkpt><trkpt lat="42.5429949" lon="12.362125"><ele>364.0</ele><time>2026-03-30T13:22:48.721Z</time></trkpt><trkpt lat="42.5428847" lon="12.3620138"><ele>364.0</ele><time>2026-03-30T13:22:49.725Z</time></trkpt><trkpt lat="42.5427764" lon="12.3619059"><ele>364.5</ele><time>2026-03-30T13:22:50.723Z</time></trkpt><trkpt lat="42.542671" lon="12.3617975"><ele>365.0</ele><time>2026-03-30T13:22:51.719Z</time></trkpt><trkpt lat="42.542565" lon="12.3616889"><ele>365.5</ele><time>2026-03-30T13:22:52.723Z</time></trkpt><trkpt lat="42.5424603" lon="12.3615785"><ele>366.0</ele><time>2026-03-30T13:22:53.716Z</time></trkpt><trkpt lat="42.5423667" lon="12.3614771"><ele>366.0</ele><time>2026-03-30T13:22:54.706Z</time></trkpt><trkpt lat="42.5422849" lon="12.361385"><ele>366.0</ele><time>2026-03-30T13:22:55.722Z</time></trkpt><trkpt lat="42.5422131" lon="12.3613042"><ele>366.0</ele><time>2026-03-30T13:22:56.707Z</time></trkpt><trkpt lat="42.5421542" lon="12.3612285"><ele>366.0</ele><time>2026-03-30T13:22:57.719Z</time></trkpt><trkpt lat="42.542101" lon="12.3611498"><ele>366.0</ele><time>2026-03-30T13:22:58.697Z</time></trkpt><trkpt lat="42.5420561" lon="12.3610547"><ele>366.0</ele><time>2026-03-30T13:23:00.357Z</time></trkpt><trkpt lat="42.5419535" lon="12.3608366"><ele>366.0</ele><time>2026-03-30T13:23:01.697Z</time></trkpt><trkpt lat="42.5418971" lon="12.3607199"><ele>366.0</ele><time>2026-03-30T13:23:02.711Z</time></trkpt><trkpt lat="42.5418295" lon="12.3605971"><ele>366.0</ele><time>2026-03-30T13:23:03.724Z</time></trkpt><trkpt lat="42.5417571" lon="12.360482"><ele>366.0</ele><time>2026-03-30T13:23:04.697Z</time></trkpt><trkpt lat="42.5416837" lon="12.3603727"><ele>366.0</ele><time>2026-03-30T13:23:05.712Z</time></trkpt><trkpt lat="42.5416193" lon="12.3602692"><ele>365.6</ele><time>2026-03-30T13:23:06.722Z</time></trkpt><trkpt lat="42.5415641" lon="12.360163"><ele>365.20000000000005</ele><time>2026-03-30T13:23:07.711Z</time></trkpt><trkpt lat="42.5415145" lon="12.3600491"><ele>364.79999999999995</ele><time>2026-03-30T13:23:08.709Z</time></trkpt><trkpt lat="42.5414684" lon="12.3599336"><ele>364.4</ele><time>2026-03-30T13:23:09.712Z</time></trkpt><trkpt lat="42.5414182" lon="12.3598216"><ele>364.0</ele><time>2026-03-30T13:23:10.721Z</time></trkpt><trkpt lat="42.5413719" lon="12.3597205"><ele>364.16666666666663</ele><time>2026-03-30T13:23:11.707Z</time></trkpt><trkpt lat="42.5413291" lon="12.3596227"><ele>364.3333333333333</ele><time>2026-03-30T13:23:12.727Z</time></trkpt><trkpt lat="42.5412836" lon="12.3595242"><ele>364.5</ele><time>2026-03-30T13:23:13.724Z</time></trkpt><trkpt lat="42.5412426" lon="12.359419"><ele>364.6666666666667</ele><time>2026-03-30T13:23:14.724Z</time></trkpt><trkpt lat="42.5412001" lon="12.359313"><ele>364.83333333333337</ele><time>2026-03-30T13:23:15.723Z</time></trkpt><trkpt lat="42.5411621" lon="12.3592122"><ele>365.0</ele><time>2026-03-30T13:23:16.724Z</time></trkpt><trkpt lat="42.541129" lon="12.3591166"><ele>364.1666666666667</ele><time>2026-03-30T13:23:17.726Z</time></trkpt><trkpt lat="42.5410998" lon="12.359018"><ele>363.33333333333337</ele><time>2026-03-30T13:23:18.716Z</time></trkpt><trkpt lat="42.541072" lon="12.3589195"><ele>362.5</ele><time>2026-03-30T13:23:19.709Z</time></trkpt><trkpt lat="42.5410486" lon="12.3588225"><ele>361.6666666666667</ele><time>2026-03-30T13:23:20.715Z</time></trkpt><trkpt lat="42.5410296" lon="12.3587326"><ele>360.8333333333333</ele><time>2026-03-30T13:23:21.717Z</time></trkpt><trkpt lat="42.5410093" lon="12.358647"><ele>360.0</ele><time>2026-03-30T13:23:22.718Z</time></trkpt><trkpt lat="42.540973" lon="12.3584966"><ele>360.0</ele><time>2026-03-30T13:23:24.713Z</time></trkpt><trkpt lat="42.5409483" lon="12.3583959"><ele>360.0</ele><time>2026-03-30T13:23:26.719Z</time></trkpt><trkpt lat="42.5409266" lon="12.3582967"><ele>360.0</ele><time>2026-03-30T13:23:29.72Z</time></trkpt><trkpt lat="42.5408633" lon="12.3581797"><ele>360.0</ele><time>2026-03-30T13:23:32.722Z</time></trkpt><trkpt lat="42.5407972" lon="12.3581162"><ele>360.0</ele><time>2026-03-30T13:23:33.705Z</time></trkpt><trkpt lat="42.5407061" lon="12.358067"><ele>360.0</ele><time>2026-03-30T13:23:34.722Z</time></trkpt><trkpt lat="42.5405937" lon="12.3580186"><ele>359.5</ele><time>2026-03-30T13:23:35.71Z</time></trkpt><trkpt lat="42.5404775" lon="12.3579635"><ele>359.0</ele><time>2026-03-30T13:23:36.715Z</time></trkpt><trkpt lat="42.5403588" lon="12.3578934"><ele>358.5</ele><time>2026-03-30T13:23:37.72Z</time></trkpt><trkpt lat="42.5402338" lon="12.3578227"><ele>358.0</ele><time>2026-03-30T13:23:38.712Z</time></trkpt><trkpt lat="42.540093" lon="12.3577518"><ele>356.25</ele><time>2026-03-30T13:23:39.722Z</time></trkpt><trkpt lat="42.5399562" lon="12.3576791"><ele>354.5</ele><time>2026-03-30T13:23:40.716Z</time></trkpt><trkpt lat="42.5398306" lon="12.3576102"><ele>352.75</ele><time>2026-03-30T13:23:41.715Z</time></trkpt><trkpt lat="42.5397048" lon="12.3575327"><ele>351.0</ele><time>2026-03-30T13:23:42.711Z</time></trkpt><trkpt lat="42.539576" lon="12.3574533"><ele>350.5</ele><time>2026-03-30T13:23:43.714Z</time></trkpt><trkpt lat="42.5394522" lon="12.3573839"><ele>350.0</ele><time>2026-03-30T13:23:44.714Z</time></trkpt><trkpt lat="42.5393342" lon="12.3573169"><ele>349.5</ele><time>2026-03-30T13:23:45.728Z</time></trkpt><trkpt lat="42.5392205" lon="12.3572481"><ele>349.0</ele><time>2026-03-30T13:23:46.715Z</time></trkpt><trkpt lat="42.5391079" lon="12.3571822"><ele>348.75</ele><time>2026-03-30T13:23:47.726Z</time></trkpt><trkpt lat="42.5389972" lon="12.3571109"><ele>348.5</ele><time>2026-03-30T13:23:48.722Z</time></trkpt><trkpt lat="42.5388855" lon="12.3570467"><ele>348.25</ele><time>2026-03-30T13:23:49.729Z</time></trkpt><trkpt lat="42.5387734" lon="12.3569847"><ele>348.0</ele><time>2026-03-30T13:23:50.714Z</time></trkpt><trkpt lat="42.5386525" lon="12.3569183"><ele>348.0</ele><time>2026-03-30T13:23:51.724Z</time></trkpt><trkpt lat="42.5385353" lon="12.3568538"><ele>348.0</ele><time>2026-03-30T13:23:52.714Z</time></trkpt><trkpt lat="42.538423" lon="12.3567935"><ele>348.0</ele><time>2026-03-30T13:23:53.718Z</time></trkpt><trkpt lat="42.5383166" lon="12.3567457"><ele>348.0</ele><time>2026-03-30T13:23:54.718Z</time></trkpt><trkpt lat="42.5382124" lon="12.3566907"><ele>348.0</ele><time>2026-03-30T13:23:55.72Z</time></trkpt><trkpt lat="42.5381099" lon="12.3566288"><ele>348.0</ele><time>2026-03-30T13:23:56.713Z</time></trkpt><trkpt lat="42.5380082" lon="12.3565624"><ele>348.0</ele><time>2026-03-30T13:23:57.714Z</time></trkpt><trkpt lat="42.5379134" lon="12.3564979"><ele>348.0</ele><time>2026-03-30T13:23:58.714Z</time></trkpt><trkpt lat="42.5378283" lon="12.3564328"><ele>348.0</ele><time>2026-03-30T13:23:59.715Z</time></trkpt><trkpt lat="42.5377639" lon="12.3563504"><ele>349.0</ele><time>2026-03-30T13:24:00.699Z</time></trkpt><trkpt lat="42.5377105" lon="12.3562373"><ele>350.0</ele><time>2026-03-30T13:24:01.717Z</time></trkpt><trkpt lat="42.5376611" lon="12.3561085"><ele>351.0</ele><time>2026-03-30T13:24:02.714Z</time></trkpt><trkpt lat="42.5376104" lon="12.3559749"><ele>352.0</ele><time>2026-03-30T13:24:03.717Z</time></trkpt><trkpt lat="42.5375639" lon="12.3558524"><ele>353.0</ele><time>2026-03-30T13:24:04.709Z</time></trkpt><trkpt lat="42.5375156" lon="12.355736"><ele>353.0</ele><time>2026-03-30T13:24:05.713Z</time></trkpt><trkpt lat="42.5374582" lon="12.3556256"><ele>353.0</ele><time>2026-03-30T13:24:06.708Z</time></trkpt><trkpt lat="42.5373953" lon="12.3555241"><ele>353.0</ele><time>2026-03-30T13:24:07.713Z</time></trkpt><trkpt lat="42.5373283" lon="12.3554325"><ele>353.0</ele><time>2026-03-30T13:24:08.705Z</time></trkpt><trkpt lat="42.5372624" lon="12.3553408"><ele>353.0</ele><time>2026-03-30T13:24:09.718Z</time></trkpt><trkpt lat="42.5372044" lon="12.3552579"><ele>352.5</ele><time>2026-03-30T13:24:10.706Z</time></trkpt><trkpt lat="42.5371481" lon="12.3551734"><ele>352.0</ele><time>2026-03-30T13:24:11.707Z</time></trkpt><trkpt lat="42.5370963" lon="12.3550894"><ele>351.5</ele><time>2026-03-30T13:24:12.712Z</time></trkpt><trkpt lat="42.5370408" lon="12.3550052"><ele>351.0</ele><time>2026-03-30T13:24:13.715Z</time></trkpt><trkpt lat="42.5369778" lon="12.3549231"><ele>350.5</ele><time>2026-03-30T13:24:14.719Z</time></trkpt><trkpt lat="42.5369113" lon="12.3548378"><ele>350.0</ele><time>2026-03-30T13:24:15.713Z</time></trkpt><trkpt lat="42.5368463" lon="12.3547583"><ele>349.0</ele><time>2026-03-30T13:24:16.717Z</time></trkpt><trkpt lat="42.5367851" lon="12.3546803"><ele>348.0</ele><time>2026-03-30T13:24:17.709Z</time></trkpt><trkpt lat="42.5367193" lon="12.3546089"><ele>347.0</ele><time>2026-03-30T13:24:18.703Z</time></trkpt><trkpt lat="42.5366429" lon="12.3545459"><ele>346.0</ele><time>2026-03-30T13:24:19.71Z</time></trkpt><trkpt lat="42.536563" lon="12.3544787"><ele>345.0</ele><time>2026-03-30T13:24:20.72Z</time></trkpt><trkpt lat="42.5364783" lon="12.3544267"><ele>344.0</ele><time>2026-03-30T13:24:21.719Z</time></trkpt><trkpt lat="42.5363936" lon="12.3543754"><ele>344.0</ele><time>2026-03-30T13:24:22.708Z</time></trkpt><trkpt lat="42.5363046" lon="12.3543366"><ele>344.0</ele><time>2026-03-30T13:24:23.718Z</time></trkpt><trkpt lat="42.5361998" lon="12.3543065"><ele>344.0</ele><time>2026-03-30T13:24:24.703Z</time></trkpt><trkpt lat="42.5360867" lon="12.3542757"><ele>344.0</ele><time>2026-03-30T13:24:25.709Z</time></trkpt><trkpt lat="42.5359754" lon="12.354253"><ele>344.0</ele><time>2026-03-30T13:24:26.705Z</time></trkpt><trkpt lat="42.535863" lon="12.3542334"><ele>342.6666666666667</ele><time>2026-03-30T13:24:27.724Z</time></trkpt><trkpt lat="42.5357609" lon="12.3542104"><ele>341.33333333333337</ele><time>2026-03-30T13:24:28.721Z</time></trkpt><trkpt lat="42.5356669" lon="12.3541874"><ele>340.0</ele><time>2026-03-30T13:24:29.702Z</time></trkpt><trkpt lat="42.5355873" lon="12.3541642"><ele>338.6666666666667</ele><time>2026-03-30T13:24:30.719Z</time></trkpt><trkpt lat="42.5355201" lon="12.3541334"><ele>337.3333333333333</ele><time>2026-03-30T13:24:31.724Z</time></trkpt><trkpt lat="42.5354604" lon="12.3540854"><ele>336.0</ele><time>2026-03-30T13:24:32.722Z</time></trkpt><trkpt lat="42.5354086" lon="12.3540108"><ele>334.20000000000005</ele><time>2026-03-30T13:24:33.718Z</time></trkpt><trkpt lat="42.5353609" lon="12.3539127"><ele>332.40000000000003</ele><time>2026-03-30T13:24:34.721Z</time></trkpt><trkpt lat="42.535323" lon="12.3537865"><ele>330.6</ele><time>2026-03-30T13:24:35.71Z</time></trkpt><trkpt lat="42.5352857" lon="12.3536445"><ele>328.8</ele><time>2026-03-30T13:24:36.726Z</time></trkpt><trkpt lat="42.535244" lon="12.353493"><ele>327.0</ele><time>2026-03-30T13:24:37.723Z</time></trkpt><trkpt lat="42.5352029" lon="12.3533382"><ele>326.75</ele><time>2026-03-30T13:24:38.719Z</time></trkpt><trkpt lat="42.5351606" lon="12.3531776"><ele>326.5</ele><time>2026-03-30T13:24:39.713Z</time></trkpt><trkpt lat="42.535119" lon="12.3530231"><ele>326.25</ele><time>2026-03-30T13:24:40.715Z</time></trkpt><trkpt lat="42.5350793" lon="12.3528782"><ele>326.0</ele><time>2026-03-30T13:24:41.698Z</time></trkpt><trkpt lat="42.5350429" lon="12.3527259"><ele>326.0</ele><time>2026-03-30T13:24:42.705Z</time></trkpt><trkpt lat="42.5350008" lon="12.3525608"><ele>326.0</ele><time>2026-03-30T13:24:43.718Z</time></trkpt><trkpt lat="42.5349604" lon="12.352407"><ele>326.0</ele><time>2026-03-30T13:24:44.703Z</time></trkpt><trkpt lat="42.534924" lon="12.3522586"><ele>326.0</ele><time>2026-03-30T13:24:45.707Z</time></trkpt><trkpt lat="42.5348908" lon="12.3521199"><ele>325.6</ele><time>2026-03-30T13:24:46.715Z</time></trkpt><trkpt lat="42.5348565" lon="12.3519821"><ele>325.20000000000005</ele><time>2026-03-30T13:24:47.712Z</time></trkpt><trkpt lat="42.5348158" lon="12.3518417"><ele>324.79999999999995</ele><time>2026-03-30T13:24:48.71Z</time></trkpt><trkpt lat="42.5347749" lon="12.3517048"><ele>324.4</ele><time>2026-03-30T13:24:49.717Z</time></trkpt><trkpt lat="42.5347381" lon="12.3515684"><ele>324.0</ele><time>2026-03-30T13:24:50.706Z</time></trkpt><trkpt lat="42.5347029" lon="12.3514399"><ele>323.4</ele><time>2026-03-30T13:24:51.715Z</time></trkpt><trkpt lat="42.5346754" lon="12.3513185"><ele>322.79999999999995</ele><time>2026-03-30T13:24:52.72Z</time></trkpt><trkpt lat="42.5346426" lon="12.3511889"><ele>322.20000000000005</ele><time>2026-03-30T13:24:53.718Z</time></trkpt><trkpt lat="42.5346033" lon="12.3510518"><ele>321.6</ele><time>2026-03-30T13:24:54.718Z</time></trkpt><trkpt lat="42.5345659" lon="12.3509159"><ele>321.0</ele><time>2026-03-30T13:24:55.697Z</time></trkpt><trkpt lat="42.5345275" lon="12.350776"><ele>320.6</ele><time>2026-03-30T13:24:56.718Z</time></trkpt><trkpt lat="42.5344889" lon="12.3506475"><ele>320.20000000000005</ele><time>2026-03-30T13:24:57.717Z</time></trkpt><trkpt lat="42.5344516" lon="12.3505123"><ele>319.79999999999995</ele><time>2026-03-30T13:24:58.725Z</time></trkpt><trkpt lat="42.5344172" lon="12.3503804"><ele>319.4</ele><time>2026-03-30T13:24:59.717Z</time></trkpt><trkpt lat="42.5343838" lon="12.3502527"><ele>319.0</ele><time>2026-03-30T13:25:00.723Z</time></trkpt><trkpt lat="42.5343535" lon="12.3501311"><ele>318.59999999999997</ele><time>2026-03-30T13:25:01.717Z</time></trkpt><trkpt lat="42.5343291" lon="12.3500131"><ele>318.2</ele><time>2026-03-30T13:25:02.714Z</time></trkpt><trkpt lat="42.5343154" lon="12.3498841"><ele>317.79999999999995</ele><time>2026-03-30T13:25:03.721Z</time></trkpt><trkpt lat="42.534311" lon="12.3497559"><ele>317.4</ele><time>2026-03-30T13:25:04.711Z</time></trkpt><trkpt lat="42.534315" lon="12.3496358"><ele>317.0</ele><time>2026-03-30T13:25:05.724Z</time></trkpt><trkpt lat="42.5343254" lon="12.3495179"><ele>316.4</ele><time>2026-03-30T13:25:06.722Z</time></trkpt><trkpt lat="42.5343408" lon="12.3493966"><ele>315.79999999999995</ele><time>2026-03-30T13:25:07.717Z</time></trkpt><trkpt lat="42.5343582" lon="12.3492698"><ele>315.2</ele><time>2026-03-30T13:25:08.71Z</time></trkpt><trkpt lat="42.5343662" lon="12.3491459"><ele>314.59999999999997</ele><time>2026-03-30T13:25:09.717Z</time></trkpt><trkpt lat="42.5343713" lon="12.3490188"><ele>314.0</ele><time>2026-03-30T13:25:10.697Z</time></trkpt><trkpt lat="42.5343802" lon="12.3488927"><ele>313.59999999999997</ele><time>2026-03-30T13:25:11.707Z</time></trkpt><trkpt lat="42.534384" lon="12.348772"><ele>313.2</ele><time>2026-03-30T13:25:12.72Z</time></trkpt><trkpt lat="42.534382" lon="12.3486497"><ele>312.79999999999995</ele><time>2026-03-30T13:25:13.719Z</time></trkpt><trkpt lat="42.5343752" lon="12.3485215"><ele>312.4</ele><time>2026-03-30T13:25:14.709Z</time></trkpt><trkpt lat="42.5343629" lon="12.3483869"><ele>312.0</ele><time>2026-03-30T13:25:15.718Z</time></trkpt><trkpt lat="42.5343313" lon="12.3482419"><ele>312.0</ele><time>2026-03-30T13:25:16.716Z</time></trkpt><trkpt lat="42.5342722" lon="12.348092"><ele>312.0</ele><time>2026-03-30T13:25:17.716Z</time></trkpt><trkpt lat="42.5341979" lon="12.347939"><ele>312.0</ele><time>2026-03-30T13:25:18.719Z</time></trkpt><trkpt lat="42.5341252" lon="12.3477929"><ele>312.0</ele><time>2026-03-30T13:25:19.716Z</time></trkpt><trkpt lat="42.5340577" lon="12.3476542"><ele>311.5</ele><time>2026-03-30T13:25:20.707Z</time></trkpt><trkpt lat="42.5339893" lon="12.3475062"><ele>311.0</ele><time>2026-03-30T13:25:21.716Z</time></trkpt><trkpt lat="42.5339207" lon="12.3473583"><ele>310.5</ele><time>2026-03-30T13:25:22.701Z</time></trkpt><trkpt lat="42.5338535" lon="12.3472161"><ele>310.0</ele><time>2026-03-30T13:25:23.714Z</time></trkpt><trkpt lat="42.5337894" lon="12.3470768"><ele>310.0</ele><time>2026-03-30T13:25:24.715Z</time></trkpt><trkpt lat="42.5337274" lon="12.3469469"><ele>310.0</ele><time>2026-03-30T13:25:25.706Z</time></trkpt><trkpt lat="42.5336639" lon="12.3468279"><ele>310.0</ele><time>2026-03-30T13:25:26.707Z</time></trkpt><trkpt lat="42.5336029" lon="12.3467058"><ele>310.0</ele><time>2026-03-30T13:25:27.708Z</time></trkpt><trkpt lat="42.5335458" lon="12.3465721"><ele>310.0</ele><time>2026-03-30T13:25:28.692Z</time></trkpt><trkpt lat="42.5334857" lon="12.3464487"><ele>309.5</ele><time>2026-03-30T13:25:29.695Z</time></trkpt><trkpt lat="42.5334308" lon="12.3463319"><ele>309.0</ele><time>2026-03-30T13:25:30.71Z</time></trkpt><trkpt lat="42.533378" lon="12.3462265"><ele>308.5</ele><time>2026-03-30T13:25:31.713Z</time></trkpt><trkpt lat="42.5333298" lon="12.3461262"><ele>308.0</ele><time>2026-03-30T13:25:32.698Z</time></trkpt><trkpt lat="42.5332876" lon="12.3460223"><ele>307.5</ele><time>2026-03-30T13:25:33.715Z</time></trkpt><trkpt lat="42.5332523" lon="12.3459315"><ele>307.0</ele><time>2026-03-30T13:25:34.707Z</time></trkpt><trkpt lat="42.5332222" lon="12.3458385"><ele>307.0</ele><time>2026-03-30T13:25:35.706Z</time></trkpt><trkpt lat="42.5331967" lon="12.3457556"><ele>307.0</ele><time>2026-03-30T13:25:36.703Z</time></trkpt><trkpt lat="42.5331441" lon="12.345622"><ele>307.0</ele><time>2026-03-30T13:25:38.706Z</time></trkpt><trkpt lat="42.533093" lon="12.3455573"><ele>307.0</ele><time>2026-03-30T13:25:39.714Z</time></trkpt><trkpt lat="42.53301" lon="12.345486"><ele>307.0</ele><time>2026-03-30T13:25:40.709Z</time></trkpt><trkpt lat="42.5329018" lon="12.3454215"><ele>305.75</ele><time>2026-03-30T13:25:41.706Z</time></trkpt><trkpt lat="42.5327814" lon="12.3453547"><ele>304.5</ele><time>2026-03-30T13:25:42.711Z</time></trkpt><trkpt lat="42.5326511" lon="12.3452847"><ele>303.25</ele><time>2026-03-30T13:25:43.713Z</time></trkpt><trkpt lat="42.5325151" lon="12.3452165"><ele>302.0</ele><time>2026-03-30T13:25:44.71Z</time></trkpt><trkpt lat="42.532375" lon="12.3451505"><ele>302.0</ele><time>2026-03-30T13:25:45.7Z</time></trkpt><trkpt lat="42.5322464" lon="12.3450903"><ele>302.0</ele><time>2026-03-30T13:25:46.706Z</time></trkpt><trkpt lat="42.5321276" lon="12.3450302"><ele>302.0</ele><time>2026-03-30T13:25:47.719Z</time></trkpt><trkpt lat="42.5320082" lon="12.3449685"><ele>302.0</ele><time>2026-03-30T13:25:48.717Z</time></trkpt><trkpt lat="42.5318937" lon="12.3449008"><ele>301.5</ele><time>2026-03-30T13:25:49.716Z</time></trkpt><trkpt lat="42.5317834" lon="12.3448367"><ele>301.0</ele><time>2026-03-30T13:25:50.707Z</time></trkpt><trkpt lat="42.5316776" lon="12.3447645"><ele>300.5</ele><time>2026-03-30T13:25:51.715Z</time></trkpt><trkpt lat="42.5315694" lon="12.3446834"><ele>300.0</ele><time>2026-03-30T13:25:52.712Z</time></trkpt><trkpt lat="42.5314641" lon="12.3446079"><ele>300.0</ele><time>2026-03-30T13:25:53.706Z</time></trkpt><trkpt lat="42.5313675" lon="12.3445362"><ele>300.0</ele><time>2026-03-30T13:25:54.716Z</time></trkpt><trkpt lat="42.5312766" lon="12.3444661"><ele>300.0</ele><time>2026-03-30T13:25:55.716Z</time></trkpt><trkpt lat="42.5312055" lon="12.3443981"><ele>300.0</ele><time>2026-03-30T13:25:56.716Z</time></trkpt><trkpt lat="42.5311583" lon="12.3443242"><ele>300.0</ele><time>2026-03-30T13:25:57.71Z</time></trkpt><trkpt lat="42.5311314" lon="12.344245"><ele>300.0</ele><time>2026-03-30T13:25:58.713Z</time></trkpt><trkpt lat="42.5311199" lon="12.3441486"><ele>299.6</ele><time>2026-03-30T13:25:59.715Z</time></trkpt><trkpt lat="42.53112" lon="12.3440357"><ele>299.2</ele><time>2026-03-30T13:26:00.704Z</time></trkpt><trkpt lat="42.5311373" lon="12.3439129"><ele>298.8</ele><time>2026-03-30T13:26:01.713Z</time></trkpt><trkpt lat="42.53116" lon="12.3437714"><ele>298.4</ele><time>2026-03-30T13:26:02.71Z</time></trkpt><trkpt lat="42.5311822" lon="12.3436118"><ele>298.0</ele><time>2026-03-30T13:26:03.712Z</time></trkpt><trkpt lat="42.5312039" lon="12.3434438"><ele>298.75</ele><time>2026-03-30T13:26:04.717Z</time></trkpt><trkpt lat="42.5312256" lon="12.3432785"><ele>299.5</ele><time>2026-03-30T13:26:05.709Z</time></trkpt><trkpt lat="42.5312476" lon="12.3431149"><ele>300.25</ele><time>2026-03-30T13:26:06.713Z</time></trkpt><trkpt lat="42.5312683" lon="12.3429416"><ele>301.0</ele><time>2026-03-30T13:26:07.714Z</time></trkpt><trkpt lat="42.5312927" lon="12.3427589"><ele>301.0</ele><time>2026-03-30T13:26:08.719Z</time></trkpt><trkpt lat="42.5313156" lon="12.3425781"><ele>301.0</ele><time>2026-03-30T13:26:09.705Z</time></trkpt><trkpt lat="42.5313352" lon="12.3424165"><ele>301.0</ele><time>2026-03-30T13:26:10.715Z</time></trkpt><trkpt lat="42.5313552" lon="12.3422712"><ele>301.0</ele><time>2026-03-30T13:26:11.715Z</time></trkpt><trkpt lat="42.5313794" lon="12.3421314"><ele>300.8333333333333</ele><time>2026-03-30T13:26:12.719Z</time></trkpt><trkpt lat="42.531403" lon="12.3419989"><ele>300.66666666666663</ele><time>2026-03-30T13:26:13.719Z</time></trkpt><trkpt lat="42.5314184" lon="12.3418886"><ele>300.5</ele><time>2026-03-30T13:26:14.704Z</time></trkpt><trkpt lat="42.5314372" lon="12.3417894"><ele>300.3333333333333</ele><time>2026-03-30T13:26:15.711Z</time></trkpt><trkpt lat="42.531467" lon="12.341707"><ele>300.1666666666667</ele><time>2026-03-30T13:26:16.703Z</time></trkpt><trkpt lat="42.5315135" lon="12.3416447"><ele>300.0</ele><time>2026-03-30T13:26:17.711Z</time></trkpt><trkpt lat="42.5315755" lon="12.3415876"><ele>300.0</ele><time>2026-03-30T13:26:18.705Z</time></trkpt><trkpt lat="42.5316603" lon="12.3415281"><ele>300.0</ele><time>2026-03-30T13:26:19.714Z</time></trkpt><trkpt lat="42.531753" lon="12.3414605"><ele>300.0</ele><time>2026-03-30T13:26:20.719Z</time></trkpt><trkpt lat="42.5318414" lon="12.341403"><ele>300.0</ele><time>2026-03-30T13:26:21.703Z</time></trkpt><trkpt lat="42.5319228" lon="12.3413471"><ele>300.0</ele><time>2026-03-30T13:26:22.7Z</time></trkpt><trkpt lat="42.5320076" lon="12.3413091"><ele>299.4</ele><time>2026-03-30T13:26:23.705Z</time></trkpt><trkpt lat="42.5320992" lon="12.3412705"><ele>298.8</ele><time>2026-03-30T13:26:24.712Z</time></trkpt><trkpt lat="42.532204" lon="12.3412465"><ele>298.2</ele><time>2026-03-30T13:26:25.709Z</time></trkpt><trkpt lat="42.53232" lon="12.3412313"><ele>297.6</ele><time>2026-03-30T13:26:26.716Z</time></trkpt><trkpt lat="42.5324352" lon="12.3412217"><ele>297.0</ele><time>2026-03-30T13:26:27.717Z</time></trkpt><trkpt lat="42.5325571" lon="12.3412113"><ele>297.0</ele><time>2026-03-30T13:26:28.708Z</time></trkpt><trkpt lat="42.5326877" lon="12.3411961"><ele>297.0</ele><time>2026-03-30T13:26:29.715Z</time></trkpt><trkpt lat="42.5328083" lon="12.3411842"><ele>297.0</ele><time>2026-03-30T13:26:30.718Z</time></trkpt><trkpt lat="42.5329283" lon="12.3411684"><ele>297.0</ele><time>2026-03-30T13:26:31.707Z</time></trkpt><trkpt lat="42.5330454" lon="12.3411603"><ele>297.5</ele><time>2026-03-30T13:26:32.719Z</time></trkpt><trkpt lat="42.5331666" lon="12.3411611"><ele>298.0</ele><time>2026-03-30T13:26:33.708Z</time></trkpt><trkpt lat="42.5332908" lon="12.3411707"><ele>298.5</ele><time>2026-03-30T13:26:34.726Z</time></trkpt><trkpt lat="42.5334163" lon="12.3411911"><ele>299.0</ele><time>2026-03-30T13:26:35.715Z</time></trkpt><trkpt lat="42.5335411" lon="12.341223"><ele>299.0</ele><time>2026-03-30T13:26:36.712Z</time></trkpt><trkpt lat="42.5336528" lon="12.341253"><ele>299.0</ele><time>2026-03-30T13:26:37.708Z</time></trkpt><trkpt lat="42.5337575" lon="12.3412842"><ele>299.0</ele><time>2026-03-30T13:26:38.707Z</time></trkpt><trkpt lat="42.5338511" lon="12.3413103"><ele>299.0</ele><time>2026-03-30T13:26:39.719Z</time></trkpt><trkpt lat="42.5339383" lon="12.3413394"><ele>299.0</ele><time>2026-03-30T13:26:40.716Z</time></trkpt><trkpt lat="42.5340189" lon="12.3413651"><ele>299.2857142857143</ele><time>2026-03-30T13:26:41.704Z</time></trkpt><trkpt lat="42.5340951" lon="12.3413753"><ele>299.57142857142856</ele><time>2026-03-30T13:26:42.708Z</time></trkpt><trkpt lat="42.5341638" lon="12.3413633"><ele>299.8571428571429</ele><time>2026-03-30T13:26:43.72Z</time></trkpt><trkpt lat="42.5342252" lon="12.3413247"><ele>300.1428571428571</ele><time>2026-03-30T13:26:44.718Z</time></trkpt><trkpt lat="42.5342697" lon="12.3412471"><ele>300.42857142857144</ele><time>2026-03-30T13:26:45.714Z</time></trkpt><trkpt lat="42.5343025" lon="12.3411585"><ele>300.7142857142857</ele><time>2026-03-30T13:26:46.717Z</time></trkpt><trkpt lat="42.5343335" lon="12.3410619"><ele>301.0</ele><time>2026-03-30T13:26:47.705Z</time></trkpt><trkpt lat="42.5343765" lon="12.3409579"><ele>301.0</ele><time>2026-03-30T13:26:48.717Z</time></trkpt><trkpt lat="42.5344398" lon="12.3408412"><ele>301.0</ele><time>2026-03-30T13:26:49.706Z</time></trkpt><trkpt lat="42.5345152" lon="12.3407269"><ele>301.0</ele><time>2026-03-30T13:26:50.709Z</time></trkpt><trkpt lat="42.5346035" lon="12.3406113"><ele>301.0</ele><time>2026-03-30T13:26:51.713Z</time></trkpt><trkpt lat="42.5347061" lon="12.3404783"><ele>301.75</ele><time>2026-03-30T13:26:52.712Z</time></trkpt><trkpt lat="42.5348039" lon="12.3403527"><ele>302.5</ele><time>2026-03-30T13:26:53.717Z</time></trkpt><trkpt lat="42.5348923" lon="12.3402383"><ele>303.25</ele><time>2026-03-30T13:26:54.713Z</time></trkpt><trkpt lat="42.53497" lon="12.3401359"><ele>304.0</ele><time>2026-03-30T13:26:55.735Z</time></trkpt><trkpt lat="42.535027" lon="12.3400465"><ele>304.0</ele><time>2026-03-30T13:26:56.707Z</time></trkpt><trkpt lat="42.5350841" lon="12.3399929"><ele>304.0</ele><time>2026-03-30T13:26:57.723Z</time></trkpt><trkpt lat="42.535208" lon="12.3400063"><ele>304.0</ele><time>2026-03-30T13:26:59.701Z</time></trkpt><trkpt lat="42.5352793" lon="12.3400797"><ele>304.0</ele><time>2026-03-30T13:27:00.714Z</time></trkpt><trkpt lat="42.5353411" lon="12.3401939"><ele>304.0</ele><time>2026-03-30T13:27:01.721Z</time></trkpt><trkpt lat="42.5353988" lon="12.340302"><ele>304.0</ele><time>2026-03-30T13:27:02.704Z</time></trkpt><trkpt lat="42.5354648" lon="12.3403723"><ele>304.0</ele><time>2026-03-30T13:27:03.719Z</time></trkpt><trkpt lat="42.5355462" lon="12.3404144"><ele>304.0</ele><time>2026-03-30T13:27:04.717Z</time></trkpt><trkpt lat="42.5356377" lon="12.3404403"><ele>304.0</ele><time>2026-03-30T13:27:05.713Z</time></trkpt><trkpt lat="42.5357479" lon="12.3404533"><ele>304.0</ele><time>2026-03-30T13:27:06.706Z</time></trkpt><trkpt lat="42.5358661" lon="12.3404713"><ele>304.0</ele><time>2026-03-30T13:27:07.715Z</time></trkpt><trkpt lat="42.5359775" lon="12.3404973"><ele>304.0</ele><time>2026-03-30T13:27:08.718Z</time></trkpt><trkpt lat="42.5360858" lon="12.3405318"><ele>304.0</ele><time>2026-03-30T13:27:09.71Z</time></trkpt><trkpt lat="42.5361889" lon="12.3405868"><ele>304.0</ele><time>2026-03-30T13:27:10.708Z</time></trkpt><trkpt lat="42.5362885" lon="12.3406723"><ele>305.5</ele><time>2026-03-30T13:27:11.707Z</time></trkpt><trkpt lat="42.5363869" lon="12.340797"><ele>307.0</ele><time>2026-03-30T13:27:12.713Z</time></trkpt><trkpt lat="42.5364946" lon="12.3409215"><ele>308.5</ele><time>2026-03-30T13:27:13.706Z</time></trkpt><trkpt lat="42.536595" lon="12.3410478"><ele>310.0</ele><time>2026-03-30T13:27:14.717Z</time></trkpt><trkpt lat="42.5366948" lon="12.341168"><ele>310.0</ele><time>2026-03-30T13:27:15.72Z</time></trkpt><trkpt lat="42.5367935" lon="12.3412872"><ele>310.0</ele><time>2026-03-30T13:27:16.717Z</time></trkpt><trkpt lat="42.5368999" lon="12.3414035"><ele>310.0</ele><time>2026-03-30T13:27:17.719Z</time></trkpt><trkpt lat="42.5370067" lon="12.3415159"><ele>310.0</ele><time>2026-03-30T13:27:18.719Z</time></trkpt><trkpt lat="42.5371069" lon="12.34163"><ele>310.75</ele><time>2026-03-30T13:27:19.719Z</time></trkpt><trkpt lat="42.537207" lon="12.341741"><ele>311.5</ele><time>2026-03-30T13:27:20.713Z</time></trkpt><trkpt lat="42.5373" lon="12.3418455"><ele>312.25</ele><time>2026-03-30T13:27:21.72Z</time></trkpt><trkpt lat="42.5373903" lon="12.3419497"><ele>313.0</ele><time>2026-03-30T13:27:22.713Z</time></trkpt><trkpt lat="42.5374826" lon="12.3420563"><ele>313.0</ele><time>2026-03-30T13:27:23.714Z</time></trkpt><trkpt lat="42.5375749" lon="12.3421642"><ele>313.0</ele><time>2026-03-30T13:27:24.72Z</time></trkpt><trkpt lat="42.5376662" lon="12.3422747"><ele>313.0</ele><time>2026-03-30T13:27:25.71Z</time></trkpt><trkpt lat="42.5377543" lon="12.3423818"><ele>313.0</ele><time>2026-03-30T13:27:26.698Z</time></trkpt><trkpt lat="42.5378283" lon="12.3424807"><ele>314.16666666666663</ele><time>2026-03-30T13:27:27.717Z</time></trkpt><trkpt lat="42.5378897" lon="12.3425603"><ele>315.3333333333333</ele><time>2026-03-30T13:27:28.72Z</time></trkpt><trkpt lat="42.5379374" lon="12.3426218"><ele>316.5</ele><time>2026-03-30T13:27:29.707Z</time></trkpt><trkpt lat="42.5380186" lon="12.3427433"><ele>317.6666666666667</ele><time>2026-03-30T13:27:32.709Z</time></trkpt><trkpt lat="42.5380656" lon="12.3428144"><ele>318.83333333333337</ele><time>2026-03-30T13:27:37.704Z</time></trkpt><trkpt lat="42.538131" lon="12.3429071"><ele>320.0</ele><time>2026-03-30T13:27:40.714Z</time></trkpt><trkpt lat="42.53821" lon="12.3430279"><ele>320.5</ele><time>2026-03-30T13:27:42.723Z</time></trkpt><trkpt lat="42.5382894" lon="12.343161"><ele>321.0</ele><time>2026-03-30T13:27:44.706Z</time></trkpt><trkpt lat="42.5383306" lon="12.343237"><ele>321.5</ele><time>2026-03-30T13:27:45.724Z</time></trkpt><trkpt lat="42.5383782" lon="12.343308"><ele>322.0</ele><time>2026-03-30T13:27:46.712Z</time></trkpt><trkpt lat="42.5384316" lon="12.3433782"><ele>322.5</ele><time>2026-03-30T13:27:47.713Z</time></trkpt><trkpt lat="42.538488" lon="12.3434442"><ele>323.0</ele><time>2026-03-30T13:27:48.714Z</time></trkpt><trkpt lat="42.5385532" lon="12.3435038"><ele>323.0</ele><time>2026-03-30T13:27:49.718Z</time></trkpt><trkpt lat="42.5386219" lon="12.3435649"><ele>323.0</ele><time>2026-03-30T13:27:50.719Z</time></trkpt><trkpt lat="42.5386893" lon="12.3436158"><ele>323.0</ele><time>2026-03-30T13:27:51.722Z</time></trkpt><trkpt lat="42.5387586" lon="12.3436639"><ele>323.0</ele><time>2026-03-30T13:27:52.717Z</time></trkpt><trkpt lat="42.5388244" lon="12.343716"><ele>323.0</ele><time>2026-03-30T13:27:53.712Z</time></trkpt><trkpt lat="42.538891" lon="12.3437711"><ele>323.0</ele><time>2026-03-30T13:27:54.716Z</time></trkpt><trkpt lat="42.5389535" lon="12.3438199"><ele>322.83333333333337</ele><time>2026-03-30T13:27:55.72Z</time></trkpt><trkpt lat="42.5390117" lon="12.3438636"><ele>322.6666666666667</ele><time>2026-03-30T13:27:56.718Z</time></trkpt><trkpt lat="42.5390716" lon="12.3439047"><ele>322.5</ele><time>2026-03-30T13:27:57.718Z</time></trkpt><trkpt lat="42.5391331" lon="12.3439456"><ele>322.3333333333333</ele><time>2026-03-30T13:27:58.718Z</time></trkpt><trkpt lat="42.5391916" lon="12.3439993"><ele>322.16666666666663</ele><time>2026-03-30T13:27:59.721Z</time></trkpt><trkpt lat="42.5392707" lon="12.3441109"><ele>322.0</ele><time>2026-03-30T13:28:01.72Z</time></trkpt><trkpt lat="42.5393509" lon="12.3441197"><ele>322.0</ele><time>2026-03-30T13:28:04.714Z</time></trkpt><trkpt lat="42.5393951" lon="12.34404"><ele>322.0</ele><time>2026-03-30T13:28:05.705Z</time></trkpt><trkpt lat="42.5394411" lon="12.3439072"><ele>322.0</ele><time>2026-03-30T13:28:06.713Z</time></trkpt><trkpt lat="42.5394889" lon="12.3437579"><ele>322.0</ele><time>2026-03-30T13:28:07.711Z</time></trkpt><trkpt lat="42.5395345" lon="12.3436216"><ele>322.0</ele><time>2026-03-30T13:28:08.706Z</time></trkpt><trkpt lat="42.5395746" lon="12.3434895"><ele>321.8333333333333</ele><time>2026-03-30T13:28:09.705Z</time></trkpt><trkpt lat="42.5396115" lon="12.3433717"><ele>321.66666666666663</ele><time>2026-03-30T13:28:10.701Z</time></trkpt><trkpt lat="42.5396463" lon="12.3432645"><ele>321.5</ele><time>2026-03-30T13:28:11.708Z</time></trkpt><trkpt lat="42.5396816" lon="12.3431692"><ele>321.3333333333333</ele><time>2026-03-30T13:28:12.717Z</time></trkpt><trkpt lat="42.5397308" lon="12.3430884"><ele>321.1666666666667</ele><time>2026-03-30T13:28:13.718Z</time></trkpt><trkpt lat="42.5397994" lon="12.3430105"><ele>321.0</ele><time>2026-03-30T13:28:14.716Z</time></trkpt><trkpt lat="42.5398784" lon="12.3429271"><ele>320.2</ele><time>2026-03-30T13:28:15.712Z</time></trkpt><trkpt lat="42.5399585" lon="12.3428443"><ele>319.40000000000003</ele><time>2026-03-30T13:28:16.706Z</time></trkpt><trkpt lat="42.5400319" lon="12.3427553"><ele>318.6</ele><time>2026-03-30T13:28:17.709Z</time></trkpt><trkpt lat="42.5400989" lon="12.3426598"><ele>317.8</ele><time>2026-03-30T13:28:18.707Z</time></trkpt><trkpt lat="42.5401601" lon="12.3425498"><ele>317.0</ele><time>2026-03-30T13:28:19.692Z</time></trkpt><trkpt lat="42.540212" lon="12.3424339"><ele>317.0</ele><time>2026-03-30T13:28:20.703Z</time></trkpt><trkpt lat="42.5402474" lon="12.3423131"><ele>317.0</ele><time>2026-03-30T13:28:21.696Z</time></trkpt><trkpt lat="42.5402738" lon="12.3421736"><ele>317.0</ele><time>2026-03-30T13:28:22.702Z</time></trkpt><trkpt lat="42.5402969" lon="12.3420207"><ele>317.0</ele><time>2026-03-30T13:28:23.705Z</time></trkpt><trkpt lat="42.5403371" lon="12.3418752"><ele>317.0</ele><time>2026-03-30T13:28:24.714Z</time></trkpt><trkpt lat="42.5403754" lon="12.3417296"><ele>316.6</ele><time>2026-03-30T13:28:25.707Z</time></trkpt><trkpt lat="42.5404157" lon="12.3415951"><ele>316.2</ele><time>2026-03-30T13:28:26.716Z</time></trkpt><trkpt lat="42.5404545" lon="12.3414789"><ele>315.8</ele><time>2026-03-30T13:28:27.706Z</time></trkpt><trkpt lat="42.5404977" lon="12.3413684"><ele>315.4</ele><time>2026-03-30T13:28:28.714Z</time></trkpt><trkpt lat="42.5405396" lon="12.3412473"><ele>315.0</ele><time>2026-03-30T13:28:29.716Z</time></trkpt><trkpt lat="42.5405779" lon="12.3411116"><ele>315.0</ele><time>2026-03-30T13:28:30.706Z</time></trkpt><trkpt lat="42.5406077" lon="12.3410034"><ele>315.0</ele><time>2026-03-30T13:28:31.711Z</time></trkpt><trkpt lat="42.5406546" lon="12.3408692"><ele>315.0</ele><time>2026-03-30T13:28:33.716Z</time></trkpt><trkpt lat="42.5407576" lon="12.3407211"><ele>315.0</ele><time>2026-03-30T13:28:35.707Z</time></trkpt><trkpt lat="42.5408388" lon="12.3406117"><ele>315.25</ele><time>2026-03-30T13:28:36.712Z</time></trkpt><trkpt lat="42.5409176" lon="12.3405164"><ele>315.5</ele><time>2026-03-30T13:28:37.715Z</time></trkpt><trkpt lat="42.5409773" lon="12.3404324"><ele>315.75</ele><time>2026-03-30T13:28:39.501Z</time></trkpt><trkpt lat="42.5411352" lon="12.3403251"><ele>316.0</ele><time>2026-03-30T13:28:40.708Z</time></trkpt><trkpt lat="42.5412468" lon="12.3402716"><ele>317.0</ele><time>2026-03-30T13:28:41.701Z</time></trkpt><trkpt lat="42.541366" lon="12.3402067"><ele>318.0</ele><time>2026-03-30T13:28:42.708Z</time></trkpt><trkpt lat="42.5414858" lon="12.3401326"><ele>319.0</ele><time>2026-03-30T13:28:43.704Z</time></trkpt><trkpt lat="42.5416202" lon="12.3400523"><ele>320.0</ele><time>2026-03-30T13:28:44.711Z</time></trkpt><trkpt lat="42.5417512" lon="12.3399768"><ele>320.0</ele><time>2026-03-30T13:28:45.697Z</time></trkpt><trkpt lat="42.5418655" lon="12.3399041"><ele>320.0</ele><time>2026-03-30T13:28:46.701Z</time></trkpt><trkpt lat="42.5419713" lon="12.3398359"><ele>320.0</ele><time>2026-03-30T13:28:47.702Z</time></trkpt><trkpt lat="42.542059" lon="12.3397806"><ele>320.0</ele><time>2026-03-30T13:28:48.7Z</time></trkpt><trkpt lat="42.5421201" lon="12.3397372"><ele>320.0</ele><time>2026-03-30T13:28:49.704Z</time></trkpt><trkpt lat="42.5422348" lon="12.3396576"><ele>321.0</ele><time>2026-03-30T13:28:51.707Z</time></trkpt><trkpt lat="42.5423025" lon="12.339605"><ele>322.0</ele><time>2026-03-30T13:28:52.713Z</time></trkpt><trkpt lat="42.5423819" lon="12.3395382"><ele>323.0</ele><time>2026-03-30T13:28:53.707Z</time></trkpt><trkpt lat="42.542464" lon="12.3394688"><ele>324.0</ele><time>2026-03-30T13:28:54.71Z</time></trkpt><trkpt lat="42.5425523" lon="12.3393835"><ele>325.0</ele><time>2026-03-30T13:28:55.718Z</time></trkpt><trkpt lat="42.5426489" lon="12.3392822"><ele>325.0</ele><time>2026-03-30T13:28:56.716Z</time></trkpt><trkpt lat="42.542749" lon="12.3391798"><ele>325.0</ele><time>2026-03-30T13:28:57.71Z</time></trkpt><trkpt lat="42.5428546" lon="12.3390754"><ele>325.0</ele><time>2026-03-30T13:28:58.717Z</time></trkpt><trkpt lat="42.5429556" lon="12.3389791"><ele>325.0</ele><time>2026-03-30T13:28:59.709Z</time></trkpt><trkpt lat="42.543051" lon="12.3388799"><ele>326.0</ele><time>2026-03-30T13:29:00.714Z</time></trkpt><trkpt lat="42.5431462" lon="12.3387861"><ele>327.0</ele><time>2026-03-30T13:29:01.714Z</time></trkpt><trkpt lat="42.5432375" lon="12.338696"><ele>328.0</ele><time>2026-03-30T13:29:02.707Z</time></trkpt><trkpt lat="42.5433178" lon="12.3386148"><ele>329.0</ele><time>2026-03-30T13:29:03.718Z</time></trkpt><trkpt lat="42.5433913" lon="12.3385389"><ele>330.0</ele><time>2026-03-30T13:29:04.718Z</time></trkpt><trkpt lat="42.5434684" lon="12.3384669"><ele>330.0</ele><time>2026-03-30T13:29:05.717Z</time></trkpt><trkpt lat="42.5435501" lon="12.3383852"><ele>330.0</ele><time>2026-03-30T13:29:06.715Z</time></trkpt><trkpt lat="42.5436297" lon="12.3382926"><ele>330.0</ele><time>2026-03-30T13:29:07.713Z</time></trkpt><trkpt lat="42.5436899" lon="12.3381836"><ele>330.0</ele><time>2026-03-30T13:29:08.707Z</time></trkpt><trkpt lat="42.5437307" lon="12.3380962"><ele>330.0</ele><time>2026-03-30T13:29:09.716Z</time></trkpt><trkpt lat="42.5437827" lon="12.3379952"><ele>330.1666666666667</ele><time>2026-03-30T13:29:11.722Z</time></trkpt><trkpt lat="42.5437918" lon="12.3378869"><ele>330.3333333333333</ele><time>2026-03-30T13:29:14.708Z</time></trkpt><trkpt lat="42.5437611" lon="12.3378043"><ele>330.5</ele><time>2026-03-30T13:29:15.72Z</time></trkpt><trkpt lat="42.5437111" lon="12.3377072"><ele>330.66666666666663</ele><time>2026-03-30T13:29:16.721Z</time></trkpt><trkpt lat="42.5436545" lon="12.3376039"><ele>330.8333333333333</ele><time>2026-03-30T13:29:17.716Z</time></trkpt><trkpt lat="42.5435964" lon="12.3374942"><ele>331.0</ele><time>2026-03-30T13:29:18.715Z</time></trkpt><trkpt lat="42.5435355" lon="12.3373688"><ele>330.5</ele><time>2026-03-30T13:29:19.72Z</time></trkpt><trkpt lat="42.5434731" lon="12.3372434"><ele>330.0</ele><time>2026-03-30T13:29:20.716Z</time></trkpt><trkpt lat="42.543411" lon="12.3371163"><ele>329.5</ele><time>2026-03-30T13:29:21.722Z</time></trkpt><trkpt lat="42.5433428" lon="12.3369805"><ele>329.0</ele><time>2026-03-30T13:29:22.721Z</time></trkpt><trkpt lat="42.5432684" lon="12.3368418"><ele>328.79999999999995</ele><time>2026-03-30T13:29:23.719Z</time></trkpt><trkpt lat="42.5431954" lon="12.3367281"><ele>328.59999999999997</ele><time>2026-03-30T13:29:24.718Z</time></trkpt><trkpt lat="42.5431186" lon="12.3366235"><ele>328.4</ele><time>2026-03-30T13:29:25.723Z</time></trkpt><trkpt lat="42.5430364" lon="12.3365364"><ele>328.2</ele><time>2026-03-30T13:29:26.72Z</time></trkpt><trkpt lat="42.5429397" lon="12.3364547"><ele>328.0</ele><time>2026-03-30T13:29:27.721Z</time></trkpt><trkpt lat="42.5428337" lon="12.3363738"><ele>327.5</ele><time>2026-03-30T13:29:28.716Z</time></trkpt><trkpt lat="42.5427276" lon="12.3362946"><ele>327.0</ele><time>2026-03-30T13:29:29.708Z</time></trkpt><trkpt lat="42.5426221" lon="12.3362195"><ele>326.5</ele><time>2026-03-30T13:29:30.716Z</time></trkpt><trkpt lat="42.5425233" lon="12.3361554"><ele>326.0</ele><time>2026-03-30T13:29:31.726Z</time></trkpt><trkpt lat="42.5424253" lon="12.3360968"><ele>326.0</ele><time>2026-03-30T13:29:32.717Z</time></trkpt><trkpt lat="42.5423213" lon="12.3360344"><ele>326.0</ele><time>2026-03-30T13:29:33.724Z</time></trkpt><trkpt lat="42.5422129" lon="12.3359653"><ele>326.0</ele><time>2026-03-30T13:29:34.718Z</time></trkpt><trkpt lat="42.5420985" lon="12.3358872"><ele>326.0</ele><time>2026-03-30T13:29:35.723Z</time></trkpt><trkpt lat="42.5419823" lon="12.335815"><ele>325.0</ele><time>2026-03-30T13:29:36.718Z</time></trkpt><trkpt lat="42.5418726" lon="12.3357464"><ele>324.0</ele><time>2026-03-30T13:29:37.71Z</time></trkpt><trkpt lat="42.5417698" lon="12.3356836"><ele>323.0</ele><time>2026-03-30T13:29:38.717Z</time></trkpt><trkpt lat="42.5416725" lon="12.3356307"><ele>322.0</ele><time>2026-03-30T13:29:39.723Z</time></trkpt><trkpt lat="42.5415761" lon="12.3355876"><ele>321.0</ele><time>2026-03-30T13:29:40.711Z</time></trkpt><trkpt lat="42.5414837" lon="12.3355648"><ele>321.0</ele><time>2026-03-30T13:29:41.706Z</time></trkpt><trkpt lat="42.5413935" lon="12.3355725"><ele>321.0</ele><time>2026-03-30T13:29:42.713Z</time></trkpt><trkpt lat="42.5413013" lon="12.3356031"><ele>321.0</ele><time>2026-03-30T13:29:43.72Z</time></trkpt><trkpt lat="42.5412139" lon="12.3356636"><ele>321.0</ele><time>2026-03-30T13:29:44.714Z</time></trkpt><trkpt lat="42.5411277" lon="12.3357507"><ele>321.0</ele><time>2026-03-30T13:29:45.718Z</time></trkpt><trkpt lat="42.5410449" lon="12.3358408"><ele>319.25</ele><time>2026-03-30T13:29:47.659Z</time></trkpt><trkpt lat="42.5409022" lon="12.3360106"><ele>317.5</ele><time>2026-03-30T13:29:48.705Z</time></trkpt><trkpt lat="42.5408347" lon="12.3360896"><ele>315.75</ele><time>2026-03-30T13:29:49.721Z</time></trkpt><trkpt lat="42.5407706" lon="12.3361681"><ele>314.0</ele><time>2026-03-30T13:29:50.717Z</time></trkpt><trkpt lat="42.5407155" lon="12.3362559"><ele>314.0</ele><time>2026-03-30T13:29:51.713Z</time></trkpt><trkpt lat="42.5406798" lon="12.3363527"><ele>314.0</ele><time>2026-03-30T13:29:52.717Z</time></trkpt><trkpt lat="42.5406519" lon="12.3364626"><ele>314.0</ele><time>2026-03-30T13:29:53.712Z</time></trkpt><trkpt lat="42.5406366" lon="12.3365831"><ele>314.0</ele><time>2026-03-30T13:29:54.714Z</time></trkpt><trkpt lat="42.5406194" lon="12.3366966"><ele>314.0</ele><time>2026-03-30T13:29:55.724Z</time></trkpt><trkpt lat="42.5405858" lon="12.3368053"><ele>314.0</ele><time>2026-03-30T13:29:56.713Z</time></trkpt><trkpt lat="42.5405259" lon="12.3368881"><ele>314.4</ele><time>2026-03-30T13:29:57.717Z</time></trkpt><trkpt lat="42.5404446" lon="12.3369431"><ele>314.79999999999995</ele><time>2026-03-30T13:29:58.714Z</time></trkpt><trkpt lat="42.5403437" lon="12.3369852"><ele>315.20000000000005</ele><time>2026-03-30T13:29:59.711Z</time></trkpt><trkpt lat="42.5402425" lon="12.3370235"><ele>315.6</ele><time>2026-03-30T13:30:00.714Z</time></trkpt><trkpt lat="42.5401508" lon="12.3370562"><ele>316.0</ele><time>2026-03-30T13:30:01.712Z</time></trkpt><trkpt lat="42.5400621" lon="12.3370857"><ele>314.5</ele><time>2026-03-30T13:30:02.703Z</time></trkpt><trkpt lat="42.5399775" lon="12.3371147"><ele>313.0</ele><time>2026-03-30T13:30:03.723Z</time></trkpt><trkpt lat="42.5399022" lon="12.3371509"><ele>311.5</ele><time>2026-03-30T13:30:04.715Z</time></trkpt><trkpt lat="42.5398375" lon="12.337197"><ele>310.0</ele><time>2026-03-30T13:30:05.704Z</time></trkpt><trkpt lat="42.5397896" lon="12.3372814"><ele>308.5</ele><time>2026-03-30T13:30:06.715Z</time></trkpt><trkpt lat="42.53975" lon="12.3374198"><ele>307.0</ele><time>2026-03-30T13:30:07.714Z</time></trkpt><trkpt lat="42.5397171" lon="12.3375552"><ele>307.0</ele><time>2026-03-30T13:30:08.706Z</time></trkpt><trkpt lat="42.5396826" lon="12.3377119"><ele>307.0</ele><time>2026-03-30T13:30:09.707Z</time></trkpt><trkpt lat="42.5396468" lon="12.3378482"><ele>307.0</ele><time>2026-03-30T13:30:10.707Z</time></trkpt><trkpt lat="42.5396139" lon="12.337972"><ele>307.0</ele><time>2026-03-30T13:30:11.714Z</time></trkpt><trkpt lat="42.539586" lon="12.3380794"><ele>307.0</ele><time>2026-03-30T13:30:12.707Z</time></trkpt><trkpt lat="42.5395541" lon="12.3381719"><ele>304.6</ele><time>2026-03-30T13:30:13.713Z</time></trkpt><trkpt lat="42.5395018" lon="12.3382603"><ele>302.2</ele><time>2026-03-30T13:30:14.708Z</time></trkpt><trkpt lat="42.5394337" lon="12.3383441"><ele>299.8</ele><time>2026-03-30T13:30:15.706Z</time></trkpt><trkpt lat="42.5393425" lon="12.3384103"><ele>297.4</ele><time>2026-03-30T13:30:16.712Z</time></trkpt><trkpt lat="42.5392487" lon="12.3384698"><ele>295.0</ele><time>2026-03-30T13:30:17.708Z</time></trkpt><trkpt lat="42.5391598" lon="12.3385271"><ele>295.0</ele><time>2026-03-30T13:30:18.718Z</time></trkpt><trkpt lat="42.5390773" lon="12.3385889"><ele>295.0</ele><time>2026-03-30T13:30:19.718Z</time></trkpt><trkpt lat="42.5390005" lon="12.3386586"><ele>295.0</ele><time>2026-03-30T13:30:20.713Z</time></trkpt><trkpt lat="42.5389389" lon="12.3387433"><ele>295.0</ele><time>2026-03-30T13:30:21.714Z</time></trkpt><trkpt lat="42.5388857" lon="12.33885"><ele>295.0</ele><time>2026-03-30T13:30:22.716Z</time></trkpt><trkpt lat="42.5388366" lon="12.3389809"><ele>296.6</ele><time>2026-03-30T13:30:23.715Z</time></trkpt><trkpt lat="42.5387962" lon="12.3391271"><ele>298.2</ele><time>2026-03-30T13:30:24.707Z</time></trkpt><trkpt lat="42.5387761" lon="12.3392758"><ele>299.8</ele><time>2026-03-30T13:30:25.712Z</time></trkpt><trkpt lat="42.5387809" lon="12.3394156"><ele>301.4</ele><time>2026-03-30T13:30:26.709Z</time></trkpt><trkpt lat="42.5387879" lon="12.3395369"><ele>303.0</ele><time>2026-03-30T13:30:27.712Z</time></trkpt><trkpt lat="42.5387853" lon="12.3396453"><ele>303.3333333333333</ele><time>2026-03-30T13:30:28.713Z</time></trkpt><trkpt lat="42.5387562" lon="12.33974"><ele>303.6666666666667</ele><time>2026-03-30T13:30:29.707Z</time></trkpt><trkpt lat="42.5386977" lon="12.339786"><ele>304.0</ele><time>2026-03-30T13:30:30.703Z</time></trkpt><trkpt lat="42.5386212" lon="12.3397714"><ele>304.33333333333337</ele><time>2026-03-30T13:30:31.703Z</time></trkpt><trkpt lat="42.5385438" lon="12.3397187"><ele>304.6666666666667</ele><time>2026-03-30T13:30:32.713Z</time></trkpt><trkpt lat="42.5384731" lon="12.3396272"><ele>305.0</ele><time>2026-03-30T13:30:33.715Z</time></trkpt><trkpt lat="42.5383945" lon="12.3395146"><ele>301.8</ele><time>2026-03-30T13:30:34.715Z</time></trkpt><trkpt lat="42.5383135" lon="12.3394146"><ele>298.6</ele><time>2026-03-30T13:30:35.717Z</time></trkpt><trkpt lat="42.5382368" lon="12.3393249"><ele>295.4</ele><time>2026-03-30T13:30:36.708Z</time></trkpt><trkpt lat="42.5381761" lon="12.3392266"><ele>292.2</ele><time>2026-03-30T13:30:37.718Z</time></trkpt><trkpt lat="42.5381387" lon="12.3391134"><ele>289.0</ele><time>2026-03-30T13:30:38.716Z</time></trkpt><trkpt lat="42.5381236" lon="12.3389914"><ele>287.2</ele><time>2026-03-30T13:30:39.713Z</time></trkpt><trkpt lat="42.5381414" lon="12.3388594"><ele>285.4</ele><time>2026-03-30T13:30:40.711Z</time></trkpt><trkpt lat="42.5381879" lon="12.3387233"><ele>283.6</ele><time>2026-03-30T13:30:41.711Z</time></trkpt><trkpt lat="42.5382591" lon="12.3385956"><ele>281.8</ele><time>2026-03-30T13:30:42.705Z</time></trkpt><trkpt lat="42.5383318" lon="12.3384778"><ele>280.0</ele><time>2026-03-30T13:30:43.709Z</time></trkpt><trkpt lat="42.5384079" lon="12.3383569"><ele>280.0</ele><time>2026-03-30T13:30:44.709Z</time></trkpt><trkpt lat="42.5384824" lon="12.3382421"><ele>280.0</ele><time>2026-03-30T13:30:45.71Z</time></trkpt><trkpt lat="42.5385457" lon="12.3381313"><ele>280.0</ele><time>2026-03-30T13:30:46.714Z</time></trkpt><trkpt lat="42.5385903" lon="12.3380156"><ele>280.0</ele><time>2026-03-30T13:30:47.713Z</time></trkpt><trkpt lat="42.5386125" lon="12.3378789"><ele>280.0</ele><time>2026-03-30T13:30:48.71Z</time></trkpt><trkpt lat="42.5386095" lon="12.3377216"><ele>278.25</ele><time>2026-03-30T13:30:49.716Z</time></trkpt><trkpt lat="42.5385858" lon="12.3375588"><ele>276.5</ele><time>2026-03-30T13:30:50.709Z</time></trkpt><trkpt lat="42.5385561" lon="12.3373999"><ele>274.75</ele><time>2026-03-30T13:30:51.71Z</time></trkpt><trkpt lat="42.538541" lon="12.3372295"><ele>273.0</ele><time>2026-03-30T13:30:52.715Z</time></trkpt><trkpt lat="42.5385417" lon="12.3370534"><ele>272.0</ele><time>2026-03-30T13:30:53.714Z</time></trkpt><trkpt lat="42.5385606" lon="12.336865"><ele>271.0</ele><time>2026-03-30T13:30:54.715Z</time></trkpt><trkpt lat="42.5385863" lon="12.3366722"><ele>270.0</ele><time>2026-03-30T13:30:55.723Z</time></trkpt><trkpt lat="42.5386113" lon="12.336477"><ele>269.0</ele><time>2026-03-30T13:30:56.714Z</time></trkpt><trkpt lat="42.5386358" lon="12.3362757"><ele>268.5</ele><time>2026-03-30T13:30:57.716Z</time></trkpt><trkpt lat="42.5386627" lon="12.3360782"><ele>268.0</ele><time>2026-03-30T13:30:58.718Z</time></trkpt><trkpt lat="42.5386848" lon="12.3358994"><ele>267.5</ele><time>2026-03-30T13:30:59.719Z</time></trkpt><trkpt lat="42.5387056" lon="12.3357347"><ele>267.0</ele><time>2026-03-30T13:31:00.698Z</time></trkpt><trkpt lat="42.5387269" lon="12.3355715"><ele>269.25</ele><time>2026-03-30T13:31:01.713Z</time></trkpt><trkpt lat="42.5387455" lon="12.3354078"><ele>271.5</ele><time>2026-03-30T13:31:02.716Z</time></trkpt><trkpt lat="42.5387551" lon="12.335248"><ele>273.75</ele><time>2026-03-30T13:31:03.695Z</time></trkpt><trkpt lat="42.5387652" lon="12.335097"><ele>276.0</ele><time>2026-03-30T13:31:05.535Z</time></trkpt><trkpt lat="42.5387904" lon="12.3347762"><ele>274.25</ele><time>2026-03-30T13:31:06.706Z</time></trkpt><trkpt lat="42.5388067" lon="12.3346019"><ele>272.5</ele><time>2026-03-30T13:31:07.716Z</time></trkpt><trkpt lat="42.5388185" lon="12.3344387"><ele>270.75</ele><time>2026-03-30T13:31:08.716Z</time></trkpt><trkpt lat="42.538823" lon="12.3342873"><ele>269.0</ele><time>2026-03-30T13:31:09.717Z</time></trkpt><trkpt lat="42.5388133" lon="12.3341437"><ele>269.0</ele><time>2026-03-30T13:31:10.711Z</time></trkpt><trkpt lat="42.5387813" lon="12.3340152"><ele>269.0</ele><time>2026-03-30T13:31:11.716Z</time></trkpt><trkpt lat="42.5387261" lon="12.3339032"><ele>269.0</ele><time>2026-03-30T13:31:12.707Z</time></trkpt><trkpt lat="42.5386418" lon="12.3337899"><ele>269.0</ele><time>2026-03-30T13:31:13.713Z</time></trkpt><trkpt lat="42.5385363" lon="12.33368"><ele>265.75</ele><time>2026-03-30T13:31:14.714Z</time></trkpt><trkpt lat="42.5384221" lon="12.3335724"><ele>262.5</ele><time>2026-03-30T13:31:15.715Z</time></trkpt><trkpt lat="42.5382963" lon="12.3334519"><ele>259.25</ele><time>2026-03-30T13:31:16.705Z</time></trkpt><trkpt lat="42.5381847" lon="12.3333354"><ele>256.0</ele><time>2026-03-30T13:31:17.712Z</time></trkpt><trkpt lat="42.5380829" lon="12.3332327"><ele>256.0</ele><time>2026-03-30T13:31:18.707Z</time></trkpt><trkpt lat="42.5379835" lon="12.3331371"><ele>256.0</ele><time>2026-03-30T13:31:19.709Z</time></trkpt><trkpt lat="42.537888" lon="12.3330405"><ele>256.0</ele><time>2026-03-30T13:31:20.707Z</time></trkpt><trkpt lat="42.5377978" lon="12.332933"><ele>256.0</ele><time>2026-03-30T13:31:21.721Z</time></trkpt><trkpt lat="42.5377159" lon="12.3328209"><ele>253.5</ele><time>2026-03-30T13:31:22.716Z</time></trkpt><trkpt lat="42.5376478" lon="12.3326832"><ele>251.0</ele><time>2026-03-30T13:31:23.7Z</time></trkpt><trkpt lat="42.5375807" lon="12.332522"><ele>248.5</ele><time>2026-03-30T13:31:24.714Z</time></trkpt><trkpt lat="42.537516" lon="12.3323593"><ele>246.0</ele><time>2026-03-30T13:31:25.713Z</time></trkpt><trkpt lat="42.537458" lon="12.3322067"><ele>244.25</ele><time>2026-03-30T13:31:26.711Z</time></trkpt><trkpt lat="42.5374105" lon="12.3320686"><ele>242.5</ele><time>2026-03-30T13:31:27.704Z</time></trkpt><trkpt lat="42.5373857" lon="12.331928"><ele>240.75</ele><time>2026-03-30T13:31:28.715Z</time></trkpt><trkpt lat="42.5374022" lon="12.3317697"><ele>239.0</ele><time>2026-03-30T13:31:29.708Z</time></trkpt><trkpt lat="42.5374637" lon="12.3315944"><ele>239.0</ele><time>2026-03-30T13:31:30.708Z</time></trkpt><trkpt lat="42.5375445" lon="12.3314212"><ele>239.0</ele><time>2026-03-30T13:31:31.712Z</time></trkpt><trkpt lat="42.5376307" lon="12.3312218"><ele>239.0</ele><time>2026-03-30T13:31:32.701Z</time></trkpt><trkpt lat="42.5376973" lon="12.33101"><ele>236.0</ele><time>2026-03-30T13:31:33.707Z</time></trkpt><trkpt lat="42.5377574" lon="12.3308074"><ele>233.0</ele><time>2026-03-30T13:31:34.715Z</time></trkpt><trkpt lat="42.5378171" lon="12.3306218"><ele>230.0</ele><time>2026-03-30T13:31:35.715Z</time></trkpt><trkpt lat="42.5378747" lon="12.3304491"><ele>231.25</ele><time>2026-03-30T13:31:36.708Z</time></trkpt><trkpt lat="42.5379314" lon="12.3302903"><ele>232.5</ele><time>2026-03-30T13:31:37.713Z</time></trkpt><trkpt lat="42.5379844" lon="12.3301475"><ele>233.75</ele><time>2026-03-30T13:31:38.709Z</time></trkpt><trkpt lat="42.5380436" lon="12.3300078"><ele>235.0</ele><time>2026-03-30T13:31:39.716Z</time></trkpt><trkpt lat="42.5381123" lon="12.3298604"><ele>233.25</ele><time>2026-03-30T13:31:40.719Z</time></trkpt><trkpt lat="42.5381913" lon="12.329703"><ele>231.5</ele><time>2026-03-30T13:31:41.706Z</time></trkpt><trkpt lat="42.5382756" lon="12.3295469"><ele>229.75</ele><time>2026-03-30T13:31:42.718Z</time></trkpt><trkpt lat="42.5383577" lon="12.3294062"><ele>228.0</ele><time>2026-03-30T13:31:43.713Z</time></trkpt><trkpt lat="42.5384453" lon="12.3292824"><ele>228.0</ele><time>2026-03-30T13:31:44.715Z</time></trkpt><trkpt lat="42.538542" lon="12.3291658"><ele>228.0</ele><time>2026-03-30T13:31:45.707Z</time></trkpt><trkpt lat="42.5386375" lon="12.3290633"><ele>228.0</ele><time>2026-03-30T13:31:46.711Z</time></trkpt><trkpt lat="42.5387281" lon="12.3289616"><ele>228.0</ele><time>2026-03-30T13:31:47.704Z</time></trkpt><trkpt lat="42.5387984" lon="12.3288389"><ele>226.75</ele><time>2026-03-30T13:31:48.718Z</time></trkpt><trkpt lat="42.5388562" lon="12.3286826"><ele>225.5</ele><time>2026-03-30T13:31:49.711Z</time></trkpt><trkpt lat="42.5388998" lon="12.3285186"><ele>224.25</ele><time>2026-03-30T13:31:50.714Z</time></trkpt><trkpt lat="42.5389318" lon="12.3283458"><ele>223.0</ele><time>2026-03-30T13:31:51.704Z</time></trkpt><trkpt lat="42.5389567" lon="12.3281773"><ele>221.4</ele><time>2026-03-30T13:31:52.723Z</time></trkpt><trkpt lat="42.5389774" lon="12.3280184"><ele>219.8</ele><time>2026-03-30T13:31:53.717Z</time></trkpt><trkpt lat="42.5389975" lon="12.3278682"><ele>218.2</ele><time>2026-03-30T13:31:54.719Z</time></trkpt><trkpt lat="42.539025" lon="12.327731"><ele>216.6</ele><time>2026-03-30T13:31:55.712Z</time></trkpt><trkpt lat="42.5390694" lon="12.3276049"><ele>215.0</ele><time>2026-03-30T13:31:56.708Z</time></trkpt><trkpt lat="42.5391367" lon="12.3274856"><ele>215.0</ele><time>2026-03-30T13:31:57.719Z</time></trkpt><trkpt lat="42.5392182" lon="12.3273766"><ele>215.0</ele><time>2026-03-30T13:31:58.705Z</time></trkpt><trkpt lat="42.5393105" lon="12.3272724"><ele>215.0</ele><time>2026-03-30T13:31:59.719Z</time></trkpt><trkpt lat="42.5394196" lon="12.3271615"><ele>215.0</ele><time>2026-03-30T13:32:00.708Z</time></trkpt><trkpt lat="42.539545" lon="12.3270602"><ele>217.0</ele><time>2026-03-30T13:32:01.698Z</time></trkpt><trkpt lat="42.5396652" lon="12.3269596"><ele>219.0</ele><time>2026-03-30T13:32:02.713Z</time></trkpt><trkpt lat="42.5397678" lon="12.3268626"><ele>221.0</ele><time>2026-03-30T13:32:03.714Z</time></trkpt><trkpt lat="42.5398662" lon="12.3267723"><ele>223.0</ele><time>2026-03-30T13:32:04.71Z</time></trkpt><trkpt lat="42.5399572" lon="12.3266929"><ele>222.99999999999997</ele><time>2026-03-30T13:32:05.707Z</time></trkpt><trkpt lat="42.540044" lon="12.326624"><ele>223.0</ele><time>2026-03-30T13:32:06.723Z</time></trkpt><trkpt lat="42.5401125" lon="12.3265536"><ele>223.0</ele><time>2026-03-30T13:32:07.72Z</time></trkpt><trkpt lat="42.5401596" lon="12.3264636"><ele>223.0</ele><time>2026-03-30T13:32:08.712Z</time></trkpt><trkpt lat="42.5401809" lon="12.326374"><ele>222.99999999999997</ele><time>2026-03-30T13:32:09.71Z</time></trkpt><trkpt lat="42.5401686" lon="12.326267"><ele>223.0</ele><time>2026-03-30T13:32:10.71Z</time></trkpt><trkpt lat="42.5401211" lon="12.3261454"><ele>226.25</ele><time>2026-03-30T13:32:11.714Z</time></trkpt><trkpt lat="42.5400457" lon="12.3260288"><ele>229.5</ele><time>2026-03-30T13:32:12.688Z</time></trkpt><trkpt lat="42.5399325" lon="12.3259344"><ele>232.75</ele><time>2026-03-30T13:32:13.705Z</time></trkpt><trkpt lat="42.5398053" lon="12.3258697"><ele>236.0</ele><time>2026-03-30T13:32:14.71Z</time></trkpt><trkpt lat="42.5396773" lon="12.3258296"><ele>233.25</ele><time>2026-03-30T13:32:15.71Z</time></trkpt><trkpt lat="42.5395443" lon="12.3257954"><ele>230.5</ele><time>2026-03-30T13:32:16.711Z</time></trkpt><trkpt lat="42.5394179" lon="12.3257848"><ele>227.75</ele><time>2026-03-30T13:32:17.712Z</time></trkpt><trkpt lat="42.5392956" lon="12.3257869"><ele>225.0</ele><time>2026-03-30T13:32:18.715Z</time></trkpt><trkpt lat="42.5391674" lon="12.3258086"><ele>225.0</ele><time>2026-03-30T13:32:19.714Z</time></trkpt><trkpt lat="42.5390346" lon="12.3258558"><ele>225.0</ele><time>2026-03-30T13:32:20.704Z</time></trkpt><trkpt lat="42.5389078" lon="12.3259111"><ele>225.0</ele><time>2026-03-30T13:32:21.712Z</time></trkpt><trkpt lat="42.5387856" lon="12.3259588"><ele>225.0</ele><time>2026-03-30T13:32:22.709Z</time></trkpt><trkpt lat="42.5386724" lon="12.3259914"><ele>224.25</ele><time>2026-03-30T13:32:23.712Z</time></trkpt><trkpt lat="42.5385529" lon="12.3259993"><ele>223.5</ele><time>2026-03-30T13:32:24.715Z</time></trkpt><trkpt lat="42.5384345" lon="12.3259894"><ele>222.75</ele><time>2026-03-30T13:32:25.718Z</time></trkpt><trkpt lat="42.5383184" lon="12.32596"><ele>222.0</ele><time>2026-03-30T13:32:26.714Z</time></trkpt><trkpt lat="42.5382106" lon="12.3259123"><ele>222.0</ele><time>2026-03-30T13:32:27.709Z</time></trkpt><trkpt lat="42.5381189" lon="12.3258449"><ele>222.0</ele><time>2026-03-30T13:32:28.712Z</time></trkpt><trkpt lat="42.5380446" lon="12.3257587"><ele>222.0</ele><time>2026-03-30T13:32:29.703Z</time></trkpt><trkpt lat="42.5379861" lon="12.3256485"><ele>222.0</ele><time>2026-03-30T13:32:30.704Z</time></trkpt><trkpt lat="42.537961" lon="12.3255047"><ele>222.0</ele><time>2026-03-30T13:32:31.704Z</time></trkpt><trkpt lat="42.5379535" lon="12.3253403"><ele>220.75</ele><time>2026-03-30T13:32:32.706Z</time></trkpt><trkpt lat="42.5379475" lon="12.3251659"><ele>219.5</ele><time>2026-03-30T13:32:33.702Z</time></trkpt><trkpt lat="42.5379394" lon="12.3249903"><ele>218.25</ele><time>2026-03-30T13:32:34.691Z</time></trkpt><trkpt lat="42.5379064" lon="12.3248032"><ele>217.0</ele><time>2026-03-30T13:32:35.699Z</time></trkpt><trkpt lat="42.5378645" lon="12.3246294"><ele>217.0</ele><time>2026-03-30T13:32:36.702Z</time></trkpt><trkpt lat="42.5378138" lon="12.3244655"><ele>217.0</ele><time>2026-03-30T13:32:37.714Z</time></trkpt><trkpt lat="42.5377594" lon="12.3243007"><ele>217.0</ele><time>2026-03-30T13:32:38.716Z</time></trkpt><trkpt lat="42.5377073" lon="12.3241308"><ele>217.0</ele><time>2026-03-30T13:32:39.715Z</time></trkpt><trkpt lat="42.5376623" lon="12.3239569"><ele>217.75</ele><time>2026-03-30T13:32:40.697Z</time></trkpt><trkpt lat="42.5376294" lon="12.3237721"><ele>218.5</ele><time>2026-03-30T13:32:41.694Z</time></trkpt><trkpt lat="42.5375962" lon="12.3235816"><ele>219.25</ele><time>2026-03-30T13:32:42.697Z</time></trkpt><trkpt lat="42.5375646" lon="12.3233967"><ele>220.0</ele><time>2026-03-30T13:32:43.709Z</time></trkpt><trkpt lat="42.5375338" lon="12.3232276"><ele>220.25</ele><time>2026-03-30T13:32:44.71Z</time></trkpt><trkpt lat="42.5375017" lon="12.3230621"><ele>220.5</ele><time>2026-03-30T13:32:45.714Z</time></trkpt><trkpt lat="42.5374697" lon="12.322891"><ele>220.75</ele><time>2026-03-30T13:32:46.71Z</time></trkpt><trkpt lat="42.5374366" lon="12.3227145"><ele>221.0</ele><time>2026-03-30T13:32:47.708Z</time></trkpt><trkpt lat="42.5374009" lon="12.3225396"><ele>221.0</ele><time>2026-03-30T13:32:48.712Z</time></trkpt><trkpt lat="42.5373668" lon="12.3223752"><ele>221.0</ele><time>2026-03-30T13:32:49.716Z</time></trkpt><trkpt lat="42.5373277" lon="12.3222232"><ele>221.0</ele><time>2026-03-30T13:32:50.713Z</time></trkpt><trkpt lat="42.5372829" lon="12.3220711"><ele>221.0</ele><time>2026-03-30T13:32:51.712Z</time></trkpt><trkpt lat="42.5372336" lon="12.3219156"><ele>221.75</ele><time>2026-03-30T13:32:52.708Z</time></trkpt><trkpt lat="42.5371837" lon="12.3217663"><ele>222.5</ele><time>2026-03-30T13:32:53.707Z</time></trkpt><trkpt lat="42.5371314" lon="12.3216256"><ele>223.25</ele><time>2026-03-30T13:32:54.707Z</time></trkpt><trkpt lat="42.5370765" lon="12.3214805"><ele>224.0</ele><time>2026-03-30T13:32:55.714Z</time></trkpt><trkpt lat="42.5370195" lon="12.3213231"><ele>221.0</ele><time>2026-03-30T13:32:56.713Z</time></trkpt><trkpt lat="42.5369617" lon="12.3211574"><ele>218.0</ele><time>2026-03-30T13:32:57.712Z</time></trkpt><trkpt lat="42.5369112" lon="12.3210004"><ele>215.0</ele><time>2026-03-30T13:32:58.715Z</time></trkpt><trkpt lat="42.5368764" lon="12.32086"><ele>212.0</ele><time>2026-03-30T13:32:59.695Z</time></trkpt><trkpt lat="42.536854" lon="12.3207339"><ele>212.00000000000003</ele><time>2026-03-30T13:33:00.708Z</time></trkpt><trkpt lat="42.5368401" lon="12.3206293"><ele>212.0</ele><time>2026-03-30T13:33:01.715Z</time></trkpt><trkpt lat="42.5368412" lon="12.3205393"><ele>212.0</ele><time>2026-03-30T13:33:02.699Z</time></trkpt><trkpt lat="42.536878" lon="12.3204185"><ele>212.0</ele><time>2026-03-30T13:33:04.707Z</time></trkpt><trkpt lat="42.5369804" lon="12.3203616"><ele>212.00000000000003</ele><time>2026-03-30T13:33:06.714Z</time></trkpt><trkpt lat="42.5370446" lon="12.3203755"><ele>212.0</ele><time>2026-03-30T13:33:07.718Z</time></trkpt><trkpt lat="42.5371101" lon="12.3204189"><ele>215.2</ele><time>2026-03-30T13:33:08.698Z</time></trkpt><trkpt lat="42.5371658" lon="12.3205089"><ele>218.39999999999998</ele><time>2026-03-30T13:33:09.716Z</time></trkpt><trkpt lat="42.5372153" lon="12.3206229"><ele>221.60000000000002</ele><time>2026-03-30T13:33:10.716Z</time></trkpt><trkpt lat="42.5372574" lon="12.3207578"><ele>224.8</ele><time>2026-03-30T13:33:11.701Z</time></trkpt><trkpt lat="42.5373022" lon="12.3208985"><ele>228.0</ele><time>2026-03-30T13:33:12.709Z</time></trkpt><trkpt lat="42.53735" lon="12.3210591"><ele>228.0</ele><time>2026-03-30T13:33:13.716Z</time></trkpt><trkpt lat="42.5373935" lon="12.3212157"><ele>228.0</ele><time>2026-03-30T13:33:14.711Z</time></trkpt><trkpt lat="42.5374258" lon="12.32136"><ele>228.0</ele><time>2026-03-30T13:33:15.718Z</time></trkpt><trkpt lat="42.5374486" lon="12.3214811"><ele>228.0</ele><time>2026-03-30T13:33:16.705Z</time></trkpt><trkpt lat="42.5374792" lon="12.3215823"><ele>228.0</ele><time>2026-03-30T13:33:17.721Z</time></trkpt><trkpt lat="42.5375194" lon="12.32167"><ele>227.33333333333334</ele><time>2026-03-30T13:33:18.711Z</time></trkpt><trkpt lat="42.537577" lon="12.3217397"><ele>226.66666666666669</ele><time>2026-03-30T13:33:19.714Z</time></trkpt><trkpt lat="42.5376499" lon="12.3217929"><ele>226.0</ele><time>2026-03-30T13:33:20.708Z</time></trkpt><trkpt lat="42.5377356" lon="12.3218075"><ele>225.33333333333334</ele><time>2026-03-30T13:33:21.714Z</time></trkpt><trkpt lat="42.5378249" lon="12.3217871"><ele>224.66666666666669</ele><time>2026-03-30T13:33:22.706Z</time></trkpt><trkpt lat="42.5379082" lon="12.3217214"><ele>224.0</ele><time>2026-03-30T13:33:23.717Z</time></trkpt><trkpt lat="42.5379649" lon="12.3216126"><ele>224.79999999999998</ele><time>2026-03-30T13:33:24.706Z</time></trkpt><trkpt lat="42.5380021" lon="12.3214911"><ele>225.59999999999997</ele><time>2026-03-30T13:33:25.718Z</time></trkpt><trkpt lat="42.5380097" lon="12.3213626"><ele>226.4</ele><time>2026-03-30T13:33:26.708Z</time></trkpt><trkpt lat="42.5379909" lon="12.3212204"><ele>227.2</ele><time>2026-03-30T13:33:27.699Z</time></trkpt><trkpt lat="42.5379349" lon="12.321081"><ele>228.0</ele><time>2026-03-30T13:33:28.718Z</time></trkpt><trkpt lat="42.5378656" lon="12.3209337"><ele>228.0</ele><time>2026-03-30T13:33:29.705Z</time></trkpt><trkpt lat="42.5377945" lon="12.3207913"><ele>228.0</ele><time>2026-03-30T13:33:30.705Z</time></trkpt><trkpt lat="42.5377386" lon="12.3206574"><ele>228.0</ele><time>2026-03-30T13:33:31.717Z</time></trkpt><trkpt lat="42.5377004" lon="12.3205295"><ele>228.0</ele><time>2026-03-30T13:33:32.719Z</time></trkpt><trkpt lat="42.5376758" lon="12.3203852"><ele>229.0</ele><time>2026-03-30T13:33:33.713Z</time></trkpt><trkpt lat="42.5376605" lon="12.3202315"><ele>230.0</ele><time>2026-03-30T13:33:34.7Z</time></trkpt><trkpt lat="42.5376574" lon="12.3200633"><ele>231.0</ele><time>2026-03-30T13:33:35.714Z</time></trkpt><trkpt lat="42.5376652" lon="12.3198932"><ele>232.0</ele><time>2026-03-30T13:33:36.706Z</time></trkpt><trkpt lat="42.5376814" lon="12.3197399"><ele>232.25</ele><time>2026-03-30T13:33:37.718Z</time></trkpt><trkpt lat="42.5377057" lon="12.3195996"><ele>232.5</ele><time>2026-03-30T13:33:38.707Z</time></trkpt><trkpt lat="42.5377453" lon="12.319457"><ele>232.75</ele><time>2026-03-30T13:33:39.719Z</time></trkpt><trkpt lat="42.5378049" lon="12.3193158"><ele>233.0</ele><time>2026-03-30T13:33:40.708Z</time></trkpt><trkpt lat="42.5378778" lon="12.3191866"><ele>236.75</ele><time>2026-03-30T13:33:41.706Z</time></trkpt><trkpt lat="42.5379626" lon="12.3190599"><ele>240.5</ele><time>2026-03-30T13:33:42.709Z</time></trkpt><trkpt lat="42.5380552" lon="12.3189394"><ele>244.25</ele><time>2026-03-30T13:33:43.716Z</time></trkpt><trkpt lat="42.5381492" lon="12.3188256"><ele>248.0</ele><time>2026-03-30T13:33:44.713Z</time></trkpt><trkpt lat="42.5382441" lon="12.3187128"><ele>248.0</ele><time>2026-03-30T13:33:45.705Z</time></trkpt><trkpt lat="42.5383369" lon="12.3186136"><ele>248.0</ele><time>2026-03-30T13:33:46.697Z</time></trkpt><trkpt lat="42.5384281" lon="12.3185193"><ele>248.0</ele><time>2026-03-30T13:33:47.713Z</time></trkpt><trkpt lat="42.5385216" lon="12.3184293"><ele>248.0</ele><time>2026-03-30T13:33:48.723Z</time></trkpt><trkpt lat="42.5386229" lon="12.3183581"><ele>248.60000000000002</ele><time>2026-03-30T13:33:49.72Z</time></trkpt><trkpt lat="42.5387268" lon="12.3183199"><ele>249.20000000000002</ele><time>2026-03-30T13:33:50.715Z</time></trkpt><trkpt lat="42.538826" lon="12.318313"><ele>249.8</ele><time>2026-03-30T13:33:51.715Z</time></trkpt><trkpt lat="42.538928" lon="12.3183294"><ele>250.4</ele><time>2026-03-30T13:33:52.708Z</time></trkpt><trkpt lat="42.5390313" lon="12.3183731"><ele>251.0</ele><time>2026-03-30T13:33:53.72Z</time></trkpt><trkpt lat="42.5391337" lon="12.3184328"><ele>251.0</ele><time>2026-03-30T13:33:54.718Z</time></trkpt><trkpt lat="42.5392402" lon="12.3185153"><ele>251.0</ele><time>2026-03-30T13:33:55.714Z</time></trkpt><trkpt lat="42.5393476" lon="12.3186197"><ele>251.0</ele><time>2026-03-30T13:33:56.712Z</time></trkpt><trkpt lat="42.5394546" lon="12.318732"><ele>251.0</ele><time>2026-03-30T13:33:57.701Z</time></trkpt><trkpt lat="42.5395638" lon="12.3188551"><ele>252.5</ele><time>2026-03-30T13:33:58.714Z</time></trkpt><trkpt lat="42.5396687" lon="12.3189948"><ele>254.0</ele><time>2026-03-30T13:33:59.712Z</time></trkpt><trkpt lat="42.5397723" lon="12.3191393"><ele>255.5</ele><time>2026-03-30T13:34:00.706Z</time></trkpt><trkpt lat="42.5398752" lon="12.3192901"><ele>257.0</ele><time>2026-03-30T13:34:01.705Z</time></trkpt><trkpt lat="42.5399714" lon="12.3194442"><ele>257.0</ele><time>2026-03-30T13:34:02.706Z</time></trkpt><trkpt lat="42.540061" lon="12.3195899"><ele>257.0</ele><time>2026-03-30T13:34:03.709Z</time></trkpt><trkpt lat="42.5401497" lon="12.3197219"><ele>257.0</ele><time>2026-03-30T13:34:04.716Z</time></trkpt><trkpt lat="42.540245" lon="12.3198481"><ele>257.0</ele><time>2026-03-30T13:34:05.714Z</time></trkpt><trkpt lat="42.5403476" lon="12.3199669"><ele>259.25</ele><time>2026-03-30T13:34:06.71Z</time></trkpt><trkpt lat="42.5404565" lon="12.3200752"><ele>261.5</ele><time>2026-03-30T13:34:07.716Z</time></trkpt><trkpt lat="42.5405757" lon="12.3201615"><ele>263.75</ele><time>2026-03-30T13:34:08.71Z</time></trkpt><trkpt lat="42.5406983" lon="12.3202405"><ele>266.0</ele><time>2026-03-30T13:34:09.712Z</time></trkpt><trkpt lat="42.5408292" lon="12.320313"><ele>266.0</ele><time>2026-03-30T13:34:10.714Z</time></trkpt><trkpt lat="42.5409553" lon="12.3203842"><ele>266.0</ele><time>2026-03-30T13:34:11.717Z</time></trkpt><trkpt lat="42.5410866" lon="12.320456"><ele>266.0</ele><time>2026-03-30T13:34:12.699Z</time></trkpt><trkpt lat="42.5412196" lon="12.3205263"><ele>266.0</ele><time>2026-03-30T13:34:13.716Z</time></trkpt><trkpt lat="42.5413506" lon="12.3205916"><ele>269.75</ele><time>2026-03-30T13:34:14.715Z</time></trkpt><trkpt lat="42.541484" lon="12.3206459"><ele>273.5</ele><time>2026-03-30T13:34:15.713Z</time></trkpt><trkpt lat="42.5416203" lon="12.3206937"><ele>277.25</ele><time>2026-03-30T13:34:16.714Z</time></trkpt><trkpt lat="42.541761" lon="12.3207368"><ele>281.0</ele><time>2026-03-30T13:34:17.708Z</time></trkpt><trkpt lat="42.5419029" lon="12.3207767"><ele>281.0</ele><time>2026-03-30T13:34:18.71Z</time></trkpt><trkpt lat="42.5420462" lon="12.3208105"><ele>281.0</ele><time>2026-03-30T13:34:19.715Z</time></trkpt><trkpt lat="42.5421928" lon="12.3208438"><ele>281.0</ele><time>2026-03-30T13:34:20.718Z</time></trkpt><trkpt lat="42.5423392" lon="12.3208821"><ele>281.0</ele><time>2026-03-30T13:34:21.718Z</time></trkpt><trkpt lat="42.5424861" lon="12.3209121"><ele>281.5</ele><time>2026-03-30T13:34:22.701Z</time></trkpt><trkpt lat="42.5426322" lon="12.3209438"><ele>282.0</ele><time>2026-03-30T13:34:23.721Z</time></trkpt><trkpt lat="42.5427696" lon="12.3209748"><ele>282.5</ele><time>2026-03-30T13:34:24.718Z</time></trkpt><trkpt lat="42.5428982" lon="12.3210045"><ele>283.0</ele><time>2026-03-30T13:34:25.719Z</time></trkpt><trkpt lat="42.5430123" lon="12.3210361"><ele>285.0</ele><time>2026-03-30T13:34:26.711Z</time></trkpt><trkpt lat="42.5431195" lon="12.3210711"><ele>287.0</ele><time>2026-03-30T13:34:27.711Z</time></trkpt><trkpt lat="42.5432276" lon="12.3211179"><ele>289.0</ele><time>2026-03-30T13:34:28.718Z</time></trkpt><trkpt lat="42.5433343" lon="12.3211834"><ele>291.0</ele><time>2026-03-30T13:34:30.454Z</time></trkpt><trkpt lat="42.54355" lon="12.3213459"><ele>291.0</ele><time>2026-03-30T13:34:31.718Z</time></trkpt><trkpt lat="42.5436574" lon="12.3214377"><ele>291.0</ele><time>2026-03-30T13:34:32.718Z</time></trkpt><trkpt lat="42.5437739" lon="12.3215234"><ele>291.0</ele><time>2026-03-30T13:34:33.722Z</time></trkpt><trkpt lat="42.5438929" lon="12.3216101"><ele>291.0</ele><time>2026-03-30T13:34:34.72Z</time></trkpt><trkpt lat="42.5440106" lon="12.3216925"><ele>293.5</ele><time>2026-03-30T13:34:35.716Z</time></trkpt><trkpt lat="42.5441206" lon="12.3217674"><ele>296.0</ele><time>2026-03-30T13:34:36.706Z</time></trkpt><trkpt lat="42.5442315" lon="12.3218238"><ele>298.5</ele><time>2026-03-30T13:34:37.718Z</time></trkpt><trkpt lat="42.5443447" lon="12.3218629"><ele>301.0</ele><time>2026-03-30T13:34:38.711Z</time></trkpt><trkpt lat="42.5444593" lon="12.32188"><ele>302.75</ele><time>2026-03-30T13:34:39.718Z</time></trkpt><trkpt lat="42.5445766" lon="12.3218745"><ele>304.5</ele><time>2026-03-30T13:34:40.711Z</time></trkpt><trkpt lat="42.5446989" lon="12.3218489"><ele>306.25</ele><time>2026-03-30T13:34:41.72Z</time></trkpt><trkpt lat="42.544824" lon="12.3218087"><ele>308.0</ele><time>2026-03-30T13:34:42.72Z</time></trkpt><trkpt lat="42.5449551" lon="12.3217582"><ele>308.0</ele><time>2026-03-30T13:34:43.722Z</time></trkpt><trkpt lat="42.545089" lon="12.3216916"><ele>308.0</ele><time>2026-03-30T13:34:44.711Z</time></trkpt><trkpt lat="42.5452299" lon="12.3216189"><ele>308.0</ele><time>2026-03-30T13:34:45.712Z</time></trkpt><trkpt lat="42.5453731" lon="12.3215461"><ele>308.0</ele><time>2026-03-30T13:34:46.717Z</time></trkpt><trkpt lat="42.5455166" lon="12.3214733"><ele>307.75</ele><time>2026-03-30T13:34:47.72Z</time></trkpt><trkpt lat="42.545652" lon="12.3214041"><ele>307.5</ele><time>2026-03-30T13:34:48.709Z</time></trkpt><trkpt lat="42.5457887" lon="12.321337"><ele>307.25</ele><time>2026-03-30T13:34:49.714Z</time></trkpt><trkpt lat="42.5459317" lon="12.3212747"><ele>307.0</ele><time>2026-03-30T13:34:50.715Z</time></trkpt><trkpt lat="42.5460821" lon="12.321219"><ele>310.3333333333333</ele><time>2026-03-30T13:34:51.719Z</time></trkpt><trkpt lat="42.5462391" lon="12.3211662"><ele>313.6666666666667</ele><time>2026-03-30T13:34:52.72Z</time></trkpt><trkpt lat="42.5464006" lon="12.3211129"><ele>317.0</ele><time>2026-03-30T13:34:53.717Z</time></trkpt><trkpt lat="42.5465645" lon="12.321061"><ele>317.0</ele><time>2026-03-30T13:34:54.721Z</time></trkpt><trkpt lat="42.5467182" lon="12.3210123"><ele>317.0</ele><time>2026-03-30T13:34:55.712Z</time></trkpt><trkpt lat="42.5468572" lon="12.3209745"><ele>317.0</ele><time>2026-03-30T13:34:56.717Z</time></trkpt><trkpt lat="42.5469874" lon="12.3209405"><ele>317.0</ele><time>2026-03-30T13:34:57.712Z</time></trkpt><trkpt lat="42.5471203" lon="12.3209168"><ele>316.75</ele><time>2026-03-30T13:34:58.715Z</time></trkpt><trkpt lat="42.5472562" lon="12.3208978"><ele>316.5</ele><time>2026-03-30T13:34:59.709Z</time></trkpt><trkpt lat="42.5473921" lon="12.3208921"><ele>316.25</ele><time>2026-03-30T13:35:00.709Z</time></trkpt><trkpt lat="42.5475323" lon="12.3208989"><ele>316.0</ele><time>2026-03-30T13:35:01.713Z</time></trkpt><trkpt lat="42.5476797" lon="12.3209114"><ele>316.0</ele><time>2026-03-30T13:35:02.694Z</time></trkpt><trkpt lat="42.5478294" lon="12.32093"><ele>316.0</ele><time>2026-03-30T13:35:03.71Z</time></trkpt><trkpt lat="42.547978" lon="12.3209537"><ele>316.0</ele><time>2026-03-30T13:35:04.71Z</time></trkpt><trkpt lat="42.5481303" lon="12.3209829"><ele>315.75</ele><time>2026-03-30T13:35:05.726Z</time></trkpt><trkpt lat="42.5482735" lon="12.3210148"><ele>315.5</ele><time>2026-03-30T13:35:06.719Z</time></trkpt><trkpt lat="42.5484066" lon="12.3210605"><ele>315.25</ele><time>2026-03-30T13:35:07.715Z</time></trkpt><trkpt lat="42.5485353" lon="12.3211178"><ele>315.0</ele><time>2026-03-30T13:35:08.716Z</time></trkpt><trkpt lat="42.5486604" lon="12.3211911"><ele>316.25</ele><time>2026-03-30T13:35:09.72Z</time></trkpt><trkpt lat="42.5487857" lon="12.3212685"><ele>317.5</ele><time>2026-03-30T13:35:10.715Z</time></trkpt><trkpt lat="42.5489152" lon="12.321356"><ele>318.75</ele><time>2026-03-30T13:35:11.714Z</time></trkpt><trkpt lat="42.5490417" lon="12.3214511"><ele>320.0</ele><time>2026-03-30T13:35:12.724Z</time></trkpt><trkpt lat="42.5491696" lon="12.3215465"><ele>320.0</ele><time>2026-03-30T13:35:13.713Z</time></trkpt><trkpt lat="42.5492979" lon="12.3216446"><ele>320.0</ele><time>2026-03-30T13:35:14.72Z</time></trkpt><trkpt lat="42.5494255" lon="12.3217454"><ele>320.0</ele><time>2026-03-30T13:35:15.709Z</time></trkpt><trkpt lat="42.5495616" lon="12.3218458"><ele>321.33333333333337</ele><time>2026-03-30T13:35:16.713Z</time></trkpt><trkpt lat="42.5496978" lon="12.3219523"><ele>322.6666666666667</ele><time>2026-03-30T13:35:17.721Z</time></trkpt><trkpt lat="42.5498375" lon="12.3220584"><ele>324.0</ele><time>2026-03-30T13:35:18.708Z</time></trkpt><trkpt lat="42.5499711" lon="12.3221583"><ele>324.0</ele><time>2026-03-30T13:35:19.718Z</time></trkpt><trkpt lat="42.550095" lon="12.322249"><ele>324.0</ele><time>2026-03-30T13:35:20.706Z</time></trkpt><trkpt lat="42.5502134" lon="12.3223312"><ele>324.0</ele><time>2026-03-30T13:35:21.712Z</time></trkpt><trkpt lat="42.5503201" lon="12.3224028"><ele>324.0</ele><time>2026-03-30T13:35:22.707Z</time></trkpt><trkpt lat="42.5504288" lon="12.3224638"><ele>324.0</ele><time>2026-03-30T13:35:23.719Z</time></trkpt><trkpt lat="42.5505481" lon="12.3225176"><ele>324.0</ele><time>2026-03-30T13:35:24.718Z</time></trkpt><trkpt lat="42.550676" lon="12.32256"><ele>324.0</ele><time>2026-03-30T13:35:25.72Z</time></trkpt><trkpt lat="42.5508097" lon="12.3225952"><ele>324.0</ele><time>2026-03-30T13:35:26.719Z</time></trkpt><trkpt lat="42.5509487" lon="12.3226218"><ele>324.0</ele><time>2026-03-30T13:35:27.721Z</time></trkpt><trkpt lat="42.5510989" lon="12.3226466"><ele>324.0</ele><time>2026-03-30T13:35:28.716Z</time></trkpt><trkpt lat="42.5512597" lon="12.3226701"><ele>324.0</ele><time>2026-03-30T13:35:29.718Z</time></trkpt><trkpt lat="42.5514201" lon="12.3226934"><ele>324.5</ele><time>2026-03-30T13:35:30.693Z</time></trkpt><trkpt lat="42.5515702" lon="12.3227176"><ele>325.0</ele><time>2026-03-30T13:35:31.713Z</time></trkpt><trkpt lat="42.5517119" lon="12.3227439"><ele>325.5</ele><time>2026-03-30T13:35:32.716Z</time></trkpt><trkpt lat="42.5518522" lon="12.3227729"><ele>326.0</ele><time>2026-03-30T13:35:33.716Z</time></trkpt><trkpt lat="42.5519915" lon="12.3228058"><ele>327.0</ele><time>2026-03-30T13:35:34.71Z</time></trkpt><trkpt lat="42.5521295" lon="12.3228395"><ele>328.0</ele><time>2026-03-30T13:35:35.72Z</time></trkpt><trkpt lat="42.5522617" lon="12.3228764"><ele>329.0</ele><time>2026-03-30T13:35:36.717Z</time></trkpt><trkpt lat="42.5523932" lon="12.3229263"><ele>330.0</ele><time>2026-03-30T13:35:37.7Z</time></trkpt><trkpt lat="42.5525243" lon="12.3229902"><ele>330.0</ele><time>2026-03-30T13:35:38.704Z</time></trkpt><trkpt lat="42.5526576" lon="12.3230591"><ele>330.0</ele><time>2026-03-30T13:35:39.72Z</time></trkpt><trkpt lat="42.5527866" lon="12.3231397"><ele>330.0</ele><time>2026-03-30T13:35:40.713Z</time></trkpt><trkpt lat="42.5529151" lon="12.3232332"><ele>330.0</ele><time>2026-03-30T13:35:41.715Z</time></trkpt><trkpt lat="42.5530413" lon="12.3233246"><ele>330.5</ele><time>2026-03-30T13:35:42.694Z</time></trkpt><trkpt lat="42.5531571" lon="12.3234165"><ele>331.0</ele><time>2026-03-30T13:35:43.722Z</time></trkpt><trkpt lat="42.5532757" lon="12.3235119"><ele>331.5</ele><time>2026-03-30T13:35:44.715Z</time></trkpt><trkpt lat="42.5533993" lon="12.323606"><ele>332.0</ele><time>2026-03-30T13:35:45.721Z</time></trkpt><trkpt lat="42.5535238" lon="12.3237038"><ele>332.0</ele><time>2026-03-30T13:35:46.72Z</time></trkpt><trkpt lat="42.5536491" lon="12.3238075"><ele>332.0</ele><time>2026-03-30T13:35:47.712Z</time></trkpt><trkpt lat="42.5537805" lon="12.3239138"><ele>332.0</ele><time>2026-03-30T13:35:48.717Z</time></trkpt><trkpt lat="42.5539129" lon="12.3240194"><ele>331.5</ele><time>2026-03-30T13:35:49.719Z</time></trkpt><trkpt lat="42.5540376" lon="12.3241156"><ele>331.0</ele><time>2026-03-30T13:35:50.719Z</time></trkpt><trkpt lat="42.5541527" lon="12.324203"><ele>330.5</ele><time>2026-03-30T13:35:51.717Z</time></trkpt><trkpt lat="42.5542622" lon="12.3242805"><ele>330.0</ele><time>2026-03-30T13:35:52.716Z</time></trkpt><trkpt lat="42.5543687" lon="12.3243623"><ele>330.0</ele><time>2026-03-30T13:35:53.718Z</time></trkpt><trkpt lat="42.5544821" lon="12.3244457"><ele>330.0</ele><time>2026-03-30T13:35:54.723Z</time></trkpt><trkpt lat="42.5545974" lon="12.3245369"><ele>330.0</ele><time>2026-03-30T13:35:55.719Z</time></trkpt><trkpt lat="42.5547017" lon="12.324626"><ele>330.0</ele><time>2026-03-30T13:35:56.716Z</time></trkpt><trkpt lat="42.5547984" lon="12.3247061"><ele>328.6</ele><time>2026-03-30T13:35:57.719Z</time></trkpt><trkpt lat="42.5548891" lon="12.3247735"><ele>327.2</ele><time>2026-03-30T13:35:58.717Z</time></trkpt><trkpt lat="42.5549808" lon="12.3248317"><ele>325.79999999999995</ele><time>2026-03-30T13:35:59.718Z</time></trkpt><trkpt lat="42.5550771" lon="12.3248822"><ele>324.4</ele><time>2026-03-30T13:36:00.715Z</time></trkpt><trkpt lat="42.5551735" lon="12.3249128"><ele>323.0</ele><time>2026-03-30T13:36:01.721Z</time></trkpt><trkpt lat="42.5552804" lon="12.3249259"><ele>322.75</ele><time>2026-03-30T13:36:02.718Z</time></trkpt><trkpt lat="42.5553977" lon="12.3249215"><ele>322.5</ele><time>2026-03-30T13:36:03.717Z</time></trkpt><trkpt lat="42.5555121" lon="12.3249022"><ele>322.25</ele><time>2026-03-30T13:36:04.714Z</time></trkpt><trkpt lat="42.5556186" lon="12.3248642"><ele>322.0</ele><time>2026-03-30T13:36:05.721Z</time></trkpt><trkpt lat="42.5557239" lon="12.3248093"><ele>322.0</ele><time>2026-03-30T13:36:06.699Z</time></trkpt><trkpt lat="42.5558288" lon="12.3247403"><ele>322.0</ele><time>2026-03-30T13:36:07.717Z</time></trkpt><trkpt lat="42.5559205" lon="12.3246478"><ele>322.0</ele><time>2026-03-30T13:36:08.721Z</time></trkpt><trkpt lat="42.5559979" lon="12.3245354"><ele>322.0</ele><time>2026-03-30T13:36:09.72Z</time></trkpt><trkpt lat="42.5560754" lon="12.3244124"><ele>322.40000000000003</ele><time>2026-03-30T13:36:10.718Z</time></trkpt><trkpt lat="42.5561428" lon="12.3242873"><ele>322.8</ele><time>2026-03-30T13:36:11.717Z</time></trkpt><trkpt lat="42.556205" lon="12.3241775"><ele>323.2</ele><time>2026-03-30T13:36:12.718Z</time></trkpt><trkpt lat="42.5562558" lon="12.3240828"><ele>323.6</ele><time>2026-03-30T13:36:13.721Z</time></trkpt><trkpt lat="42.5563069" lon="12.3239923"><ele>324.0</ele><time>2026-03-30T13:36:14.716Z</time></trkpt><trkpt lat="42.5563555" lon="12.3239107"><ele>323.6</ele><time>2026-03-30T13:36:15.719Z</time></trkpt><trkpt lat="42.556399" lon="12.3238391"><ele>323.2</ele><time>2026-03-30T13:36:16.719Z</time></trkpt><trkpt lat="42.5564815" lon="12.3237237"><ele>322.8</ele><time>2026-03-30T13:36:18.719Z</time></trkpt><trkpt lat="42.556597" lon="12.3236702"><ele>322.40000000000003</ele><time>2026-03-30T13:36:20.721Z</time></trkpt><trkpt lat="42.55668" lon="12.3236681"><ele>322.0</ele><time>2026-03-30T13:36:21.717Z</time></trkpt><trkpt lat="42.556786" lon="12.3236861"><ele>322.0</ele><time>2026-03-30T13:36:22.713Z</time></trkpt><trkpt lat="42.5569055" lon="12.3236913"><ele>322.0</ele><time>2026-03-30T13:36:23.713Z</time></trkpt><trkpt lat="42.5570327" lon="12.3236774"><ele>322.0</ele><time>2026-03-30T13:36:24.721Z</time></trkpt><trkpt lat="42.5571605" lon="12.3236682"><ele>322.0</ele><time>2026-03-30T13:36:25.719Z</time></trkpt><trkpt lat="42.5572915" lon="12.3236569"><ele>321.25</ele><time>2026-03-30T13:36:26.702Z</time></trkpt><trkpt lat="42.5574203" lon="12.323641"><ele>320.5</ele><time>2026-03-30T13:36:27.721Z</time></trkpt><trkpt lat="42.5575596" lon="12.3236188"><ele>319.75</ele><time>2026-03-30T13:36:28.716Z</time></trkpt><trkpt lat="42.5577015" lon="12.3235972"><ele>319.0</ele><time>2026-03-30T13:36:29.718Z</time></trkpt><trkpt lat="42.5578454" lon="12.3235694"><ele>317.5</ele><time>2026-03-30T13:36:30.699Z</time></trkpt><trkpt lat="42.5579924" lon="12.3235443"><ele>316.0</ele><time>2026-03-30T13:36:31.715Z</time></trkpt><trkpt lat="42.5581443" lon="12.3235222"><ele>314.5</ele><time>2026-03-30T13:36:32.717Z</time></trkpt><trkpt lat="42.5582909" lon="12.3234975"><ele>313.0</ele><time>2026-03-30T13:36:33.707Z</time></trkpt><trkpt lat="42.5584249" lon="12.3234779"><ele>313.0</ele><time>2026-03-30T13:36:34.696Z</time></trkpt><trkpt lat="42.5585502" lon="12.3234616"><ele>313.0</ele><time>2026-03-30T13:36:35.718Z</time></trkpt><trkpt lat="42.5586753" lon="12.3234412"><ele>313.0</ele><time>2026-03-30T13:36:36.716Z</time></trkpt><trkpt lat="42.5588012" lon="12.3234138"><ele>313.0</ele><time>2026-03-30T13:36:37.711Z</time></trkpt><trkpt lat="42.5589295" lon="12.3233656"><ele>312.5</ele><time>2026-03-30T13:36:38.706Z</time></trkpt><trkpt lat="42.5590556" lon="12.3232983"><ele>312.0</ele><time>2026-03-30T13:36:39.718Z</time></trkpt><trkpt lat="42.5591783" lon="12.3232092"><ele>311.5</ele><time>2026-03-30T13:36:40.718Z</time></trkpt><trkpt lat="42.5593018" lon="12.3231068"><ele>311.0</ele><time>2026-03-30T13:36:41.712Z</time></trkpt><trkpt lat="42.5594235" lon="12.3229911"><ele>311.25</ele><time>2026-03-30T13:36:42.714Z</time></trkpt><trkpt lat="42.5595417" lon="12.3228773"><ele>311.5</ele><time>2026-03-30T13:36:43.697Z</time></trkpt><trkpt lat="42.559654" lon="12.3227726"><ele>311.75</ele><time>2026-03-30T13:36:44.695Z</time></trkpt><trkpt lat="42.5597609" lon="12.3226688"><ele>312.0</ele><time>2026-03-30T13:36:45.71Z</time></trkpt><trkpt lat="42.5598691" lon="12.3225587"><ele>312.0</ele><time>2026-03-30T13:36:46.71Z</time></trkpt><trkpt lat="42.5599753" lon="12.3224555"><ele>312.0</ele><time>2026-03-30T13:36:47.697Z</time></trkpt><trkpt lat="42.5600827" lon="12.3223703"><ele>312.0</ele><time>2026-03-30T13:36:48.713Z</time></trkpt><trkpt lat="42.560192" lon="12.322298"><ele>312.0</ele><time>2026-03-30T13:36:49.694Z</time></trkpt><trkpt lat="42.5603064" lon="12.3222338"><ele>310.25</ele><time>2026-03-30T13:36:50.699Z</time></trkpt><trkpt lat="42.5604277" lon="12.322169"><ele>308.5</ele><time>2026-03-30T13:36:51.698Z</time></trkpt><trkpt lat="42.5605509" lon="12.3221051"><ele>306.75</ele><time>2026-03-30T13:36:52.71Z</time></trkpt><trkpt lat="42.5606658" lon="12.3220463"><ele>305.0</ele><time>2026-03-30T13:36:53.714Z</time></trkpt><trkpt lat="42.5607754" lon="12.3219871"><ele>305.0</ele><time>2026-03-30T13:36:54.716Z</time></trkpt><trkpt lat="42.5608859" lon="12.3219211"><ele>305.0</ele><time>2026-03-30T13:36:55.716Z</time></trkpt><trkpt lat="42.5609977" lon="12.3218603"><ele>305.0</ele><time>2026-03-30T13:36:56.709Z</time></trkpt><trkpt lat="42.5611025" lon="12.3218005"><ele>305.0</ele><time>2026-03-30T13:36:57.715Z</time></trkpt><trkpt lat="42.5612025" lon="12.3217411"><ele>305.8</ele><time>2026-03-30T13:36:58.71Z</time></trkpt><trkpt lat="42.5612937" lon="12.3216883"><ele>306.6</ele><time>2026-03-30T13:36:59.716Z</time></trkpt><trkpt lat="42.5613733" lon="12.3216353"><ele>307.4</ele><time>2026-03-30T13:37:00.711Z</time></trkpt><trkpt lat="42.5614488" lon="12.3215645"><ele>308.2</ele><time>2026-03-30T13:37:01.714Z</time></trkpt><trkpt lat="42.56152" lon="12.3214539"><ele>309.0</ele><time>2026-03-30T13:37:02.702Z</time></trkpt><trkpt lat="42.5615968" lon="12.3213267"><ele>309.0</ele><time>2026-03-30T13:37:03.714Z</time></trkpt><trkpt lat="42.5616808" lon="12.3211962"><ele>309.0</ele><time>2026-03-30T13:37:04.715Z</time></trkpt><trkpt lat="42.5617653" lon="12.3210538"><ele>309.0</ele><time>2026-03-30T13:37:05.717Z</time></trkpt><trkpt lat="42.5618408" lon="12.3208859"><ele>309.0</ele><time>2026-03-30T13:37:06.706Z</time></trkpt><trkpt lat="42.5619057" lon="12.3207026"><ele>308.59999999999997</ele><time>2026-03-30T13:37:07.705Z</time></trkpt><trkpt lat="42.561952" lon="12.3205397"><ele>308.2</ele><time>2026-03-30T13:37:08.711Z</time></trkpt><trkpt lat="42.5619918" lon="12.320395"><ele>307.79999999999995</ele><time>2026-03-30T13:37:09.714Z</time></trkpt><trkpt lat="42.5620277" lon="12.3202669"><ele>307.4</ele><time>2026-03-30T13:37:10.707Z</time></trkpt><trkpt lat="42.5620642" lon="12.3201418"><ele>307.0</ele><time>2026-03-30T13:37:11.713Z</time></trkpt><trkpt lat="42.5621082" lon="12.3200134"><ele>308.8</ele><time>2026-03-30T13:37:12.692Z</time></trkpt><trkpt lat="42.5621507" lon="12.3198805"><ele>310.6</ele><time>2026-03-30T13:37:13.702Z</time></trkpt><trkpt lat="42.5621927" lon="12.3197436"><ele>312.40000000000003</ele><time>2026-03-30T13:37:14.698Z</time></trkpt><trkpt lat="42.5622331" lon="12.3196047"><ele>314.2</ele><time>2026-03-30T13:37:15.715Z</time></trkpt><trkpt lat="42.5622779" lon="12.3194618"><ele>316.0</ele><time>2026-03-30T13:37:16.712Z</time></trkpt><trkpt lat="42.5623265" lon="12.3193145"><ele>316.0</ele><time>2026-03-30T13:37:17.703Z</time></trkpt><trkpt lat="42.5623754" lon="12.3191615"><ele>316.0</ele><time>2026-03-30T13:37:18.715Z</time></trkpt><trkpt lat="42.5624239" lon="12.3190053"><ele>316.0</ele><time>2026-03-30T13:37:19.691Z</time></trkpt><trkpt lat="42.5624751" lon="12.3188504"><ele>316.0</ele><time>2026-03-30T13:37:20.709Z</time></trkpt><trkpt lat="42.5625361" lon="12.3186883"><ele>316.5</ele><time>2026-03-30T13:37:21.716Z</time></trkpt><trkpt lat="42.5625983" lon="12.3185243"><ele>317.0</ele><time>2026-03-30T13:37:22.716Z</time></trkpt><trkpt lat="42.5626621" lon="12.318355"><ele>317.5</ele><time>2026-03-30T13:37:23.716Z</time></trkpt><trkpt lat="42.5627178" lon="12.3181809"><ele>318.0</ele><time>2026-03-30T13:37:24.706Z</time></trkpt><trkpt lat="42.5627493" lon="12.3179941"><ele>318.75</ele><time>2026-03-30T13:37:25.706Z</time></trkpt><trkpt lat="42.5627662" lon="12.317795"><ele>319.5</ele><time>2026-03-30T13:37:26.71Z</time></trkpt><trkpt lat="42.5627767" lon="12.3175935"><ele>320.25</ele><time>2026-03-30T13:37:27.712Z</time></trkpt><trkpt lat="42.5627861" lon="12.3174092"><ele>321.0</ele><time>2026-03-30T13:37:28.717Z</time></trkpt><trkpt lat="42.5627951" lon="12.3172441"><ele>321.0</ele><time>2026-03-30T13:37:29.719Z</time></trkpt><trkpt lat="42.5628135" lon="12.31708"><ele>321.0</ele><time>2026-03-30T13:37:30.713Z</time></trkpt><trkpt lat="42.5628294" lon="12.31692"><ele>321.0</ele><time>2026-03-30T13:37:31.714Z</time></trkpt><trkpt lat="42.5628482" lon="12.3167725"><ele>321.0</ele><time>2026-03-30T13:37:32.713Z</time></trkpt><trkpt lat="42.5628571" lon="12.3166268"><ele>321.0</ele><time>2026-03-30T13:37:33.717Z</time></trkpt><trkpt lat="42.5628586" lon="12.316481"><ele>321.0</ele><time>2026-03-30T13:37:34.724Z</time></trkpt><trkpt lat="42.5628512" lon="12.3163482"><ele>321.0</ele><time>2026-03-30T13:37:35.711Z</time></trkpt><trkpt lat="42.562833" lon="12.3162124"><ele>321.0</ele><time>2026-03-30T13:37:36.711Z</time></trkpt><trkpt lat="42.5628137" lon="12.3160835"><ele>321.0</ele><time>2026-03-30T13:37:37.702Z</time></trkpt><trkpt lat="42.5628066" lon="12.3159369"><ele>320.5</ele><time>2026-03-30T13:37:38.713Z</time></trkpt><trkpt lat="42.5628167" lon="12.315787"><ele>320.0</ele><time>2026-03-30T13:37:39.695Z</time></trkpt><trkpt lat="42.5628354" lon="12.3156243"><ele>319.5</ele><time>2026-03-30T13:37:40.708Z</time></trkpt><trkpt lat="42.5628536" lon="12.3154519"><ele>319.0</ele><time>2026-03-30T13:37:41.714Z</time></trkpt><trkpt lat="42.5628678" lon="12.3152866"><ele>321.0</ele><time>2026-03-30T13:37:42.703Z</time></trkpt><trkpt lat="42.5628864" lon="12.315128"><ele>323.0</ele><time>2026-03-30T13:37:43.716Z</time></trkpt><trkpt lat="42.5629042" lon="12.3149747"><ele>325.0</ele><time>2026-03-30T13:37:44.706Z</time></trkpt><trkpt lat="42.5629229" lon="12.3148322"><ele>327.0</ele><time>2026-03-30T13:37:45.695Z</time></trkpt><trkpt lat="42.5629678" lon="12.3146919"><ele>327.0</ele><time>2026-03-30T13:37:46.704Z</time></trkpt><trkpt lat="42.5630286" lon="12.3145621"><ele>327.0</ele><time>2026-03-30T13:37:47.718Z</time></trkpt><trkpt lat="42.5631049" lon="12.3144485"><ele>327.0</ele><time>2026-03-30T13:37:48.701Z</time></trkpt><trkpt lat="42.5631804" lon="12.314339"><ele>327.0</ele><time>2026-03-30T13:37:49.718Z</time></trkpt><trkpt lat="42.5632349" lon="12.3142372"><ele>327.0</ele><time>2026-03-30T13:37:50.707Z</time></trkpt><trkpt lat="42.5632675" lon="12.3141343"><ele>327.0</ele><time>2026-03-30T13:37:51.713Z</time></trkpt><trkpt lat="42.5632794" lon="12.3140362"><ele>327.0</ele><time>2026-03-30T13:37:52.707Z</time></trkpt><trkpt lat="42.5632747" lon="12.3139373"><ele>327.0</ele><time>2026-03-30T13:37:53.702Z</time></trkpt><trkpt lat="42.5632478" lon="12.3138359"><ele>327.0</ele><time>2026-03-30T13:37:54.695Z</time></trkpt><trkpt lat="42.5631896" lon="12.3137458"><ele>327.0</ele><time>2026-03-30T13:37:55.711Z</time></trkpt><trkpt lat="42.5631095" lon="12.313653"><ele>327.0</ele><time>2026-03-30T13:37:56.689Z</time></trkpt><trkpt lat="42.56302" lon="12.3135598"><ele>325.6666666666667</ele><time>2026-03-30T13:37:57.715Z</time></trkpt><trkpt lat="42.5629278" lon="12.3134585"><ele>324.33333333333337</ele><time>2026-03-30T13:37:58.716Z</time></trkpt><trkpt lat="42.5628352" lon="12.3133563"><ele>323.0</ele><time>2026-03-30T13:38:00.525Z</time></trkpt><trkpt lat="42.5626616" lon="12.3131597"><ele>325.2</ele><time>2026-03-30T13:38:01.711Z</time></trkpt><trkpt lat="42.5625781" lon="12.3130614"><ele>327.4</ele><time>2026-03-30T13:38:02.712Z</time></trkpt><trkpt lat="42.5624934" lon="12.3129624"><ele>329.59999999999997</ele><time>2026-03-30T13:38:03.693Z</time></trkpt><trkpt lat="42.5624125" lon="12.3128685"><ele>331.79999999999995</ele><time>2026-03-30T13:38:04.707Z</time></trkpt><trkpt lat="42.5623341" lon="12.3127765"><ele>334.0</ele><time>2026-03-30T13:38:05.712Z</time></trkpt><trkpt lat="42.5622541" lon="12.312677"><ele>334.0</ele><time>2026-03-30T13:38:06.717Z</time></trkpt><trkpt lat="42.5621813" lon="12.312581"><ele>334.0</ele><time>2026-03-30T13:38:07.716Z</time></trkpt><trkpt lat="42.5621086" lon="12.3124942"><ele>334.0</ele><time>2026-03-30T13:38:08.715Z</time></trkpt><trkpt lat="42.5620373" lon="12.3124172"><ele>334.0</ele><time>2026-03-30T13:38:09.715Z</time></trkpt><trkpt lat="42.5619601" lon="12.3123341"><ele>334.0</ele><time>2026-03-30T13:38:10.713Z</time></trkpt><trkpt lat="42.5618763" lon="12.3122431"><ele>331.79999999999995</ele><time>2026-03-30T13:38:11.708Z</time></trkpt><trkpt lat="42.5617871" lon="12.3121426"><ele>329.59999999999997</ele><time>2026-03-30T13:38:12.694Z</time></trkpt><trkpt lat="42.5617098" lon="12.3120382"><ele>327.4</ele><time>2026-03-30T13:38:13.698Z</time></trkpt><trkpt lat="42.5616385" lon="12.3119319"><ele>325.2</ele><time>2026-03-30T13:38:14.714Z</time></trkpt><trkpt lat="42.5615641" lon="12.311828"><ele>323.0</ele><time>2026-03-30T13:38:15.72Z</time></trkpt><trkpt lat="42.5614882" lon="12.3117175"><ele>323.0</ele><time>2026-03-30T13:38:16.716Z</time></trkpt><trkpt lat="42.5614071" lon="12.3115885"><ele>323.0</ele><time>2026-03-30T13:38:17.714Z</time></trkpt><trkpt lat="42.561325" lon="12.311451"><ele>323.0</ele><time>2026-03-30T13:38:18.708Z</time></trkpt><trkpt lat="42.5612331" lon="12.3113082"><ele>323.0</ele><time>2026-03-30T13:38:19.709Z</time></trkpt><trkpt lat="42.5611256" lon="12.3111736"><ele>322.25</ele><time>2026-03-30T13:38:20.712Z</time></trkpt><trkpt lat="42.5610189" lon="12.3110652"><ele>321.5</ele><time>2026-03-30T13:38:21.716Z</time></trkpt><trkpt lat="42.5609245" lon="12.3109622"><ele>320.75</ele><time>2026-03-30T13:38:22.709Z</time></trkpt><trkpt lat="42.5608381" lon="12.3108572"><ele>320.0</ele><time>2026-03-30T13:38:23.716Z</time></trkpt><trkpt lat="42.5607544" lon="12.3107549"><ele>320.0</ele><time>2026-03-30T13:38:24.72Z</time></trkpt><trkpt lat="42.5606764" lon="12.3106531"><ele>320.0</ele><time>2026-03-30T13:38:25.722Z</time></trkpt><trkpt lat="42.5606077" lon="12.3105618"><ele>320.0</ele><time>2026-03-30T13:38:26.721Z</time></trkpt><trkpt lat="42.5605446" lon="12.3104737"><ele>320.0</ele><time>2026-03-30T13:38:27.719Z</time></trkpt><trkpt lat="42.5604871" lon="12.3103876"><ele>320.0</ele><time>2026-03-30T13:38:28.71Z</time></trkpt><trkpt lat="42.5604301" lon="12.3103042"><ele>319.33333333333337</ele><time>2026-03-30T13:38:29.711Z</time></trkpt><trkpt lat="42.5603648" lon="12.3102233"><ele>318.6666666666667</ele><time>2026-03-30T13:38:30.717Z</time></trkpt><trkpt lat="42.5602923" lon="12.3101515"><ele>318.0</ele><time>2026-03-30T13:38:31.707Z</time></trkpt><trkpt lat="42.5602245" lon="12.3100766"><ele>317.3333333333333</ele><time>2026-03-30T13:38:32.719Z</time></trkpt><trkpt lat="42.5601578" lon="12.310004"><ele>316.66666666666663</ele><time>2026-03-30T13:38:33.708Z</time></trkpt><trkpt lat="42.5601007" lon="12.3099285"><ele>316.0</ele><time>2026-03-30T13:38:34.716Z</time></trkpt><trkpt lat="42.5600617" lon="12.3098457"><ele>316.0</ele><time>2026-03-30T13:38:35.718Z</time></trkpt><trkpt lat="42.5600326" lon="12.3097644"><ele>316.0</ele><time>2026-03-30T13:38:36.717Z</time></trkpt><trkpt lat="42.5599968" lon="12.3096866"><ele>316.0</ele><time>2026-03-30T13:38:37.71Z</time></trkpt><trkpt lat="42.5599326" lon="12.3095505"><ele>316.0</ele><time>2026-03-30T13:38:39.72Z</time></trkpt><trkpt lat="42.5598812" lon="12.3094385"><ele>316.0</ele><time>2026-03-30T13:38:41.716Z</time></trkpt><trkpt lat="42.5598564" lon="12.309352"><ele>316.0</ele><time>2026-03-30T13:38:43.708Z</time></trkpt><trkpt lat="42.5598159" lon="12.309281"><ele>315.16666666666663</ele><time>2026-03-30T13:39:43.698Z</time></trkpt><trkpt lat="42.5597591" lon="12.3091356"><ele>314.3333333333333</ele><time>2026-03-30T13:39:46.72Z</time></trkpt><trkpt lat="42.5597269" lon="12.3090474"><ele>313.5</ele><time>2026-03-30T13:39:47.724Z</time></trkpt><trkpt lat="42.5596953" lon="12.3089549"><ele>312.6666666666667</ele><time>2026-03-30T13:39:48.712Z</time></trkpt><trkpt lat="42.5596687" lon="12.3088647"><ele>311.83333333333337</ele><time>2026-03-30T13:39:49.715Z</time></trkpt><trkpt lat="42.5596477" lon="12.3087769"><ele>311.0</ele><time>2026-03-30T13:39:50.701Z</time></trkpt><trkpt lat="42.5596325" lon="12.3086899"><ele>309.0</ele><time>2026-03-30T13:39:51.718Z</time></trkpt><trkpt lat="42.5596375" lon="12.3085309"><ele>307.0</ele><time>2026-03-30T13:39:53.719Z</time></trkpt><trkpt lat="42.5596663" lon="12.3084522"><ele>305.0</ele><time>2026-03-30T13:39:54.713Z</time></trkpt><trkpt lat="42.5597051" lon="12.3083796"><ele>303.0</ele><time>2026-03-30T13:39:55.719Z</time></trkpt><trkpt lat="42.5597506" lon="12.3083112"><ele>301.0</ele><time>2026-03-30T13:39:56.708Z</time></trkpt><trkpt lat="42.5598003" lon="12.3082416"><ele>299.0</ele><time>2026-03-30T13:39:57.72Z</time></trkpt><trkpt lat="42.5598599" lon="12.3081807"><ele>299.0</ele><time>2026-03-30T13:39:58.71Z</time></trkpt><trkpt lat="42.5599399" lon="12.3081243"><ele>299.0</ele><time>2026-03-30T13:39:59.72Z</time></trkpt><trkpt lat="42.5600345" lon="12.3080691"><ele>299.0</ele><time>2026-03-30T13:40:00.705Z</time></trkpt><trkpt lat="42.5601304" lon="12.308017"><ele>299.0</ele><time>2026-03-30T13:40:01.691Z</time></trkpt><trkpt lat="42.5602243" lon="12.307973"><ele>299.0</ele><time>2026-03-30T13:40:02.705Z</time></trkpt><trkpt lat="42.5603177" lon="12.30793"><ele>296.0</ele><time>2026-03-30T13:40:03.716Z</time></trkpt><trkpt lat="42.5604119" lon="12.3078923"><ele>293.0</ele><time>2026-03-30T13:40:04.706Z</time></trkpt><trkpt lat="42.5605049" lon="12.3078524"><ele>290.0</ele><time>2026-03-30T13:40:05.719Z</time></trkpt><trkpt lat="42.5605935" lon="12.3078126"><ele>287.0</ele><time>2026-03-30T13:40:06.717Z</time></trkpt><trkpt lat="42.5606833" lon="12.3077743"><ele>284.0</ele><time>2026-03-30T13:40:07.724Z</time></trkpt><trkpt lat="42.5607735" lon="12.3077336"><ele>284.0</ele><time>2026-03-30T13:40:08.708Z</time></trkpt><trkpt lat="42.5608658" lon="12.3076815"><ele>284.0</ele><time>2026-03-30T13:40:09.7Z</time></trkpt><trkpt lat="42.5609637" lon="12.3076055"><ele>284.0</ele><time>2026-03-30T13:40:10.717Z</time></trkpt><trkpt lat="42.561054" lon="12.3075249"><ele>284.0</ele><time>2026-03-30T13:40:11.691Z</time></trkpt><trkpt lat="42.561134" lon="12.3074433"><ele>284.0</ele><time>2026-03-30T13:40:12.721Z</time></trkpt><trkpt lat="42.5611991" lon="12.307354"><ele>283.2</ele><time>2026-03-30T13:40:13.72Z</time></trkpt><trkpt lat="42.5612587" lon="12.3072572"><ele>282.4</ele><time>2026-03-30T13:40:14.717Z</time></trkpt><trkpt lat="42.561317" lon="12.3071493"><ele>281.6</ele><time>2026-03-30T13:40:15.697Z</time></trkpt><trkpt lat="42.5613728" lon="12.307035"><ele>280.8</ele><time>2026-03-30T13:40:16.72Z</time></trkpt><trkpt lat="42.5614188" lon="12.3069216"><ele>280.0</ele><time>2026-03-30T13:40:17.722Z</time></trkpt><trkpt lat="42.5614639" lon="12.3068038"><ele>280.0</ele><time>2026-03-30T13:40:18.707Z</time></trkpt><trkpt lat="42.5615058" lon="12.3066889"><ele>280.0</ele><time>2026-03-30T13:40:19.708Z</time></trkpt><trkpt lat="42.5615424" lon="12.3065709"><ele>280.0</ele><time>2026-03-30T13:40:20.719Z</time></trkpt><trkpt lat="42.5615768" lon="12.3064496"><ele>280.0</ele><time>2026-03-30T13:40:21.705Z</time></trkpt><trkpt lat="42.5616118" lon="12.3063268"><ele>280.0</ele><time>2026-03-30T13:40:22.71Z</time></trkpt><trkpt lat="42.5616467" lon="12.3062035"><ele>276.8</ele><time>2026-03-30T13:40:23.711Z</time></trkpt><trkpt lat="42.5616874" lon="12.3060819"><ele>273.6</ele><time>2026-03-30T13:40:24.72Z</time></trkpt><trkpt lat="42.5617355" lon="12.3059631"><ele>270.4</ele><time>2026-03-30T13:40:25.725Z</time></trkpt><trkpt lat="42.561792" lon="12.305838"><ele>267.2</ele><time>2026-03-30T13:40:26.723Z</time></trkpt><trkpt lat="42.5618516" lon="12.3057168"><ele>264.0</ele><time>2026-03-30T13:40:27.721Z</time></trkpt><trkpt lat="42.5619164" lon="12.3055967"><ele>265.5</ele><time>2026-03-30T13:40:28.694Z</time></trkpt><trkpt lat="42.5619806" lon="12.3054743"><ele>267.0</ele><time>2026-03-30T13:40:29.711Z</time></trkpt><trkpt lat="42.5620417" lon="12.3053436"><ele>268.5</ele><time>2026-03-30T13:40:30.706Z</time></trkpt><trkpt lat="42.5621017" lon="12.3052053"><ele>270.0</ele><time>2026-03-30T13:40:31.696Z</time></trkpt><trkpt lat="42.5621613" lon="12.3050619"><ele>270.0</ele><time>2026-03-30T13:40:32.721Z</time></trkpt><trkpt lat="42.5622168" lon="12.3049328"><ele>270.0</ele><time>2026-03-30T13:40:33.72Z</time></trkpt><trkpt lat="42.5622665" lon="12.3048177"><ele>270.0</ele><time>2026-03-30T13:40:34.721Z</time></trkpt><trkpt lat="42.5623102" lon="12.3047111"><ele>270.0</ele><time>2026-03-30T13:40:35.723Z</time></trkpt><trkpt lat="42.5623555" lon="12.3046192"><ele>270.0</ele><time>2026-03-30T13:40:36.706Z</time></trkpt><trkpt lat="42.562403" lon="12.304532"><ele>267.6</ele><time>2026-03-30T13:40:37.721Z</time></trkpt><trkpt lat="42.5624566" lon="12.3044525"><ele>265.2</ele><time>2026-03-30T13:40:38.716Z</time></trkpt><trkpt lat="42.5625196" lon="12.3043769"><ele>262.8</ele><time>2026-03-30T13:40:39.719Z</time></trkpt><trkpt lat="42.5625957" lon="12.3043063"><ele>260.4</ele><time>2026-03-30T13:40:40.719Z</time></trkpt><trkpt lat="42.5626931" lon="12.3042362"><ele>258.0</ele><time>2026-03-30T13:40:41.721Z</time></trkpt><trkpt lat="42.5628028" lon="12.30417"><ele>259.5</ele><time>2026-03-30T13:40:42.722Z</time></trkpt><trkpt lat="42.5629161" lon="12.3041041"><ele>261.0</ele><time>2026-03-30T13:40:43.695Z</time></trkpt><trkpt lat="42.5630185" lon="12.3040407"><ele>262.5</ele><time>2026-03-30T13:40:44.7Z</time></trkpt><trkpt lat="42.5631143" lon="12.3039794"><ele>264.0</ele><time>2026-03-30T13:40:45.693Z</time></trkpt><trkpt lat="42.5632096" lon="12.3039099"><ele>260.59999999999997</ele><time>2026-03-30T13:40:46.719Z</time></trkpt><trkpt lat="42.5633052" lon="12.3038403"><ele>257.2</ele><time>2026-03-30T13:40:47.696Z</time></trkpt><trkpt lat="42.5634007" lon="12.3037731"><ele>253.79999999999998</ele><time>2026-03-30T13:40:48.691Z</time></trkpt><trkpt lat="42.5634931" lon="12.3037103"><ele>250.39999999999998</ele><time>2026-03-30T13:40:49.691Z</time></trkpt><trkpt lat="42.5635813" lon="12.3036455"><ele>247.0</ele><time>2026-03-30T13:40:50.692Z</time></trkpt><trkpt lat="42.5636698" lon="12.3035844"><ele>248.0</ele><time>2026-03-30T13:40:51.693Z</time></trkpt><trkpt lat="42.5637651" lon="12.3035245"><ele>249.0</ele><time>2026-03-30T13:40:52.714Z</time></trkpt><trkpt lat="42.5638691" lon="12.3034579"><ele>250.0</ele><time>2026-03-30T13:40:53.716Z</time></trkpt><trkpt lat="42.5639855" lon="12.3033835"><ele>251.0</ele><time>2026-03-30T13:40:54.712Z</time></trkpt><trkpt lat="42.5641132" lon="12.303307"><ele>251.0</ele><time>2026-03-30T13:40:55.708Z</time></trkpt><trkpt lat="42.5642427" lon="12.3032338"><ele>251.0</ele><time>2026-03-30T13:40:56.711Z</time></trkpt><trkpt lat="42.5643679" lon="12.3031617"><ele>251.0</ele><time>2026-03-30T13:40:57.715Z</time></trkpt><trkpt lat="42.5644894" lon="12.3030936"><ele>251.0</ele><time>2026-03-30T13:40:58.708Z</time></trkpt><trkpt lat="42.5646039" lon="12.3030345"><ele>249.25</ele><time>2026-03-30T13:40:59.714Z</time></trkpt><trkpt lat="42.564712" lon="12.3029897"><ele>247.5</ele><time>2026-03-30T13:41:01.452Z</time></trkpt><trkpt lat="42.5649057" lon="12.3029043"><ele>245.75</ele><time>2026-03-30T13:41:02.71Z</time></trkpt><trkpt lat="42.5649789" lon="12.3028608"><ele>244.0</ele><time>2026-03-30T13:41:03.694Z</time></trkpt><trkpt lat="42.5650381" lon="12.3028108"><ele>244.0</ele><time>2026-03-30T13:41:04.692Z</time></trkpt><trkpt lat="42.5650932" lon="12.3027504"><ele>243.99999999999997</ele><time>2026-03-30T13:41:05.699Z</time></trkpt><trkpt lat="42.5651479" lon="12.3026711"><ele>243.99999999999997</ele><time>2026-03-30T13:41:06.712Z</time></trkpt><trkpt lat="42.5652015" lon="12.3025473"><ele>244.0</ele><time>2026-03-30T13:41:07.695Z</time></trkpt><trkpt lat="42.5652574" lon="12.3024093"><ele>244.0</ele><time>2026-03-30T13:41:08.706Z</time></trkpt><trkpt lat="42.5653165" lon="12.3022571"><ele>247.5</ele><time>2026-03-30T13:41:09.693Z</time></trkpt><trkpt lat="42.5653812" lon="12.3021013"><ele>251.0</ele><time>2026-03-30T13:41:10.698Z</time></trkpt><trkpt lat="42.5654457" lon="12.3019427"><ele>254.5</ele><time>2026-03-30T13:41:11.698Z</time></trkpt><trkpt lat="42.5655085" lon="12.3017852"><ele>258.0</ele><time>2026-03-30T13:41:12.701Z</time></trkpt><trkpt lat="42.5655744" lon="12.3016406"><ele>258.0</ele><time>2026-03-30T13:41:13.717Z</time></trkpt><trkpt lat="42.565645" lon="12.3014937"><ele>258.0</ele><time>2026-03-30T13:41:14.72Z</time></trkpt><trkpt lat="42.5657132" lon="12.3013582"><ele>258.0</ele><time>2026-03-30T13:41:15.705Z</time></trkpt><trkpt lat="42.5657743" lon="12.3012424"><ele>258.0</ele><time>2026-03-30T13:41:16.699Z</time></trkpt><trkpt lat="42.5658284" lon="12.3011328"><ele>256.8</ele><time>2026-03-30T13:41:17.71Z</time></trkpt><trkpt lat="42.5658683" lon="12.3010145"><ele>255.60000000000002</ele><time>2026-03-30T13:41:18.699Z</time></trkpt><trkpt lat="42.5658894" lon="12.3008762"><ele>254.39999999999998</ele><time>2026-03-30T13:41:19.708Z</time></trkpt><trkpt lat="42.5658867" lon="12.3007451"><ele>253.2</ele><time>2026-03-30T13:41:20.71Z</time></trkpt><trkpt lat="42.5658718" lon="12.3006193"><ele>252.0</ele><time>2026-03-30T13:41:21.711Z</time></trkpt><trkpt lat="42.5658513" lon="12.3005017"><ele>252.0</ele><time>2026-03-30T13:41:22.709Z</time></trkpt><trkpt lat="42.5658336" lon="12.3003912"><ele>252.0</ele><time>2026-03-30T13:41:23.713Z</time></trkpt><trkpt lat="42.5658205" lon="12.3002838"><ele>252.0</ele><time>2026-03-30T13:41:24.711Z</time></trkpt><trkpt lat="42.5658061" lon="12.3001814"><ele>252.0</ele><time>2026-03-30T13:41:25.716Z</time></trkpt><trkpt lat="42.5657866" lon="12.3000901"><ele>252.0</ele><time>2026-03-30T13:41:26.715Z</time></trkpt><trkpt lat="42.5657499" lon="12.2999476"><ele>252.0</ele><time>2026-03-30T13:41:28.708Z</time></trkpt><trkpt lat="42.5657413" lon="12.2998433"><ele>252.0</ele><time>2026-03-30T13:41:30.72Z</time></trkpt><trkpt lat="42.5658141" lon="12.2997899"><ele>252.0</ele><time>2026-03-30T13:41:33.725Z</time></trkpt><trkpt lat="42.5657046" lon="12.2996905"><ele>252.0</ele><time>2026-03-30T13:43:08.713Z</time></trkpt><trkpt lat="42.5656337" lon="12.299634"><ele>252.0</ele><time>2026-03-30T13:43:09.713Z</time></trkpt><trkpt lat="42.5655583" lon="12.2995648"><ele>252.0</ele><time>2026-03-30T13:43:10.705Z</time></trkpt><trkpt lat="42.5654805" lon="12.2994952"><ele>251.28571428571428</ele><time>2026-03-30T13:43:11.703Z</time></trkpt><trkpt lat="42.5654116" lon="12.2994318"><ele>250.57142857142856</ele><time>2026-03-30T13:43:12.695Z</time></trkpt><trkpt lat="42.5653472" lon="12.2993731"><ele>249.85714285714286</ele><time>2026-03-30T13:43:13.698Z</time></trkpt><trkpt lat="42.5652824" lon="12.2993191"><ele>249.14285714285714</ele><time>2026-03-30T13:43:14.699Z</time></trkpt><trkpt lat="42.565221" lon="12.2992637"><ele>248.42857142857142</ele><time>2026-03-30T13:43:15.713Z</time></trkpt><trkpt lat="42.5651676" lon="12.2992082"><ele>247.71428571428572</ele><time>2026-03-30T13:43:16.694Z</time></trkpt><trkpt lat="42.5651168" lon="12.2991577"><ele>247.0</ele><time>2026-03-30T13:43:17.723Z</time></trkpt><trkpt lat="42.5650213" lon="12.299057"><ele>246.99999999999997</ele><time>2026-03-30T13:43:19.719Z</time></trkpt><trkpt lat="42.5649343" lon="12.2989317"><ele>247.0</ele><time>2026-03-30T13:43:21.716Z</time></trkpt><trkpt lat="42.5648911" lon="12.2988617"><ele>247.0</ele><time>2026-03-30T13:43:22.719Z</time></trkpt><trkpt lat="42.5648415" lon="12.2987757"><ele>247.0</ele><time>2026-03-30T13:43:23.731Z</time></trkpt><trkpt lat="42.5647882" lon="12.298689"><ele>246.99999999999997</ele><time>2026-03-30T13:43:24.713Z</time></trkpt><trkpt lat="42.5647388" lon="12.2986098"><ele>247.0</ele><time>2026-03-30T13:43:25.702Z</time></trkpt><trkpt lat="42.5646848" lon="12.2985357"><ele>247.16666666666666</ele><time>2026-03-30T13:43:26.706Z</time></trkpt><trkpt lat="42.5646454" lon="12.2984543"><ele>247.33333333333331</ele><time>2026-03-30T13:43:27.72Z</time></trkpt><trkpt lat="42.5646112" lon="12.2983602"><ele>247.5</ele><time>2026-03-30T13:43:28.709Z</time></trkpt><trkpt lat="42.5645814" lon="12.2982594"><ele>247.66666666666669</ele><time>2026-03-30T13:43:29.709Z</time></trkpt><trkpt lat="42.5645549" lon="12.2981576"><ele>247.83333333333334</ele><time>2026-03-30T13:43:30.699Z</time></trkpt><trkpt lat="42.5645319" lon="12.2980597"><ele>248.0</ele><time>2026-03-30T13:43:31.695Z</time></trkpt><trkpt lat="42.5645106" lon="12.2979601"><ele>247.33333333333334</ele><time>2026-03-30T13:43:32.724Z</time></trkpt><trkpt lat="42.5644932" lon="12.2978532"><ele>246.66666666666669</ele><time>2026-03-30T13:43:33.722Z</time></trkpt><trkpt lat="42.5644846" lon="12.2977542"><ele>246.0</ele><time>2026-03-30T13:43:34.712Z</time></trkpt><trkpt lat="42.564478" lon="12.2976604"><ele>245.33333333333331</ele><time>2026-03-30T13:43:35.714Z</time></trkpt><trkpt lat="42.5644749" lon="12.2974894"><ele>244.66666666666666</ele><time>2026-03-30T13:43:37.695Z</time></trkpt><trkpt lat="42.5644822" lon="12.2974041"><ele>244.0</ele><time>2026-03-30T13:43:38.716Z</time></trkpt><trkpt lat="42.5645038" lon="12.2973095"><ele>244.16666666666666</ele><time>2026-03-30T13:43:39.705Z</time></trkpt><trkpt lat="42.5645308" lon="12.2972061"><ele>244.33333333333331</ele><time>2026-03-30T13:43:40.718Z</time></trkpt><trkpt lat="42.5645602" lon="12.2971082"><ele>244.5</ele><time>2026-03-30T13:43:41.722Z</time></trkpt><trkpt lat="42.5645988" lon="12.2970169"><ele>244.66666666666669</ele><time>2026-03-30T13:43:42.713Z</time></trkpt><trkpt lat="42.5646472" lon="12.296939"><ele>244.83333333333334</ele><time>2026-03-30T13:43:43.719Z</time></trkpt><trkpt lat="42.5647018" lon="12.2968697"><ele>245.0</ele><time>2026-03-30T13:43:44.708Z</time></trkpt><trkpt lat="42.5647674" lon="12.2967951"><ele>245.00000000000003</ele><time>2026-03-30T13:43:45.709Z</time></trkpt><trkpt lat="42.5648299" lon="12.2967128"><ele>245.0</ele><time>2026-03-30T13:43:46.707Z</time></trkpt><trkpt lat="42.5648881" lon="12.2966397"><ele>245.0</ele><time>2026-03-30T13:43:47.717Z</time></trkpt><trkpt lat="42.564944" lon="12.2965738"><ele>245.0</ele><time>2026-03-30T13:43:48.702Z</time></trkpt><trkpt lat="42.5650096" lon="12.2965206"><ele>245.00000000000003</ele><time>2026-03-30T13:43:49.707Z</time></trkpt><trkpt lat="42.5650862" lon="12.296474"><ele>245.0</ele><time>2026-03-30T13:43:50.708Z</time></trkpt><trkpt lat="42.5651662" lon="12.2964227"><ele>246.0</ele><time>2026-03-30T13:43:51.72Z</time></trkpt><trkpt lat="42.5652422" lon="12.2963672"><ele>247.0</ele><time>2026-03-30T13:43:52.711Z</time></trkpt><trkpt lat="42.5653185" lon="12.2963105"><ele>248.0</ele><time>2026-03-30T13:43:53.71Z</time></trkpt><trkpt lat="42.5653956" lon="12.2962338"><ele>249.0</ele><time>2026-03-30T13:43:54.702Z</time></trkpt><trkpt lat="42.5654812" lon="12.2961475"><ele>250.0</ele><time>2026-03-30T13:43:55.718Z</time></trkpt><trkpt lat="42.5655597" lon="12.2960721"><ele>247.49999999999997</ele><time>2026-03-30T13:43:56.717Z</time></trkpt><trkpt lat="42.5656399" lon="12.2960014"><ele>245.0</ele><time>2026-03-30T13:43:57.692Z</time></trkpt><trkpt lat="42.5657194" lon="12.2959299"><ele>242.5</ele><time>2026-03-30T13:43:58.714Z</time></trkpt><trkpt lat="42.5657901" lon="12.2958611"><ele>240.0</ele><time>2026-03-30T13:43:59.715Z</time></trkpt><trkpt lat="42.5658492" lon="12.2957923"><ele>237.49999999999997</ele><time>2026-03-30T13:44:00.712Z</time></trkpt><trkpt lat="42.5659027" lon="12.2957049"><ele>235.0</ele><time>2026-03-30T13:44:01.708Z</time></trkpt><trkpt lat="42.5659523" lon="12.2956045"><ele>235.49999999999997</ele><time>2026-03-30T13:44:02.706Z</time></trkpt><trkpt lat="42.5659944" lon="12.295502"><ele>236.0</ele><time>2026-03-30T13:44:03.714Z</time></trkpt><trkpt lat="42.5660304" lon="12.2953939"><ele>236.5</ele><time>2026-03-30T13:44:04.718Z</time></trkpt><trkpt lat="42.5660479" lon="12.2952814"><ele>237.0</ele><time>2026-03-30T13:44:05.705Z</time></trkpt><trkpt lat="42.5660549" lon="12.2951674"><ele>237.49999999999997</ele><time>2026-03-30T13:44:06.715Z</time></trkpt><trkpt lat="42.5660613" lon="12.2950658"><ele>238.0</ele><time>2026-03-30T13:44:07.694Z</time></trkpt><trkpt lat="42.5660864" lon="12.2949606"><ele>237.99999999999997</ele><time>2026-03-30T13:44:08.707Z</time></trkpt><trkpt lat="42.5661255" lon="12.2948623"><ele>238.0</ele><time>2026-03-30T13:44:09.717Z</time></trkpt><trkpt lat="42.5661636" lon="12.2947731"><ele>238.0</ele><time>2026-03-30T13:44:10.699Z</time></trkpt><trkpt lat="42.5661942" lon="12.294694"><ele>238.0</ele><time>2026-03-30T13:44:11.694Z</time></trkpt><trkpt lat="42.5662395" lon="12.2945615"><ele>237.99999999999997</ele><time>2026-03-30T13:44:14.489Z</time></trkpt><trkpt lat="42.5662302" lon="12.2944424"><ele>238.0</ele><time>2026-03-30T13:44:16.708Z</time></trkpt><trkpt lat="42.5662409" lon="12.2943052"><ele>237.28571428571428</ele><time>2026-03-30T13:44:18.715Z</time></trkpt><trkpt lat="42.5662295" lon="12.2942169"><ele>236.57142857142856</ele><time>2026-03-30T13:44:19.716Z</time></trkpt><trkpt lat="42.5661981" lon="12.2941226"><ele>235.85714285714286</ele><time>2026-03-30T13:44:20.716Z</time></trkpt><trkpt lat="42.5661641" lon="12.2940312"><ele>235.14285714285714</ele><time>2026-03-30T13:44:21.706Z</time></trkpt><trkpt lat="42.5661285" lon="12.2939369"><ele>234.42857142857142</ele><time>2026-03-30T13:44:22.721Z</time></trkpt><trkpt lat="42.5660913" lon="12.2938497"><ele>233.71428571428572</ele><time>2026-03-30T13:44:23.715Z</time></trkpt><trkpt lat="42.5660522" lon="12.2937636"><ele>233.0</ele><time>2026-03-30T13:44:24.7Z</time></trkpt><trkpt lat="42.5660114" lon="12.2936837"><ele>231.33333333333334</ele><time>2026-03-30T13:44:25.693Z</time></trkpt><trkpt lat="42.5659708" lon="12.2936117"><ele>229.66666666666669</ele><time>2026-03-30T13:44:26.718Z</time></trkpt><trkpt lat="42.5658926" lon="12.2934968"><ele>228.0</ele><time>2026-03-30T13:44:28.718Z</time></trkpt><trkpt lat="42.5658382" lon="12.2934459"><ele>226.33333333333331</ele><time>2026-03-30T13:44:29.72Z</time></trkpt><trkpt lat="42.5657818" lon="12.2933939"><ele>224.66666666666666</ele><time>2026-03-30T13:44:30.688Z</time></trkpt><trkpt lat="42.5657263" lon="12.2933387"><ele>223.0</ele><time>2026-03-30T13:44:31.711Z</time></trkpt><trkpt lat="42.5656433" lon="12.2932119"><ele>222.99999999999997</ele><time>2026-03-30T13:44:33.719Z</time></trkpt><trkpt lat="42.5656001" lon="12.2931242"><ele>223.0</ele><time>2026-03-30T13:44:34.713Z</time></trkpt><trkpt lat="42.5655569" lon="12.2930152"><ele>223.0</ele><time>2026-03-30T13:44:35.717Z</time></trkpt><trkpt lat="42.565505" lon="12.2929111"><ele>223.0</ele><time>2026-03-30T13:44:36.707Z</time></trkpt><trkpt lat="42.5654517" lon="12.2928243"><ele>222.99999999999997</ele><time>2026-03-30T13:44:37.716Z</time></trkpt><trkpt lat="42.5654041" lon="12.2927472"><ele>223.0</ele><time>2026-03-30T13:44:38.711Z</time></trkpt><trkpt lat="42.5653669" lon="12.2926707"><ele>220.8</ele><time>2026-03-30T13:44:39.703Z</time></trkpt><trkpt lat="42.5653347" lon="12.2925812"><ele>218.60000000000002</ele><time>2026-03-30T13:44:40.707Z</time></trkpt><trkpt lat="42.565291" lon="12.292478"><ele>216.39999999999998</ele><time>2026-03-30T13:44:41.696Z</time></trkpt><trkpt lat="42.5652374" lon="12.2923624"><ele>214.2</ele><time>2026-03-30T13:44:42.703Z</time></trkpt><trkpt lat="42.5651792" lon="12.2922528"><ele>212.0</ele><time>2026-03-30T13:44:43.713Z</time></trkpt><trkpt lat="42.5651246" lon="12.292154"><ele>210.66666666666669</ele><time>2026-03-30T13:44:44.7Z</time></trkpt><trkpt lat="42.5650852" lon="12.2920595"><ele>209.33333333333334</ele><time>2026-03-30T13:44:45.716Z</time></trkpt><trkpt lat="42.5650506" lon="12.2919858"><ele>208.0</ele><time>2026-03-30T13:44:46.703Z</time></trkpt><trkpt lat="42.5650234" lon="12.2919051"><ele>206.66666666666669</ele><time>2026-03-30T13:44:47.716Z</time></trkpt><trkpt lat="42.565" lon="12.291816"><ele>205.33333333333334</ele><time>2026-03-30T13:44:48.715Z</time></trkpt><trkpt lat="42.5649836" lon="12.2916983"><ele>204.0</ele><time>2026-03-30T13:44:49.72Z</time></trkpt><trkpt lat="42.5649708" lon="12.29156"><ele>203.2</ele><time>2026-03-30T13:44:50.712Z</time></trkpt><trkpt lat="42.5649539" lon="12.2914218"><ele>202.39999999999998</ele><time>2026-03-30T13:44:51.718Z</time></trkpt><trkpt lat="42.5649373" lon="12.2912941"><ele>201.6</ele><time>2026-03-30T13:44:52.709Z</time></trkpt><trkpt lat="42.5649207" lon="12.291199"><ele>200.8</ele><time>2026-03-30T13:44:53.719Z</time></trkpt><trkpt lat="42.5648532" lon="12.2910465"><ele>200.0</ele><time>2026-03-30T13:44:55.721Z</time></trkpt><trkpt lat="42.5647946" lon="12.2909557"><ele>200.0</ele><time>2026-03-30T13:44:56.7Z</time></trkpt><trkpt lat="42.5647461" lon="12.290851"><ele>200.0</ele><time>2026-03-30T13:44:57.724Z</time></trkpt><trkpt lat="42.5647123" lon="12.2907181"><ele>200.0</ele><time>2026-03-30T13:44:58.72Z</time></trkpt><trkpt lat="42.5646971" lon="12.2905998"><ele>200.0</ele><time>2026-03-30T13:44:59.71Z</time></trkpt><trkpt lat="42.5646919" lon="12.2904893"><ele>200.0</ele><time>2026-03-30T13:45:00.721Z</time></trkpt><trkpt lat="42.5646763" lon="12.2903712"><ele>199.16666666666669</ele><time>2026-03-30T13:45:01.716Z</time></trkpt><trkpt lat="42.5646487" lon="12.2902443"><ele>198.33333333333334</ele><time>2026-03-30T13:45:02.723Z</time></trkpt><trkpt lat="42.5646303" lon="12.2901201"><ele>197.5</ele><time>2026-03-30T13:45:03.726Z</time></trkpt><trkpt lat="42.5646098" lon="12.2900129"><ele>196.66666666666669</ele><time>2026-03-30T13:45:04.713Z</time></trkpt><trkpt lat="42.5645874" lon="12.2899214"><ele>195.83333333333334</ele><time>2026-03-30T13:45:05.708Z</time></trkpt><trkpt lat="42.5645393" lon="12.2898299"><ele>195.0</ele><time>2026-03-30T13:45:06.721Z</time></trkpt><trkpt lat="42.5644748" lon="12.2897344"><ele>198.66666666666666</ele><time>2026-03-30T13:45:07.716Z</time></trkpt><trkpt lat="42.564407" lon="12.2896411"><ele>202.33333333333331</ele><time>2026-03-30T13:45:08.725Z</time></trkpt><trkpt lat="42.5643467" lon="12.2895665"><ele>206.0</ele><time>2026-03-30T13:45:09.722Z</time></trkpt><trkpt lat="42.56428" lon="12.28952"><ele>209.66666666666666</ele><time>2026-03-30T13:45:10.708Z</time></trkpt><trkpt lat="42.5641956" lon="12.2895214"><ele>213.33333333333331</ele><time>2026-03-30T13:45:11.705Z</time></trkpt><trkpt lat="42.5641087" lon="12.2895417"><ele>217.0</ele><time>2026-03-30T13:45:12.71Z</time></trkpt><trkpt lat="42.5640187" lon="12.2895515"><ele>217.0</ele><time>2026-03-30T13:45:13.708Z</time></trkpt><trkpt lat="42.5639185" lon="12.2895297"><ele>217.0</ele><time>2026-03-30T13:45:14.721Z</time></trkpt><trkpt lat="42.5638248" lon="12.2894977"><ele>217.0</ele><time>2026-03-30T13:45:15.716Z</time></trkpt><trkpt lat="42.5637426" lon="12.2894433"><ele>217.0</ele><time>2026-03-30T13:45:16.719Z</time></trkpt><trkpt lat="42.5636715" lon="12.2893753"><ele>217.0</ele><time>2026-03-30T13:45:17.716Z</time></trkpt><trkpt lat="42.5635992" lon="12.2892738"><ele>215.2</ele><time>2026-03-30T13:45:18.724Z</time></trkpt><trkpt lat="42.5635203" lon="12.289152"><ele>213.39999999999998</ele><time>2026-03-30T13:45:19.716Z</time></trkpt><trkpt lat="42.5634525" lon="12.2890444"><ele>211.60000000000002</ele><time>2026-03-30T13:45:20.696Z</time></trkpt><trkpt lat="42.5633961" lon="12.2889755"><ele>209.8</ele><time>2026-03-30T13:45:21.696Z</time></trkpt><trkpt lat="42.563287" lon="12.2889486"><ele>208.0</ele><time>2026-03-30T13:45:23.72Z</time></trkpt><trkpt lat="42.563223" lon="12.2889778"><ele>207.99999999999997</ele><time>2026-03-30T13:45:24.706Z</time></trkpt><trkpt lat="42.5631486" lon="12.2890148"><ele>208.0</ele><time>2026-03-30T13:45:25.719Z</time></trkpt><trkpt lat="42.5630745" lon="12.2890394"><ele>208.0</ele><time>2026-03-30T13:45:26.707Z</time></trkpt><trkpt lat="42.5629998" lon="12.2890579"><ele>208.0</ele><time>2026-03-30T13:45:27.706Z</time></trkpt><trkpt lat="42.5629234" lon="12.2890845"><ele>207.99999999999997</ele><time>2026-03-30T13:45:28.709Z</time></trkpt><trkpt lat="42.5628438" lon="12.289115"><ele>208.0</ele><time>2026-03-30T13:45:29.707Z</time></trkpt><trkpt lat="42.5627654" lon="12.2891474"><ele>206.66666666666666</ele><time>2026-03-30T13:45:30.708Z</time></trkpt><trkpt lat="42.5626891" lon="12.2891816"><ele>205.33333333333331</ele><time>2026-03-30T13:45:31.705Z</time></trkpt><trkpt lat="42.5626211" lon="12.2892057"><ele>204.0</ele><time>2026-03-30T13:45:32.719Z</time></trkpt><trkpt lat="42.5625486" lon="12.2892"><ele>202.66666666666669</ele><time>2026-03-30T13:45:33.715Z</time></trkpt><trkpt lat="42.5624521" lon="12.28915"><ele>201.33333333333334</ele><time>2026-03-30T13:45:34.713Z</time></trkpt><trkpt lat="42.5623467" lon="12.2890821"><ele>200.0</ele><time>2026-03-30T13:45:35.719Z</time></trkpt><trkpt lat="42.5622418" lon="12.2890028"><ele>200.0</ele><time>2026-03-30T13:45:36.7Z</time></trkpt><trkpt lat="42.5621409" lon="12.2889311"><ele>200.0</ele><time>2026-03-30T13:45:37.719Z</time></trkpt><trkpt lat="42.562038" lon="12.2888559"><ele>200.0</ele><time>2026-03-30T13:45:38.72Z</time></trkpt><trkpt lat="42.5619324" lon="12.2887828"><ele>200.0</ele><time>2026-03-30T13:45:39.721Z</time></trkpt><trkpt lat="42.5618289" lon="12.2887137"><ele>199.16666666666669</ele><time>2026-03-30T13:45:40.722Z</time></trkpt><trkpt lat="42.5617529" lon="12.2886579"><ele>198.33333333333334</ele><time>2026-03-30T13:45:41.72Z</time></trkpt><trkpt lat="42.5616967" lon="12.2886033"><ele>197.5</ele><time>2026-03-30T13:45:42.723Z</time></trkpt><trkpt lat="42.56164" lon="12.2885409"><ele>196.66666666666669</ele><time>2026-03-30T13:45:43.696Z</time></trkpt><trkpt lat="42.5615711" lon="12.2884777"><ele>195.83333333333334</ele><time>2026-03-30T13:45:44.718Z</time></trkpt><trkpt lat="42.5614819" lon="12.2884121"><ele>195.0</ele><time>2026-03-30T13:45:45.717Z</time></trkpt><trkpt lat="42.5613823" lon="12.2883297"><ele>195.0</ele><time>2026-03-30T13:45:46.707Z</time></trkpt><trkpt lat="42.5612894" lon="12.2882378"><ele>195.0</ele><time>2026-03-30T13:45:47.722Z</time></trkpt><trkpt lat="42.5611929" lon="12.2881156"><ele>195.0</ele><time>2026-03-30T13:45:48.721Z</time></trkpt><trkpt lat="42.5610991" lon="12.2879789"><ele>195.0</ele><time>2026-03-30T13:45:49.72Z</time></trkpt><trkpt lat="42.5610151" lon="12.2878633"><ele>195.0</ele><time>2026-03-30T13:45:50.722Z</time></trkpt><trkpt lat="42.5609408" lon="12.2877739"><ele>195.0</ele><time>2026-03-30T13:45:51.721Z</time></trkpt><trkpt lat="42.5608688" lon="12.2876817"><ele>195.0</ele><time>2026-03-30T13:45:52.702Z</time></trkpt><trkpt lat="42.5608116" lon="12.2875807"><ele>195.0</ele><time>2026-03-30T13:45:53.715Z</time></trkpt><trkpt lat="42.5607712" lon="12.2874852"><ele>195.0</ele><time>2026-03-30T13:45:54.72Z</time></trkpt><trkpt lat="42.5607424" lon="12.2874036"><ele>195.0</ele><time>2026-03-30T13:45:55.719Z</time></trkpt><trkpt lat="42.5607215" lon="12.2873225"><ele>194.6</ele><time>2026-03-30T13:45:56.718Z</time></trkpt><trkpt lat="42.5606765" lon="12.2871623"><ele>194.2</ele><time>2026-03-30T13:45:58.714Z</time></trkpt><trkpt lat="42.5606257" lon="12.2870728"><ele>193.8</ele><time>2026-03-30T13:45:59.715Z</time></trkpt><trkpt lat="42.5605611" lon="12.2869691"><ele>193.4</ele><time>2026-03-30T13:46:00.707Z</time></trkpt><trkpt lat="42.5604877" lon="12.2868769"><ele>193.0</ele><time>2026-03-30T13:46:01.706Z</time></trkpt><trkpt lat="42.5604166" lon="12.2867895"><ele>194.0</ele><time>2026-03-30T13:46:02.71Z</time></trkpt><trkpt lat="42.5603465" lon="12.2866968"><ele>195.0</ele><time>2026-03-30T13:46:03.698Z</time></trkpt><trkpt lat="42.5602707" lon="12.2865902"><ele>196.0</ele><time>2026-03-30T13:46:04.715Z</time></trkpt><trkpt lat="42.560195" lon="12.2864889"><ele>197.0</ele><time>2026-03-30T13:46:05.717Z</time></trkpt><trkpt lat="42.5601155" lon="12.2863963"><ele>198.0</ele><time>2026-03-30T13:46:06.709Z</time></trkpt><trkpt lat="42.560038" lon="12.286308"><ele>199.33333333333334</ele><time>2026-03-30T13:46:07.714Z</time></trkpt><trkpt lat="42.5599782" lon="12.2862189"><ele>200.66666666666669</ele><time>2026-03-30T13:46:08.717Z</time></trkpt><trkpt lat="42.559934" lon="12.2861354"><ele>202.0</ele><time>2026-03-30T13:46:09.71Z</time></trkpt><trkpt lat="42.5599008" lon="12.2860271"><ele>203.33333333333334</ele><time>2026-03-30T13:46:11.696Z</time></trkpt><trkpt lat="42.559917" lon="12.2859126"><ele>204.66666666666669</ele><time>2026-03-30T13:46:14.696Z</time></trkpt><trkpt lat="42.5600207" lon="12.285878"><ele>206.0</ele><time>2026-03-30T13:46:29.712Z</time></trkpt><trkpt lat="42.5600995" lon="12.2858319"><ele>206.00000000000003</ele><time>2026-03-30T13:46:31.701Z</time></trkpt><trkpt lat="42.5601553" lon="12.285791"><ele>206.0</ele><time>2026-03-30T13:46:33.726Z</time></trkpt><trkpt lat="42.5602461" lon="12.2857486"><ele>206.0</ele><time>2026-03-30T13:46:36.706Z</time></trkpt><trkpt lat="42.5603114" lon="12.2857292"><ele>206.0</ele><time>2026-03-30T13:46:38.705Z</time></trkpt><trkpt lat="42.5603832" lon="12.2856649"><ele>206.00000000000003</ele><time>2026-03-30T13:46:41.702Z</time></trkpt><trkpt lat="42.560394" lon="12.2855662"><ele>206.0</ele><time>2026-03-30T13:46:43.711Z</time></trkpt><trkpt lat="42.5604053" lon="12.2854496"><ele>202.33333333333334</ele><time>2026-03-30T13:46:46.708Z</time></trkpt><trkpt lat="42.5604295" lon="12.2853643"><ele>198.66666666666669</ele><time>2026-03-30T13:46:48.695Z</time></trkpt><trkpt lat="42.5604815" lon="12.2852778"><ele>195.0</ele><time>2026-03-30T13:46:50.714Z</time></trkpt><trkpt lat="42.5605365" lon="12.2851821"><ele>191.33333333333334</ele><time>2026-03-30T13:46:52.705Z</time></trkpt><trkpt lat="42.5605999" lon="12.2850713"><ele>187.66666666666669</ele><time>2026-03-30T13:46:54.721Z</time></trkpt><trkpt lat="42.5606565" lon="12.2849514"><ele>184.0</ele><time>2026-03-30T13:46:56.705Z</time></trkpt><trkpt lat="42.5607136" lon="12.2848421"><ele>181.5</ele><time>2026-03-30T13:46:58.696Z</time></trkpt><trkpt lat="42.5607653" lon="12.2847331"><ele>179.0</ele><time>2026-03-30T13:47:00.704Z</time></trkpt><trkpt lat="42.5608332" lon="12.2846398"><ele>176.5</ele><time>2026-03-30T13:47:02.697Z</time></trkpt><trkpt lat="42.5608949" lon="12.2845692"><ele>174.0</ele><time>2026-03-30T13:47:04.695Z</time></trkpt><trkpt lat="42.5609321" lon="12.2844952"><ele>171.5</ele><time>2026-03-30T13:47:06.692Z</time></trkpt><trkpt lat="42.5609463" lon="12.2843794"><ele>169.0</ele><time>2026-03-30T13:47:08.71Z</time></trkpt><trkpt lat="42.560953" lon="12.2842658"><ele>169.0</ele><time>2026-03-30T13:47:10.711Z</time></trkpt><trkpt lat="42.5609686" lon="12.2841816"><ele>169.0</ele><time>2026-03-30T13:47:12.711Z</time></trkpt><trkpt lat="42.561016" lon="12.284107"><ele>169.0</ele><time>2026-03-30T13:47:15.727Z</time></trkpt><trkpt lat="42.5610771" lon="12.284076"><ele>169.0</ele><time>2026-03-30T13:47:17.714Z</time></trkpt><trkpt lat="42.561161" lon="12.284012"><ele>169.0</ele><time>2026-03-30T13:47:20.708Z</time></trkpt><trkpt lat="42.5612132" lon="12.2839544"><ele>169.0</ele><time>2026-03-30T13:47:22.705Z</time></trkpt><trkpt lat="42.5612645" lon="12.2838948"><ele>169.0</ele><time>2026-03-30T13:47:24.712Z</time></trkpt><trkpt lat="42.5613188" lon="12.2838182"><ele>164.0</ele><time>2026-03-30T13:47:26.72Z</time></trkpt><trkpt lat="42.5613851" lon="12.2837301"><ele>159.0</ele><time>2026-03-30T13:47:28.711Z</time></trkpt><trkpt lat="42.5614572" lon="12.2836438"><ele>154.0</ele><time>2026-03-30T13:47:30.706Z</time></trkpt><trkpt lat="42.5615214" lon="12.2835616"><ele>149.0</ele><time>2026-03-30T13:47:32.717Z</time></trkpt><trkpt lat="42.5615714" lon="12.2835058"><ele>144.0</ele><time>2026-03-30T13:47:34.708Z</time></trkpt><trkpt lat="42.5616263" lon="12.2834483"><ele>139.0</ele><time>2026-03-30T13:47:44.701Z</time></trkpt><trkpt lat="42.5615473" lon="12.2835322"><ele>139.0</ele><time>2026-03-30T13:48:00.699Z</time></trkpt><trkpt lat="42.5614839" lon="12.283618"><ele>139.0</ele><time>2026-03-30T13:48:02.719Z</time></trkpt><trkpt lat="42.5614188" lon="12.2837057"><ele>139.0</ele><time>2026-03-30T13:48:04.707Z</time></trkpt><trkpt lat="42.5613516" lon="12.2837905"><ele>139.0</ele><time>2026-03-30T13:48:06.703Z</time></trkpt><trkpt lat="42.561291" lon="12.2838862"><ele>139.0</ele><time>2026-03-30T13:48:08.707Z</time></trkpt><trkpt lat="42.561227" lon="12.2839805"><ele>145.0</ele><time>2026-03-30T13:48:10.719Z</time></trkpt><trkpt lat="42.5611476" lon="12.2840587"><ele>151.0</ele><time>2026-03-30T13:48:12.7Z</time></trkpt><trkpt lat="42.5610618" lon="12.284118"><ele>157.0</ele><time>2026-03-30T13:48:14.692Z</time></trkpt><trkpt lat="42.5609859" lon="12.2841637"><ele>163.0</ele><time>2026-03-30T13:48:16.693Z</time></trkpt><trkpt lat="42.5609457" lon="12.284267"><ele>169.0</ele><time>2026-03-30T13:48:18.703Z</time></trkpt><trkpt lat="42.5609417" lon="12.2843865"><ele>169.0</ele><time>2026-03-30T13:48:20.692Z</time></trkpt><trkpt lat="42.5609257" lon="12.2845099"><ele>169.0</ele><time>2026-03-30T13:48:22.693Z</time></trkpt><trkpt lat="42.5608826" lon="12.2846062"><ele>169.0</ele><time>2026-03-30T13:48:24.689Z</time></trkpt><trkpt lat="42.5608059" lon="12.284698"><ele>169.0</ele><time>2026-03-30T13:48:26.694Z</time></trkpt><trkpt lat="42.5607494" lon="12.2847933"><ele>169.0</ele><time>2026-03-30T13:48:28.716Z</time></trkpt><trkpt lat="42.5606988" lon="12.2849063"><ele>172.75</ele><time>2026-03-30T13:48:30.717Z</time></trkpt><trkpt lat="42.5606437" lon="12.2850262"><ele>176.5</ele><time>2026-03-30T13:48:32.716Z</time></trkpt><trkpt lat="42.5605853" lon="12.2851505"><ele>180.25</ele><time>2026-03-30T13:48:34.692Z</time></trkpt><trkpt lat="42.5605131" lon="12.2852762"><ele>184.0</ele><time>2026-03-30T13:48:36.725Z</time></trkpt><trkpt lat="42.5604455" lon="12.2854118"><ele>184.0</ele><time>2026-03-30T13:48:38.719Z</time></trkpt><trkpt lat="42.5604089" lon="12.2855577"><ele>184.0</ele><time>2026-03-30T13:48:40.711Z</time></trkpt><trkpt lat="42.560387" lon="12.2856894"><ele>184.0</ele><time>2026-03-30T13:48:42.719Z</time></trkpt><trkpt lat="42.5603301" lon="12.2857536"><ele>184.0</ele><time>2026-03-30T13:48:56.707Z</time></trkpt><trkpt lat="42.560238" lon="12.2857758"><ele>184.0</ele><time>2026-03-30T13:48:58.708Z</time></trkpt><trkpt lat="42.5601402" lon="12.2858166"><ele>187.66666666666669</ele><time>2026-03-30T13:49:00.698Z</time></trkpt><trkpt lat="42.560078" lon="12.2858704"><ele>191.33333333333334</ele><time>2026-03-30T13:49:02.706Z</time></trkpt><trkpt lat="42.5600015" lon="12.2859206"><ele>195.0</ele><time>2026-03-30T13:49:04.708Z</time></trkpt><trkpt lat="42.5599382" lon="12.2859829"><ele>198.66666666666669</ele><time>2026-03-30T13:49:07.706Z</time></trkpt><trkpt lat="42.5598561" lon="12.2859943"><ele>202.33333333333334</ele><time>2026-03-30T13:49:10.702Z</time></trkpt><trkpt lat="42.559799" lon="12.2859512"><ele>206.0</ele><time>2026-03-30T13:49:11.704Z</time></trkpt><trkpt lat="42.5596965" lon="12.2858935"><ele>206.0</ele><time>2026-03-30T13:49:13.72Z</time></trkpt><trkpt lat="42.5595718" lon="12.2859202"><ele>206.0</ele><time>2026-03-30T13:49:15.709Z</time></trkpt><trkpt lat="42.5594882" lon="12.2859638"><ele>206.0</ele><time>2026-03-30T13:49:16.703Z</time></trkpt><trkpt lat="42.5593958" lon="12.2860091"><ele>206.0</ele><time>2026-03-30T13:49:17.708Z</time></trkpt><trkpt lat="42.5593013" lon="12.2860792"><ele>206.0</ele><time>2026-03-30T13:49:18.7Z</time></trkpt><trkpt lat="42.5592123" lon="12.2861454"><ele>205.8</ele><time>2026-03-30T13:49:19.705Z</time></trkpt><trkpt lat="42.559123" lon="12.2861834"><ele>205.60000000000002</ele><time>2026-03-30T13:49:20.715Z</time></trkpt><trkpt lat="42.5590168" lon="12.2861979"><ele>205.4</ele><time>2026-03-30T13:49:21.717Z</time></trkpt><trkpt lat="42.5589042" lon="12.2862101"><ele>205.2</ele><time>2026-03-30T13:49:22.717Z</time></trkpt><trkpt lat="42.5587971" lon="12.2862316"><ele>205.0</ele><time>2026-03-30T13:49:23.718Z</time></trkpt><trkpt lat="42.5586986" lon="12.2862505"><ele>204.4</ele><time>2026-03-30T13:49:24.707Z</time></trkpt><trkpt lat="42.5586001" lon="12.2862602"><ele>203.8</ele><time>2026-03-30T13:49:25.714Z</time></trkpt><trkpt lat="42.5584932" lon="12.2862601"><ele>203.2</ele><time>2026-03-30T13:49:26.711Z</time></trkpt><trkpt lat="42.5583879" lon="12.2862594"><ele>202.6</ele><time>2026-03-30T13:49:27.713Z</time></trkpt><trkpt lat="42.5582851" lon="12.286253"><ele>202.0</ele><time>2026-03-30T13:49:28.715Z</time></trkpt><trkpt lat="42.5581906" lon="12.286251"><ele>201.99999999999997</ele><time>2026-03-30T13:49:29.728Z</time></trkpt><trkpt lat="42.5580972" lon="12.2862404"><ele>202.0</ele><time>2026-03-30T13:49:30.727Z</time></trkpt><trkpt lat="42.5580084" lon="12.2862295"><ele>202.0</ele><time>2026-03-30T13:49:31.728Z</time></trkpt><trkpt lat="42.5579343" lon="12.2862187"><ele>202.0</ele><time>2026-03-30T13:49:32.724Z</time></trkpt><trkpt lat="42.5578709" lon="12.2862091"><ele>201.99999999999997</ele><time>2026-03-30T13:49:33.728Z</time></trkpt><trkpt lat="42.5577507" lon="12.2862296"><ele>202.0</ele><time>2026-03-30T13:49:35.72Z</time></trkpt><trkpt lat="42.5576628" lon="12.2862469"><ele>201.99999999999997</ele><time>2026-03-30T13:49:37.72Z</time></trkpt><trkpt lat="42.5576024" lon="12.2862781"><ele>202.0</ele><time>2026-03-30T13:50:21.722Z</time></trkpt><trkpt lat="42.5575886" lon="12.2861901"><ele>202.0</ele><time>2026-03-30T13:50:24.724Z</time></trkpt><trkpt lat="42.5576724" lon="12.2861773"><ele>202.0</ele><time>2026-03-30T13:50:26.723Z</time></trkpt><trkpt lat="42.5577689" lon="12.286212"><ele>201.99999999999997</ele><time>2026-03-30T13:50:28.701Z</time></trkpt><trkpt lat="42.5578847" lon="12.2862114"><ele>202.0</ele><time>2026-03-30T13:50:30.717Z</time></trkpt><trkpt lat="42.5580041" lon="12.2861998"><ele>202.0</ele><time>2026-03-30T13:50:32.723Z</time></trkpt><trkpt lat="42.5581184" lon="12.2862073"><ele>202.0</ele><time>2026-03-30T13:50:34.721Z</time></trkpt><trkpt lat="42.5582558" lon="12.2862249"><ele>202.0</ele><time>2026-03-30T13:50:36.711Z</time></trkpt><trkpt lat="42.5583467" lon="12.2862337"><ele>202.0</ele><time>2026-03-30T13:50:37.72Z</time></trkpt><trkpt lat="42.5584283" lon="12.2862368"><ele>202.0</ele><time>2026-03-30T13:50:38.714Z</time></trkpt><trkpt lat="42.5584954" lon="12.2862463"><ele>201.99999999999997</ele><time>2026-03-30T13:50:39.722Z</time></trkpt><trkpt lat="42.5585868" lon="12.2862528"><ele>202.0</ele><time>2026-03-30T13:50:41.721Z</time></trkpt><trkpt lat="42.5585746" lon="12.2861606"><ele>202.0</ele><time>2026-03-30T13:50:44.727Z</time></trkpt><trkpt lat="42.5584723" lon="12.2860862"><ele>202.0</ele><time>2026-03-30T13:50:46.719Z</time></trkpt><trkpt lat="42.5584158" lon="12.2860423"><ele>201.99999999999997</ele><time>2026-03-30T13:50:47.713Z</time></trkpt><trkpt lat="42.5583483" lon="12.286015"><ele>202.0</ele><time>2026-03-30T13:50:48.711Z</time></trkpt><trkpt lat="42.5582586" lon="12.2859729"><ele>201.99999999999997</ele><time>2026-03-30T13:50:49.72Z</time></trkpt><trkpt lat="42.5581569" lon="12.2859516"><ele>202.0</ele><time>2026-03-30T13:50:50.722Z</time></trkpt><trkpt lat="42.5580698" lon="12.2859284"><ele>202.0</ele><time>2026-03-30T13:50:51.725Z</time></trkpt><trkpt lat="42.5579926" lon="12.2858914"><ele>202.0</ele><time>2026-03-30T13:50:52.719Z</time></trkpt><trkpt lat="42.5579314" lon="12.2858493"><ele>201.99999999999997</ele><time>2026-03-30T13:50:53.722Z</time></trkpt><trkpt lat="42.5578761" lon="12.2858037"><ele>202.0</ele><time>2026-03-30T13:50:54.716Z</time></trkpt><trkpt lat="42.5578217" lon="12.2857581"><ele>201.99999999999997</ele><time>2026-03-30T13:50:55.715Z</time></trkpt><trkpt lat="42.557762" lon="12.2857258"><ele>202.0</ele><time>2026-03-30T13:50:56.709Z</time></trkpt><trkpt lat="42.557678" lon="12.2857062"><ele>202.0</ele><time>2026-03-30T13:50:57.72Z</time></trkpt><trkpt lat="42.557579" lon="12.2857022"><ele>202.0</ele><time>2026-03-30T13:50:58.706Z</time></trkpt><trkpt lat="42.5574827" lon="12.2856852"><ele>201.99999999999997</ele><time>2026-03-30T13:50:59.712Z</time></trkpt><trkpt lat="42.5573907" lon="12.285659"><ele>202.0</ele><time>2026-03-30T13:51:00.712Z</time></trkpt><trkpt lat="42.5573029" lon="12.2856262"><ele>201.99999999999997</ele><time>2026-03-30T13:51:01.711Z</time></trkpt><trkpt lat="42.5572188" lon="12.2856028"><ele>202.0</ele><time>2026-03-30T13:51:02.714Z</time></trkpt><trkpt lat="42.5571378" lon="12.2855848"><ele>202.0</ele><time>2026-03-30T13:51:03.715Z</time></trkpt><trkpt lat="42.5570682" lon="12.2855499"><ele>202.0</ele><time>2026-03-30T13:51:04.718Z</time></trkpt><trkpt lat="42.5570145" lon="12.2854939"><ele>201.99999999999997</ele><time>2026-03-30T13:51:05.716Z</time></trkpt><trkpt lat="42.5569734" lon="12.28541"><ele>202.0</ele><time>2026-03-30T13:51:06.705Z</time></trkpt><trkpt lat="42.5569351" lon="12.2853023"><ele>198.8</ele><time>2026-03-30T13:51:07.7Z</time></trkpt><trkpt lat="42.5568897" lon="12.2851609"><ele>195.6</ele><time>2026-03-30T13:51:08.708Z</time></trkpt><trkpt lat="42.5568319" lon="12.2850272"><ele>192.4</ele><time>2026-03-30T13:51:09.715Z</time></trkpt><trkpt lat="42.5567743" lon="12.2849081"><ele>189.20000000000002</ele><time>2026-03-30T13:51:10.72Z</time></trkpt><trkpt lat="42.5567219" lon="12.2848033"><ele>186.0</ele><time>2026-03-30T13:51:11.726Z</time></trkpt><trkpt lat="42.5566729" lon="12.2846972"><ele>185.20000000000002</ele><time>2026-03-30T13:51:12.716Z</time></trkpt><trkpt lat="42.5566249" lon="12.2845874"><ele>184.4</ele><time>2026-03-30T13:51:13.704Z</time></trkpt><trkpt lat="42.5565795" lon="12.2844766"><ele>183.6</ele><time>2026-03-30T13:51:14.717Z</time></trkpt><trkpt lat="42.5565415" lon="12.2843552"><ele>182.8</ele><time>2026-03-30T13:51:15.724Z</time></trkpt><trkpt lat="42.5565052" lon="12.2842388"><ele>182.0</ele><time>2026-03-30T13:51:16.71Z</time></trkpt><trkpt lat="42.5564625" lon="12.2841346"><ele>182.0</ele><time>2026-03-30T13:51:17.722Z</time></trkpt><trkpt lat="42.556421" lon="12.2840234"><ele>182.0</ele><time>2026-03-30T13:51:18.714Z</time></trkpt><trkpt lat="42.556363" lon="12.2839135"><ele>182.0</ele><time>2026-03-30T13:51:19.71Z</time></trkpt><trkpt lat="42.5562923" lon="12.2838057"><ele>182.0</ele><time>2026-03-30T13:51:20.722Z</time></trkpt><trkpt lat="42.556222" lon="12.283697"><ele>182.0</ele><time>2026-03-30T13:51:21.71Z</time></trkpt><trkpt lat="42.5561573" lon="12.2835985"><ele>182.6</ele><time>2026-03-30T13:51:22.724Z</time></trkpt><trkpt lat="42.5560879" lon="12.2835078"><ele>183.2</ele><time>2026-03-30T13:51:23.717Z</time></trkpt><trkpt lat="42.5560133" lon="12.2834262"><ele>183.8</ele><time>2026-03-30T13:51:24.696Z</time></trkpt><trkpt lat="42.5559273" lon="12.2833465"><ele>184.4</ele><time>2026-03-30T13:51:25.718Z</time></trkpt><trkpt lat="42.5558269" lon="12.2832714"><ele>185.0</ele><time>2026-03-30T13:51:26.718Z</time></trkpt><trkpt lat="42.5557249" lon="12.2831867"><ele>185.25</ele><time>2026-03-30T13:51:27.721Z</time></trkpt><trkpt lat="42.555631" lon="12.2830837"><ele>185.5</ele><time>2026-03-30T13:51:28.71Z</time></trkpt><trkpt lat="42.5555505" lon="12.2829635"><ele>185.75</ele><time>2026-03-30T13:51:29.72Z</time></trkpt><trkpt lat="42.5554744" lon="12.2828399"><ele>186.0</ele><time>2026-03-30T13:51:31.452Z</time></trkpt><trkpt lat="42.5553412" lon="12.2826801"><ele>186.5</ele><time>2026-03-30T13:51:32.718Z</time></trkpt><trkpt lat="42.5552624" lon="12.2826252"><ele>187.0</ele><time>2026-03-30T13:51:33.726Z</time></trkpt><trkpt lat="42.5551573" lon="12.2825755"><ele>187.5</ele><time>2026-03-30T13:51:34.713Z</time></trkpt><trkpt lat="42.5550338" lon="12.2825292"><ele>188.0</ele><time>2026-03-30T13:51:35.713Z</time></trkpt><trkpt lat="42.5549017" lon="12.2824735"><ele>188.0</ele><time>2026-03-30T13:51:36.723Z</time></trkpt><trkpt lat="42.5547716" lon="12.2824136"><ele>188.0</ele><time>2026-03-30T13:51:37.725Z</time></trkpt><trkpt lat="42.5546513" lon="12.2823661"><ele>188.0</ele><time>2026-03-30T13:51:38.721Z</time></trkpt><trkpt lat="42.5545425" lon="12.2823279"><ele>188.0</ele><time>2026-03-30T13:51:39.727Z</time></trkpt><trkpt lat="42.5544401" lon="12.2822731"><ele>187.66666666666666</ele><time>2026-03-30T13:51:40.71Z</time></trkpt><trkpt lat="42.5543521" lon="12.2821967"><ele>187.33333333333331</ele><time>2026-03-30T13:51:41.726Z</time></trkpt><trkpt lat="42.5542741" lon="12.2821191"><ele>187.0</ele><time>2026-03-30T13:51:42.72Z</time></trkpt><trkpt lat="42.5542207" lon="12.2820569"><ele>186.66666666666666</ele><time>2026-03-30T13:51:43.721Z</time></trkpt><trkpt lat="42.5541412" lon="12.281992"><ele>186.33333333333334</ele><time>2026-03-30T13:51:45.71Z</time></trkpt><trkpt lat="42.5540702" lon="12.2820001"><ele>186.0</ele><time>2026-03-30T13:51:47.716Z</time></trkpt><trkpt lat="42.5539587" lon="12.2820338"><ele>186.0</ele><time>2026-03-30T13:51:49.707Z</time></trkpt><trkpt lat="42.5538482" lon="12.2820393"><ele>186.0</ele><time>2026-03-30T13:51:51.717Z</time></trkpt><trkpt lat="42.5537419" lon="12.2820129"><ele>186.0</ele><time>2026-03-30T13:51:53.72Z</time></trkpt><trkpt lat="42.5536393" lon="12.282001"><ele>186.0</ele><time>2026-03-30T13:51:55.723Z</time></trkpt><trkpt lat="42.5535492" lon="12.2820235"><ele>186.0</ele><time>2026-03-30T13:51:57.716Z</time></trkpt><trkpt lat="42.5534695" lon="12.2820739"><ele>183.66666666666666</ele><time>2026-03-30T13:51:59.726Z</time></trkpt><trkpt lat="42.5533696" lon="12.2821398"><ele>181.33333333333334</ele><time>2026-03-30T13:52:01.717Z</time></trkpt><trkpt lat="42.5532544" lon="12.2822108"><ele>179.0</ele><time>2026-03-30T13:52:03.715Z</time></trkpt><trkpt lat="42.5531932" lon="12.2822495"><ele>176.66666666666669</ele><time>2026-03-30T13:52:04.709Z</time></trkpt><trkpt lat="42.5531265" lon="12.2822913"><ele>174.33333333333334</ele><time>2026-03-30T13:52:05.705Z</time></trkpt><trkpt lat="42.5530599" lon="12.2823241"><ele>172.0</ele><time>2026-03-30T13:52:06.707Z</time></trkpt><trkpt lat="42.5529941" lon="12.2823461"><ele>171.0</ele><time>2026-03-30T13:52:07.717Z</time></trkpt><trkpt lat="42.5528748" lon="12.2823633"><ele>170.0</ele><time>2026-03-30T13:52:09.714Z</time></trkpt><trkpt lat="42.552753" lon="12.2824128"><ele>169.0</ele><time>2026-03-30T13:52:11.712Z</time></trkpt><trkpt lat="42.5526886" lon="12.2824623"><ele>168.0</ele><time>2026-03-30T13:52:12.701Z</time></trkpt><trkpt lat="42.5526359" lon="12.2825286"><ele>167.0</ele><time>2026-03-30T13:52:13.715Z</time></trkpt><trkpt lat="42.5525854" lon="12.28259"><ele>165.0</ele><time>2026-03-30T13:52:14.714Z</time></trkpt><trkpt lat="42.552492" lon="12.2826184"><ele>163.0</ele><time>2026-03-30T13:52:16.721Z</time></trkpt><trkpt lat="42.552384" lon="12.2826874"><ele>161.0</ele><time>2026-03-30T13:52:18.712Z</time></trkpt><trkpt lat="42.5523074" lon="12.282729"><ele>159.0</ele><time>2026-03-30T13:52:19.7Z</time></trkpt><trkpt lat="42.5522283" lon="12.2827424"><ele>157.0</ele><time>2026-03-30T13:52:20.712Z</time></trkpt><trkpt lat="42.5521336" lon="12.2827194"><ele>159.0</ele><time>2026-03-30T13:52:21.711Z</time></trkpt><trkpt lat="42.5520269" lon="12.2826855"><ele>161.0</ele><time>2026-03-30T13:52:22.702Z</time></trkpt><trkpt lat="42.5519199" lon="12.2826873"><ele>163.0</ele><time>2026-03-30T13:52:23.711Z</time></trkpt><trkpt lat="42.5517942" lon="12.2827143"><ele>165.0</ele><time>2026-03-30T13:52:24.699Z</time></trkpt><trkpt lat="42.5516626" lon="12.2827613"><ele>165.0</ele><time>2026-03-30T13:52:25.712Z</time></trkpt><trkpt lat="42.5515284" lon="12.2828073"><ele>165.0</ele><time>2026-03-30T13:52:26.719Z</time></trkpt><trkpt lat="42.5513921" lon="12.2828515"><ele>165.0</ele><time>2026-03-30T13:52:27.706Z</time></trkpt><trkpt lat="42.5512517" lon="12.2828902"><ele>165.0</ele><time>2026-03-30T13:52:28.717Z</time></trkpt><trkpt lat="42.5511358" lon="12.2829205"><ele>166.2</ele><time>2026-03-30T13:52:29.715Z</time></trkpt><trkpt lat="42.5510381" lon="12.2829162"><ele>167.4</ele><time>2026-03-30T13:52:30.713Z</time></trkpt><trkpt lat="42.5509474" lon="12.2828792"><ele>168.60000000000002</ele><time>2026-03-30T13:52:31.713Z</time></trkpt><trkpt lat="42.550873" lon="12.2828368"><ele>169.8</ele><time>2026-03-30T13:52:32.708Z</time></trkpt><trkpt lat="42.550791" lon="12.282802"><ele>171.0</ele><time>2026-03-30T13:52:33.722Z</time></trkpt><trkpt lat="42.5506982" lon="12.2827989"><ele>171.0</ele><time>2026-03-30T13:52:34.723Z</time></trkpt><trkpt lat="42.5505844" lon="12.2828113"><ele>171.0</ele><time>2026-03-30T13:52:35.703Z</time></trkpt><trkpt lat="42.55045" lon="12.2828291"><ele>171.0</ele><time>2026-03-30T13:52:36.721Z</time></trkpt><trkpt lat="42.5503066" lon="12.2828388"><ele>171.0</ele><time>2026-03-30T13:52:37.699Z</time></trkpt><trkpt lat="42.5501629" lon="12.2828434"><ele>168.66666666666666</ele><time>2026-03-30T13:52:39.6Z</time></trkpt><trkpt lat="42.5498934" lon="12.2828545"><ele>166.33333333333331</ele><time>2026-03-30T13:52:40.718Z</time></trkpt><trkpt lat="42.5497817" lon="12.282849"><ele>164.0</ele><time>2026-03-30T13:52:41.72Z</time></trkpt><trkpt lat="42.5496824" lon="12.2828357"><ele>164.0</ele><time>2026-03-30T13:52:42.719Z</time></trkpt><trkpt lat="42.5495848" lon="12.2828231"><ele>164.0</ele><time>2026-03-30T13:52:43.725Z</time></trkpt><trkpt lat="42.5494736" lon="12.282834"><ele>164.0</ele><time>2026-03-30T13:52:44.72Z</time></trkpt><trkpt lat="42.549352" lon="12.2828759"><ele>164.0</ele><time>2026-03-30T13:52:45.72Z</time></trkpt><trkpt lat="42.5492327" lon="12.2829402"><ele>162.6</ele><time>2026-03-30T13:52:46.715Z</time></trkpt><trkpt lat="42.5491256" lon="12.2830131"><ele>161.2</ele><time>2026-03-30T13:52:47.71Z</time></trkpt><trkpt lat="42.5490352" lon="12.2830997"><ele>159.79999999999998</ele><time>2026-03-30T13:52:48.71Z</time></trkpt><trkpt lat="42.5489559" lon="12.2831827"><ele>158.39999999999998</ele><time>2026-03-30T13:52:49.711Z</time></trkpt><trkpt lat="42.548892" lon="12.2832361"><ele>157.0</ele><time>2026-03-30T13:52:50.711Z</time></trkpt><trkpt lat="42.5487885" lon="12.2832164"><ele>156.6</ele><time>2026-03-30T13:52:52.714Z</time></trkpt><trkpt lat="42.5487102" lon="12.2830873"><ele>156.2</ele><time>2026-03-30T13:52:54.724Z</time></trkpt><trkpt lat="42.5486742" lon="12.2830007"><ele>155.8</ele><time>2026-03-30T13:52:55.724Z</time></trkpt><trkpt lat="42.5486175" lon="12.2829199"><ele>155.4</ele><time>2026-03-30T13:52:56.715Z</time></trkpt><trkpt lat="42.5485313" lon="12.2828725"><ele>155.0</ele><time>2026-03-30T13:52:57.722Z</time></trkpt><trkpt lat="42.5484336" lon="12.2828435"><ele>152.66666666666666</ele><time>2026-03-30T13:52:58.717Z</time></trkpt><trkpt lat="42.5483569" lon="12.2828155"><ele>150.33333333333331</ele><time>2026-03-30T13:52:59.712Z</time></trkpt><trkpt lat="42.5482909" lon="12.2827843"><ele>148.0</ele><time>2026-03-30T13:53:00.726Z</time></trkpt><trkpt lat="42.5482211" lon="12.2827562"><ele>145.66666666666666</ele><time>2026-03-30T13:53:01.727Z</time></trkpt><trkpt lat="42.5481452" lon="12.2827345"><ele>143.33333333333334</ele><time>2026-03-30T13:53:02.717Z</time></trkpt><trkpt lat="42.5480616" lon="12.2827272"><ele>141.0</ele><time>2026-03-30T13:53:03.723Z</time></trkpt><trkpt lat="42.5479622" lon="12.2827184"><ele>139.4</ele><time>2026-03-30T13:53:04.725Z</time></trkpt><trkpt lat="42.5478579" lon="12.282706"><ele>137.8</ele><time>2026-03-30T13:53:05.719Z</time></trkpt><trkpt lat="42.5477526" lon="12.2826925"><ele>136.20000000000002</ele><time>2026-03-30T13:53:06.719Z</time></trkpt><trkpt lat="42.5476455" lon="12.2826827"><ele>134.6</ele><time>2026-03-30T13:53:07.721Z</time></trkpt><trkpt lat="42.5475458" lon="12.2826786"><ele>133.0</ele><time>2026-03-30T13:53:08.72Z</time></trkpt><trkpt lat="42.5474578" lon="12.2826913"><ele>133.0</ele><time>2026-03-30T13:53:09.721Z</time></trkpt><trkpt lat="42.5473675" lon="12.2827319"><ele>133.0</ele><time>2026-03-30T13:53:10.713Z</time></trkpt><trkpt lat="42.5472696" lon="12.2827866"><ele>133.0</ele><time>2026-03-30T13:53:11.724Z</time></trkpt><trkpt lat="42.5471855" lon="12.2828332"><ele>133.0</ele><time>2026-03-30T13:53:12.714Z</time></trkpt><trkpt lat="42.5471074" lon="12.2828749"><ele>133.0</ele><time>2026-03-30T13:53:13.723Z</time></trkpt><trkpt lat="42.5470303" lon="12.2829145"><ele>130.4</ele><time>2026-03-30T13:53:14.711Z</time></trkpt><trkpt lat="42.5469468" lon="12.2829343"><ele>127.80000000000001</ele><time>2026-03-30T13:53:15.708Z</time></trkpt><trkpt lat="42.5468584" lon="12.2829324"><ele>125.2</ele><time>2026-03-30T13:53:16.71Z</time></trkpt><trkpt lat="42.5467701" lon="12.2829272"><ele>122.6</ele><time>2026-03-30T13:53:17.714Z</time></trkpt><trkpt lat="42.5466741" lon="12.282961"><ele>120.0</ele><time>2026-03-30T13:53:18.728Z</time></trkpt><trkpt lat="42.546576" lon="12.2830004"><ele>120.0</ele><time>2026-03-30T13:53:19.709Z</time></trkpt><trkpt lat="42.5464797" lon="12.2830438"><ele>120.0</ele><time>2026-03-30T13:53:20.72Z</time></trkpt><trkpt lat="42.5463802" lon="12.2830904"><ele>120.0</ele><time>2026-03-30T13:53:21.719Z</time></trkpt><trkpt lat="42.5462838" lon="12.2831246"><ele>120.0</ele><time>2026-03-30T13:53:22.722Z</time></trkpt><trkpt lat="42.5461944" lon="12.2831301"><ele>120.0</ele><time>2026-03-30T13:53:23.714Z</time></trkpt><trkpt lat="42.5461087" lon="12.2831012"><ele>118.83333333333333</ele><time>2026-03-30T13:53:24.709Z</time></trkpt><trkpt lat="42.5460238" lon="12.2830488"><ele>117.66666666666666</ele><time>2026-03-30T13:53:25.717Z</time></trkpt><trkpt lat="42.54596" lon="12.2829818"><ele>116.5</ele><time>2026-03-30T13:53:26.709Z</time></trkpt><trkpt lat="42.5459043" lon="12.2829047"><ele>115.33333333333333</ele><time>2026-03-30T13:53:27.708Z</time></trkpt><trkpt lat="42.5458478" lon="12.2828181"><ele>114.16666666666666</ele><time>2026-03-30T13:53:28.715Z</time></trkpt><trkpt lat="42.5457938" lon="12.2827459"><ele>113.0</ele><time>2026-03-30T13:53:29.712Z</time></trkpt><trkpt lat="42.5457161" lon="12.2827034"><ele>113.0</ele><time>2026-03-30T13:53:30.7Z</time></trkpt><trkpt lat="42.5456193" lon="12.2826809"><ele>113.00000000000001</ele><time>2026-03-30T13:53:31.718Z</time></trkpt><trkpt lat="42.5455198" lon="12.2826692"><ele>113.00000000000001</ele><time>2026-03-30T13:53:32.707Z</time></trkpt><trkpt lat="42.5454251" lon="12.282661"><ele>113.0</ele><time>2026-03-30T13:53:33.717Z</time></trkpt><trkpt lat="42.5453318" lon="12.282652"><ele>113.0</ele><time>2026-03-30T13:53:34.71Z</time></trkpt><trkpt lat="42.5452424" lon="12.2826366"><ele>111.99999999999999</ele><time>2026-03-30T13:53:35.718Z</time></trkpt><trkpt lat="42.5451573" lon="12.2826268"><ele>111.0</ele><time>2026-03-30T13:53:36.718Z</time></trkpt><trkpt lat="42.5450722" lon="12.2826179"><ele>110.0</ele><time>2026-03-30T13:53:37.72Z</time></trkpt><trkpt lat="42.5449914" lon="12.2826101"><ele>109.0</ele><time>2026-03-30T13:53:38.716Z</time></trkpt><trkpt lat="42.5449111" lon="12.2825972"><ele>107.99999999999999</ele><time>2026-03-30T13:53:39.72Z</time></trkpt><trkpt lat="42.5448324" lon="12.2825885"><ele>107.0</ele><time>2026-03-30T13:53:40.695Z</time></trkpt><trkpt lat="42.5447482" lon="12.2825786"><ele>106.99999999999999</ele><time>2026-03-30T13:53:41.701Z</time></trkpt><trkpt lat="42.5446629" lon="12.2825632"><ele>107.0</ele><time>2026-03-30T13:53:42.703Z</time></trkpt><trkpt lat="42.5445816" lon="12.282556"><ele>107.0</ele><time>2026-03-30T13:53:43.71Z</time></trkpt><trkpt lat="42.5445094" lon="12.2825549"><ele>107.0</ele><time>2026-03-30T13:53:44.718Z</time></trkpt><trkpt lat="42.5444443" lon="12.28255"><ele>106.99999999999999</ele><time>2026-03-30T13:53:45.723Z</time></trkpt><trkpt lat="42.5443329" lon="12.2825403"><ele>107.0</ele><time>2026-03-30T13:53:47.716Z</time></trkpt><trkpt lat="42.5442281" lon="12.2824943"><ele>105.19999999999999</ele><time>2026-03-30T13:53:49.727Z</time></trkpt><trkpt lat="42.5441267" lon="12.2824252"><ele>103.39999999999999</ele><time>2026-03-30T13:53:51.724Z</time></trkpt><trkpt lat="42.5440697" lon="12.2823189"><ele>101.6</ele><time>2026-03-30T13:53:53.723Z</time></trkpt><trkpt lat="42.5440212" lon="12.2821573"><ele>99.80000000000001</ele><time>2026-03-30T13:53:55.724Z</time></trkpt><trkpt lat="42.5440002" lon="12.2820677"><ele>98.0</ele><time>2026-03-30T13:53:56.721Z</time></trkpt><trkpt lat="42.5439821" lon="12.2819801"><ele>95.99999999999999</ele><time>2026-03-30T13:53:57.728Z</time></trkpt><trkpt lat="42.5439705" lon="12.2818943"><ele>94.0</ele><time>2026-03-30T13:53:58.696Z</time></trkpt><trkpt lat="42.5439624" lon="12.281801"><ele>92.0</ele><time>2026-03-30T13:53:59.716Z</time></trkpt><trkpt lat="42.5439475" lon="12.2817088"><ele>90.0</ele><time>2026-03-30T13:54:00.709Z</time></trkpt><trkpt lat="42.5439" lon="12.281627"><ele>88.0</ele><time>2026-03-30T13:54:01.714Z</time></trkpt><trkpt lat="42.5438131" lon="12.2815603"><ele>86.0</ele><time>2026-03-30T13:54:02.728Z</time></trkpt><trkpt lat="42.5437123" lon="12.2815231"><ele>85.33333333333334</ele><time>2026-03-30T13:54:03.72Z</time></trkpt><trkpt lat="42.5436063" lon="12.2815146"><ele>84.66666666666667</ele><time>2026-03-30T13:54:04.717Z</time></trkpt><trkpt lat="42.5435031" lon="12.2815314"><ele>84.0</ele><time>2026-03-30T13:54:05.717Z</time></trkpt><trkpt lat="42.5434164" lon="12.2815618"><ele>83.33333333333333</ele><time>2026-03-30T13:54:06.711Z</time></trkpt><trkpt lat="42.5433396" lon="12.2815966"><ele>82.66666666666666</ele><time>2026-03-30T13:54:07.724Z</time></trkpt><trkpt lat="42.5432729" lon="12.2816077"><ele>82.0</ele><time>2026-03-30T13:54:08.718Z</time></trkpt><trkpt lat="42.5432091" lon="12.2815906"><ele>82.0</ele><time>2026-03-30T13:54:09.727Z</time></trkpt><trkpt lat="42.543088" lon="12.28157"><ele>82.0</ele><time>2026-03-30T13:54:11.725Z</time></trkpt><trkpt lat="42.5429819" lon="12.2816137"><ele>82.0</ele><time>2026-03-30T13:54:13.724Z</time></trkpt><trkpt lat="42.5428811" lon="12.2816085"><ele>82.0</ele><time>2026-03-30T13:54:15.721Z</time></trkpt><trkpt lat="42.5427641" lon="12.2815649"><ele>81.39999999999999</ele><time>2026-03-30T13:54:17.723Z</time></trkpt><trkpt lat="42.5427018" lon="12.2815491"><ele>80.8</ele><time>2026-03-30T13:54:19.692Z</time></trkpt><trkpt lat="42.5425992" lon="12.2815834"><ele>80.2</ele><time>2026-03-30T13:54:22.724Z</time></trkpt><trkpt lat="42.5425258" lon="12.281634"><ele>79.6</ele><time>2026-03-30T13:54:23.723Z</time></trkpt><trkpt lat="42.5424479" lon="12.2817218"><ele>79.0</ele><time>2026-03-30T13:54:24.721Z</time></trkpt><trkpt lat="42.5423669" lon="12.2818145"><ele>79.0</ele><time>2026-03-30T13:54:25.722Z</time></trkpt><trkpt lat="42.5422754" lon="12.2819124"><ele>79.0</ele><time>2026-03-30T13:54:26.699Z</time></trkpt><trkpt lat="42.5421839" lon="12.2820006"><ele>79.0</ele><time>2026-03-30T13:54:27.715Z</time></trkpt><trkpt lat="42.5420887" lon="12.2820789"><ele>79.0</ele><time>2026-03-30T13:54:28.721Z</time></trkpt><trkpt lat="42.541986" lon="12.2821485"><ele>78.75</ele><time>2026-03-30T13:54:29.719Z</time></trkpt><trkpt lat="42.5418781" lon="12.2822124"><ele>78.5</ele><time>2026-03-30T13:54:30.722Z</time></trkpt><trkpt lat="42.5417636" lon="12.2822687"><ele>78.25</ele><time>2026-03-30T13:54:31.703Z</time></trkpt><trkpt lat="42.5416385" lon="12.2823216"><ele>78.0</ele><time>2026-03-30T13:54:32.713Z</time></trkpt><trkpt lat="42.5415045" lon="12.2823773"><ele>78.0</ele><time>2026-03-30T13:54:33.722Z</time></trkpt><trkpt lat="42.5413682" lon="12.282426"><ele>78.0</ele><time>2026-03-30T13:54:34.719Z</time></trkpt><trkpt lat="42.5412283" lon="12.2824742"><ele>78.0</ele><time>2026-03-30T13:54:35.724Z</time></trkpt><trkpt lat="42.5410891" lon="12.2825282"><ele>78.0</ele><time>2026-03-30T13:54:36.715Z</time></trkpt><trkpt lat="42.5409505" lon="12.2825706"><ele>78.0</ele><time>2026-03-30T13:54:37.725Z</time></trkpt><trkpt lat="42.5408016" lon="12.2826056"><ele>78.0</ele><time>2026-03-30T13:54:38.716Z</time></trkpt><trkpt lat="42.5406554" lon="12.2826301"><ele>78.0</ele><time>2026-03-30T13:54:39.713Z</time></trkpt><trkpt lat="42.5405133" lon="12.2826563"><ele>78.0</ele><time>2026-03-30T13:54:40.72Z</time></trkpt><trkpt lat="42.5403748" lon="12.2826818"><ele>78.0</ele><time>2026-03-30T13:54:41.725Z</time></trkpt><trkpt lat="42.5402413" lon="12.2827044"><ele>78.0</ele><time>2026-03-30T13:54:42.703Z</time></trkpt><trkpt lat="42.540113" lon="12.2827367"><ele>78.0</ele><time>2026-03-30T13:54:43.73Z</time></trkpt><trkpt lat="42.5399918" lon="12.2827692"><ele>78.0</ele><time>2026-03-30T13:54:44.716Z</time></trkpt><trkpt lat="42.5398648" lon="12.282802"><ele>78.0</ele><time>2026-03-30T13:54:45.723Z</time></trkpt><trkpt lat="42.5397353" lon="12.2828377"><ele>78.0</ele><time>2026-03-30T13:54:46.716Z</time></trkpt><trkpt lat="42.539616" lon="12.2828718"><ele>78.0</ele><time>2026-03-30T13:54:47.715Z</time></trkpt><trkpt lat="42.5395019" lon="12.2829065"><ele>78.0</ele><time>2026-03-30T13:54:48.718Z</time></trkpt><trkpt lat="42.5393816" lon="12.2829411"><ele>78.5</ele><time>2026-03-30T13:54:49.72Z</time></trkpt><trkpt lat="42.5392668" lon="12.2829797"><ele>79.0</ele><time>2026-03-30T13:54:50.719Z</time></trkpt><trkpt lat="42.5391594" lon="12.2830259"><ele>79.5</ele><time>2026-03-30T13:54:51.722Z</time></trkpt><trkpt lat="42.5390495" lon="12.2830862"><ele>80.0</ele><time>2026-03-30T13:54:52.714Z</time></trkpt><trkpt lat="42.5389431" lon="12.2831599"><ele>80.0</ele><time>2026-03-30T13:54:53.707Z</time></trkpt><trkpt lat="42.5388406" lon="12.2832498"><ele>80.0</ele><time>2026-03-30T13:54:55.501Z</time></trkpt><trkpt lat="42.5386474" lon="12.2834715"><ele>80.0</ele><time>2026-03-30T13:54:56.692Z</time></trkpt><trkpt lat="42.5385644" lon="12.2836111"><ele>80.0</ele><time>2026-03-30T13:54:57.705Z</time></trkpt><trkpt lat="42.5384831" lon="12.2837627"><ele>80.0</ele><time>2026-03-30T13:54:58.702Z</time></trkpt><trkpt lat="42.5384096" lon="12.2839011"><ele>80.0</ele><time>2026-03-30T13:54:59.708Z</time></trkpt><trkpt lat="42.5383439" lon="12.2840223"><ele>80.0</ele><time>2026-03-30T13:55:00.71Z</time></trkpt><trkpt lat="42.5382718" lon="12.2841417"><ele>80.75</ele><time>2026-03-30T13:55:01.718Z</time></trkpt><trkpt lat="42.5381876" lon="12.2842613"><ele>81.5</ele><time>2026-03-30T13:55:02.707Z</time></trkpt><trkpt lat="42.5380901" lon="12.2843689"><ele>82.25</ele><time>2026-03-30T13:55:03.714Z</time></trkpt><trkpt lat="42.5379801" lon="12.2844544"><ele>83.0</ele><time>2026-03-30T13:55:04.7Z</time></trkpt><trkpt lat="42.5378646" lon="12.2845192"><ele>83.0</ele><time>2026-03-30T13:55:05.715Z</time></trkpt><trkpt lat="42.5377454" lon="12.284585"><ele>83.0</ele><time>2026-03-30T13:55:06.71Z</time></trkpt><trkpt lat="42.5376256" lon="12.2846552"><ele>83.0</ele><time>2026-03-30T13:55:07.723Z</time></trkpt><trkpt lat="42.537501" lon="12.2847255"><ele>83.0</ele><time>2026-03-30T13:55:08.718Z</time></trkpt><trkpt lat="42.5373802" lon="12.2848018"><ele>82.75</ele><time>2026-03-30T13:55:09.72Z</time></trkpt><trkpt lat="42.537259" lon="12.2848897"><ele>82.5</ele><time>2026-03-30T13:55:10.717Z</time></trkpt><trkpt lat="42.5371384" lon="12.2849874"><ele>82.25</ele><time>2026-03-30T13:55:11.717Z</time></trkpt><trkpt lat="42.5370174" lon="12.2850924"><ele>82.0</ele><time>2026-03-30T13:55:12.713Z</time></trkpt><trkpt lat="42.5368909" lon="12.2851997"><ele>82.0</ele><time>2026-03-30T13:55:13.724Z</time></trkpt><trkpt lat="42.5367682" lon="12.285299"><ele>82.0</ele><time>2026-03-30T13:55:14.707Z</time></trkpt><trkpt lat="42.5366481" lon="12.2853883"><ele>82.0</ele><time>2026-03-30T13:55:15.711Z</time></trkpt><trkpt lat="42.5365192" lon="12.2854696"><ele>82.0</ele><time>2026-03-30T13:55:16.712Z</time></trkpt><trkpt lat="42.5363871" lon="12.2855433"><ele>83.0</ele><time>2026-03-30T13:55:17.714Z</time></trkpt><trkpt lat="42.5362528" lon="12.2856134"><ele>84.0</ele><time>2026-03-30T13:55:18.713Z</time></trkpt><trkpt lat="42.5361142" lon="12.2856831"><ele>85.0</ele><time>2026-03-30T13:55:19.711Z</time></trkpt><trkpt lat="42.535973" lon="12.2857516"><ele>86.0</ele><time>2026-03-30T13:55:20.704Z</time></trkpt><trkpt lat="42.535832" lon="12.2858204"><ele>86.0</ele><time>2026-03-30T13:55:21.708Z</time></trkpt><trkpt lat="42.5356901" lon="12.2858941"><ele>86.0</ele><time>2026-03-30T13:55:22.717Z</time></trkpt><trkpt lat="42.5355439" lon="12.2859624"><ele>86.0</ele><time>2026-03-30T13:55:23.714Z</time></trkpt><trkpt lat="42.5353919" lon="12.2860329"><ele>85.33333333333334</ele><time>2026-03-30T13:55:24.713Z</time></trkpt><trkpt lat="42.5352451" lon="12.2860968"><ele>84.66666666666667</ele><time>2026-03-30T13:55:25.72Z</time></trkpt><trkpt lat="42.535106" lon="12.2861666"><ele>84.0</ele><time>2026-03-30T13:55:26.711Z</time></trkpt><trkpt lat="42.5349683" lon="12.2862379"><ele>84.0</ele><time>2026-03-30T13:55:27.719Z</time></trkpt><trkpt lat="42.5348282" lon="12.2863098"><ele>84.0</ele><time>2026-03-30T13:55:28.71Z</time></trkpt><trkpt lat="42.534687" lon="12.2863781"><ele>84.0</ele><time>2026-03-30T13:55:29.715Z</time></trkpt><trkpt lat="42.5345475" lon="12.2864405"><ele>84.0</ele><time>2026-03-30T13:55:30.713Z</time></trkpt><trkpt lat="42.5344054" lon="12.2865023"><ele>85.5</ele><time>2026-03-30T13:55:31.711Z</time></trkpt><trkpt lat="42.5342644" lon="12.2865657"><ele>87.0</ele><time>2026-03-30T13:55:32.713Z</time></trkpt><trkpt lat="42.5341228" lon="12.2866216"><ele>88.5</ele><time>2026-03-30T13:55:33.705Z</time></trkpt><trkpt lat="42.5339809" lon="12.2866742"><ele>90.0</ele><time>2026-03-30T13:55:34.693Z</time></trkpt><trkpt lat="42.5338341" lon="12.2867186"><ele>89.33333333333333</ele><time>2026-03-30T13:55:35.711Z</time></trkpt><trkpt lat="42.5336835" lon="12.2867531"><ele>88.66666666666666</ele><time>2026-03-30T13:55:36.723Z</time></trkpt><trkpt lat="42.5335307" lon="12.2867782"><ele>88.0</ele><time>2026-03-30T13:55:37.697Z</time></trkpt><trkpt lat="42.5333732" lon="12.2867869"><ele>88.0</ele><time>2026-03-30T13:55:38.717Z</time></trkpt><trkpt lat="42.533213" lon="12.2867905"><ele>88.0</ele><time>2026-03-30T13:55:39.702Z</time></trkpt><trkpt lat="42.5330559" lon="12.2867921"><ele>88.0</ele><time>2026-03-30T13:55:40.691Z</time></trkpt><trkpt lat="42.5329153" lon="12.2867894"><ele>88.5</ele><time>2026-03-30T13:55:41.707Z</time></trkpt><trkpt lat="42.5327804" lon="12.2867909"><ele>89.0</ele><time>2026-03-30T13:55:42.693Z</time></trkpt><trkpt lat="42.5326532" lon="12.2867998"><ele>89.5</ele><time>2026-03-30T13:55:43.702Z</time></trkpt><trkpt lat="42.5325367" lon="12.2868157"><ele>90.0</ele><time>2026-03-30T13:55:44.705Z</time></trkpt><trkpt lat="42.5324224" lon="12.2868334"><ele>90.0</ele><time>2026-03-30T13:55:45.7Z</time></trkpt><trkpt lat="42.5323089" lon="12.2868574"><ele>90.0</ele><time>2026-03-30T13:55:46.695Z</time></trkpt><trkpt lat="42.5322104" lon="12.28688"><ele>90.0</ele><time>2026-03-30T13:55:47.703Z</time></trkpt><trkpt lat="42.5321299" lon="12.2869071"><ele>90.0</ele><time>2026-03-30T13:55:48.691Z</time></trkpt><trkpt lat="42.5320648" lon="12.2869366"><ele>90.0</ele><time>2026-03-30T13:55:49.697Z</time></trkpt><trkpt lat="42.5319869" lon="12.2869655"><ele>90.0</ele><time>2026-03-30T13:55:51.7Z</time></trkpt><trkpt lat="42.5319964" lon="12.2868157"><ele>90.0</ele><time>2026-03-30T13:55:54.722Z</time></trkpt><trkpt lat="42.5320427" lon="12.286725"><ele>90.0</ele><time>2026-03-30T13:55:55.72Z</time></trkpt><trkpt lat="42.53209" lon="12.2866248"><ele>90.0</ele><time>2026-03-30T13:55:56.713Z</time></trkpt><trkpt lat="42.5321133" lon="12.2865101"><ele>90.0</ele><time>2026-03-30T13:55:57.71Z</time></trkpt><trkpt lat="42.5321196" lon="12.286395"><ele>90.0</ele><time>2026-03-30T13:55:58.711Z</time></trkpt><trkpt lat="42.5321188" lon="12.2862795"><ele>90.0</ele><time>2026-03-30T13:55:59.714Z</time></trkpt><trkpt lat="42.5321094" lon="12.2861644"><ele>89.6</ele><time>2026-03-30T13:56:00.721Z</time></trkpt><trkpt lat="42.5320897" lon="12.2860385"><ele>89.2</ele><time>2026-03-30T13:56:01.72Z</time></trkpt><trkpt lat="42.5320671" lon="12.2859116"><ele>88.80000000000001</ele><time>2026-03-30T13:56:02.721Z</time></trkpt><trkpt lat="42.5320414" lon="12.2857792"><ele>88.4</ele><time>2026-03-30T13:56:03.711Z</time></trkpt><trkpt lat="42.5320126" lon="12.2856355"><ele>88.0</ele><time>2026-03-30T13:56:04.701Z</time></trkpt><trkpt lat="42.531987" lon="12.2854669"><ele>86.75</ele><time>2026-03-30T13:56:05.7Z</time></trkpt><trkpt lat="42.5319582" lon="12.2852919"><ele>85.5</ele><time>2026-03-30T13:56:06.718Z</time></trkpt><trkpt lat="42.5319296" lon="12.2851219"><ele>84.25</ele><time>2026-03-30T13:56:07.691Z</time></trkpt><trkpt lat="42.5318949" lon="12.2849541"><ele>83.0</ele><time>2026-03-30T13:56:08.715Z</time></trkpt><trkpt lat="42.5318653" lon="12.2847936"><ele>82.25</ele><time>2026-03-30T13:56:09.716Z</time></trkpt><trkpt lat="42.5318376" lon="12.2846486"><ele>81.5</ele><time>2026-03-30T13:56:10.726Z</time></trkpt><trkpt lat="42.5318116" lon="12.284498"><ele>80.75</ele><time>2026-03-30T13:56:11.716Z</time></trkpt><trkpt lat="42.5317839" lon="12.2843444"><ele>80.0</ele><time>2026-03-30T13:56:12.718Z</time></trkpt><trkpt lat="42.5317617" lon="12.2841962"><ele>80.0</ele><time>2026-03-30T13:56:13.727Z</time></trkpt><trkpt lat="42.5317441" lon="12.2840425"><ele>80.0</ele><time>2026-03-30T13:56:15.519Z</time></trkpt><trkpt lat="42.5317227" lon="12.2837168"><ele>80.0</ele><time>2026-03-30T13:56:16.708Z</time></trkpt><trkpt lat="42.5317248" lon="12.2835827"><ele>79.83333333333334</ele><time>2026-03-30T13:56:17.716Z</time></trkpt><trkpt lat="42.5317251" lon="12.2834602"><ele>79.66666666666667</ele><time>2026-03-30T13:56:18.723Z</time></trkpt><trkpt lat="42.5317172" lon="12.2833475"><ele>79.5</ele><time>2026-03-30T13:56:19.723Z</time></trkpt><trkpt lat="42.5317006" lon="12.2832411"><ele>79.33333333333333</ele><time>2026-03-30T13:56:20.711Z</time></trkpt><trkpt lat="42.5316743" lon="12.2831399"><ele>79.16666666666666</ele><time>2026-03-30T13:56:21.723Z</time></trkpt><trkpt lat="42.5316543" lon="12.2830434"><ele>79.0</ele><time>2026-03-30T13:56:22.71Z</time></trkpt><trkpt lat="42.5316409" lon="12.2829578"><ele>78.5</ele><time>2026-03-30T13:56:23.7Z</time></trkpt><trkpt lat="42.5316254" lon="12.2828692"><ele>78.0</ele><time>2026-03-30T13:56:24.712Z</time></trkpt><trkpt lat="42.5316122" lon="12.2827827"><ele>77.5</ele><time>2026-03-30T13:56:25.709Z</time></trkpt><trkpt lat="42.5315742" lon="12.2826863"><ele>77.0</ele><time>2026-03-30T13:56:26.708Z</time></trkpt><trkpt lat="42.5315312" lon="12.282577"><ele>76.5</ele><time>2026-03-30T13:56:27.694Z</time></trkpt><trkpt lat="42.5314871" lon="12.2824367"><ele>76.0</ele><time>2026-03-30T13:56:28.711Z</time></trkpt><trkpt lat="42.531451" lon="12.2822845"><ele>75.0</ele><time>2026-03-30T13:56:29.707Z</time></trkpt><trkpt lat="42.5314203" lon="12.2821235"><ele>74.0</ele><time>2026-03-30T13:56:30.717Z</time></trkpt><trkpt lat="42.5313946" lon="12.2819478"><ele>73.0</ele><time>2026-03-30T13:56:31.712Z</time></trkpt><trkpt lat="42.5313752" lon="12.2817628"><ele>72.0</ele><time>2026-03-30T13:56:32.72Z</time></trkpt><trkpt lat="42.5313553" lon="12.2815781"><ele>72.0</ele><time>2026-03-30T13:56:33.713Z</time></trkpt><trkpt lat="42.5313295" lon="12.2814054"><ele>72.0</ele><time>2026-03-30T13:56:34.708Z</time></trkpt><trkpt lat="42.5313052" lon="12.2812295"><ele>72.0</ele><time>2026-03-30T13:56:35.721Z</time></trkpt><trkpt lat="42.5312773" lon="12.2810534"><ele>72.0</ele><time>2026-03-30T13:56:36.707Z</time></trkpt><trkpt lat="42.5312567" lon="12.2808896"><ele>72.0</ele><time>2026-03-30T13:56:37.703Z</time></trkpt><trkpt lat="42.5312339" lon="12.2807404"><ele>72.0</ele><time>2026-03-30T13:56:38.713Z</time></trkpt><trkpt lat="42.5312113" lon="12.2806032"><ele>72.0</ele><time>2026-03-30T13:56:39.718Z</time></trkpt><trkpt lat="42.5311874" lon="12.2804715"><ele>72.0</ele><time>2026-03-30T13:56:40.722Z</time></trkpt><trkpt lat="42.5311667" lon="12.2803386"><ele>72.0</ele><time>2026-03-30T13:56:41.716Z</time></trkpt><trkpt lat="42.5311413" lon="12.2801999"><ele>71.2</ele><time>2026-03-30T13:56:42.72Z</time></trkpt><trkpt lat="42.5311234" lon="12.2800673"><ele>70.4</ele><time>2026-03-30T13:56:43.715Z</time></trkpt><trkpt lat="42.5311092" lon="12.2799482"><ele>69.6</ele><time>2026-03-30T13:56:44.726Z</time></trkpt><trkpt lat="42.5310987" lon="12.2798404"><ele>68.8</ele><time>2026-03-30T13:56:45.713Z</time></trkpt><trkpt lat="42.5310914" lon="12.2797475"><ele>68.0</ele><time>2026-03-30T13:56:46.723Z</time></trkpt><trkpt lat="42.5310531" lon="12.2795994"><ele>67.5</ele><time>2026-03-30T13:56:48.723Z</time></trkpt><trkpt lat="42.5309354" lon="12.2794816"><ele>67.0</ele><time>2026-03-30T13:56:50.705Z</time></trkpt><trkpt lat="42.5308538" lon="12.2794017"><ele>66.5</ele><time>2026-03-30T13:56:51.72Z</time></trkpt><trkpt lat="42.5307743" lon="12.2793007"><ele>66.0</ele><time>2026-03-30T13:56:52.701Z</time></trkpt><trkpt lat="42.5307049" lon="12.2792089"><ele>66.0</ele><time>2026-03-30T13:56:53.719Z</time></trkpt><trkpt lat="42.5306357" lon="12.2791354"><ele>66.0</ele><time>2026-03-30T13:56:54.717Z</time></trkpt><trkpt lat="42.5305643" lon="12.2790819"><ele>66.0</ele><time>2026-03-30T13:56:55.71Z</time></trkpt><trkpt lat="42.5304866" lon="12.2790509"><ele>66.0</ele><time>2026-03-30T13:56:56.709Z</time></trkpt><trkpt lat="42.5303895" lon="12.2790339"><ele>66.0</ele><time>2026-03-30T13:56:57.724Z</time></trkpt><trkpt lat="42.5302861" lon="12.2790353"><ele>66.0</ele><time>2026-03-30T13:56:58.699Z</time></trkpt><trkpt lat="42.5301899" lon="12.2790441"><ele>66.0</ele><time>2026-03-30T13:56:59.717Z</time></trkpt><trkpt lat="42.5301008" lon="12.2790458"><ele>66.0</ele><time>2026-03-30T13:57:00.724Z</time></trkpt><trkpt lat="42.5300146" lon="12.279047"><ele>66.0</ele><time>2026-03-30T13:57:01.719Z</time></trkpt><trkpt lat="42.5299318" lon="12.2790455"><ele>66.0</ele><time>2026-03-30T13:57:02.715Z</time></trkpt><trkpt lat="42.529846" lon="12.2790433"><ele>66.0</ele><time>2026-03-30T13:57:03.727Z</time></trkpt><trkpt lat="42.5297557" lon="12.2790336"><ele>66.0</ele><time>2026-03-30T13:57:04.717Z</time></trkpt><trkpt lat="42.5296614" lon="12.2790215"><ele>66.0</ele><time>2026-03-30T13:57:05.723Z</time></trkpt><trkpt lat="42.5295773" lon="12.2790083"><ele>66.0</ele><time>2026-03-30T13:57:06.712Z</time></trkpt><trkpt lat="42.529504" lon="12.2789931"><ele>66.0</ele><time>2026-03-30T13:57:07.723Z</time></trkpt><trkpt lat="42.5294363" lon="12.2789825"><ele>66.0</ele><time>2026-03-30T13:57:08.709Z</time></trkpt><trkpt lat="42.5293198" lon="12.2790028"><ele>66.0</ele><time>2026-03-30T13:57:10.719Z</time></trkpt><trkpt lat="42.5292434" lon="12.2791068"><ele>66.0</ele><time>2026-03-30T13:57:12.708Z</time></trkpt><trkpt lat="42.5291644" lon="12.2792105"><ele>66.0</ele><time>2026-03-30T13:57:14.721Z</time></trkpt><trkpt lat="42.5290978" lon="12.27927"><ele>66.0</ele><time>2026-03-30T13:57:16.72Z</time></trkpt><trkpt lat="42.5290263" lon="12.2792104"><ele>66.0</ele><time>2026-03-30T13:57:18.719Z</time></trkpt><trkpt lat="42.5289907" lon="12.2790483"><ele>66.0</ele><time>2026-03-30T13:57:20.712Z</time></trkpt><trkpt lat="42.5289668" lon="12.2789442"><ele>65.6</ele><time>2026-03-30T13:57:21.699Z</time></trkpt><trkpt lat="42.528932" lon="12.2788673"><ele>65.19999999999999</ele><time>2026-03-30T13:57:22.707Z</time></trkpt><trkpt lat="42.5288659" lon="12.2787847"><ele>64.80000000000001</ele><time>2026-03-30T13:57:24.706Z</time></trkpt><trkpt lat="42.5287673" lon="12.278741"><ele>64.4</ele><time>2026-03-30T13:57:26.717Z</time></trkpt><trkpt lat="42.5286701" lon="12.2786842"><ele>64.0</ele><time>2026-03-30T13:57:28.705Z</time></trkpt><trkpt lat="42.5285756" lon="12.2786141"><ele>64.0</ele><time>2026-03-30T13:57:30.716Z</time></trkpt><trkpt lat="42.5284753" lon="12.2785196"><ele>64.0</ele><time>2026-03-30T13:57:32.712Z</time></trkpt><trkpt lat="42.5283993" lon="12.278435"><ele>64.0</ele><time>2026-03-30T13:57:34.7Z</time></trkpt><trkpt lat="42.5283935" lon="12.2782962"><ele>64.0</ele><time>2026-03-30T13:57:36.7Z</time></trkpt><trkpt lat="42.5284015" lon="12.2781969"><ele>64.0</ele><time>2026-03-30T13:57:37.71Z</time></trkpt><trkpt lat="42.5283848" lon="12.2780766"><ele>63.166666666666664</ele><time>2026-03-30T13:57:38.721Z</time></trkpt><trkpt lat="42.5283379" lon="12.2779547"><ele>62.33333333333333</ele><time>2026-03-30T13:57:39.722Z</time></trkpt><trkpt lat="42.5282822" lon="12.2778606"><ele>61.5</ele><time>2026-03-30T13:57:40.72Z</time></trkpt><trkpt lat="42.528224" lon="12.277776"><ele>60.66666666666667</ele><time>2026-03-30T13:57:41.717Z</time></trkpt><trkpt lat="42.5281677" lon="12.2776979"><ele>59.833333333333336</ele><time>2026-03-30T13:57:42.715Z</time></trkpt><trkpt lat="42.5280939" lon="12.2776322"><ele>59.0</ele><time>2026-03-30T13:57:43.71Z</time></trkpt><trkpt lat="42.5279972" lon="12.277583"><ele>59.75</ele><time>2026-03-30T13:57:44.711Z</time></trkpt><trkpt lat="42.5278747" lon="12.2775378"><ele>60.5</ele><time>2026-03-30T13:57:45.723Z</time></trkpt><trkpt lat="42.5277391" lon="12.2774942"><ele>61.25</ele><time>2026-03-30T13:57:46.721Z</time></trkpt><trkpt lat="42.5275969" lon="12.2774497"><ele>62.0</ele><time>2026-03-30T13:57:47.713Z</time></trkpt><trkpt lat="42.5274663" lon="12.2774063"><ele>62.0</ele><time>2026-03-30T13:57:48.712Z</time></trkpt><trkpt lat="42.5273571" lon="12.2773598"><ele>62.0</ele><time>2026-03-30T13:57:49.725Z</time></trkpt><trkpt lat="42.5272734" lon="12.2773141"><ele>62.0</ele><time>2026-03-30T13:57:50.722Z</time></trkpt><trkpt lat="42.5272115" lon="12.2772533"><ele>62.0</ele><time>2026-03-30T13:57:51.721Z</time></trkpt><trkpt lat="42.5271631" lon="12.2771532"><ele>62.0</ele><time>2026-03-30T13:57:52.706Z</time></trkpt><trkpt lat="42.5271164" lon="12.2770173"><ele>61.75</ele><time>2026-03-30T13:57:53.721Z</time></trkpt><trkpt lat="42.5270628" lon="12.2768697"><ele>61.5</ele><time>2026-03-30T13:57:54.723Z</time></trkpt><trkpt lat="42.5269989" lon="12.2767281"><ele>61.25</ele><time>2026-03-30T13:57:55.724Z</time></trkpt><trkpt lat="42.5269494" lon="12.2765826"><ele>61.0</ele><time>2026-03-30T13:57:56.721Z</time></trkpt><trkpt lat="42.526922" lon="12.2764235"><ele>61.0</ele><time>2026-03-30T13:57:57.723Z</time></trkpt><trkpt lat="42.5268993" lon="12.2762745"><ele>60.99999999999999</ele><time>2026-03-30T13:57:58.716Z</time></trkpt><trkpt lat="42.5268737" lon="12.2761262"><ele>60.99999999999999</ele><time>2026-03-30T13:57:59.722Z</time></trkpt><trkpt lat="42.526845" lon="12.2759834"><ele>61.0</ele><time>2026-03-30T13:58:00.729Z</time></trkpt><trkpt lat="42.5268082" lon="12.2758489"><ele>61.0</ele><time>2026-03-30T13:58:01.709Z</time></trkpt><trkpt lat="42.5267673" lon="12.2757248"><ele>61.0</ele><time>2026-03-30T13:58:02.72Z</time></trkpt><trkpt lat="42.5267222" lon="12.2756077"><ele>60.99999999999999</ele><time>2026-03-30T13:58:03.722Z</time></trkpt><trkpt lat="42.5266756" lon="12.2755101"><ele>60.99999999999999</ele><time>2026-03-30T13:58:05.688Z</time></trkpt><trkpt lat="42.5265867" lon="12.2753737"><ele>61.0</ele><time>2026-03-30T13:58:06.717Z</time></trkpt><trkpt lat="42.5265334" lon="12.2752385"><ele>61.0</ele><time>2026-03-30T13:58:08.714Z</time></trkpt><trkpt lat="42.5264938" lon="12.2751596"><ele>60.99999999999999</ele><time>2026-03-30T13:58:09.721Z</time></trkpt><trkpt lat="42.5264425" lon="12.275099"><ele>61.0</ele><time>2026-03-30T13:58:10.722Z</time></trkpt><trkpt lat="42.5263852" lon="12.2750587"><ele>61.0</ele><time>2026-03-30T13:58:11.707Z</time></trkpt><trkpt lat="42.5262728" lon="12.2750649"><ele>61.0</ele><time>2026-03-30T13:58:13.719Z</time></trkpt><trkpt lat="42.5261991" lon="12.2751023"><ele>60.99999999999999</ele><time>2026-03-30T13:58:14.72Z</time></trkpt><trkpt lat="42.5261199" lon="12.2751617"><ele>61.0</ele><time>2026-03-30T13:58:15.721Z</time></trkpt><trkpt lat="42.5260292" lon="12.2752373"><ele>61.0</ele><time>2026-03-30T13:58:16.722Z</time></trkpt><trkpt lat="42.5259278" lon="12.2753224"><ele>61.0</ele><time>2026-03-30T13:58:17.715Z</time></trkpt><trkpt lat="42.5258094" lon="12.2754161"><ele>61.0</ele><time>2026-03-30T13:58:18.709Z</time></trkpt><trkpt lat="42.5256826" lon="12.2755197"><ele>61.0</ele><time>2026-03-30T13:58:19.724Z</time></trkpt><trkpt lat="42.5255501" lon="12.2756327"><ele>61.25</ele><time>2026-03-30T13:58:20.725Z</time></trkpt><trkpt lat="42.5254282" lon="12.2757403"><ele>61.5</ele><time>2026-03-30T13:58:21.722Z</time></trkpt><trkpt lat="42.5253172" lon="12.2758298"><ele>61.75</ele><time>2026-03-30T13:58:22.723Z</time></trkpt><trkpt lat="42.5252217" lon="12.275922"><ele>62.0</ele><time>2026-03-30T13:58:23.71Z</time></trkpt><trkpt lat="42.5251411" lon="12.2760226"><ele>61.5</ele><time>2026-03-30T13:58:24.72Z</time></trkpt><trkpt lat="42.5250703" lon="12.2761521"><ele>61.0</ele><time>2026-03-30T13:58:25.72Z</time></trkpt><trkpt lat="42.5250096" lon="12.2763076"><ele>60.5</ele><time>2026-03-30T13:58:26.719Z</time></trkpt><trkpt lat="42.5249628" lon="12.2764707"><ele>60.0</ele><time>2026-03-30T13:58:27.71Z</time></trkpt><trkpt lat="42.5249305" lon="12.2766262"><ele>59.8</ele><time>2026-03-30T13:58:28.72Z</time></trkpt><trkpt lat="42.5248901" lon="12.2767665"><ele>59.6</ele><time>2026-03-30T13:58:29.721Z</time></trkpt><trkpt lat="42.5248423" lon="12.276894"><ele>59.400000000000006</ele><time>2026-03-30T13:58:30.706Z</time></trkpt><trkpt lat="42.5247877" lon="12.2770084"><ele>59.2</ele><time>2026-03-30T13:58:31.715Z</time></trkpt><trkpt lat="42.5247111" lon="12.2771008"><ele>59.0</ele><time>2026-03-30T13:58:32.706Z</time></trkpt><trkpt lat="42.524613" lon="12.2771771"><ele>59.0</ele><time>2026-03-30T13:58:33.713Z</time></trkpt><trkpt lat="42.524505" lon="12.2772252"><ele>59.0</ele><time>2026-03-30T13:58:34.716Z</time></trkpt><trkpt lat="42.5243727" lon="12.2772449"><ele>59.0</ele><time>2026-03-30T13:58:35.708Z</time></trkpt><trkpt lat="42.5242279" lon="12.2772559"><ele>59.0</ele><time>2026-03-30T13:58:36.717Z</time></trkpt><trkpt lat="42.5240963" lon="12.2772836"><ele>59.0</ele><time>2026-03-30T13:58:37.722Z</time></trkpt><trkpt lat="42.523977" lon="12.2773187"><ele>59.0</ele><time>2026-03-30T13:58:38.713Z</time></trkpt><trkpt lat="42.5238576" lon="12.2773673"><ele>59.0</ele><time>2026-03-30T13:58:39.724Z</time></trkpt><trkpt lat="42.5237437" lon="12.2774264"><ele>59.0</ele><time>2026-03-30T13:58:40.724Z</time></trkpt><trkpt lat="42.5236346" lon="12.2774885"><ele>58.75</ele><time>2026-03-30T13:58:41.708Z</time></trkpt><trkpt lat="42.5235262" lon="12.2775318"><ele>58.5</ele><time>2026-03-30T13:58:42.717Z</time></trkpt><trkpt lat="42.5234036" lon="12.2775514"><ele>58.25</ele><time>2026-03-30T13:58:43.72Z</time></trkpt><trkpt lat="42.5232863" lon="12.277559"><ele>58.0</ele><time>2026-03-30T13:58:44.714Z</time></trkpt><trkpt lat="42.523182" lon="12.2775723"><ele>58.0</ele><time>2026-03-30T13:58:45.715Z</time></trkpt><trkpt lat="42.5230917" lon="12.2775965"><ele>58.0</ele><time>2026-03-30T13:58:46.712Z</time></trkpt><trkpt lat="42.5230051" lon="12.2776387"><ele>58.0</ele><time>2026-03-30T13:58:47.724Z</time></trkpt><trkpt lat="42.5228932" lon="12.2776891"><ele>58.0</ele><time>2026-03-30T13:58:48.709Z</time></trkpt><trkpt lat="42.5227534" lon="12.2777309"><ele>58.0</ele><time>2026-03-30T13:58:49.718Z</time></trkpt><trkpt lat="42.5226025" lon="12.2777599"><ele>58.666666666666664</ele><time>2026-03-30T13:58:50.713Z</time></trkpt><trkpt lat="42.5224414" lon="12.2777926"><ele>59.33333333333333</ele><time>2026-03-30T13:58:51.711Z</time></trkpt><trkpt lat="42.5222826" lon="12.277841"><ele>60.0</ele><time>2026-03-30T13:58:52.712Z</time></trkpt><trkpt lat="42.5221274" lon="12.2778923"><ele>59.25</ele><time>2026-03-30T13:58:53.725Z</time></trkpt><trkpt lat="42.5219762" lon="12.2779384"><ele>58.5</ele><time>2026-03-30T13:58:54.71Z</time></trkpt><trkpt lat="42.5218329" lon="12.2779782"><ele>57.75</ele><time>2026-03-30T13:58:55.718Z</time></trkpt><trkpt lat="42.5216968" lon="12.2779957"><ele>57.0</ele><time>2026-03-30T13:58:56.719Z</time></trkpt><trkpt lat="42.521554" lon="12.2780061"><ele>57.0</ele><time>2026-03-30T13:58:57.713Z</time></trkpt><trkpt lat="42.5214069" lon="12.2780052"><ele>57.0</ele><time>2026-03-30T13:58:58.714Z</time></trkpt><trkpt lat="42.5212641" lon="12.2780077"><ele>57.0</ele><time>2026-03-30T13:58:59.723Z</time></trkpt><trkpt lat="42.5211254" lon="12.2780125"><ele>57.0</ele><time>2026-03-30T13:59:00.713Z</time></trkpt><trkpt lat="42.5209888" lon="12.2780148"><ele>57.0</ele><time>2026-03-30T13:59:01.698Z</time></trkpt><trkpt lat="42.5208506" lon="12.2780144"><ele>57.0</ele><time>2026-03-30T13:59:02.717Z</time></trkpt><trkpt lat="42.5207057" lon="12.2779975"><ele>57.0</ele><time>2026-03-30T13:59:03.72Z</time></trkpt><trkpt lat="42.5205535" lon="12.277975"><ele>57.0</ele><time>2026-03-30T13:59:04.72Z</time></trkpt><trkpt lat="42.5204013" lon="12.2779538"><ele>57.5</ele><time>2026-03-30T13:59:05.706Z</time></trkpt><trkpt lat="42.5202634" lon="12.2779399"><ele>58.0</ele><time>2026-03-30T13:59:06.703Z</time></trkpt><trkpt lat="42.520143" lon="12.2779307"><ele>58.5</ele><time>2026-03-30T13:59:07.715Z</time></trkpt><trkpt lat="42.5200196" lon="12.2779179"><ele>59.0</ele><time>2026-03-30T13:59:08.72Z</time></trkpt><trkpt lat="42.5199006" lon="12.2779115"><ele>59.0</ele><time>2026-03-30T13:59:09.711Z</time></trkpt><trkpt lat="42.5197794" lon="12.2779146"><ele>59.00000000000001</ele><time>2026-03-30T13:59:10.72Z</time></trkpt><trkpt lat="42.5196605" lon="12.2779263"><ele>59.00000000000001</ele><time>2026-03-30T13:59:11.719Z</time></trkpt><trkpt lat="42.5195528" lon="12.277943"><ele>59.0</ele><time>2026-03-30T13:59:12.71Z</time></trkpt><trkpt lat="42.5194587" lon="12.2779476"><ele>59.0</ele><time>2026-03-30T13:59:13.722Z</time></trkpt><trkpt lat="42.519367" lon="12.2779356"><ele>58.75</ele><time>2026-03-30T13:59:14.721Z</time></trkpt><trkpt lat="42.5192603" lon="12.2779078"><ele>58.5</ele><time>2026-03-30T13:59:15.721Z</time></trkpt><trkpt lat="42.5191609" lon="12.277871"><ele>58.25</ele><time>2026-03-30T13:59:17.397Z</time></trkpt><trkpt lat="42.5189702" lon="12.2777716"><ele>58.0</ele><time>2026-03-30T13:59:18.708Z</time></trkpt><trkpt lat="42.5188926" lon="12.2777556"><ele>57.99999999999999</ele><time>2026-03-30T13:59:19.711Z</time></trkpt><trkpt lat="42.5188244" lon="12.2777673"><ele>58.0</ele><time>2026-03-30T13:59:20.704Z</time></trkpt><trkpt lat="42.5187563" lon="12.2777666"><ele>58.0</ele><time>2026-03-30T13:59:21.713Z</time></trkpt><trkpt lat="42.5186897" lon="12.2777479"><ele>58.0</ele><time>2026-03-30T13:59:22.71Z</time></trkpt><trkpt lat="42.5186166" lon="12.2777245"><ele>57.99999999999999</ele><time>2026-03-30T13:59:23.715Z</time></trkpt><trkpt lat="42.5185307" lon="12.2776798"><ele>58.0</ele><time>2026-03-30T13:59:24.714Z</time></trkpt><trkpt lat="42.5184373" lon="12.2776275"><ele>58.75</ele><time>2026-03-30T13:59:25.716Z</time></trkpt><trkpt lat="42.5183318" lon="12.277574"><ele>59.5</ele><time>2026-03-30T13:59:26.711Z</time></trkpt><trkpt lat="42.5182174" lon="12.2775329"><ele>60.25</ele><time>2026-03-30T13:59:27.716Z</time></trkpt><trkpt lat="42.5180968" lon="12.2775092"><ele>61.0</ele><time>2026-03-30T13:59:28.716Z</time></trkpt><trkpt lat="42.5179651" lon="12.2774822"><ele>61.0</ele><time>2026-03-30T13:59:29.715Z</time></trkpt><trkpt lat="42.5178326" lon="12.2774589"><ele>61.0</ele><time>2026-03-30T13:59:30.726Z</time></trkpt><trkpt lat="42.5177121" lon="12.277431"><ele>61.0</ele><time>2026-03-30T13:59:31.709Z</time></trkpt><trkpt lat="42.517595" lon="12.2774042"><ele>61.0</ele><time>2026-03-30T13:59:32.712Z</time></trkpt><trkpt lat="42.5174878" lon="12.2773798"><ele>61.0</ele><time>2026-03-30T13:59:33.724Z</time></trkpt><trkpt lat="42.5173844" lon="12.277357"><ele>61.0</ele><time>2026-03-30T13:59:34.72Z</time></trkpt><trkpt lat="42.5172731" lon="12.2773115"><ele>61.0</ele><time>2026-03-30T13:59:35.712Z</time></trkpt><trkpt lat="42.5171603" lon="12.2772528"><ele>61.0</ele><time>2026-03-30T13:59:36.713Z</time></trkpt><trkpt lat="42.5170579" lon="12.2772008"><ele>60.666666666666664</ele><time>2026-03-30T13:59:37.719Z</time></trkpt><trkpt lat="42.5169764" lon="12.2771479"><ele>60.33333333333333</ele><time>2026-03-30T13:59:38.709Z</time></trkpt><trkpt lat="42.5169104" lon="12.277098"><ele>60.0</ele><time>2026-03-30T13:59:39.708Z</time></trkpt><trkpt lat="42.5168519" lon="12.2770349"><ele>59.66666666666667</ele><time>2026-03-30T13:59:40.72Z</time></trkpt><trkpt lat="42.5167994" lon="12.2769736"><ele>59.333333333333336</ele><time>2026-03-30T13:59:41.71Z</time></trkpt><trkpt lat="42.5166827" lon="12.2769335"><ele>59.0</ele><time>2026-03-30T13:59:43.703Z</time></trkpt><trkpt lat="42.5166029" lon="12.2769695"><ele>59.0</ele><time>2026-03-30T13:59:44.709Z</time></trkpt><trkpt lat="42.5165261" lon="12.2770237"><ele>59.0</ele><time>2026-03-30T13:59:45.69Z</time></trkpt><trkpt lat="42.516453" lon="12.2771175"><ele>59.0</ele><time>2026-03-30T13:59:46.716Z</time></trkpt><trkpt lat="42.5163923" lon="12.2772716"><ele>59.0</ele><time>2026-03-30T13:59:47.705Z</time></trkpt><trkpt lat="42.516347" lon="12.2774472"><ele>59.5</ele><time>2026-03-30T13:59:48.708Z</time></trkpt><trkpt lat="42.5163085" lon="12.2776255"><ele>60.0</ele><time>2026-03-30T13:59:49.708Z</time></trkpt><trkpt lat="42.5162742" lon="12.2777857"><ele>60.5</ele><time>2026-03-30T13:59:50.718Z</time></trkpt><trkpt lat="42.5162239" lon="12.277923"><ele>61.0</ele><time>2026-03-30T13:59:51.72Z</time></trkpt><trkpt lat="42.5161671" lon="12.2780412"><ele>61.25</ele><time>2026-03-30T13:59:52.715Z</time></trkpt><trkpt lat="42.5160805" lon="12.2781475"><ele>61.5</ele><time>2026-03-30T13:59:53.713Z</time></trkpt><trkpt lat="42.5159749" lon="12.2782598"><ele>61.75</ele><time>2026-03-30T13:59:54.707Z</time></trkpt><trkpt lat="42.5158691" lon="12.2783941"><ele>62.0</ele><time>2026-03-30T13:59:55.711Z</time></trkpt><trkpt lat="42.5157813" lon="12.2785273"><ele>62.0</ele><time>2026-03-30T13:59:56.712Z</time></trkpt><trkpt lat="42.5157027" lon="12.2786666"><ele>62.0</ele><time>2026-03-30T13:59:57.708Z</time></trkpt><trkpt lat="42.5156326" lon="12.2788047"><ele>62.0</ele><time>2026-03-30T13:59:58.715Z</time></trkpt><trkpt lat="42.5155599" lon="12.278937"><ele>62.0</ele><time>2026-03-30T13:59:59.717Z</time></trkpt><trkpt lat="42.5154858" lon="12.2790675"><ele>62.0</ele><time>2026-03-30T14:00:00.719Z</time></trkpt><trkpt lat="42.5154173" lon="12.2791929"><ele>62.0</ele><time>2026-03-30T14:00:01.712Z</time></trkpt><trkpt lat="42.5153555" lon="12.2793283"><ele>62.0</ele><time>2026-03-30T14:00:02.706Z</time></trkpt><trkpt lat="42.5152921" lon="12.2794698"><ele>62.0</ele><time>2026-03-30T14:00:03.71Z</time></trkpt><trkpt lat="42.5152201" lon="12.2796107"><ele>61.75</ele><time>2026-03-30T14:00:04.712Z</time></trkpt><trkpt lat="42.5151499" lon="12.2797591"><ele>61.5</ele><time>2026-03-30T14:00:05.714Z</time></trkpt><trkpt lat="42.5150821" lon="12.2799171"><ele>61.25</ele><time>2026-03-30T14:00:06.709Z</time></trkpt><trkpt lat="42.515009" lon="12.2800624"><ele>61.0</ele><time>2026-03-30T14:00:07.719Z</time></trkpt><trkpt lat="42.5149346" lon="12.2802069"><ele>61.0</ele><time>2026-03-30T14:00:08.717Z</time></trkpt><trkpt lat="42.5148534" lon="12.2803251"><ele>61.0</ele><time>2026-03-30T14:00:09.712Z</time></trkpt><trkpt lat="42.5147733" lon="12.2804414"><ele>61.0</ele><time>2026-03-30T14:00:10.706Z</time></trkpt><trkpt lat="42.5147014" lon="12.2805851"><ele>61.0</ele><time>2026-03-30T14:00:11.723Z</time></trkpt><trkpt lat="42.5146398" lon="12.2807407"><ele>61.0</ele><time>2026-03-30T14:00:12.718Z</time></trkpt><trkpt lat="42.5145734" lon="12.2808904"><ele>61.0</ele><time>2026-03-30T14:00:13.721Z</time></trkpt><trkpt lat="42.5145019" lon="12.2810339"><ele>61.0</ele><time>2026-03-30T14:00:14.693Z</time></trkpt><trkpt lat="42.5144241" lon="12.2811679"><ele>61.0</ele><time>2026-03-30T14:00:15.71Z</time></trkpt><trkpt lat="42.5143445" lon="12.2813022"><ele>61.25</ele><time>2026-03-30T14:00:16.697Z</time></trkpt><trkpt lat="42.5142664" lon="12.2814323"><ele>61.5</ele><time>2026-03-30T14:00:17.707Z</time></trkpt><trkpt lat="42.5141851" lon="12.2815644"><ele>61.75</ele><time>2026-03-30T14:00:18.701Z</time></trkpt><trkpt lat="42.5141075" lon="12.2817116"><ele>62.0</ele><time>2026-03-30T14:00:19.702Z</time></trkpt><trkpt lat="42.5140364" lon="12.2818701"><ele>62.0</ele><time>2026-03-30T14:00:20.713Z</time></trkpt><trkpt lat="42.5139675" lon="12.2820233"><ele>62.0</ele><time>2026-03-30T14:00:21.717Z</time></trkpt><trkpt lat="42.5138986" lon="12.2821754"><ele>62.0</ele><time>2026-03-30T14:00:22.712Z</time></trkpt><trkpt lat="42.5138271" lon="12.2823108"><ele>62.0</ele><time>2026-03-30T14:00:23.714Z</time></trkpt><trkpt lat="42.5137564" lon="12.282429"><ele>61.5</ele><time>2026-03-30T14:00:25.636Z</time></trkpt><trkpt lat="42.5136214" lon="12.2826242"><ele>61.0</ele><time>2026-03-30T14:00:26.704Z</time></trkpt><trkpt lat="42.5135542" lon="12.2827205"><ele>60.5</ele><time>2026-03-30T14:00:27.721Z</time></trkpt><trkpt lat="42.5135016" lon="12.2828239"><ele>60.0</ele><time>2026-03-30T14:00:28.701Z</time></trkpt><trkpt lat="42.5134582" lon="12.2829299"><ele>60.0</ele><time>2026-03-30T14:00:29.703Z</time></trkpt><trkpt lat="42.5134218" lon="12.2830292"><ele>60.0</ele><time>2026-03-30T14:00:30.711Z</time></trkpt><trkpt lat="42.5133759" lon="12.2831292"><ele>60.0</ele><time>2026-03-30T14:00:31.714Z</time></trkpt><trkpt lat="42.5133221" lon="12.2832434"><ele>60.0</ele><time>2026-03-30T14:00:32.71Z</time></trkpt><trkpt lat="42.5132582" lon="12.2833654"><ele>60.0</ele><time>2026-03-30T14:00:33.708Z</time></trkpt><trkpt lat="42.5131843" lon="12.2834911"><ele>60.25</ele><time>2026-03-30T14:00:34.71Z</time></trkpt><trkpt lat="42.5131006" lon="12.2836283"><ele>60.5</ele><time>2026-03-30T14:00:35.716Z</time></trkpt><trkpt lat="42.5130122" lon="12.2837524"><ele>60.75</ele><time>2026-03-30T14:00:36.711Z</time></trkpt><trkpt lat="42.5129405" lon="12.2838625"><ele>61.0</ele><time>2026-03-30T14:00:37.71Z</time></trkpt><trkpt lat="42.5128771" lon="12.2839747"><ele>61.0</ele><time>2026-03-30T14:00:38.693Z</time></trkpt><trkpt lat="42.5128204" lon="12.2840862"><ele>60.99999999999999</ele><time>2026-03-30T14:00:39.72Z</time></trkpt><trkpt lat="42.5127649" lon="12.284203"><ele>60.99999999999999</ele><time>2026-03-30T14:00:40.709Z</time></trkpt><trkpt lat="42.5127063" lon="12.2843294"><ele>61.0</ele><time>2026-03-30T14:00:41.71Z</time></trkpt><trkpt lat="42.5126414" lon="12.2844592"><ele>61.0</ele><time>2026-03-30T14:00:42.713Z</time></trkpt><trkpt lat="42.5125768" lon="12.2845767"><ele>61.0</ele><time>2026-03-30T14:00:43.714Z</time></trkpt><trkpt lat="42.5125117" lon="12.2846786"><ele>60.99999999999999</ele><time>2026-03-30T14:00:44.711Z</time></trkpt><trkpt lat="42.51245" lon="12.2847891"><ele>60.99999999999999</ele><time>2026-03-30T14:00:45.717Z</time></trkpt><trkpt lat="42.5123865" lon="12.2849046"><ele>61.0</ele><time>2026-03-30T14:00:46.718Z</time></trkpt><trkpt lat="42.5123224" lon="12.28504"><ele>61.0</ele><time>2026-03-30T14:00:47.709Z</time></trkpt><trkpt lat="42.5122567" lon="12.2851816"><ele>61.0</ele><time>2026-03-30T14:00:48.707Z</time></trkpt><trkpt lat="42.5121931" lon="12.2853063"><ele>60.99999999999999</ele><time>2026-03-30T14:00:49.714Z</time></trkpt><trkpt lat="42.5121243" lon="12.2854139"><ele>60.99999999999999</ele><time>2026-03-30T14:00:50.709Z</time></trkpt><trkpt lat="42.5120604" lon="12.2855118"><ele>61.0</ele><time>2026-03-30T14:00:51.698Z</time></trkpt><trkpt lat="42.5120024" lon="12.285605"><ele>61.0</ele><time>2026-03-30T14:00:52.708Z</time></trkpt><trkpt lat="42.5119482" lon="12.2857159"><ele>61.0</ele><time>2026-03-30T14:00:53.722Z</time></trkpt><trkpt lat="42.5118904" lon="12.2858476"><ele>61.0</ele><time>2026-03-30T14:00:54.698Z</time></trkpt><trkpt lat="42.5118273" lon="12.2859881"><ele>61.0</ele><time>2026-03-30T14:00:55.698Z</time></trkpt><trkpt lat="42.5117612" lon="12.2861213"><ele>61.0</ele><time>2026-03-30T14:00:56.698Z</time></trkpt><trkpt lat="42.5116929" lon="12.2862508"><ele>61.0</ele><time>2026-03-30T14:00:57.707Z</time></trkpt><trkpt lat="42.5116261" lon="12.2863687"><ele>60.99999999999999</ele><time>2026-03-30T14:00:58.714Z</time></trkpt><trkpt lat="42.5115622" lon="12.286481"><ele>60.99999999999999</ele><time>2026-03-30T14:00:59.705Z</time></trkpt><trkpt lat="42.5115053" lon="12.2865839"><ele>61.0</ele><time>2026-03-30T14:01:00.7Z</time></trkpt><trkpt lat="42.5114462" lon="12.2866842"><ele>61.0</ele><time>2026-03-30T14:01:01.702Z</time></trkpt><trkpt lat="42.5113906" lon="12.2867787"><ele>61.166666666666664</ele><time>2026-03-30T14:01:02.69Z</time></trkpt><trkpt lat="42.5113408" lon="12.2868656"><ele>61.33333333333333</ele><time>2026-03-30T14:01:03.701Z</time></trkpt><trkpt lat="42.511294" lon="12.2869415"><ele>61.5</ele><time>2026-03-30T14:01:04.693Z</time></trkpt><trkpt lat="42.5112474" lon="12.2870102"><ele>61.66666666666667</ele><time>2026-03-30T14:01:05.695Z</time></trkpt><trkpt lat="42.5112021" lon="12.2870729"><ele>61.833333333333336</ele><time>2026-03-30T14:01:06.693Z</time></trkpt><trkpt lat="42.5111036" lon="12.2871743"><ele>62.0</ele><time>2026-03-30T14:01:08.695Z</time></trkpt><trkpt lat="42.5110505" lon="12.2872218"><ele>62.0</ele><time>2026-03-30T14:01:09.694Z</time></trkpt><trkpt lat="42.5109498" lon="12.2872946"><ele>62.0</ele><time>2026-03-30T14:01:11.723Z</time></trkpt><trkpt lat="42.5108478" lon="12.2873596"><ele>62.0</ele><time>2026-03-30T14:01:13.691Z</time></trkpt><trkpt lat="42.5107429" lon="12.287426"><ele>62.0</ele><time>2026-03-30T14:01:15.693Z</time></trkpt><trkpt lat="42.5106794" lon="12.287469"><ele>62.0</ele><time>2026-03-30T14:01:16.694Z</time></trkpt><trkpt lat="42.5106082" lon="12.2875225"><ele>62.0</ele><time>2026-03-30T14:01:17.69Z</time></trkpt><trkpt lat="42.5105309" lon="12.2875846"><ele>62.0</ele><time>2026-03-30T14:01:18.694Z</time></trkpt><trkpt lat="42.5104505" lon="12.2876515"><ele>62.0</ele><time>2026-03-30T14:01:19.71Z</time></trkpt><trkpt lat="42.5103614" lon="12.2877075"><ele>62.0</ele><time>2026-03-30T14:01:20.72Z</time></trkpt><trkpt lat="42.5102533" lon="12.2877456"><ele>62.0</ele><time>2026-03-30T14:01:21.731Z</time></trkpt><trkpt lat="42.510127" lon="12.2877697"><ele>61.75</ele><time>2026-03-30T14:01:22.695Z</time></trkpt><trkpt lat="42.5099971" lon="12.2877828"><ele>61.5</ele><time>2026-03-30T14:01:23.699Z</time></trkpt><trkpt lat="42.5098783" lon="12.2877965"><ele>61.25</ele><time>2026-03-30T14:01:24.701Z</time></trkpt><trkpt lat="42.5097708" lon="12.2878151"><ele>61.0</ele><time>2026-03-30T14:01:25.698Z</time></trkpt><trkpt lat="42.5096816" lon="12.2878504"><ele>60.99999999999999</ele><time>2026-03-30T14:01:26.701Z</time></trkpt><trkpt lat="42.5096024" lon="12.2879044"><ele>61.0</ele><time>2026-03-30T14:01:27.701Z</time></trkpt><trkpt lat="42.5095467" lon="12.2879704"><ele>61.0</ele><time>2026-03-30T14:01:28.7Z</time></trkpt><trkpt lat="42.5095163" lon="12.2880452"><ele>61.0</ele><time>2026-03-30T14:01:29.698Z</time></trkpt><trkpt lat="42.5095112" lon="12.2881477"><ele>60.99999999999999</ele><time>2026-03-30T14:01:30.699Z</time></trkpt><trkpt lat="42.5095284" lon="12.2882773"><ele>61.0</ele><time>2026-03-30T14:01:31.704Z</time></trkpt><trkpt lat="42.5095712" lon="12.2884198"><ele>61.25</ele><time>2026-03-30T14:01:32.696Z</time></trkpt><trkpt lat="42.5096216" lon="12.2885769"><ele>61.5</ele><time>2026-03-30T14:01:33.693Z</time></trkpt><trkpt lat="42.5096727" lon="12.2887476"><ele>61.75</ele><time>2026-03-30T14:01:34.704Z</time></trkpt><trkpt lat="42.5097169" lon="12.2889178"><ele>62.0</ele><time>2026-03-30T14:01:35.699Z</time></trkpt><trkpt lat="42.5097539" lon="12.2890686"><ele>62.16666666666667</ele><time>2026-03-30T14:01:36.696Z</time></trkpt><trkpt lat="42.5097808" lon="12.2891935"><ele>62.333333333333336</ele><time>2026-03-30T14:01:37.705Z</time></trkpt><trkpt lat="42.509793" lon="12.2893045"><ele>62.5</ele><time>2026-03-30T14:01:38.7Z</time></trkpt><trkpt lat="42.5097848" lon="12.2894098"><ele>62.66666666666667</ele><time>2026-03-30T14:01:39.695Z</time></trkpt><trkpt lat="42.5097477" lon="12.2895113"><ele>62.833333333333336</ele><time>2026-03-30T14:01:40.688Z</time></trkpt><trkpt lat="42.5096877" lon="12.2896142"><ele>63.0</ele><time>2026-03-30T14:01:41.706Z</time></trkpt><trkpt lat="42.5096142" lon="12.2897293"><ele>62.5</ele><time>2026-03-30T14:01:42.702Z</time></trkpt><trkpt lat="42.5095399" lon="12.2898488"><ele>62.0</ele><time>2026-03-30T14:01:43.695Z</time></trkpt><trkpt lat="42.5094582" lon="12.2899706"><ele>61.5</ele><time>2026-03-30T14:01:44.696Z</time></trkpt><trkpt lat="42.5093763" lon="12.2900952"><ele>61.0</ele><time>2026-03-30T14:01:45.705Z</time></trkpt><trkpt lat="42.509291" lon="12.2902244"><ele>61.0</ele><time>2026-03-30T14:01:46.691Z</time></trkpt><trkpt lat="42.5092036" lon="12.2903546"><ele>61.0</ele><time>2026-03-30T14:01:47.687Z</time></trkpt><trkpt lat="42.5091174" lon="12.2904819"><ele>61.0</ele><time>2026-03-30T14:01:48.692Z</time></trkpt><trkpt lat="42.5090232" lon="12.2906122"><ele>61.0</ele><time>2026-03-30T14:01:49.692Z</time></trkpt><trkpt lat="42.5089223" lon="12.2907443"><ele>61.0</ele><time>2026-03-30T14:01:50.692Z</time></trkpt><trkpt lat="42.5088208" lon="12.2908866"><ele>61.0</ele><time>2026-03-30T14:01:51.693Z</time></trkpt><trkpt lat="42.5087149" lon="12.2910365"><ele>61.0</ele><time>2026-03-30T14:01:52.696Z</time></trkpt><trkpt lat="42.5086075" lon="12.2911865"><ele>61.0</ele><time>2026-03-30T14:01:53.696Z</time></trkpt><trkpt lat="42.5085082" lon="12.2913298"><ele>61.0</ele><time>2026-03-30T14:01:54.705Z</time></trkpt><trkpt lat="42.5084183" lon="12.2914671"><ele>61.0</ele><time>2026-03-30T14:01:55.702Z</time></trkpt><trkpt lat="42.5083249" lon="12.291611"><ele>61.0</ele><time>2026-03-30T14:01:56.696Z</time></trkpt><trkpt lat="42.50823" lon="12.2917559"><ele>61.25</ele><time>2026-03-30T14:01:57.703Z</time></trkpt><trkpt lat="42.5081337" lon="12.2919058"><ele>61.5</ele><time>2026-03-30T14:01:58.691Z</time></trkpt><trkpt lat="42.5080339" lon="12.2920566"><ele>61.75</ele><time>2026-03-30T14:01:59.7Z</time></trkpt><trkpt lat="42.5079368" lon="12.2922074"><ele>62.0</ele><time>2026-03-30T14:02:00.689Z</time></trkpt><trkpt lat="42.5078371" lon="12.2923627"><ele>61.333333333333336</ele><time>2026-03-30T14:02:01.703Z</time></trkpt><trkpt lat="42.5077377" lon="12.2925163"><ele>60.66666666666667</ele><time>2026-03-30T14:02:02.695Z</time></trkpt><trkpt lat="42.507639" lon="12.2926698"><ele>60.0</ele><time>2026-03-30T14:02:03.698Z</time></trkpt><trkpt lat="42.5075398" lon="12.2928267"><ele>60.0</ele><time>2026-03-30T14:02:04.687Z</time></trkpt><trkpt lat="42.5074378" lon="12.2929864"><ele>60.0</ele><time>2026-03-30T14:02:05.697Z</time></trkpt><trkpt lat="42.5073389" lon="12.2931481"><ele>60.0</ele><time>2026-03-30T14:02:06.688Z</time></trkpt><trkpt lat="42.5072393" lon="12.293314"><ele>59.66666666666667</ele><time>2026-03-30T14:02:07.708Z</time></trkpt><trkpt lat="42.507135" lon="12.2934822"><ele>59.333333333333336</ele><time>2026-03-30T14:02:08.694Z</time></trkpt><trkpt lat="42.5070298" lon="12.2936528"><ele>59.0</ele><time>2026-03-30T14:02:09.692Z</time></trkpt><trkpt lat="42.5069267" lon="12.2938251"><ele>60.0</ele><time>2026-03-30T14:02:10.697Z</time></trkpt><trkpt lat="42.5068239" lon="12.2940051"><ele>61.0</ele><time>2026-03-30T14:02:11.688Z</time></trkpt><trkpt lat="42.5067226" lon="12.2941874"><ele>62.0</ele><time>2026-03-30T14:02:12.698Z</time></trkpt><trkpt lat="42.5066208" lon="12.2943718"><ele>62.0</ele><time>2026-03-30T14:02:13.697Z</time></trkpt><trkpt lat="42.5065248" lon="12.2945492"><ele>62.0</ele><time>2026-03-30T14:02:14.697Z</time></trkpt><trkpt lat="42.5064283" lon="12.2947215"><ele>62.0</ele><time>2026-03-30T14:02:15.72Z</time></trkpt><trkpt lat="42.5063335" lon="12.2948927"><ele>61.75</ele><time>2026-03-30T14:02:16.719Z</time></trkpt><trkpt lat="42.5062473" lon="12.2950524"><ele>61.5</ele><time>2026-03-30T14:02:17.714Z</time></trkpt><trkpt lat="42.5061683" lon="12.2952061"><ele>61.25</ele><time>2026-03-30T14:02:18.704Z</time></trkpt><trkpt lat="42.5060836" lon="12.2953614"><ele>61.0</ele><time>2026-03-30T14:02:19.713Z</time></trkpt><trkpt lat="42.5060023" lon="12.2955265"><ele>60.666666666666664</ele><time>2026-03-30T14:02:20.701Z</time></trkpt><trkpt lat="42.5059205" lon="12.2956935"><ele>60.33333333333333</ele><time>2026-03-30T14:02:21.715Z</time></trkpt><trkpt lat="42.505836" lon="12.2958631"><ele>60.0</ele><time>2026-03-30T14:02:22.7Z</time></trkpt><trkpt lat="42.50575" lon="12.2960318"><ele>60.0</ele><time>2026-03-30T14:02:23.716Z</time></trkpt><trkpt lat="42.5056653" lon="12.2961929"><ele>60.0</ele><time>2026-03-30T14:02:24.707Z</time></trkpt><trkpt lat="42.5055838" lon="12.2963446"><ele>60.0</ele><time>2026-03-30T14:02:25.707Z</time></trkpt><trkpt lat="42.5055046" lon="12.2965037"><ele>60.0</ele><time>2026-03-30T14:02:26.709Z</time></trkpt><trkpt lat="42.5054279" lon="12.2966651"><ele>59.5</ele><time>2026-03-30T14:02:27.717Z</time></trkpt><trkpt lat="42.5053541" lon="12.2968197"><ele>59.0</ele><time>2026-03-30T14:02:28.71Z</time></trkpt><trkpt lat="42.505289" lon="12.2969606"><ele>58.5</ele><time>2026-03-30T14:02:29.716Z</time></trkpt><trkpt lat="42.5052279" lon="12.297086"><ele>58.0</ele><time>2026-03-30T14:02:30.706Z</time></trkpt><trkpt lat="42.505171" lon="12.2971985"><ele>58.166666666666664</ele><time>2026-03-30T14:02:31.714Z</time></trkpt><trkpt lat="42.5051226" lon="12.2972983"><ele>58.33333333333333</ele><time>2026-03-30T14:02:32.712Z</time></trkpt><trkpt lat="42.5050851" lon="12.297379"><ele>58.5</ele><time>2026-03-30T14:02:33.71Z</time></trkpt><trkpt lat="42.5050316" lon="12.2975126"><ele>58.66666666666667</ele><time>2026-03-30T14:02:35.708Z</time></trkpt><trkpt lat="42.505013" lon="12.2976249"><ele>58.833333333333336</ele><time>2026-03-30T14:02:37.717Z</time></trkpt><trkpt lat="42.5049937" lon="12.2977327"><ele>59.0</ele><time>2026-03-30T14:02:40.709Z</time></trkpt><trkpt lat="42.5049233" lon="12.2978184"><ele>59.00000000000001</ele><time>2026-03-30T14:03:24.717Z</time></trkpt><trkpt lat="42.504831" lon="12.297935"><ele>59.0</ele><time>2026-03-30T14:03:26.713Z</time></trkpt><trkpt lat="42.5047898" lon="12.2980247"><ele>59.0</ele><time>2026-03-30T14:03:27.713Z</time></trkpt><trkpt lat="42.5047493" lon="12.2981116"><ele>59.0</ele><time>2026-03-30T14:03:28.708Z</time></trkpt><trkpt lat="42.5047099" lon="12.2982039"><ele>59.00000000000001</ele><time>2026-03-30T14:03:29.701Z</time></trkpt><trkpt lat="42.5046658" lon="12.2982916"><ele>59.0</ele><time>2026-03-30T14:03:30.704Z</time></trkpt><trkpt lat="42.5046177" lon="12.2983597"><ele>58.400000000000006</ele><time>2026-03-30T14:03:31.711Z</time></trkpt><trkpt lat="42.5045556" lon="12.2984261"><ele>57.800000000000004</ele><time>2026-03-30T14:03:32.714Z</time></trkpt><trkpt lat="42.5044833" lon="12.2984963"><ele>57.199999999999996</ele><time>2026-03-30T14:03:33.722Z</time></trkpt><trkpt lat="42.5044058" lon="12.2985835"><ele>56.599999999999994</ele><time>2026-03-30T14:03:34.716Z</time></trkpt><trkpt lat="42.5043305" lon="12.2987056"><ele>56.0</ele><time>2026-03-30T14:03:35.712Z</time></trkpt><trkpt lat="42.5042613" lon="12.2988446"><ele>57.0</ele><time>2026-03-30T14:03:36.709Z</time></trkpt><trkpt lat="42.5041967" lon="12.2989862"><ele>58.0</ele><time>2026-03-30T14:03:37.716Z</time></trkpt><trkpt lat="42.5041307" lon="12.2991272"><ele>59.0</ele><time>2026-03-30T14:03:38.712Z</time></trkpt><trkpt lat="42.5040593" lon="12.2992766"><ele>60.0</ele><time>2026-03-30T14:03:39.717Z</time></trkpt><trkpt lat="42.5039893" lon="12.2994318"><ele>60.0</ele><time>2026-03-30T14:03:40.718Z</time></trkpt><trkpt lat="42.5039246" lon="12.2995767"><ele>60.0</ele><time>2026-03-30T14:03:41.71Z</time></trkpt><trkpt lat="42.5038508" lon="12.2997163"><ele>60.0</ele><time>2026-03-30T14:03:42.711Z</time></trkpt><trkpt lat="42.5037736" lon="12.2998543"><ele>60.0</ele><time>2026-03-30T14:03:43.711Z</time></trkpt><trkpt lat="42.5036936" lon="12.2999938"><ele>59.5</ele><time>2026-03-30T14:03:44.7Z</time></trkpt><trkpt lat="42.5036126" lon="12.3001438"><ele>59.0</ele><time>2026-03-30T14:03:45.715Z</time></trkpt><trkpt lat="42.5035313" lon="12.3003017"><ele>58.5</ele><time>2026-03-30T14:03:46.715Z</time></trkpt><trkpt lat="42.5034516" lon="12.300466"><ele>58.0</ele><time>2026-03-30T14:03:47.715Z</time></trkpt><trkpt lat="42.5033716" lon="12.3006302"><ele>59.0</ele><time>2026-03-30T14:03:48.713Z</time></trkpt><trkpt lat="42.5032988" lon="12.3007858"><ele>60.0</ele><time>2026-03-30T14:03:49.713Z</time></trkpt><trkpt lat="42.5032266" lon="12.300941"><ele>61.0</ele><time>2026-03-30T14:03:50.715Z</time></trkpt><trkpt lat="42.5031505" lon="12.3010886"><ele>62.0</ele><time>2026-03-30T14:03:51.716Z</time></trkpt><trkpt lat="42.5030819" lon="12.3012098"><ele>62.0</ele><time>2026-03-30T14:03:52.708Z</time></trkpt><trkpt lat="42.5030064" lon="12.3013216"><ele>62.0</ele><time>2026-03-30T14:03:53.71Z</time></trkpt><trkpt lat="42.5029214" lon="12.3014216"><ele>62.0</ele><time>2026-03-30T14:03:54.715Z</time></trkpt><trkpt lat="42.5028302" lon="12.3015231"><ele>62.0</ele><time>2026-03-30T14:03:55.711Z</time></trkpt><trkpt lat="42.5027422" lon="12.3016351"><ele>63.75</ele><time>2026-03-30T14:03:56.712Z</time></trkpt><trkpt lat="42.5026524" lon="12.3017702"><ele>65.5</ele><time>2026-03-30T14:03:57.719Z</time></trkpt><trkpt lat="42.5025603" lon="12.3019269"><ele>67.25</ele><time>2026-03-30T14:03:58.711Z</time></trkpt><trkpt lat="42.5024625" lon="12.3020872"><ele>69.0</ele><time>2026-03-30T14:03:59.703Z</time></trkpt><trkpt lat="42.5023657" lon="12.3022474"><ele>69.33333333333333</ele><time>2026-03-30T14:04:00.719Z</time></trkpt><trkpt lat="42.5022745" lon="12.3023984"><ele>69.66666666666666</ele><time>2026-03-30T14:04:01.715Z</time></trkpt><trkpt lat="42.5021776" lon="12.3025554"><ele>70.0</ele><time>2026-03-30T14:04:02.718Z</time></trkpt><trkpt lat="42.5020778" lon="12.3027171"><ele>70.0</ele><time>2026-03-30T14:04:03.714Z</time></trkpt><trkpt lat="42.5019873" lon="12.3028604"><ele>70.0</ele><time>2026-03-30T14:04:04.707Z</time></trkpt><trkpt lat="42.5018993" lon="12.302999"><ele>70.0</ele><time>2026-03-30T14:04:05.715Z</time></trkpt><trkpt lat="42.501809" lon="12.3031332"><ele>70.0</ele><time>2026-03-30T14:04:06.71Z</time></trkpt><trkpt lat="42.5017188" lon="12.3032736"><ele>68.75</ele><time>2026-03-30T14:04:07.701Z</time></trkpt><trkpt lat="42.5016277" lon="12.3034171"><ele>67.5</ele><time>2026-03-30T14:04:08.717Z</time></trkpt><trkpt lat="42.5015353" lon="12.3035586"><ele>66.25</ele><time>2026-03-30T14:04:09.722Z</time></trkpt><trkpt lat="42.5014461" lon="12.3036976"><ele>65.0</ele><time>2026-03-30T14:04:10.707Z</time></trkpt><trkpt lat="42.5013633" lon="12.3038279"><ele>65.25</ele><time>2026-03-30T14:04:11.718Z</time></trkpt><trkpt lat="42.5012777" lon="12.3039548"><ele>65.5</ele><time>2026-03-30T14:04:12.714Z</time></trkpt><trkpt lat="42.5011896" lon="12.3040825"><ele>65.75</ele><time>2026-03-30T14:04:13.716Z</time></trkpt><trkpt lat="42.5010988" lon="12.3042097"><ele>66.0</ele><time>2026-03-30T14:04:14.716Z</time></trkpt><trkpt lat="42.5010033" lon="12.3043345"><ele>66.0</ele><time>2026-03-30T14:04:15.716Z</time></trkpt><trkpt lat="42.500912" lon="12.3044532"><ele>66.0</ele><time>2026-03-30T14:04:16.708Z</time></trkpt><trkpt lat="42.5008194" lon="12.3045816"><ele>66.0</ele><time>2026-03-30T14:04:17.711Z</time></trkpt><trkpt lat="42.5007275" lon="12.3047158"><ele>66.0</ele><time>2026-03-30T14:04:18.716Z</time></trkpt><trkpt lat="42.5006372" lon="12.3048479"><ele>66.0</ele><time>2026-03-30T14:04:19.691Z</time></trkpt><trkpt lat="42.5005508" lon="12.3049666"><ele>66.0</ele><time>2026-03-30T14:04:20.714Z</time></trkpt><trkpt lat="42.500475" lon="12.3050725"><ele>66.0</ele><time>2026-03-30T14:04:21.721Z</time></trkpt><trkpt lat="42.5004002" lon="12.3051689"><ele>66.0</ele><time>2026-03-30T14:04:22.721Z</time></trkpt><trkpt lat="42.500327" lon="12.3052565"><ele>66.0</ele><time>2026-03-30T14:04:23.722Z</time></trkpt><trkpt lat="42.5002586" lon="12.3053466"><ele>65.6</ele><time>2026-03-30T14:04:24.692Z</time></trkpt><trkpt lat="42.5001921" lon="12.3054461"><ele>65.19999999999999</ele><time>2026-03-30T14:04:25.705Z</time></trkpt><trkpt lat="42.500129" lon="12.3055539"><ele>64.80000000000001</ele><time>2026-03-30T14:04:26.709Z</time></trkpt><trkpt lat="42.5000694" lon="12.3056635"><ele>64.4</ele><time>2026-03-30T14:04:27.72Z</time></trkpt><trkpt lat="42.5000157" lon="12.3057715"><ele>64.0</ele><time>2026-03-30T14:04:28.711Z</time></trkpt><trkpt lat="42.4999586" lon="12.3058804"><ele>64.0</ele><time>2026-03-30T14:04:29.721Z</time></trkpt><trkpt lat="42.4998954" lon="12.3060002"><ele>64.0</ele><time>2026-03-30T14:04:30.717Z</time></trkpt><trkpt lat="42.4998258" lon="12.306125"><ele>64.0</ele><time>2026-03-30T14:04:31.707Z</time></trkpt><trkpt lat="42.4997436" lon="12.3062518"><ele>64.0</ele><time>2026-03-30T14:04:32.703Z</time></trkpt><trkpt lat="42.4996626" lon="12.3063645"><ele>63.99999999999999</ele><time>2026-03-30T14:04:33.7Z</time></trkpt><trkpt lat="42.4995854" lon="12.3064597"><ele>64.0</ele><time>2026-03-30T14:04:34.695Z</time></trkpt><trkpt lat="42.4995143" lon="12.3065402"><ele>64.0</ele><time>2026-03-30T14:04:35.709Z</time></trkpt><trkpt lat="42.499445" lon="12.3066059"><ele>64.0</ele><time>2026-03-30T14:04:36.718Z</time></trkpt><trkpt lat="42.4993765" lon="12.3066474"><ele>63.99999999999999</ele><time>2026-03-30T14:04:37.72Z</time></trkpt><trkpt lat="42.4993021" lon="12.3066654"><ele>64.0</ele><time>2026-03-30T14:04:38.708Z</time></trkpt><trkpt lat="42.4992281" lon="12.3066552"><ele>64.0</ele><time>2026-03-30T14:04:39.719Z</time></trkpt><trkpt lat="42.4991485" lon="12.3066114"><ele>64.0</ele><time>2026-03-30T14:04:40.71Z</time></trkpt><trkpt lat="42.4990664" lon="12.3065283"><ele>64.0</ele><time>2026-03-30T14:04:41.715Z</time></trkpt><trkpt lat="42.4989722" lon="12.3064282"><ele>64.0</ele><time>2026-03-30T14:04:42.714Z</time></trkpt><trkpt lat="42.4988633" lon="12.3063183"><ele>64.0</ele><time>2026-03-30T14:04:43.712Z</time></trkpt><trkpt lat="42.4987507" lon="12.3062225"><ele>62.25</ele><time>2026-03-30T14:04:44.714Z</time></trkpt><trkpt lat="42.4986474" lon="12.3061346"><ele>60.5</ele><time>2026-03-30T14:04:45.698Z</time></trkpt><trkpt lat="42.4985465" lon="12.3060475"><ele>58.75</ele><time>2026-03-30T14:04:46.709Z</time></trkpt><trkpt lat="42.4984552" lon="12.3059526"><ele>57.0</ele><time>2026-03-30T14:04:47.696Z</time></trkpt><trkpt lat="42.4983769" lon="12.3058462"><ele>57.0</ele><time>2026-03-30T14:04:48.713Z</time></trkpt><trkpt lat="42.4983156" lon="12.3057155"><ele>57.0</ele><time>2026-03-30T14:04:49.721Z</time></trkpt><trkpt lat="42.4982603" lon="12.30557"><ele>57.0</ele><time>2026-03-30T14:04:50.707Z</time></trkpt><trkpt lat="42.4981981" lon="12.3054109"><ele>57.0</ele><time>2026-03-30T14:04:51.721Z</time></trkpt><trkpt lat="42.4981409" lon="12.305245"><ele>57.0</ele><time>2026-03-30T14:04:52.717Z</time></trkpt><trkpt lat="42.4980885" lon="12.305091"><ele>57.0</ele><time>2026-03-30T14:04:53.713Z</time></trkpt><trkpt lat="42.4980385" lon="12.3049504"><ele>57.0</ele><time>2026-03-30T14:04:54.716Z</time></trkpt><trkpt lat="42.4979851" lon="12.3048117"><ele>57.0</ele><time>2026-03-30T14:04:55.713Z</time></trkpt><trkpt lat="42.4979314" lon="12.3046733"><ele>57.0</ele><time>2026-03-30T14:04:56.714Z</time></trkpt><trkpt lat="42.4978807" lon="12.3045415"><ele>57.0</ele><time>2026-03-30T14:04:57.715Z</time></trkpt><trkpt lat="42.4978315" lon="12.3044108"><ele>57.0</ele><time>2026-03-30T14:04:58.71Z</time></trkpt><trkpt lat="42.4977864" lon="12.3042894"><ele>57.0</ele><time>2026-03-30T14:04:59.692Z</time></trkpt><trkpt lat="42.4977421" lon="12.3041705"><ele>57.0</ele><time>2026-03-30T14:05:00.716Z</time></trkpt><trkpt lat="42.497695" lon="12.304048"><ele>57.0</ele><time>2026-03-30T14:05:01.715Z</time></trkpt><trkpt lat="42.4976517" lon="12.3039361"><ele>57.0</ele><time>2026-03-30T14:05:02.712Z</time></trkpt><trkpt lat="42.4976153" lon="12.3038362"><ele>57.0</ele><time>2026-03-30T14:05:03.716Z</time></trkpt><trkpt lat="42.4975764" lon="12.303744"><ele>57.0</ele><time>2026-03-30T14:05:04.706Z</time></trkpt><trkpt lat="42.4975178" lon="12.3036563"><ele>57.0</ele><time>2026-03-30T14:05:05.719Z</time></trkpt><trkpt lat="42.4974374" lon="12.3035637"><ele>57.0</ele><time>2026-03-30T14:05:06.707Z</time></trkpt><trkpt lat="42.4973559" lon="12.3034704"><ele>57.0</ele><time>2026-03-30T14:05:07.701Z</time></trkpt><trkpt lat="42.497278" lon="12.3033792"><ele>57.0</ele><time>2026-03-30T14:05:08.701Z</time></trkpt><trkpt lat="42.4972074" lon="12.3033119"><ele>57.0</ele><time>2026-03-30T14:05:09.715Z</time></trkpt><trkpt lat="42.4971396" lon="12.3032755"><ele>57.0</ele><time>2026-03-30T14:05:10.715Z</time></trkpt><trkpt lat="42.4970734" lon="12.3032663"><ele>57.0</ele><time>2026-03-30T14:05:11.715Z</time></trkpt><trkpt lat="42.4970056" lon="12.3032987"><ele>57.0</ele><time>2026-03-30T14:05:12.703Z</time></trkpt><trkpt lat="42.4969383" lon="12.3033683"><ele>57.0</ele><time>2026-03-30T14:05:13.716Z</time></trkpt><trkpt lat="42.4968797" lon="12.3034992"><ele>57.0</ele><time>2026-03-30T14:05:14.698Z</time></trkpt><trkpt lat="42.496833" lon="12.3036542"><ele>57.0</ele><time>2026-03-30T14:05:15.696Z</time></trkpt><trkpt lat="42.4967925" lon="12.3038135"><ele>57.0</ele><time>2026-03-30T14:05:16.699Z</time></trkpt><trkpt lat="42.4967573" lon="12.3039531"><ele>56.6</ele><time>2026-03-30T14:05:17.697Z</time></trkpt><trkpt lat="42.4967097" lon="12.3040613"><ele>56.2</ele><time>2026-03-30T14:05:18.697Z</time></trkpt><trkpt lat="42.4966358" lon="12.3041689"><ele>55.8</ele><time>2026-03-30T14:05:19.721Z</time></trkpt><trkpt lat="42.4965489" lon="12.3042743"><ele>55.4</ele><time>2026-03-30T14:05:20.692Z</time></trkpt><trkpt lat="42.4964735" lon="12.3043955"><ele>55.0</ele><time>2026-03-30T14:05:21.705Z</time></trkpt><trkpt lat="42.4964127" lon="12.3045451"><ele>55.0</ele><time>2026-03-30T14:05:22.693Z</time></trkpt><trkpt lat="42.4963569" lon="12.3047132"><ele>55.0</ele><time>2026-03-30T14:05:23.708Z</time></trkpt><trkpt lat="42.4962971" lon="12.3049078"><ele>55.0</ele><time>2026-03-30T14:05:24.711Z</time></trkpt><trkpt lat="42.4962303" lon="12.3051"><ele>55.0</ele><time>2026-03-30T14:05:25.716Z</time></trkpt><trkpt lat="42.4961669" lon="12.3052674"><ele>55.5</ele><time>2026-03-30T14:05:26.709Z</time></trkpt><trkpt lat="42.4961064" lon="12.30543"><ele>56.0</ele><time>2026-03-30T14:05:27.71Z</time></trkpt><trkpt lat="42.4960567" lon="12.3055811"><ele>56.5</ele><time>2026-03-30T14:05:28.714Z</time></trkpt><trkpt lat="42.4960075" lon="12.3057207"><ele>57.0</ele><time>2026-03-30T14:05:29.715Z</time></trkpt><trkpt lat="42.4959662" lon="12.3058452"><ele>57.0</ele><time>2026-03-30T14:05:30.715Z</time></trkpt><trkpt lat="42.4959236" lon="12.3059525"><ele>57.0</ele><time>2026-03-30T14:05:31.717Z</time></trkpt><trkpt lat="42.4958828" lon="12.3060541"><ele>57.0</ele><time>2026-03-30T14:05:32.717Z</time></trkpt><trkpt lat="42.4958404" lon="12.3061506"><ele>57.0</ele><time>2026-03-30T14:05:33.715Z</time></trkpt><trkpt lat="42.495808" lon="12.3062553"><ele>57.0</ele><time>2026-03-30T14:05:34.702Z</time></trkpt><trkpt lat="42.4957869" lon="12.3063698"><ele>57.0</ele><time>2026-03-30T14:05:35.703Z</time></trkpt><trkpt lat="42.4957674" lon="12.306496"><ele>57.25</ele><time>2026-03-30T14:05:37.402Z</time></trkpt><trkpt lat="42.4957329" lon="12.3067577"><ele>57.5</ele><time>2026-03-30T14:05:38.71Z</time></trkpt><trkpt lat="42.4957197" lon="12.3068824"><ele>57.75</ele><time>2026-03-30T14:05:39.715Z</time></trkpt><trkpt lat="42.4957042" lon="12.3070104"><ele>58.0</ele><time>2026-03-30T14:05:40.715Z</time></trkpt><trkpt lat="42.4956895" lon="12.3071446"><ele>58.49999999999999</ele><time>2026-03-30T14:05:41.707Z</time></trkpt><trkpt lat="42.4956817" lon="12.3072638"><ele>59.0</ele><time>2026-03-30T14:05:42.712Z</time></trkpt><trkpt lat="42.4956778" lon="12.3073561"><ele>59.5</ele><time>2026-03-30T14:05:43.715Z</time></trkpt><trkpt lat="42.4956641" lon="12.307499"><ele>60.0</ele><time>2026-03-30T14:05:45.717Z</time></trkpt><trkpt lat="42.495621" lon="12.3075921"><ele>60.49999999999999</ele><time>2026-03-30T14:05:47.715Z</time></trkpt><trkpt lat="42.4955647" lon="12.307684"><ele>61.0</ele><time>2026-03-30T14:05:49.707Z</time></trkpt><trkpt lat="42.495594" lon="12.3078487"><ele>61.0</ele><time>2026-03-30T14:05:51.712Z</time></trkpt><trkpt lat="42.4956321" lon="12.3079728"><ele>60.99999999999999</ele><time>2026-03-30T14:05:52.712Z</time></trkpt><trkpt lat="42.495685" lon="12.308106"><ele>60.99999999999999</ele><time>2026-03-30T14:05:53.701Z</time></trkpt><trkpt lat="42.4957268" lon="12.3082298"><ele>61.0</ele><time>2026-03-30T14:05:54.691Z</time></trkpt><trkpt lat="42.4957797" lon="12.3083386"><ele>61.0</ele><time>2026-03-30T14:05:55.712Z</time></trkpt><trkpt lat="42.4958429" lon="12.3084327"><ele>61.666666666666664</ele><time>2026-03-30T14:05:56.706Z</time></trkpt><trkpt lat="42.4958975" lon="12.3085035"><ele>62.33333333333333</ele><time>2026-03-30T14:05:57.714Z</time></trkpt><trkpt lat="42.495947" lon="12.3085687"><ele>63.0</ele><time>2026-03-30T14:05:58.695Z</time></trkpt><trkpt lat="42.4959978" lon="12.3086482"><ele>63.66666666666667</ele><time>2026-03-30T14:05:59.708Z</time></trkpt><trkpt lat="42.4960612" lon="12.3087497"><ele>64.33333333333334</ele><time>2026-03-30T14:06:00.694Z</time></trkpt><trkpt lat="42.4961244" lon="12.3088622"><ele>65.0</ele><time>2026-03-30T14:06:01.7Z</time></trkpt><trkpt lat="42.4961894" lon="12.3089748"><ele>65.6</ele><time>2026-03-30T14:06:02.691Z</time></trkpt><trkpt lat="42.4962562" lon="12.3090791"><ele>66.2</ele><time>2026-03-30T14:06:03.701Z</time></trkpt><trkpt lat="42.4963197" lon="12.3091762"><ele>66.8</ele><time>2026-03-30T14:06:04.698Z</time></trkpt><trkpt lat="42.4963767" lon="12.3092685"><ele>67.4</ele><time>2026-03-30T14:06:05.704Z</time></trkpt><trkpt lat="42.4964352" lon="12.3093681"><ele>68.0</ele><time>2026-03-30T14:06:06.705Z</time></trkpt><trkpt lat="42.4964957" lon="12.309466"><ele>67.99999999999999</ele><time>2026-03-30T14:06:07.716Z</time></trkpt><trkpt lat="42.4965433" lon="12.3095573"><ele>68.0</ele><time>2026-03-30T14:06:08.706Z</time></trkpt><trkpt lat="42.4965713" lon="12.3096446"><ele>68.0</ele><time>2026-03-30T14:06:09.718Z</time></trkpt><trkpt lat="42.4965815" lon="12.3097308"><ele>68.0</ele><time>2026-03-30T14:06:10.697Z</time></trkpt><trkpt lat="42.49658" lon="12.3098186"><ele>68.0</ele><time>2026-03-30T14:06:11.718Z</time></trkpt><trkpt lat="42.4965647" lon="12.3099105"><ele>67.99999999999999</ele><time>2026-03-30T14:06:12.718Z</time></trkpt><trkpt lat="42.4965335" lon="12.3099996"><ele>68.0</ele><time>2026-03-30T14:06:13.713Z</time></trkpt><trkpt lat="42.4964868" lon="12.3100792"><ele>67.8</ele><time>2026-03-30T14:06:14.72Z</time></trkpt><trkpt lat="42.4964229" lon="12.3101701"><ele>67.6</ele><time>2026-03-30T14:06:15.709Z</time></trkpt><trkpt lat="42.4963605" lon="12.310264"><ele>67.4</ele><time>2026-03-30T14:06:16.715Z</time></trkpt><trkpt lat="42.4962927" lon="12.3103569"><ele>67.2</ele><time>2026-03-30T14:06:17.709Z</time></trkpt><trkpt lat="42.4962184" lon="12.3104563"><ele>67.0</ele><time>2026-03-30T14:06:18.716Z</time></trkpt><trkpt lat="42.4961393" lon="12.3105594"><ele>67.0</ele><time>2026-03-30T14:06:19.716Z</time></trkpt><trkpt lat="42.496055" lon="12.3106666"><ele>67.0</ele><time>2026-03-30T14:06:20.713Z</time></trkpt><trkpt lat="42.4959705" lon="12.3107739"><ele>67.0</ele><time>2026-03-30T14:06:21.713Z</time></trkpt><trkpt lat="42.4958846" lon="12.3108827"><ele>67.0</ele><time>2026-03-30T14:06:22.719Z</time></trkpt><trkpt lat="42.495799" lon="12.310995"><ele>67.0</ele><time>2026-03-30T14:06:23.723Z</time></trkpt><trkpt lat="42.4957119" lon="12.3111067"><ele>67.0</ele><time>2026-03-30T14:06:24.713Z</time></trkpt><trkpt lat="42.4956227" lon="12.3112157"><ele>67.0</ele><time>2026-03-30T14:06:25.716Z</time></trkpt><trkpt lat="42.4955304" lon="12.3113285"><ele>67.0</ele><time>2026-03-30T14:06:26.711Z</time></trkpt><trkpt lat="42.4954361" lon="12.3114465"><ele>67.0</ele><time>2026-03-30T14:06:27.719Z</time></trkpt><trkpt lat="42.4953387" lon="12.3115665"><ele>67.0</ele><time>2026-03-30T14:06:28.713Z</time></trkpt><trkpt lat="42.4952385" lon="12.3116745"><ele>67.0</ele><time>2026-03-30T14:06:29.72Z</time></trkpt><trkpt lat="42.4951454" lon="12.3117658"><ele>67.0</ele><time>2026-03-30T14:06:30.713Z</time></trkpt><trkpt lat="42.4950615" lon="12.311842"><ele>67.0</ele><time>2026-03-30T14:06:31.72Z</time></trkpt><trkpt lat="42.4949925" lon="12.3119052"><ele>67.0</ele><time>2026-03-30T14:06:32.715Z</time></trkpt><trkpt lat="42.4949199" lon="12.3120128"><ele>67.0</ele><time>2026-03-30T14:06:34.715Z</time></trkpt><trkpt lat="42.4949542" lon="12.3121485"><ele>67.0</ele><time>2026-03-30T14:06:36.709Z</time></trkpt><trkpt lat="42.4950089" lon="12.3122337"><ele>67.0</ele><time>2026-03-30T14:06:37.721Z</time></trkpt><trkpt lat="42.4950827" lon="12.3123256"><ele>67.0</ele><time>2026-03-30T14:06:38.717Z</time></trkpt><trkpt lat="42.4951578" lon="12.3124357"><ele>67.0</ele><time>2026-03-30T14:06:39.715Z</time></trkpt><trkpt lat="42.4952273" lon="12.3125489"><ele>67.0</ele><time>2026-03-30T14:06:40.717Z</time></trkpt><trkpt lat="42.4953067" lon="12.3126659"><ele>67.0</ele><time>2026-03-30T14:06:41.716Z</time></trkpt><trkpt lat="42.4954027" lon="12.3127779"><ele>67.33333333333333</ele><time>2026-03-30T14:06:42.719Z</time></trkpt><trkpt lat="42.4955148" lon="12.3128885"><ele>67.66666666666667</ele><time>2026-03-30T14:06:43.719Z</time></trkpt><trkpt lat="42.4956282" lon="12.3130006"><ele>68.0</ele><time>2026-03-30T14:06:45.61Z</time></trkpt><trkpt lat="42.4958297" lon="12.3132121"><ele>69.0</ele><time>2026-03-30T14:06:46.712Z</time></trkpt><trkpt lat="42.4959256" lon="12.3133141"><ele>70.0</ele><time>2026-03-30T14:06:47.713Z</time></trkpt><trkpt lat="42.4960185" lon="12.3134121"><ele>71.0</ele><time>2026-03-30T14:06:48.715Z</time></trkpt><trkpt lat="42.496114" lon="12.3135173"><ele>72.0</ele><time>2026-03-30T14:06:49.718Z</time></trkpt><trkpt lat="42.4962057" lon="12.313629"><ele>71.75</ele><time>2026-03-30T14:06:50.716Z</time></trkpt><trkpt lat="42.4962972" lon="12.3137367"><ele>71.5</ele><time>2026-03-30T14:06:51.716Z</time></trkpt><trkpt lat="42.4963903" lon="12.3138508"><ele>71.25</ele><time>2026-03-30T14:06:52.718Z</time></trkpt><trkpt lat="42.4964894" lon="12.3139788"><ele>71.0</ele><time>2026-03-30T14:06:53.717Z</time></trkpt><trkpt lat="42.4965953" lon="12.3141108"><ele>71.75</ele><time>2026-03-30T14:06:54.707Z</time></trkpt><trkpt lat="42.4967014" lon="12.3142373"><ele>72.5</ele><time>2026-03-30T14:06:55.717Z</time></trkpt><trkpt lat="42.4967958" lon="12.3143499"><ele>73.25</ele><time>2026-03-30T14:06:56.707Z</time></trkpt><trkpt lat="42.496879" lon="12.3144506"><ele>74.0</ele><time>2026-03-30T14:06:57.721Z</time></trkpt><trkpt lat="42.4969567" lon="12.3145367"><ele>74.0</ele><time>2026-03-30T14:06:58.712Z</time></trkpt><trkpt lat="42.4970253" lon="12.3146207"><ele>74.0</ele><time>2026-03-30T14:06:59.717Z</time></trkpt><trkpt lat="42.4970876" lon="12.3146946"><ele>74.0</ele><time>2026-03-30T14:07:00.721Z</time></trkpt><trkpt lat="42.4971407" lon="12.3147584"><ele>74.0</ele><time>2026-03-30T14:07:01.717Z</time></trkpt><trkpt lat="42.4972394" lon="12.3148809"><ele>74.0</ele><time>2026-03-30T14:07:03.717Z</time></trkpt><trkpt lat="42.4973029" lon="12.3149574"><ele>74.60000000000001</ele><time>2026-03-30T14:07:04.716Z</time></trkpt><trkpt lat="42.4973722" lon="12.3150382"><ele>75.2</ele><time>2026-03-30T14:07:05.717Z</time></trkpt><trkpt lat="42.4974513" lon="12.3151339"><ele>75.80000000000001</ele><time>2026-03-30T14:07:06.706Z</time></trkpt><trkpt lat="42.4975284" lon="12.3152279"><ele>76.4</ele><time>2026-03-30T14:07:07.725Z</time></trkpt><trkpt lat="42.4975922" lon="12.3153"><ele>77.0</ele><time>2026-03-30T14:07:08.717Z</time></trkpt><trkpt lat="42.497674" lon="12.3153967"><ele>77.0</ele><time>2026-03-30T14:07:10.694Z</time></trkpt><trkpt lat="42.4977039" lon="12.3154729"><ele>77.0</ele><time>2026-03-30T14:07:12.715Z</time></trkpt><trkpt lat="42.4976611" lon="12.315611"><ele>77.0</ele><time>2026-03-30T14:07:14.714Z</time></trkpt><trkpt lat="42.497611" lon="12.3157043"><ele>77.0</ele><time>2026-03-30T14:07:15.716Z</time></trkpt><trkpt lat="42.497553" lon="12.3157917"><ele>77.0</ele><time>2026-03-30T14:07:16.713Z</time></trkpt><trkpt lat="42.4974876" lon="12.315896"><ele>77.0</ele><time>2026-03-30T14:07:17.722Z</time></trkpt><trkpt lat="42.4974153" lon="12.3160128"><ele>77.75</ele><time>2026-03-30T14:07:18.704Z</time></trkpt><trkpt lat="42.4973396" lon="12.3161394"><ele>78.5</ele><time>2026-03-30T14:07:19.696Z</time></trkpt><trkpt lat="42.4972559" lon="12.3162694"><ele>79.25</ele><time>2026-03-30T14:07:20.715Z</time></trkpt><trkpt lat="42.4971666" lon="12.3164014"><ele>80.0</ele><time>2026-03-30T14:07:21.719Z</time></trkpt><trkpt lat="42.4970734" lon="12.3165322"><ele>80.5</ele><time>2026-03-30T14:07:22.708Z</time></trkpt><trkpt lat="42.4969802" lon="12.3166698"><ele>81.0</ele><time>2026-03-30T14:07:23.714Z</time></trkpt><trkpt lat="42.496879" lon="12.3168175"><ele>81.5</ele><time>2026-03-30T14:07:24.704Z</time></trkpt><trkpt lat="42.4967717" lon="12.3169721"><ele>82.0</ele><time>2026-03-30T14:07:25.716Z</time></trkpt><trkpt lat="42.4966691" lon="12.317129"><ele>84.5</ele><time>2026-03-30T14:07:26.698Z</time></trkpt><trkpt lat="42.4965738" lon="12.3172748"><ele>87.0</ele><time>2026-03-30T14:07:27.714Z</time></trkpt><trkpt lat="42.4964768" lon="12.3174121"><ele>89.5</ele><time>2026-03-30T14:07:28.707Z</time></trkpt><trkpt lat="42.4963758" lon="12.3175556"><ele>92.0</ele><time>2026-03-30T14:07:29.716Z</time></trkpt><trkpt lat="42.4962802" lon="12.3177012"><ele>89.5</ele><time>2026-03-30T14:07:30.706Z</time></trkpt><trkpt lat="42.4961896" lon="12.3178438"><ele>87.0</ele><time>2026-03-30T14:07:31.717Z</time></trkpt><trkpt lat="42.4960968" lon="12.3179833"><ele>84.5</ele><time>2026-03-30T14:07:32.712Z</time></trkpt><trkpt lat="42.4960095" lon="12.318113"><ele>82.0</ele><time>2026-03-30T14:07:33.717Z</time></trkpt><trkpt lat="42.4959185" lon="12.3182475"><ele>82.0</ele><time>2026-03-30T14:07:34.69Z</time></trkpt><trkpt lat="42.4958302" lon="12.3183803"><ele>82.0</ele><time>2026-03-30T14:07:35.708Z</time></trkpt><trkpt lat="42.495739" lon="12.3185159"><ele>82.0</ele><time>2026-03-30T14:07:36.703Z</time></trkpt><trkpt lat="42.4956444" lon="12.3186516"><ele>82.0</ele><time>2026-03-30T14:07:37.716Z</time></trkpt><trkpt lat="42.4955509" lon="12.3187881"><ele>82.5</ele><time>2026-03-30T14:07:38.708Z</time></trkpt><trkpt lat="42.495451" lon="12.3189326"><ele>83.0</ele><time>2026-03-30T14:07:39.717Z</time></trkpt><trkpt lat="42.4953536" lon="12.3190761"><ele>83.5</ele><time>2026-03-30T14:07:40.707Z</time></trkpt><trkpt lat="42.4952632" lon="12.3192117"><ele>84.0</ele><time>2026-03-30T14:07:41.709Z</time></trkpt><trkpt lat="42.4951774" lon="12.3193385"><ele>82.25</ele><time>2026-03-30T14:07:42.706Z</time></trkpt><trkpt lat="42.4950931" lon="12.3194669"><ele>80.5</ele><time>2026-03-30T14:07:43.714Z</time></trkpt><trkpt lat="42.4950128" lon="12.3196004"><ele>78.75</ele><time>2026-03-30T14:07:44.713Z</time></trkpt><trkpt lat="42.4949405" lon="12.3197246"><ele>77.0</ele><time>2026-03-30T14:07:45.723Z</time></trkpt><trkpt lat="42.4948819" lon="12.3198442"><ele>77.0</ele><time>2026-03-30T14:07:46.718Z</time></trkpt><trkpt lat="42.4948367" lon="12.3199768"><ele>77.0</ele><time>2026-03-30T14:07:47.722Z</time></trkpt><trkpt lat="42.4948153" lon="12.3201233"><ele>77.0</ele><time>2026-03-30T14:07:48.715Z</time></trkpt><trkpt lat="42.4948152" lon="12.3202884"><ele>77.0</ele><time>2026-03-30T14:07:49.717Z</time></trkpt><trkpt lat="42.4948272" lon="12.3204653"><ele>77.25</ele><time>2026-03-30T14:07:50.711Z</time></trkpt><trkpt lat="42.4948423" lon="12.3206552"><ele>77.5</ele><time>2026-03-30T14:07:51.715Z</time></trkpt><trkpt lat="42.4948524" lon="12.3208466"><ele>77.75</ele><time>2026-03-30T14:07:52.709Z</time></trkpt><trkpt lat="42.4948592" lon="12.3210376"><ele>78.0</ele><time>2026-03-30T14:07:53.708Z</time></trkpt><trkpt lat="42.4948659" lon="12.3212207"><ele>78.0</ele><time>2026-03-30T14:07:54.707Z</time></trkpt><trkpt lat="42.4948778" lon="12.3213974"><ele>78.0</ele><time>2026-03-30T14:07:55.717Z</time></trkpt><trkpt lat="42.4948956" lon="12.3215536"><ele>78.0</ele><time>2026-03-30T14:07:56.711Z</time></trkpt><trkpt lat="42.4949156" lon="12.3217002"><ele>78.0</ele><time>2026-03-30T14:07:57.708Z</time></trkpt><trkpt lat="42.4949397" lon="12.3218253"><ele>77.6</ele><time>2026-03-30T14:07:58.719Z</time></trkpt><trkpt lat="42.4949762" lon="12.3219345"><ele>77.19999999999999</ele><time>2026-03-30T14:07:59.706Z</time></trkpt><trkpt lat="42.4950209" lon="12.3220442"><ele>76.8</ele><time>2026-03-30T14:08:00.717Z</time></trkpt><trkpt lat="42.4950762" lon="12.3221623"><ele>76.39999999999999</ele><time>2026-03-30T14:08:01.716Z</time></trkpt><trkpt lat="42.4951469" lon="12.3222818"><ele>76.0</ele><time>2026-03-30T14:08:02.717Z</time></trkpt><trkpt lat="42.4952262" lon="12.3223799"><ele>75.33333333333333</ele><time>2026-03-30T14:08:03.704Z</time></trkpt><trkpt lat="42.4953004" lon="12.3224403"><ele>74.66666666666666</ele><time>2026-03-30T14:08:04.707Z</time></trkpt><trkpt lat="42.4953586" lon="12.3224869"><ele>74.0</ele><time>2026-03-30T14:08:05.711Z</time></trkpt><trkpt lat="42.4954088" lon="12.3225466"><ele>73.33333333333333</ele><time>2026-03-30T14:08:06.708Z</time></trkpt><trkpt lat="42.4954473" lon="12.3226636"><ele>72.66666666666667</ele><time>2026-03-30T14:08:07.707Z</time></trkpt><trkpt lat="42.4954808" lon="12.3228163"><ele>72.0</ele><time>2026-03-30T14:08:08.708Z</time></trkpt><trkpt lat="42.4955224" lon="12.3229642"><ele>76.4</ele><time>2026-03-30T14:08:09.703Z</time></trkpt><trkpt lat="42.4955666" lon="12.3230921"><ele>80.80000000000001</ele><time>2026-03-30T14:08:10.709Z</time></trkpt><trkpt lat="42.495602" lon="12.323215"><ele>85.2</ele><time>2026-03-30T14:08:11.714Z</time></trkpt><trkpt lat="42.4956332" lon="12.323347"><ele>89.60000000000001</ele><time>2026-03-30T14:08:12.709Z</time></trkpt><trkpt lat="42.4956607" lon="12.3234875"><ele>94.0</ele><time>2026-03-30T14:08:13.707Z</time></trkpt><trkpt lat="42.4956854" lon="12.3236447"><ele>94.0</ele><time>2026-03-30T14:08:14.704Z</time></trkpt><trkpt lat="42.4957102" lon="12.3237927"><ele>94.0</ele><time>2026-03-30T14:08:15.712Z</time></trkpt><trkpt lat="42.4957286" lon="12.3239282"><ele>94.0</ele><time>2026-03-30T14:08:16.706Z</time></trkpt><trkpt lat="42.4957493" lon="12.3240586"><ele>94.0</ele><time>2026-03-30T14:08:17.717Z</time></trkpt><trkpt lat="42.4957656" lon="12.3241827"><ele>94.0</ele><time>2026-03-30T14:08:18.711Z</time></trkpt><trkpt lat="42.4957842" lon="12.3243086"><ele>92.2</ele><time>2026-03-30T14:08:19.713Z</time></trkpt><trkpt lat="42.4957948" lon="12.3244315"><ele>90.4</ele><time>2026-03-30T14:08:20.703Z</time></trkpt><trkpt lat="42.4957993" lon="12.3245542"><ele>88.6</ele><time>2026-03-30T14:08:21.713Z</time></trkpt><trkpt lat="42.4957997" lon="12.3246767"><ele>86.8</ele><time>2026-03-30T14:08:22.709Z</time></trkpt><trkpt lat="42.4958008" lon="12.3248016"><ele>85.0</ele><time>2026-03-30T14:08:23.719Z</time></trkpt><trkpt lat="42.4958006" lon="12.3249274"><ele>83.6</ele><time>2026-03-30T14:08:24.708Z</time></trkpt><trkpt lat="42.4958063" lon="12.325053"><ele>82.2</ele><time>2026-03-30T14:08:25.708Z</time></trkpt><trkpt lat="42.4958166" lon="12.325182"><ele>80.8</ele><time>2026-03-30T14:08:26.72Z</time></trkpt><trkpt lat="42.4958208" lon="12.3253086"><ele>79.4</ele><time>2026-03-30T14:08:27.721Z</time></trkpt><trkpt lat="42.495818" lon="12.3254329"><ele>78.0</ele><time>2026-03-30T14:08:28.706Z</time></trkpt><trkpt lat="42.4958045" lon="12.3255471"><ele>76.66666666666667</ele><time>2026-03-30T14:08:29.707Z</time></trkpt><trkpt lat="42.4957872" lon="12.3256544"><ele>75.33333333333333</ele><time>2026-03-30T14:08:30.709Z</time></trkpt><trkpt lat="42.4957598" lon="12.3257507"><ele>74.0</ele><time>2026-03-30T14:08:31.719Z</time></trkpt><trkpt lat="42.4957232" lon="12.3258446"><ele>72.66666666666666</ele><time>2026-03-30T14:08:32.713Z</time></trkpt><trkpt lat="42.4956862" lon="12.3259278"><ele>71.33333333333333</ele><time>2026-03-30T14:08:33.708Z</time></trkpt><trkpt lat="42.495645" lon="12.3260049"><ele>70.0</ele><time>2026-03-30T14:08:34.716Z</time></trkpt><trkpt lat="42.495596" lon="12.3260857"><ele>70.0</ele><time>2026-03-30T14:08:35.693Z</time></trkpt><trkpt lat="42.4955422" lon="12.3261842"><ele>70.0</ele><time>2026-03-30T14:08:36.703Z</time></trkpt><trkpt lat="42.4954742" lon="12.3263017"><ele>70.0</ele><time>2026-03-30T14:08:37.707Z</time></trkpt><trkpt lat="42.4954043" lon="12.326423"><ele>70.0</ele><time>2026-03-30T14:08:38.711Z</time></trkpt><trkpt lat="42.4953405" lon="12.3265516"><ele>70.0</ele><time>2026-03-30T14:08:39.713Z</time></trkpt><trkpt lat="42.4952816" lon="12.3266713"><ele>68.33333333333333</ele><time>2026-03-30T14:08:40.719Z</time></trkpt><trkpt lat="42.4952261" lon="12.3267825"><ele>66.66666666666666</ele><time>2026-03-30T14:08:41.709Z</time></trkpt><trkpt lat="42.4951778" lon="12.3268772"><ele>65.0</ele><time>2026-03-30T14:08:42.723Z</time></trkpt><trkpt lat="42.4951267" lon="12.3269603"><ele>63.33333333333333</ele><time>2026-03-30T14:08:43.715Z</time></trkpt><trkpt lat="42.4950655" lon="12.3270226"><ele>61.666666666666664</ele><time>2026-03-30T14:08:44.705Z</time></trkpt><trkpt lat="42.494985" lon="12.327072"><ele>60.0</ele><time>2026-03-30T14:08:45.706Z</time></trkpt><trkpt lat="42.4949006" lon="12.3271059"><ele>60.0</ele><time>2026-03-30T14:08:46.714Z</time></trkpt><trkpt lat="42.4948229" lon="12.3271397"><ele>60.0</ele><time>2026-03-30T14:08:47.711Z</time></trkpt><trkpt lat="42.4947495" lon="12.3271838"><ele>60.0</ele><time>2026-03-30T14:08:48.716Z</time></trkpt><trkpt lat="42.4946805" lon="12.3272321"><ele>60.0</ele><time>2026-03-30T14:08:49.713Z</time></trkpt><trkpt lat="42.494613" lon="12.3273157"><ele>60.0</ele><time>2026-03-30T14:08:50.714Z</time></trkpt><trkpt lat="42.4945256" lon="12.3274448"><ele>59.5</ele><time>2026-03-30T14:08:51.705Z</time></trkpt><trkpt lat="42.4944332" lon="12.3275947"><ele>59.0</ele><time>2026-03-30T14:08:52.706Z</time></trkpt><trkpt lat="42.4943557" lon="12.3277486"><ele>58.5</ele><time>2026-03-30T14:08:53.722Z</time></trkpt><trkpt lat="42.4942846" lon="12.3278942"><ele>58.0</ele><time>2026-03-30T14:08:54.707Z</time></trkpt><trkpt lat="42.4942138" lon="12.3280296"><ele>59.75</ele><time>2026-03-30T14:08:55.71Z</time></trkpt><trkpt lat="42.4941383" lon="12.3281475"><ele>61.5</ele><time>2026-03-30T14:08:56.711Z</time></trkpt><trkpt lat="42.4940593" lon="12.3282578"><ele>63.25</ele><time>2026-03-30T14:08:57.708Z</time></trkpt><trkpt lat="42.4939874" lon="12.3284027"><ele>65.0</ele><time>2026-03-30T14:08:58.703Z</time></trkpt><trkpt lat="42.4939225" lon="12.3285577"><ele>65.0</ele><time>2026-03-30T14:08:59.705Z</time></trkpt><trkpt lat="42.4938605" lon="12.3287124"><ele>65.0</ele><time>2026-03-30T14:09:01.449Z</time></trkpt><trkpt lat="42.4937444" lon="12.3289797"><ele>65.0</ele><time>2026-03-30T14:09:02.708Z</time></trkpt><trkpt lat="42.4936876" lon="12.3290989"><ele>63.4</ele><time>2026-03-30T14:09:03.716Z</time></trkpt><trkpt lat="42.4936423" lon="12.3292095"><ele>61.8</ele><time>2026-03-30T14:09:04.716Z</time></trkpt><trkpt lat="42.493602" lon="12.3293165"><ele>60.2</ele><time>2026-03-30T14:09:05.706Z</time></trkpt><trkpt lat="42.493562" lon="12.3294267"><ele>58.6</ele><time>2026-03-30T14:09:06.705Z</time></trkpt><trkpt lat="42.4935175" lon="12.3295407"><ele>57.0</ele><time>2026-03-30T14:09:07.714Z</time></trkpt><trkpt lat="42.4934809" lon="12.3296787"><ele>57.8</ele><time>2026-03-30T14:09:08.719Z</time></trkpt><trkpt lat="42.4934554" lon="12.3298326"><ele>58.6</ele><time>2026-03-30T14:09:09.718Z</time></trkpt><trkpt lat="42.4934604" lon="12.329984"><ele>59.39999999999999</ele><time>2026-03-30T14:09:10.72Z</time></trkpt><trkpt lat="42.4934776" lon="12.3301393"><ele>60.199999999999996</ele><time>2026-03-30T14:09:11.717Z</time></trkpt><trkpt lat="42.4934897" lon="12.3302796"><ele>61.0</ele><time>2026-03-30T14:09:12.71Z</time></trkpt><trkpt lat="42.4934936" lon="12.3304043"><ele>61.0</ele><time>2026-03-30T14:09:13.718Z</time></trkpt><trkpt lat="42.4934849" lon="12.3305323"><ele>61.0</ele><time>2026-03-30T14:09:14.704Z</time></trkpt><trkpt lat="42.4934494" lon="12.3306708"><ele>61.0</ele><time>2026-03-30T14:09:15.714Z</time></trkpt><trkpt lat="42.4934021" lon="12.3308265"><ele>61.0</ele><time>2026-03-30T14:09:16.706Z</time></trkpt><trkpt lat="42.4933463" lon="12.330996"><ele>62.25</ele><time>2026-03-30T14:09:17.717Z</time></trkpt><trkpt lat="42.4932871" lon="12.3311745"><ele>63.5</ele><time>2026-03-30T14:09:18.714Z</time></trkpt><trkpt lat="42.4932331" lon="12.3313537"><ele>64.75</ele><time>2026-03-30T14:09:19.717Z</time></trkpt><trkpt lat="42.4931876" lon="12.3314975"><ele>66.0</ele><time>2026-03-30T14:09:20.71Z</time></trkpt><trkpt lat="42.4931405" lon="12.33162"><ele>68.5</ele><time>2026-03-30T14:09:21.721Z</time></trkpt><trkpt lat="42.4930706" lon="12.3317241"><ele>71.0</ele><time>2026-03-30T14:09:22.702Z</time></trkpt><trkpt lat="42.4929668" lon="12.3318453"><ele>73.5</ele><time>2026-03-30T14:09:23.707Z</time></trkpt><trkpt lat="42.4928565" lon="12.331976"><ele>76.0</ele><time>2026-03-30T14:09:24.714Z</time></trkpt><trkpt lat="42.492763" lon="12.3320941"><ele>73.75</ele><time>2026-03-30T14:09:25.719Z</time></trkpt><trkpt lat="42.4926848" lon="12.3322241"><ele>71.5</ele><time>2026-03-30T14:09:26.705Z</time></trkpt><trkpt lat="42.4926117" lon="12.3323767"><ele>69.25</ele><time>2026-03-30T14:09:27.707Z</time></trkpt><trkpt lat="42.492542" lon="12.3325466"><ele>67.0</ele><time>2026-03-30T14:09:28.714Z</time></trkpt><trkpt lat="42.4924689" lon="12.3327151"><ele>67.0</ele><time>2026-03-30T14:09:29.704Z</time></trkpt><trkpt lat="42.4923935" lon="12.3328933"><ele>67.0</ele><time>2026-03-30T14:09:30.702Z</time></trkpt><trkpt lat="42.4923256" lon="12.3330713"><ele>67.0</ele><time>2026-03-30T14:09:31.706Z</time></trkpt><trkpt lat="42.4922527" lon="12.3332519"><ele>67.75</ele><time>2026-03-30T14:09:32.702Z</time></trkpt><trkpt lat="42.4921731" lon="12.3334308"><ele>68.5</ele><time>2026-03-30T14:09:33.703Z</time></trkpt><trkpt lat="42.4920951" lon="12.333604"><ele>69.25</ele><time>2026-03-30T14:09:34.709Z</time></trkpt><trkpt lat="42.4920311" lon="12.3337716"><ele>70.0</ele><time>2026-03-30T14:09:35.708Z</time></trkpt><trkpt lat="42.4919631" lon="12.3339251"><ele>70.0</ele><time>2026-03-30T14:09:36.717Z</time></trkpt><trkpt lat="42.4918983" lon="12.3340522"><ele>70.0</ele><time>2026-03-30T14:09:37.716Z</time></trkpt><trkpt lat="42.4918461" lon="12.3341698"><ele>70.0</ele><time>2026-03-30T14:09:38.707Z</time></trkpt><trkpt lat="42.4918249" lon="12.3343309"><ele>70.0</ele><time>2026-03-30T14:09:39.719Z</time></trkpt><trkpt lat="42.4918193" lon="12.3345166"><ele>70.0</ele><time>2026-03-30T14:09:40.707Z</time></trkpt><trkpt lat="42.491818" lon="12.3346841"><ele>70.0</ele><time>2026-03-30T14:09:41.713Z</time></trkpt><trkpt lat="42.491816" lon="12.3348325"><ele>70.0</ele><time>2026-03-30T14:09:42.716Z</time></trkpt><trkpt lat="42.4918194" lon="12.3349692"><ele>70.0</ele><time>2026-03-30T14:09:43.717Z</time></trkpt><trkpt lat="42.4918383" lon="12.3351028"><ele>70.0</ele><time>2026-03-30T14:09:44.715Z</time></trkpt><trkpt lat="42.491877" lon="12.3352317"><ele>69.66666666666666</ele><time>2026-03-30T14:09:45.713Z</time></trkpt><trkpt lat="42.491914" lon="12.3353381"><ele>69.33333333333333</ele><time>2026-03-30T14:09:46.717Z</time></trkpt><trkpt lat="42.4919544" lon="12.3354285"><ele>69.0</ele><time>2026-03-30T14:09:47.711Z</time></trkpt><trkpt lat="42.4919938" lon="12.335509"><ele>68.66666666666667</ele><time>2026-03-30T14:09:48.72Z</time></trkpt><trkpt lat="42.4920333" lon="12.3355937"><ele>68.33333333333334</ele><time>2026-03-30T14:09:49.721Z</time></trkpt><trkpt lat="42.4920805" lon="12.3356779"><ele>68.0</ele><time>2026-03-30T14:09:50.713Z</time></trkpt><trkpt lat="42.4921303" lon="12.3357514"><ele>72.6</ele><time>2026-03-30T14:09:51.72Z</time></trkpt><trkpt lat="42.4921981" lon="12.3357987"><ele>77.19999999999999</ele><time>2026-03-30T14:09:52.708Z</time></trkpt><trkpt lat="42.4922884" lon="12.3358298"><ele>81.8</ele><time>2026-03-30T14:09:53.719Z</time></trkpt><trkpt lat="42.4923896" lon="12.3358559"><ele>86.39999999999999</ele><time>2026-03-30T14:09:54.716Z</time></trkpt><trkpt lat="42.4924899" lon="12.3358741"><ele>91.0</ele><time>2026-03-30T14:09:55.711Z</time></trkpt><trkpt lat="42.4925931" lon="12.3358782"><ele>91.0</ele><time>2026-03-30T14:09:56.706Z</time></trkpt><trkpt lat="42.4927025" lon="12.3358742"><ele>91.0</ele><time>2026-03-30T14:09:57.713Z</time></trkpt><trkpt lat="42.4928151" lon="12.3358757"><ele>91.0</ele><time>2026-03-30T14:09:58.714Z</time></trkpt><trkpt lat="42.4929264" lon="12.3358777"><ele>91.0</ele><time>2026-03-30T14:09:59.711Z</time></trkpt><trkpt lat="42.4930326" lon="12.3358733"><ele>91.0</ele><time>2026-03-30T14:10:00.712Z</time></trkpt><trkpt lat="42.4931351" lon="12.3358482"><ele>93.5</ele><time>2026-03-30T14:10:01.71Z</time></trkpt><trkpt lat="42.4932325" lon="12.3358114"><ele>96.0</ele><time>2026-03-30T14:10:02.716Z</time></trkpt><trkpt lat="42.4933291" lon="12.3357678"><ele>98.5</ele><time>2026-03-30T14:10:03.702Z</time></trkpt><trkpt lat="42.4934133" lon="12.3357065"><ele>101.0</ele><time>2026-03-30T14:10:04.71Z</time></trkpt><trkpt lat="42.4934828" lon="12.3356522"><ele>103.50000000000001</ele><time>2026-03-30T14:10:05.714Z</time></trkpt><trkpt lat="42.4935431" lon="12.3356185"><ele>106.0</ele><time>2026-03-30T14:10:06.7Z</time></trkpt><trkpt lat="42.4936086" lon="12.3356082"><ele>106.0</ele><time>2026-03-30T14:10:07.707Z</time></trkpt><trkpt lat="42.4936834" lon="12.3356334"><ele>106.0</ele><time>2026-03-30T14:10:08.7Z</time></trkpt><trkpt lat="42.4937634" lon="12.3356794"><ele>106.0</ele><time>2026-03-30T14:10:10.444Z</time></trkpt><trkpt lat="42.4939126" lon="12.3358518"><ele>106.0</ele><time>2026-03-30T14:10:11.705Z</time></trkpt><trkpt lat="42.4939593" lon="12.3359439"><ele>106.0</ele><time>2026-03-30T14:10:12.718Z</time></trkpt><trkpt lat="42.4940318" lon="12.3359922"><ele>107.50000000000001</ele><time>2026-03-30T14:10:14.716Z</time></trkpt><trkpt lat="42.4940917" lon="12.3358533"><ele>109.0</ele><time>2026-03-30T14:10:16.712Z</time></trkpt><trkpt lat="42.4941124" lon="12.3357576"><ele>110.5</ele><time>2026-03-30T14:10:17.701Z</time></trkpt><trkpt lat="42.4941512" lon="12.3356634"><ele>112.0</ele><time>2026-03-30T14:10:18.715Z</time></trkpt><trkpt lat="42.4941998" lon="12.3355783"><ele>113.50000000000001</ele><time>2026-03-30T14:10:19.706Z</time></trkpt><trkpt lat="42.4942398" lon="12.3354914"><ele>115.0</ele><time>2026-03-30T14:10:20.718Z</time></trkpt><trkpt lat="42.4942526" lon="12.3353685"><ele>115.4</ele><time>2026-03-30T14:10:21.712Z</time></trkpt><trkpt lat="42.4942519" lon="12.3352286"><ele>115.8</ele><time>2026-03-30T14:10:22.707Z</time></trkpt><trkpt lat="42.494239" lon="12.3350903"><ele>116.19999999999999</ele><time>2026-03-30T14:10:23.711Z</time></trkpt><trkpt lat="42.4942229" lon="12.3349784"><ele>116.6</ele><time>2026-03-30T14:10:24.704Z</time></trkpt><trkpt lat="42.4942054" lon="12.3348607"><ele>117.0</ele><time>2026-03-30T14:10:25.72Z</time></trkpt><trkpt lat="42.4941831" lon="12.3347305"><ele>116.8</ele><time>2026-03-30T14:10:26.707Z</time></trkpt><trkpt lat="42.4941573" lon="12.3346074"><ele>116.6</ele><time>2026-03-30T14:10:27.715Z</time></trkpt><trkpt lat="42.4941233" lon="12.3345272"><ele>116.39999999999999</ele><time>2026-03-30T14:10:28.712Z</time></trkpt><trkpt lat="42.4940637" lon="12.3344091"><ele>116.19999999999999</ele><time>2026-03-30T14:10:30.719Z</time></trkpt><trkpt lat="42.4941091" lon="12.3342614"><ele>116.0</ele><time>2026-03-30T14:10:32.712Z</time></trkpt><trkpt lat="42.4941893" lon="12.3341765"><ele>116.0</ele><time>2026-03-30T14:10:33.714Z</time></trkpt><trkpt lat="42.4942689" lon="12.334058"><ele>116.0</ele><time>2026-03-30T14:10:34.714Z</time></trkpt><trkpt lat="42.4943604" lon="12.3339189"><ele>116.0</ele><time>2026-03-30T14:10:35.722Z</time></trkpt><trkpt lat="42.494444" lon="12.3337782"><ele>116.0</ele><time>2026-03-30T14:10:36.707Z</time></trkpt><trkpt lat="42.4945248" lon="12.3336489"><ele>115.75</ele><time>2026-03-30T14:10:37.713Z</time></trkpt><trkpt lat="42.494606" lon="12.3335252"><ele>115.5</ele><time>2026-03-30T14:10:38.708Z</time></trkpt><trkpt lat="42.4946898" lon="12.3334036"><ele>115.25</ele><time>2026-03-30T14:10:39.715Z</time></trkpt><trkpt lat="42.4947678" lon="12.3332839"><ele>115.0</ele><time>2026-03-30T14:10:40.704Z</time></trkpt><trkpt lat="42.4948418" lon="12.3331606"><ele>113.2</ele><time>2026-03-30T14:10:41.71Z</time></trkpt><trkpt lat="42.494911" lon="12.3330381"><ele>111.4</ele><time>2026-03-30T14:10:42.713Z</time></trkpt><trkpt lat="42.4949745" lon="12.3329203"><ele>109.6</ele><time>2026-03-30T14:10:43.719Z</time></trkpt><trkpt lat="42.4950309" lon="12.3328058"><ele>107.8</ele><time>2026-03-30T14:10:44.71Z</time></trkpt><trkpt lat="42.4950834" lon="12.3326905"><ele>106.0</ele><time>2026-03-30T14:10:45.714Z</time></trkpt><trkpt lat="42.4951323" lon="12.332596"><ele>106.0</ele><time>2026-03-30T14:10:46.703Z</time></trkpt><trkpt lat="42.495195" lon="12.3324995"><ele>106.0</ele><time>2026-03-30T14:10:48.713Z</time></trkpt><trkpt lat="42.4952293" lon="12.3323744"><ele>106.0</ele><time>2026-03-30T14:10:51.71Z</time></trkpt><trkpt lat="42.4952328" lon="12.3322285"><ele>106.0</ele><time>2026-03-30T14:10:52.709Z</time></trkpt><trkpt lat="42.4952269" lon="12.3320764"><ele>106.0</ele><time>2026-03-30T14:10:53.718Z</time></trkpt><trkpt lat="42.4952335" lon="12.3319375"><ele>107.00000000000001</ele><time>2026-03-30T14:10:54.712Z</time></trkpt><trkpt lat="42.4952624" lon="12.3318304"><ele>108.0</ele><time>2026-03-30T14:10:55.718Z</time></trkpt><trkpt lat="42.4953111" lon="12.3317527"><ele>109.0</ele><time>2026-03-30T14:10:56.708Z</time></trkpt><trkpt lat="42.4953839" lon="12.3316991"><ele>110.0</ele><time>2026-03-30T14:10:57.708Z</time></trkpt><trkpt lat="42.4954719" lon="12.3316947"><ele>111.00000000000001</ele><time>2026-03-30T14:10:58.708Z</time></trkpt><trkpt lat="42.4955486" lon="12.3317411"><ele>112.0</ele><time>2026-03-30T14:10:59.715Z</time></trkpt><trkpt lat="42.4955955" lon="12.3318525"><ele>112.0</ele><time>2026-03-30T14:11:00.71Z</time></trkpt><trkpt lat="42.495602" lon="12.331993"><ele>111.99999999999999</ele><time>2026-03-30T14:11:01.722Z</time></trkpt><trkpt lat="42.4956042" lon="12.3321501"><ele>111.99999999999999</ele><time>2026-03-30T14:11:02.711Z</time></trkpt><trkpt lat="42.4956175" lon="12.3322992"><ele>112.0</ele><time>2026-03-30T14:11:03.71Z</time></trkpt><trkpt lat="42.4956504" lon="12.3324053"><ele>112.0</ele><time>2026-03-30T14:11:04.716Z</time></trkpt><trkpt lat="42.4957134" lon="12.3324444"><ele>113.39999999999999</ele><time>2026-03-30T14:11:05.706Z</time></trkpt><trkpt lat="42.4957908" lon="12.3324473"><ele>114.79999999999998</ele><time>2026-03-30T14:11:06.713Z</time></trkpt><trkpt lat="42.4959002" lon="12.3324154"><ele>116.2</ele><time>2026-03-30T14:11:07.716Z</time></trkpt><trkpt lat="42.4960089" lon="12.3323964"><ele>117.6</ele><time>2026-03-30T14:11:08.703Z</time></trkpt><trkpt lat="42.4960723" lon="12.3323345"><ele>119.0</ele><time>2026-03-30T14:11:09.709Z</time></trkpt><trkpt lat="42.4961223" lon="12.3322386"><ele>119.2</ele><time>2026-03-30T14:11:10.717Z</time></trkpt><trkpt lat="42.4961571" lon="12.3321383"><ele>119.4</ele><time>2026-03-30T14:11:11.705Z</time></trkpt><trkpt lat="42.496243" lon="12.3320981"><ele>119.6</ele><time>2026-03-30T14:11:13.707Z</time></trkpt><trkpt lat="42.4963138" lon="12.3321311"><ele>119.8</ele><time>2026-03-30T14:11:14.71Z</time></trkpt><trkpt lat="42.4963691" lon="12.3322302"><ele>120.0</ele><time>2026-03-30T14:11:15.716Z</time></trkpt><trkpt lat="42.4964359" lon="12.3323574"><ele>121.5</ele><time>2026-03-30T14:11:16.704Z</time></trkpt><trkpt lat="42.4965186" lon="12.3324916"><ele>123.0</ele><time>2026-03-30T14:11:17.705Z</time></trkpt><trkpt lat="42.4966137" lon="12.3326443"><ele>124.5</ele><time>2026-03-30T14:11:18.704Z</time></trkpt><trkpt lat="42.4967077" lon="12.3327969"><ele>126.0</ele><time>2026-03-30T14:11:19.719Z</time></trkpt><trkpt lat="42.4967929" lon="12.33293"><ele>126.0</ele><time>2026-03-30T14:11:20.706Z</time></trkpt><trkpt lat="42.496876" lon="12.3330415"><ele>126.0</ele><time>2026-03-30T14:11:21.719Z</time></trkpt><trkpt lat="42.4969559" lon="12.3331277"><ele>126.0</ele><time>2026-03-30T14:11:22.698Z</time></trkpt><trkpt lat="42.4970345" lon="12.3332032"><ele>126.0</ele><time>2026-03-30T14:11:23.7Z</time></trkpt><trkpt lat="42.4971123" lon="12.3332795"><ele>126.0</ele><time>2026-03-30T14:11:24.696Z</time></trkpt><trkpt lat="42.4971935" lon="12.3333415"><ele>131.25</ele><time>2026-03-30T14:11:25.699Z</time></trkpt><trkpt lat="42.4972935" lon="12.333344"><ele>136.5</ele><time>2026-03-30T14:11:26.691Z</time></trkpt><trkpt lat="42.4974016" lon="12.3333023"><ele>141.75</ele><time>2026-03-30T14:11:27.698Z</time></trkpt><trkpt lat="42.4975015" lon="12.3332199"><ele>147.0</ele><time>2026-03-30T14:11:28.703Z</time></trkpt><trkpt lat="42.4976001" lon="12.333112"><ele>145.6</ele><time>2026-03-30T14:11:29.706Z</time></trkpt><trkpt lat="42.4976908" lon="12.3329888"><ele>144.2</ele><time>2026-03-30T14:11:30.698Z</time></trkpt><trkpt lat="42.497771" lon="12.3328855"><ele>142.8</ele><time>2026-03-30T14:11:31.704Z</time></trkpt><trkpt lat="42.4978499" lon="12.3328177"><ele>141.4</ele><time>2026-03-30T14:11:32.701Z</time></trkpt><trkpt lat="42.4979434" lon="12.332765"><ele>140.0</ele><time>2026-03-30T14:11:33.707Z</time></trkpt><trkpt lat="42.4980498" lon="12.3327422"><ele>142.8</ele><time>2026-03-30T14:11:34.697Z</time></trkpt><trkpt lat="42.4981288" lon="12.3327282"><ele>145.6</ele><time>2026-03-30T14:11:35.706Z</time></trkpt><trkpt lat="42.4982114" lon="12.3326965"><ele>148.4</ele><time>2026-03-30T14:11:36.698Z</time></trkpt><trkpt lat="42.4983159" lon="12.3326335"><ele>151.2</ele><time>2026-03-30T14:11:37.697Z</time></trkpt><trkpt lat="42.4984087" lon="12.3325175"><ele>154.0</ele><time>2026-03-30T14:11:38.701Z</time></trkpt><trkpt lat="42.4984863" lon="12.3323943"><ele>154.0</ele><time>2026-03-30T14:11:39.695Z</time></trkpt><trkpt lat="42.498565" lon="12.3322825"><ele>154.0</ele><time>2026-03-30T14:11:40.701Z</time></trkpt><trkpt lat="42.4986678" lon="12.3321971"><ele>154.0</ele><time>2026-03-30T14:11:41.706Z</time></trkpt><trkpt lat="42.498784" lon="12.3321196"><ele>154.0</ele><time>2026-03-30T14:11:42.692Z</time></trkpt><trkpt lat="42.4988787" lon="12.3320537"><ele>153.5</ele><time>2026-03-30T14:11:43.706Z</time></trkpt><trkpt lat="42.4989432" lon="12.3320138"><ele>153.0</ele><time>2026-03-30T14:11:44.705Z</time></trkpt><trkpt lat="42.4990408" lon="12.3320161"><ele>152.5</ele><time>2026-03-30T14:11:46.705Z</time></trkpt><trkpt lat="42.4990913" lon="12.3320754"><ele>152.0</ele><time>2026-03-30T14:11:47.717Z</time></trkpt><trkpt lat="42.4991242" lon="12.3321684"><ele>151.5</ele><time>2026-03-30T14:11:48.713Z</time></trkpt><trkpt lat="42.499144" lon="12.3322787"><ele>151.0</ele><time>2026-03-30T14:11:49.711Z</time></trkpt><trkpt lat="42.4991644" lon="12.3323969"><ele>153.0</ele><time>2026-03-30T14:11:50.714Z</time></trkpt><trkpt lat="42.4992013" lon="12.3325336"><ele>155.0</ele><time>2026-03-30T14:11:51.71Z</time></trkpt><trkpt lat="42.4992502" lon="12.3326914"><ele>157.0</ele><time>2026-03-30T14:11:52.71Z</time></trkpt><trkpt lat="42.4992905" lon="12.3328594"><ele>159.0</ele><time>2026-03-30T14:11:53.725Z</time></trkpt><trkpt lat="42.4993231" lon="12.3330363"><ele>162.0</ele><time>2026-03-30T14:11:54.716Z</time></trkpt><trkpt lat="42.4993382" lon="12.3332177"><ele>165.0</ele><time>2026-03-30T14:11:55.718Z</time></trkpt><trkpt lat="42.4993446" lon="12.3334006"><ele>168.0</ele><time>2026-03-30T14:11:56.709Z</time></trkpt><trkpt lat="42.4993433" lon="12.3335704"><ele>171.0</ele><time>2026-03-30T14:11:57.724Z</time></trkpt><trkpt lat="42.499346" lon="12.3336996"><ele>171.0</ele><time>2026-03-30T14:11:58.706Z</time></trkpt><trkpt lat="42.4993522" lon="12.3337942"><ele>171.0</ele><time>2026-03-30T14:11:59.718Z</time></trkpt><trkpt lat="42.4993766" lon="12.3338762"><ele>171.0</ele><time>2026-03-30T14:12:00.704Z</time></trkpt><trkpt lat="42.499429" lon="12.3340361"><ele>171.0</ele><time>2026-03-30T14:12:02.711Z</time></trkpt><trkpt lat="42.4994407" lon="12.3341502"><ele>171.0</ele><time>2026-03-30T14:12:03.723Z</time></trkpt><trkpt lat="42.4994495" lon="12.3342782"><ele>171.0</ele><time>2026-03-30T14:12:04.714Z</time></trkpt><trkpt lat="42.4994703" lon="12.3343919"><ele>172.66666666666666</ele><time>2026-03-30T14:12:05.718Z</time></trkpt><trkpt lat="42.4994937" lon="12.3344726"><ele>174.33333333333334</ele><time>2026-03-30T14:12:06.699Z</time></trkpt><trkpt lat="42.4995393" lon="12.3345773"><ele>176.0</ele><time>2026-03-30T14:12:08.705Z</time></trkpt><trkpt lat="42.4995855" lon="12.3346473"><ele>177.66666666666669</ele><time>2026-03-30T14:12:11.7Z</time></trkpt><trkpt lat="42.4996573" lon="12.3346289"><ele>179.33333333333334</ele><time>2026-03-30T14:12:22.708Z</time></trkpt><trkpt lat="42.4997455" lon="12.3345734"><ele>181.0</ele><time>2026-03-30T14:12:24.697Z</time></trkpt><trkpt lat="42.4998224" lon="12.3345326"><ele>183.0</ele><time>2026-03-30T14:12:25.712Z</time></trkpt><trkpt lat="42.4999268" lon="12.3344684"><ele>185.0</ele><time>2026-03-30T14:12:26.704Z</time></trkpt><trkpt lat="42.5000393" lon="12.3343773"><ele>187.0</ele><time>2026-03-30T14:12:28.485Z</time></trkpt><trkpt lat="42.5002422" lon="12.3341827"><ele>187.0</ele><time>2026-03-30T14:12:29.693Z</time></trkpt><trkpt lat="42.5003207" lon="12.3340772"><ele>187.0</ele><time>2026-03-30T14:12:30.706Z</time></trkpt><trkpt lat="42.5003812" lon="12.3339646"><ele>187.0</ele><time>2026-03-30T14:12:31.711Z</time></trkpt><trkpt lat="42.5004317" lon="12.3338403"><ele>187.0</ele><time>2026-03-30T14:12:32.717Z</time></trkpt><trkpt lat="42.5004691" lon="12.3337141"><ele>187.0</ele><time>2026-03-30T14:12:33.703Z</time></trkpt><trkpt lat="42.5005036" lon="12.33358"><ele>185.83333333333334</ele><time>2026-03-30T14:12:34.696Z</time></trkpt><trkpt lat="42.5005308" lon="12.3334501"><ele>184.66666666666669</ele><time>2026-03-30T14:12:35.713Z</time></trkpt><trkpt lat="42.5005536" lon="12.3333493"><ele>183.5</ele><time>2026-03-30T14:12:36.7Z</time></trkpt><trkpt lat="42.500589" lon="12.3332772"><ele>182.33333333333334</ele><time>2026-03-30T14:12:37.696Z</time></trkpt><trkpt lat="42.5006458" lon="12.3332353"><ele>181.16666666666666</ele><time>2026-03-30T14:12:38.712Z</time></trkpt><trkpt lat="42.5007217" lon="12.333223"><ele>180.0</ele><time>2026-03-30T14:12:39.707Z</time></trkpt><trkpt lat="42.5008152" lon="12.3332336"><ele>180.0</ele><time>2026-03-30T14:12:40.71Z</time></trkpt><trkpt lat="42.5009133" lon="12.3332484"><ele>180.0</ele><time>2026-03-30T14:12:41.708Z</time></trkpt><trkpt lat="42.5010228" lon="12.333264"><ele>180.0</ele><time>2026-03-30T14:12:42.714Z</time></trkpt><trkpt lat="42.5011324" lon="12.3332725"><ele>180.0</ele><time>2026-03-30T14:12:43.712Z</time></trkpt><trkpt lat="42.5012477" lon="12.3332841"><ele>180.0</ele><time>2026-03-30T14:12:44.706Z</time></trkpt><trkpt lat="42.5013628" lon="12.3333059"><ele>180.6</ele><time>2026-03-30T14:12:45.712Z</time></trkpt><trkpt lat="42.5014763" lon="12.3333273"><ele>181.2</ele><time>2026-03-30T14:12:46.711Z</time></trkpt><trkpt lat="42.5015843" lon="12.3333367"><ele>181.8</ele><time>2026-03-30T14:12:47.7Z</time></trkpt><trkpt lat="42.5016941" lon="12.3333288"><ele>182.4</ele><time>2026-03-30T14:12:48.707Z</time></trkpt><trkpt lat="42.5018056" lon="12.3333054"><ele>183.0</ele><time>2026-03-30T14:12:49.707Z</time></trkpt><trkpt lat="42.5019212" lon="12.3332763"><ele>183.0</ele><time>2026-03-30T14:12:50.712Z</time></trkpt><trkpt lat="42.5020307" lon="12.333243"><ele>183.0</ele><time>2026-03-30T14:12:51.708Z</time></trkpt><trkpt lat="42.5021265" lon="12.3332172"><ele>183.0</ele><time>2026-03-30T14:12:52.689Z</time></trkpt><trkpt lat="42.5022204" lon="12.3331914"><ele>183.0</ele><time>2026-03-30T14:12:53.703Z</time></trkpt><trkpt lat="42.5023115" lon="12.3331647"><ele>183.0</ele><time>2026-03-30T14:12:54.701Z</time></trkpt><trkpt lat="42.5024019" lon="12.3331338"><ele>182.60000000000002</ele><time>2026-03-30T14:12:55.707Z</time></trkpt><trkpt lat="42.5024957" lon="12.3330959"><ele>182.20000000000002</ele><time>2026-03-30T14:12:56.715Z</time></trkpt><trkpt lat="42.5025941" lon="12.3330551"><ele>181.8</ele><time>2026-03-30T14:12:57.706Z</time></trkpt><trkpt lat="42.502697" lon="12.3330151"><ele>181.4</ele><time>2026-03-30T14:12:58.687Z</time></trkpt><trkpt lat="42.5027893" lon="12.3329833"><ele>181.0</ele><time>2026-03-30T14:12:59.708Z</time></trkpt><trkpt lat="42.5028689" lon="12.3329558"><ele>182.0</ele><time>2026-03-30T14:13:00.717Z</time></trkpt><trkpt lat="42.5029397" lon="12.3329441"><ele>183.0</ele><time>2026-03-30T14:13:01.716Z</time></trkpt><trkpt lat="42.5030089" lon="12.3329626"><ele>184.0</ele><time>2026-03-30T14:13:02.718Z</time></trkpt><trkpt lat="42.5030762" lon="12.3330146"><ele>185.0</ele><time>2026-03-30T14:13:03.71Z</time></trkpt><trkpt lat="42.5031425" lon="12.3330824"><ele>186.0</ele><time>2026-03-30T14:13:04.713Z</time></trkpt><trkpt lat="42.5032154" lon="12.3331499"><ele>187.0</ele><time>2026-03-30T14:13:05.714Z</time></trkpt><trkpt lat="42.5032961" lon="12.3332063"><ele>188.16666666666669</ele><time>2026-03-30T14:13:06.706Z</time></trkpt><trkpt lat="42.5033857" lon="12.3332311"><ele>189.33333333333334</ele><time>2026-03-30T14:13:07.693Z</time></trkpt><trkpt lat="42.5034734" lon="12.3332364"><ele>190.5</ele><time>2026-03-30T14:13:08.716Z</time></trkpt><trkpt lat="42.5035586" lon="12.3332125"><ele>191.66666666666669</ele><time>2026-03-30T14:13:09.717Z</time></trkpt><trkpt lat="42.5036386" lon="12.3331709"><ele>192.83333333333334</ele><time>2026-03-30T14:13:10.716Z</time></trkpt><trkpt lat="42.5037167" lon="12.3330994"><ele>194.0</ele><time>2026-03-30T14:13:11.714Z</time></trkpt><trkpt lat="42.5037911" lon="12.3330151"><ele>194.0</ele><time>2026-03-30T14:13:12.713Z</time></trkpt><trkpt lat="42.5038529" lon="12.332937"><ele>194.0</ele><time>2026-03-30T14:13:13.71Z</time></trkpt><trkpt lat="42.5039718" lon="12.3329089"><ele>194.0</ele><time>2026-03-30T14:13:15.708Z</time></trkpt><trkpt lat="42.5040402" lon="12.3329666"><ele>194.0</ele><time>2026-03-30T14:13:16.707Z</time></trkpt><trkpt lat="42.5041194" lon="12.3330308"><ele>194.0</ele><time>2026-03-30T14:13:17.702Z</time></trkpt><trkpt lat="42.50423" lon="12.3329654"><ele>194.0</ele><time>2026-03-30T14:13:19.712Z</time></trkpt><trkpt lat="42.5042831" lon="12.3328407"><ele>194.0</ele><time>2026-03-30T14:13:20.708Z</time></trkpt><trkpt lat="42.5043392" lon="12.332723"><ele>194.0</ele><time>2026-03-30T14:13:21.714Z</time></trkpt><trkpt lat="42.5044048" lon="12.3326465"><ele>194.0</ele><time>2026-03-30T14:13:22.713Z</time></trkpt><trkpt lat="42.5044805" lon="12.3326018"><ele>194.0</ele><time>2026-03-30T14:13:23.713Z</time></trkpt><trkpt lat="42.5045716" lon="12.3326059"><ele>195.6</ele><time>2026-03-30T14:13:24.712Z</time></trkpt><trkpt lat="42.504663" lon="12.332654"><ele>197.2</ele><time>2026-03-30T14:13:25.711Z</time></trkpt><trkpt lat="42.50475" lon="12.3327256"><ele>198.79999999999998</ele><time>2026-03-30T14:13:26.705Z</time></trkpt><trkpt lat="42.5048186" lon="12.3328214"><ele>200.39999999999998</ele><time>2026-03-30T14:13:27.713Z</time></trkpt><trkpt lat="42.5048772" lon="12.3329509"><ele>202.0</ele><time>2026-03-30T14:13:28.703Z</time></trkpt><trkpt lat="42.5049188" lon="12.3330934"><ele>202.0</ele><time>2026-03-30T14:13:29.704Z</time></trkpt><trkpt lat="42.5049462" lon="12.3332298"><ele>202.0</ele><time>2026-03-30T14:13:30.702Z</time></trkpt><trkpt lat="42.5049686" lon="12.3333307"><ele>202.0</ele><time>2026-03-30T14:13:31.707Z</time></trkpt><trkpt lat="42.5050515" lon="12.3333992"><ele>202.0</ele><time>2026-03-30T14:13:33.714Z</time></trkpt><trkpt lat="42.5051568" lon="12.3332627"><ele>202.0</ele><time>2026-03-30T14:13:36.61Z</time></trkpt><trkpt lat="42.5052845" lon="12.3330276"><ele>201.99999999999997</ele><time>2026-03-30T14:13:37.708Z</time></trkpt><trkpt lat="42.5053462" lon="12.3329145"><ele>202.0</ele><time>2026-03-30T14:13:38.709Z</time></trkpt><trkpt lat="42.505396" lon="12.3328105"><ele>202.0</ele><time>2026-03-30T14:13:39.714Z</time></trkpt><trkpt lat="42.5054368" lon="12.3327111"><ele>202.0</ele><time>2026-03-30T14:13:40.713Z</time></trkpt><trkpt lat="42.5054622" lon="12.3326176"><ele>201.99999999999997</ele><time>2026-03-30T14:13:41.71Z</time></trkpt><trkpt lat="42.5054738" lon="12.3325273"><ele>202.0</ele><time>2026-03-30T14:13:42.718Z</time></trkpt><trkpt lat="42.5054696" lon="12.3324418"><ele>202.0</ele><time>2026-03-30T14:13:43.702Z</time></trkpt><trkpt lat="42.5054429" lon="12.3323442"><ele>202.0</ele><time>2026-03-30T14:13:44.705Z</time></trkpt><trkpt lat="42.5053978" lon="12.332234"><ele>202.0</ele><time>2026-03-30T14:13:45.71Z</time></trkpt><trkpt lat="42.5053487" lon="12.3320924"><ele>202.0</ele><time>2026-03-30T14:13:46.7Z</time></trkpt><trkpt lat="42.5053087" lon="12.3319293"><ele>202.0</ele><time>2026-03-30T14:13:47.706Z</time></trkpt><trkpt lat="42.5052678" lon="12.3317822"><ele>200.8</ele><time>2026-03-30T14:13:48.7Z</time></trkpt><trkpt lat="42.5052369" lon="12.3316366"><ele>199.6</ele><time>2026-03-30T14:13:49.716Z</time></trkpt><trkpt lat="42.5052233" lon="12.3315012"><ele>198.4</ele><time>2026-03-30T14:13:50.7Z</time></trkpt><trkpt lat="42.5052234" lon="12.3313738"><ele>197.20000000000002</ele><time>2026-03-30T14:13:51.703Z</time></trkpt><trkpt lat="42.5052349" lon="12.3312537"><ele>196.0</ele><time>2026-03-30T14:13:52.724Z</time></trkpt><trkpt lat="42.5052802" lon="12.331152"><ele>194.5</ele><time>2026-03-30T14:13:53.713Z</time></trkpt><trkpt lat="42.5053688" lon="12.3310821"><ele>193.0</ele><time>2026-03-30T14:13:54.717Z</time></trkpt><trkpt lat="42.5054842" lon="12.3310343"><ele>191.5</ele><time>2026-03-30T14:13:55.707Z</time></trkpt><trkpt lat="42.5056112" lon="12.3309941"><ele>190.0</ele><time>2026-03-30T14:13:56.7Z</time></trkpt><trkpt lat="42.505737" lon="12.3309291"><ele>194.0</ele><time>2026-03-30T14:13:57.716Z</time></trkpt><trkpt lat="42.5058347" lon="12.3308457"><ele>198.0</ele><time>2026-03-30T14:13:58.711Z</time></trkpt><trkpt lat="42.5059052" lon="12.3307478"><ele>202.0</ele><time>2026-03-30T14:13:59.705Z</time></trkpt><trkpt lat="42.5059652" lon="12.3306721"><ele>206.0</ele><time>2026-03-30T14:14:00.716Z</time></trkpt><trkpt lat="42.5060269" lon="12.330604"><ele>210.0</ele><time>2026-03-30T14:14:01.709Z</time></trkpt><trkpt lat="42.5060874" lon="12.3305449"><ele>210.0</ele><time>2026-03-30T14:14:02.717Z</time></trkpt><trkpt lat="42.5061983" lon="12.3304976"><ele>210.0</ele><time>2026-03-30T14:14:04.709Z</time></trkpt><trkpt lat="42.506259" lon="12.3304705"><ele>210.0</ele><time>2026-03-30T14:14:05.705Z</time></trkpt><trkpt lat="42.5063263" lon="12.3304308"><ele>210.0</ele><time>2026-03-30T14:14:06.718Z</time></trkpt><trkpt lat="42.506392" lon="12.3303823"><ele>210.0</ele><time>2026-03-30T14:14:07.713Z</time></trkpt><trkpt lat="42.5064489" lon="12.3303247"><ele>210.0</ele><time>2026-03-30T14:14:08.715Z</time></trkpt><trkpt lat="42.5065392" lon="12.3302757"><ele>214.16666666666666</ele><time>2026-03-30T14:14:10.716Z</time></trkpt><trkpt lat="42.5066173" lon="12.330365"><ele>218.33333333333331</ele><time>2026-03-30T14:14:12.708Z</time></trkpt><trkpt lat="42.5066534" lon="12.3304999"><ele>222.5</ele><time>2026-03-30T14:14:14.706Z</time></trkpt><trkpt lat="42.5066798" lon="12.3305838"><ele>226.66666666666666</ele><time>2026-03-30T14:14:15.714Z</time></trkpt><trkpt lat="42.5067089" lon="12.3306782"><ele>230.83333333333331</ele><time>2026-03-30T14:14:16.707Z</time></trkpt><trkpt lat="42.5067479" lon="12.3307759"><ele>235.0</ele><time>2026-03-30T14:14:17.713Z</time></trkpt><trkpt lat="42.5067933" lon="12.3308757"><ele>235.16666666666666</ele><time>2026-03-30T14:14:18.703Z</time></trkpt><trkpt lat="42.5068401" lon="12.3309724"><ele>235.33333333333331</ele><time>2026-03-30T14:14:19.708Z</time></trkpt><trkpt lat="42.506882" lon="12.3310467"><ele>235.5</ele><time>2026-03-30T14:14:20.708Z</time></trkpt><trkpt lat="42.5069743" lon="12.3311208"><ele>235.66666666666669</ele><time>2026-03-30T14:14:22.705Z</time></trkpt><trkpt lat="42.507037" lon="12.3310933"><ele>235.83333333333334</ele><time>2026-03-30T14:14:23.705Z</time></trkpt><trkpt lat="42.5070914" lon="12.330977"><ele>236.0</ele><time>2026-03-30T14:14:25.713Z</time></trkpt><trkpt lat="42.5070961" lon="12.3308759"><ele>242.20000000000002</ele><time>2026-03-30T14:14:26.71Z</time></trkpt><trkpt lat="42.5070977" lon="12.3307458"><ele>248.40000000000003</ele><time>2026-03-30T14:14:27.704Z</time></trkpt><trkpt lat="42.5070938" lon="12.3305802"><ele>254.6</ele><time>2026-03-30T14:14:28.71Z</time></trkpt><trkpt lat="42.5070998" lon="12.3304246"><ele>260.8</ele><time>2026-03-30T14:14:29.705Z</time></trkpt><trkpt lat="42.5071084" lon="12.3302885"><ele>267.0</ele><time>2026-03-30T14:14:30.707Z</time></trkpt><trkpt lat="42.5071198" lon="12.3301756"><ele>267.0</ele><time>2026-03-30T14:14:31.719Z</time></trkpt><trkpt lat="42.5071364" lon="12.330066"><ele>267.0</ele><time>2026-03-30T14:14:32.708Z</time></trkpt><trkpt lat="42.5071621" lon="12.3299577"><ele>267.0</ele><time>2026-03-30T14:14:33.705Z</time></trkpt><trkpt lat="42.5071973" lon="12.3298454"><ele>267.0</ele><time>2026-03-30T14:14:34.701Z</time></trkpt><trkpt lat="42.5072145" lon="12.3297269"><ele>267.0</ele><time>2026-03-30T14:14:35.693Z</time></trkpt><trkpt lat="42.5072192" lon="12.3296138"><ele>267.0</ele><time>2026-03-30T14:14:36.704Z</time></trkpt><trkpt lat="42.5072249" lon="12.3295176"><ele>266.3333333333333</ele><time>2026-03-30T14:14:37.708Z</time></trkpt><trkpt lat="42.5072453" lon="12.3293636"><ele>265.6666666666667</ele><time>2026-03-30T14:14:39.71Z</time></trkpt><trkpt lat="42.5072771" lon="12.3292804"><ele>265.0</ele><time>2026-03-30T14:14:40.713Z</time></trkpt><trkpt lat="42.5073267" lon="12.3291911"><ele>264.33333333333337</ele><time>2026-03-30T14:14:41.713Z</time></trkpt><trkpt lat="42.5073787" lon="12.3291013"><ele>263.6666666666667</ele><time>2026-03-30T14:14:42.712Z</time></trkpt><trkpt lat="42.5074367" lon="12.329015"><ele>263.0</ele><time>2026-03-30T14:14:43.713Z</time></trkpt><trkpt lat="42.5074979" lon="12.3289311"><ele>263.0</ele><time>2026-03-30T14:14:45.398Z</time></trkpt><trkpt lat="42.5076202" lon="12.3287787"><ele>263.0</ele><time>2026-03-30T14:14:46.708Z</time></trkpt><trkpt lat="42.5076823" lon="12.3287053"><ele>263.0</ele><time>2026-03-30T14:14:47.699Z</time></trkpt><trkpt lat="42.5077418" lon="12.3286404"><ele>263.0</ele><time>2026-03-30T14:14:48.702Z</time></trkpt><trkpt lat="42.5077943" lon="12.3285913"><ele>263.0</ele><time>2026-03-30T14:14:49.713Z</time></trkpt><trkpt lat="42.5078454" lon="12.3284849"><ele>263.0</ele><time>2026-03-30T14:14:51.707Z</time></trkpt><trkpt lat="42.5078578" lon="12.3283532"><ele>263.0</ele><time>2026-03-30T14:14:53.709Z</time></trkpt><trkpt lat="42.5078526" lon="12.3282467"><ele>263.0</ele><time>2026-03-30T14:14:55.709Z</time></trkpt><trkpt lat="42.5079024" lon="12.3281885"><ele>263.0</ele><time>2026-03-30T14:14:57.709Z</time></trkpt><trkpt lat="42.5080361" lon="12.3281832"><ele>263.0</ele><time>2026-03-30T14:14:59.715Z</time></trkpt><trkpt lat="42.508123" lon="12.328191"><ele>266.4</ele><time>2026-03-30T14:15:00.707Z</time></trkpt><trkpt lat="42.5081995" lon="12.3281894"><ele>269.8</ele><time>2026-03-30T14:15:01.719Z</time></trkpt><trkpt lat="42.5082856" lon="12.328189"><ele>273.2</ele><time>2026-03-30T14:15:03.703Z</time></trkpt><trkpt lat="42.5083333" lon="12.3283168"><ele>276.6</ele><time>2026-03-30T14:15:05.715Z</time></trkpt><trkpt lat="42.5083368" lon="12.3284408"><ele>280.0</ele><time>2026-03-30T14:15:06.709Z</time></trkpt><trkpt lat="42.508338" lon="12.3285789"><ele>280.0</ele><time>2026-03-30T14:15:07.697Z</time></trkpt><trkpt lat="42.5083426" lon="12.3287245"><ele>280.0</ele><time>2026-03-30T14:15:08.704Z</time></trkpt><trkpt lat="42.5083489" lon="12.3288825"><ele>280.0</ele><time>2026-03-30T14:15:09.715Z</time></trkpt><trkpt lat="42.5083509" lon="12.3290602"><ele>280.0</ele><time>2026-03-30T14:15:10.713Z</time></trkpt><trkpt lat="42.5083579" lon="12.329243"><ele>280.0</ele><time>2026-03-30T14:15:11.712Z</time></trkpt><trkpt lat="42.5083709" lon="12.3294221"><ele>280.0</ele><time>2026-03-30T14:15:12.712Z</time></trkpt><trkpt lat="42.5083735" lon="12.3296008"><ele>280.0</ele><time>2026-03-30T14:15:13.711Z</time></trkpt><trkpt lat="42.5083696" lon="12.3297594"><ele>280.0</ele><time>2026-03-30T14:15:14.705Z</time></trkpt><trkpt lat="42.5083696" lon="12.3298929"><ele>280.8333333333333</ele><time>2026-03-30T14:15:15.707Z</time></trkpt><trkpt lat="42.5083741" lon="12.3300153"><ele>281.66666666666663</ele><time>2026-03-30T14:15:16.714Z</time></trkpt><trkpt lat="42.5083793" lon="12.3301312"><ele>282.5</ele><time>2026-03-30T14:15:17.72Z</time></trkpt><trkpt lat="42.5083777" lon="12.3302257"><ele>283.3333333333333</ele><time>2026-03-30T14:15:18.715Z</time></trkpt><trkpt lat="42.5083862" lon="12.3303454"><ele>284.1666666666667</ele><time>2026-03-30T14:15:20.716Z</time></trkpt><trkpt lat="42.5084883" lon="12.3303938"><ele>285.0</ele><time>2026-03-30T14:15:22.72Z</time></trkpt><trkpt lat="42.5085703" lon="12.3303919"><ele>285.0</ele><time>2026-03-30T14:15:23.708Z</time></trkpt><trkpt lat="42.5086757" lon="12.3303839"><ele>285.0</ele><time>2026-03-30T14:15:24.707Z</time></trkpt><trkpt lat="42.508791" lon="12.3303724"><ele>285.0</ele><time>2026-03-30T14:15:25.713Z</time></trkpt><trkpt lat="42.5089089" lon="12.330364"><ele>285.0</ele><time>2026-03-30T14:15:26.708Z</time></trkpt><trkpt lat="42.5090135" lon="12.3303567"><ele>285.0</ele><time>2026-03-30T14:15:27.718Z</time></trkpt><trkpt lat="42.5090949" lon="12.3303462"><ele>286.5</ele><time>2026-03-30T14:15:28.717Z</time></trkpt><trkpt lat="42.5091719" lon="12.330341"><ele>288.0</ele><time>2026-03-30T14:15:30.713Z</time></trkpt><trkpt lat="42.5092077" lon="12.330443"><ele>289.5</ele><time>2026-03-30T14:15:32.702Z</time></trkpt><trkpt lat="42.5092197" lon="12.3305442"><ele>291.0</ele><time>2026-03-30T14:15:33.694Z</time></trkpt><trkpt lat="42.5092306" lon="12.3306643"><ele>292.5</ele><time>2026-03-30T14:15:34.708Z</time></trkpt><trkpt lat="42.5092359" lon="12.3307799"><ele>294.0</ele><time>2026-03-30T14:15:35.717Z</time></trkpt><trkpt lat="42.5092409" lon="12.3308861"><ele>294.0</ele><time>2026-03-30T14:15:36.708Z</time></trkpt><trkpt lat="42.5092404" lon="12.3309868"><ele>294.0</ele><time>2026-03-30T14:15:37.718Z</time></trkpt><trkpt lat="42.5092421" lon="12.331104"><ele>294.0</ele><time>2026-03-30T14:15:38.713Z</time></trkpt><trkpt lat="42.5092419" lon="12.3312301"><ele>294.0</ele><time>2026-03-30T14:15:39.709Z</time></trkpt><trkpt lat="42.509248" lon="12.331369"><ele>294.0</ele><time>2026-03-30T14:15:40.697Z</time></trkpt><trkpt lat="42.5092532" lon="12.3315201"><ele>294.2</ele><time>2026-03-30T14:15:41.705Z</time></trkpt><trkpt lat="42.5092556" lon="12.3316739"><ele>294.4</ele><time>2026-03-30T14:15:42.706Z</time></trkpt><trkpt lat="42.5092624" lon="12.3318132"><ele>294.6</ele><time>2026-03-30T14:15:43.711Z</time></trkpt><trkpt lat="42.5092675" lon="12.3319357"><ele>294.8</ele><time>2026-03-30T14:15:44.715Z</time></trkpt><trkpt lat="42.509278" lon="12.3320502"><ele>295.0</ele><time>2026-03-30T14:15:45.715Z</time></trkpt><trkpt lat="42.5092944" lon="12.3321548"><ele>295.2</ele><time>2026-03-30T14:15:46.701Z</time></trkpt><trkpt lat="42.5093048" lon="12.3322483"><ele>295.4</ele><time>2026-03-30T14:15:47.714Z</time></trkpt><trkpt lat="42.5093294" lon="12.3323656"><ele>295.6</ele><time>2026-03-30T14:15:49.712Z</time></trkpt><trkpt lat="42.5094576" lon="12.3323632"><ele>295.8</ele><time>2026-03-30T14:15:51.708Z</time></trkpt><trkpt lat="42.50956" lon="12.3323208"><ele>296.0</ele><time>2026-03-30T14:15:53.536Z</time></trkpt><trkpt lat="42.509794" lon="12.3322441"><ele>296.6</ele><time>2026-03-30T14:15:54.709Z</time></trkpt><trkpt lat="42.5099075" lon="12.3322154"><ele>297.20000000000005</ele><time>2026-03-30T14:15:55.703Z</time></trkpt><trkpt lat="42.5100019" lon="12.3321862"><ele>297.79999999999995</ele><time>2026-03-30T14:15:56.716Z</time></trkpt><trkpt lat="42.5100911" lon="12.3321655"><ele>298.4</ele><time>2026-03-30T14:15:57.708Z</time></trkpt><trkpt lat="42.5101689" lon="12.3321433"><ele>299.0</ele><time>2026-03-30T14:15:58.712Z</time></trkpt><trkpt lat="42.5102782" lon="12.3321155"><ele>299.0</ele><time>2026-03-30T14:16:00.712Z</time></trkpt><trkpt lat="42.5103442" lon="12.3320454"><ele>299.0</ele><time>2026-03-30T14:16:04.702Z</time></trkpt><trkpt lat="42.5103152" lon="12.3318791"><ele>299.0</ele><time>2026-03-30T14:16:06.705Z</time></trkpt><trkpt lat="42.5102903" lon="12.3317616"><ele>299.0</ele><time>2026-03-30T14:16:07.712Z</time></trkpt><trkpt lat="42.5102532" lon="12.331597"><ele>299.0</ele><time>2026-03-30T14:16:08.7Z</time></trkpt><trkpt lat="42.5102298" lon="12.3313925"><ele>298.6666666666667</ele><time>2026-03-30T14:16:09.711Z</time></trkpt><trkpt lat="42.5101951" lon="12.3311731"><ele>298.3333333333333</ele><time>2026-03-30T14:16:10.704Z</time></trkpt><trkpt lat="42.5101551" lon="12.3309631"><ele>298.0</ele><time>2026-03-30T14:16:11.706Z</time></trkpt><trkpt lat="42.5101178" lon="12.3307788"><ele>298.0</ele><time>2026-03-30T14:16:12.716Z</time></trkpt><trkpt lat="42.510087" lon="12.330618"><ele>298.0</ele><time>2026-03-30T14:16:13.713Z</time></trkpt><trkpt lat="42.5100609" lon="12.3304531"><ele>298.0</ele><time>2026-03-30T14:16:14.715Z</time></trkpt><trkpt lat="42.5100381" lon="12.3302796"><ele>298.0</ele><time>2026-03-30T14:16:15.712Z</time></trkpt><trkpt lat="42.5100135" lon="12.330101"><ele>297.5</ele><time>2026-03-30T14:16:16.706Z</time></trkpt><trkpt lat="42.5099833" lon="12.3299215"><ele>297.0</ele><time>2026-03-30T14:16:17.711Z</time></trkpt><trkpt lat="42.5099572" lon="12.3297533"><ele>296.5</ele><time>2026-03-30T14:16:18.711Z</time></trkpt><trkpt lat="42.5099208" lon="12.3295964"><ele>296.0</ele><time>2026-03-30T14:16:19.71Z</time></trkpt><trkpt lat="42.5098857" lon="12.3294515"><ele>295.25</ele><time>2026-03-30T14:16:20.702Z</time></trkpt><trkpt lat="42.5098542" lon="12.3293105"><ele>294.5</ele><time>2026-03-30T14:16:21.705Z</time></trkpt><trkpt lat="42.5098216" lon="12.3291736"><ele>293.75</ele><time>2026-03-30T14:16:22.717Z</time></trkpt><trkpt lat="42.5097909" lon="12.3290346"><ele>293.0</ele><time>2026-03-30T14:16:23.715Z</time></trkpt><trkpt lat="42.5097682" lon="12.3288631"><ele>292.75</ele><time>2026-03-30T14:16:24.711Z</time></trkpt><trkpt lat="42.5097554" lon="12.3286877"><ele>292.5</ele><time>2026-03-30T14:16:25.719Z</time></trkpt><trkpt lat="42.5097477" lon="12.3285162"><ele>292.25</ele><time>2026-03-30T14:16:26.704Z</time></trkpt><trkpt lat="42.5097563" lon="12.3283454"><ele>292.0</ele><time>2026-03-30T14:16:27.714Z</time></trkpt><trkpt lat="42.5097632" lon="12.3281847"><ele>292.0</ele><time>2026-03-30T14:16:28.716Z</time></trkpt><trkpt lat="42.5097677" lon="12.3280309"><ele>292.0</ele><time>2026-03-30T14:16:29.713Z</time></trkpt><trkpt lat="42.5097542" lon="12.3278674"><ele>292.0</ele><time>2026-03-30T14:16:30.697Z</time></trkpt><trkpt lat="42.5097274" lon="12.3276949"><ele>292.0</ele><time>2026-03-30T14:16:31.712Z</time></trkpt><trkpt lat="42.5096967" lon="12.3275138"><ele>292.0</ele><time>2026-03-30T14:16:32.703Z</time></trkpt><trkpt lat="42.5096718" lon="12.3273184"><ele>292.0</ele><time>2026-03-30T14:16:33.713Z</time></trkpt><trkpt lat="42.5096411" lon="12.3271042"><ele>292.0</ele><time>2026-03-30T14:16:34.704Z</time></trkpt><trkpt lat="42.5096154" lon="12.3268973"><ele>292.5</ele><time>2026-03-30T14:16:35.719Z</time></trkpt><trkpt lat="42.5095909" lon="12.3267229"><ele>293.0</ele><time>2026-03-30T14:16:36.707Z</time></trkpt><trkpt lat="42.5095715" lon="12.326557"><ele>293.5</ele><time>2026-03-30T14:16:37.71Z</time></trkpt><trkpt lat="42.5095537" lon="12.3264014"><ele>294.0</ele><time>2026-03-30T14:16:38.708Z</time></trkpt><trkpt lat="42.5095284" lon="12.3262647"><ele>294.0</ele><time>2026-03-30T14:16:39.713Z</time></trkpt><trkpt lat="42.5095107" lon="12.3261223"><ele>294.0</ele><time>2026-03-30T14:16:40.706Z</time></trkpt><trkpt lat="42.5094985" lon="12.3259657"><ele>294.0</ele><time>2026-03-30T14:16:41.722Z</time></trkpt><trkpt lat="42.5094958" lon="12.325806"><ele>294.0</ele><time>2026-03-30T14:16:42.709Z</time></trkpt><trkpt lat="42.5095023" lon="12.3256572"><ele>294.1666666666667</ele><time>2026-03-30T14:16:43.717Z</time></trkpt><trkpt lat="42.5095149" lon="12.3255174"><ele>294.3333333333333</ele><time>2026-03-30T14:16:44.713Z</time></trkpt><trkpt lat="42.5095292" lon="12.3254007"><ele>294.5</ele><time>2026-03-30T14:16:45.716Z</time></trkpt><trkpt lat="42.5095379" lon="12.3252991"><ele>294.66666666666663</ele><time>2026-03-30T14:16:46.708Z</time></trkpt><trkpt lat="42.5095397" lon="12.3252065"><ele>294.8333333333333</ele><time>2026-03-30T14:16:47.72Z</time></trkpt><trkpt lat="42.509543" lon="12.32512"><ele>295.0</ele><time>2026-03-30T14:16:48.714Z</time></trkpt><trkpt lat="42.5094939" lon="12.3249616"><ele>295.0</ele><time>2026-03-30T14:16:50.698Z</time></trkpt><trkpt lat="42.5093986" lon="12.3248439"><ele>295.0</ele><time>2026-03-30T14:16:52.7Z</time></trkpt><trkpt lat="42.5093425" lon="12.3247727"><ele>295.0</ele><time>2026-03-30T14:16:53.692Z</time></trkpt><trkpt lat="42.5092581" lon="12.3247162"><ele>295.0</ele><time>2026-03-30T14:16:54.701Z</time></trkpt><trkpt lat="42.5091272" lon="12.3246874"><ele>295.0</ele><time>2026-03-30T14:16:55.703Z</time></trkpt><trkpt lat="42.5089862" lon="12.3246519"><ele>294.0</ele><time>2026-03-30T14:16:56.703Z</time></trkpt><trkpt lat="42.50886" lon="12.3246013"><ele>293.0</ele><time>2026-03-30T14:16:57.704Z</time></trkpt><trkpt lat="42.5087612" lon="12.3245129"><ele>292.0</ele><time>2026-03-30T14:16:58.709Z</time></trkpt><trkpt lat="42.5087008" lon="12.3243707"><ele>291.0</ele><time>2026-03-30T14:16:59.704Z</time></trkpt><trkpt lat="42.5086542" lon="12.3241815"><ele>286.6666666666667</ele><time>2026-03-30T14:17:01.653Z</time></trkpt><trkpt lat="42.5085664" lon="12.3237987"><ele>282.33333333333337</ele><time>2026-03-30T14:17:02.707Z</time></trkpt><trkpt lat="42.5084893" lon="12.3236322"><ele>278.0</ele><time>2026-03-30T14:17:03.703Z</time></trkpt><trkpt lat="42.5084108" lon="12.3234709"><ele>278.0</ele><time>2026-03-30T14:17:04.712Z</time></trkpt><trkpt lat="42.5083371" lon="12.3233171"><ele>278.0</ele><time>2026-03-30T14:17:05.724Z</time></trkpt><trkpt lat="42.5082783" lon="12.3231819"><ele>278.0</ele><time>2026-03-30T14:17:06.718Z</time></trkpt><trkpt lat="42.5082245" lon="12.323065"><ele>278.0</ele><time>2026-03-30T14:17:07.719Z</time></trkpt><trkpt lat="42.5081862" lon="12.322967"><ele>278.0</ele><time>2026-03-30T14:17:08.717Z</time></trkpt><trkpt lat="42.5081328" lon="12.3229098"><ele>278.0</ele><time>2026-03-30T14:17:09.703Z</time></trkpt><trkpt lat="42.5080603" lon="12.3229135"><ele>278.0</ele><time>2026-03-30T14:17:10.713Z</time></trkpt><trkpt lat="42.5079925" lon="12.3229733"><ele>278.0</ele><time>2026-03-30T14:17:11.717Z</time></trkpt><trkpt lat="42.5079568" lon="12.3230833"><ele>278.0</ele><time>2026-03-30T14:17:12.713Z</time></trkpt><trkpt lat="42.5079602" lon="12.3232329"><ele>278.0</ele><time>2026-03-30T14:17:13.722Z</time></trkpt><trkpt lat="42.5079932" lon="12.3234059"><ele>278.0</ele><time>2026-03-30T14:17:14.72Z</time></trkpt><trkpt lat="42.5080245" lon="12.3235914"><ele>278.0</ele><time>2026-03-30T14:17:15.718Z</time></trkpt><trkpt lat="42.508053" lon="12.3237809"><ele>278.0</ele><time>2026-03-30T14:17:16.704Z</time></trkpt><trkpt lat="42.5080818" lon="12.3239657"><ele>278.0</ele><time>2026-03-30T14:17:17.72Z</time></trkpt><trkpt lat="42.5081082" lon="12.3241457"><ele>278.0</ele><time>2026-03-30T14:17:18.715Z</time></trkpt><trkpt lat="42.5081389" lon="12.3243265"><ele>278.0</ele><time>2026-03-30T14:17:19.717Z</time></trkpt><trkpt lat="42.5081664" lon="12.3244836"><ele>278.0</ele><time>2026-03-30T14:17:20.714Z</time></trkpt><trkpt lat="42.5081806" lon="12.3246177"><ele>278.0</ele><time>2026-03-30T14:17:21.706Z</time></trkpt><trkpt lat="42.5081749" lon="12.3247384"><ele>278.0</ele><time>2026-03-30T14:17:22.72Z</time></trkpt><trkpt lat="42.5081235" lon="12.3248125"><ele>278.4</ele><time>2026-03-30T14:17:23.704Z</time></trkpt><trkpt lat="42.508046" lon="12.3248294"><ele>278.8</ele><time>2026-03-30T14:17:24.706Z</time></trkpt><trkpt lat="42.5079581" lon="12.3247752"><ele>279.2</ele><time>2026-03-30T14:17:25.714Z</time></trkpt><trkpt lat="42.5078817" lon="12.3246509"><ele>279.6</ele><time>2026-03-30T14:17:26.701Z</time></trkpt><trkpt lat="42.5078182" lon="12.3244845"><ele>280.0</ele><time>2026-03-30T14:17:27.711Z</time></trkpt><trkpt lat="42.5077395" lon="12.3243087"><ele>274.75</ele><time>2026-03-30T14:17:28.701Z</time></trkpt><trkpt lat="42.5076563" lon="12.3241325"><ele>269.5</ele><time>2026-03-30T14:17:29.71Z</time></trkpt><trkpt lat="42.50759" lon="12.3239598"><ele>264.25</ele><time>2026-03-30T14:17:30.703Z</time></trkpt><trkpt lat="42.5075597" lon="12.3237861"><ele>259.0</ele><time>2026-03-30T14:17:31.717Z</time></trkpt><trkpt lat="42.5075495" lon="12.3236271"><ele>258.16666666666663</ele><time>2026-03-30T14:17:32.705Z</time></trkpt><trkpt lat="42.5075305" lon="12.3234953"><ele>257.3333333333333</ele><time>2026-03-30T14:17:33.699Z</time></trkpt><trkpt lat="42.507492" lon="12.3234015"><ele>256.5</ele><time>2026-03-30T14:17:34.699Z</time></trkpt><trkpt lat="42.5074207" lon="12.3233518"><ele>255.66666666666669</ele><time>2026-03-30T14:17:35.715Z</time></trkpt><trkpt lat="42.5073427" lon="12.3233579"><ele>254.83333333333334</ele><time>2026-03-30T14:17:36.711Z</time></trkpt><trkpt lat="42.5072771" lon="12.3234436"><ele>254.0</ele><time>2026-03-30T14:17:37.695Z</time></trkpt><trkpt lat="42.507254" lon="12.3235823"><ele>254.0</ele><time>2026-03-30T14:17:38.712Z</time></trkpt><trkpt lat="42.5072756" lon="12.3237505"><ele>253.99999999999997</ele><time>2026-03-30T14:17:39.706Z</time></trkpt><trkpt lat="42.5072784" lon="12.3239075"><ele>253.99999999999997</ele><time>2026-03-30T14:17:40.698Z</time></trkpt><trkpt lat="42.5072347" lon="12.3240418"><ele>254.0</ele><time>2026-03-30T14:17:41.71Z</time></trkpt><trkpt lat="42.5071444" lon="12.3240989"><ele>254.0</ele><time>2026-03-30T14:17:42.698Z</time></trkpt><trkpt lat="42.5070242" lon="12.3241016"><ele>252.33333333333334</ele><time>2026-03-30T14:17:43.715Z</time></trkpt><trkpt lat="42.5068923" lon="12.3240467"><ele>250.66666666666669</ele><time>2026-03-30T14:17:44.703Z</time></trkpt><trkpt lat="42.5067428" lon="12.3239676"><ele>249.0</ele><time>2026-03-30T14:17:45.707Z</time></trkpt><trkpt lat="42.5065804" lon="12.3238929"><ele>245.5</ele><time>2026-03-30T14:17:46.715Z</time></trkpt><trkpt lat="42.5064235" lon="12.3238433"><ele>242.0</ele><time>2026-03-30T14:17:47.715Z</time></trkpt><trkpt lat="42.5062753" lon="12.3238166"><ele>238.5</ele><time>2026-03-30T14:17:48.715Z</time></trkpt><trkpt lat="42.5061378" lon="12.3238003"><ele>235.0</ele><time>2026-03-30T14:17:49.711Z</time></trkpt><trkpt lat="42.5059867" lon="12.3237865"><ele>233.25</ele><time>2026-03-30T14:17:50.709Z</time></trkpt><trkpt lat="42.5058402" lon="12.3237752"><ele>231.5</ele><time>2026-03-30T14:17:51.713Z</time></trkpt><trkpt lat="42.5056951" lon="12.3237738"><ele>229.75</ele><time>2026-03-30T14:17:52.708Z</time></trkpt><trkpt lat="42.5055588" lon="12.3237738"><ele>228.0</ele><time>2026-03-30T14:17:53.713Z</time></trkpt><trkpt lat="42.5054258" lon="12.3237773"><ele>228.0</ele><time>2026-03-30T14:17:54.701Z</time></trkpt><trkpt lat="42.5053016" lon="12.3237988"><ele>228.0</ele><time>2026-03-30T14:17:55.702Z</time></trkpt><trkpt lat="42.5051924" lon="12.3238607"><ele>228.0</ele><time>2026-03-30T14:17:56.713Z</time></trkpt><trkpt lat="42.5051028" lon="12.3239668"><ele>228.0</ele><time>2026-03-30T14:17:57.712Z</time></trkpt><trkpt lat="42.5050386" lon="12.3241048"><ele>228.0</ele><time>2026-03-30T14:17:58.705Z</time></trkpt><trkpt lat="42.5049999" lon="12.3242701"><ele>228.0</ele><time>2026-03-30T14:17:59.71Z</time></trkpt><trkpt lat="42.5050023" lon="12.3244436"><ele>228.0</ele><time>2026-03-30T14:18:00.702Z</time></trkpt><trkpt lat="42.5050402" lon="12.3246134"><ele>228.0</ele><time>2026-03-30T14:18:01.715Z</time></trkpt><trkpt lat="42.505109" lon="12.3247612"><ele>227.4</ele><time>2026-03-30T14:18:02.717Z</time></trkpt><trkpt lat="42.5051525" lon="12.3248939"><ele>226.8</ele><time>2026-03-30T14:18:03.716Z</time></trkpt><trkpt lat="42.5051473" lon="12.3250222"><ele>226.2</ele><time>2026-03-30T14:18:04.716Z</time></trkpt><trkpt lat="42.5051186" lon="12.3251502"><ele>225.6</ele><time>2026-03-30T14:18:05.699Z</time></trkpt><trkpt lat="42.5050516" lon="12.3252136"><ele>225.0</ele><time>2026-03-30T14:18:06.71Z</time></trkpt><trkpt lat="42.5049618" lon="12.3252189"><ele>225.0</ele><time>2026-03-30T14:18:07.717Z</time></trkpt><trkpt lat="42.5048588" lon="12.3251657"><ele>225.0</ele><time>2026-03-30T14:18:08.708Z</time></trkpt><trkpt lat="42.5047516" lon="12.3250867"><ele>225.0</ele><time>2026-03-30T14:18:09.705Z</time></trkpt><trkpt lat="42.5046351" lon="12.3249927"><ele>225.0</ele><time>2026-03-30T14:18:10.712Z</time></trkpt><trkpt lat="42.5045343" lon="12.324871"><ele>220.66666666666669</ele><time>2026-03-30T14:18:11.717Z</time></trkpt><trkpt lat="42.5044632" lon="12.3247069"><ele>216.33333333333334</ele><time>2026-03-30T14:18:12.705Z</time></trkpt><trkpt lat="42.5044212" lon="12.324491"><ele>212.0</ele><time>2026-03-30T14:18:13.717Z</time></trkpt><trkpt lat="42.5043904" lon="12.3242611"><ele>212.0</ele><time>2026-03-30T14:18:14.701Z</time></trkpt><trkpt lat="42.504355" lon="12.3240497"><ele>212.0</ele><time>2026-03-30T14:18:15.716Z</time></trkpt><trkpt lat="42.5043328" lon="12.3238571"><ele>212.0</ele><time>2026-03-30T14:18:16.716Z</time></trkpt><trkpt lat="42.5043351" lon="12.3236802"><ele>212.0</ele><time>2026-03-30T14:18:17.721Z</time></trkpt><trkpt lat="42.5043646" lon="12.3235142"><ele>210.75</ele><time>2026-03-30T14:18:18.696Z</time></trkpt><trkpt lat="42.5044235" lon="12.3233521"><ele>209.5</ele><time>2026-03-30T14:18:19.703Z</time></trkpt><trkpt lat="42.5045187" lon="12.3232065"><ele>208.25</ele><time>2026-03-30T14:18:20.7Z</time></trkpt><trkpt lat="42.5046335" lon="12.3230844"><ele>207.0</ele><time>2026-03-30T14:18:21.703Z</time></trkpt><trkpt lat="42.5047399" lon="12.3229769"><ele>206.5</ele><time>2026-03-30T14:18:22.706Z</time></trkpt><trkpt lat="42.5048398" lon="12.322873"><ele>206.0</ele><time>2026-03-30T14:18:23.701Z</time></trkpt><trkpt lat="42.504939" lon="12.3227629"><ele>205.5</ele><time>2026-03-30T14:18:24.715Z</time></trkpt><trkpt lat="42.5050384" lon="12.3226577"><ele>205.0</ele><time>2026-03-30T14:18:25.711Z</time></trkpt><trkpt lat="42.505146" lon="12.3225577"><ele>205.0</ele><time>2026-03-30T14:18:26.703Z</time></trkpt><trkpt lat="42.5052625" lon="12.3224603"><ele>205.0</ele><time>2026-03-30T14:18:27.705Z</time></trkpt><trkpt lat="42.5053854" lon="12.3223732"><ele>205.0</ele><time>2026-03-30T14:18:28.711Z</time></trkpt><trkpt lat="42.5055089" lon="12.3222955"><ele>205.0</ele><time>2026-03-30T14:18:29.711Z</time></trkpt><trkpt lat="42.5056176" lon="12.3222306"><ele>203.99999999999997</ele><time>2026-03-30T14:18:30.708Z</time></trkpt><trkpt lat="42.5057089" lon="12.322181"><ele>203.0</ele><time>2026-03-30T14:18:31.707Z</time></trkpt><trkpt lat="42.5057774" lon="12.322139"><ele>202.0</ele><time>2026-03-30T14:18:32.712Z</time></trkpt><trkpt lat="42.5058559" lon="12.3220612"><ele>201.0</ele><time>2026-03-30T14:18:34.693Z</time></trkpt><trkpt lat="42.5058235" lon="12.3219745"><ele>199.99999999999997</ele><time>2026-03-30T14:18:36.693Z</time></trkpt><trkpt lat="42.5057261" lon="12.3219732"><ele>199.0</ele><time>2026-03-30T14:18:38.705Z</time></trkpt><trkpt lat="42.5056578" lon="12.3219557"><ele>199.0</ele><time>2026-03-30T14:18:39.701Z</time></trkpt><trkpt lat="42.5055868" lon="12.321872"><ele>199.0</ele><time>2026-03-30T14:18:40.708Z</time></trkpt><trkpt lat="42.5055153" lon="12.3217606"><ele>199.0</ele><time>2026-03-30T14:18:41.703Z</time></trkpt><trkpt lat="42.5054508" lon="12.3216506"><ele>199.0</ele><time>2026-03-30T14:18:42.706Z</time></trkpt><trkpt lat="42.5054056" lon="12.3215415"><ele>199.0</ele><time>2026-03-30T14:18:43.706Z</time></trkpt><trkpt lat="42.50537" lon="12.3214601"><ele>197.6</ele><time>2026-03-30T14:18:44.71Z</time></trkpt><trkpt lat="42.5053118" lon="12.3213641"><ele>196.2</ele><time>2026-03-30T14:18:46.702Z</time></trkpt><trkpt lat="42.5052166" lon="12.3213672"><ele>194.79999999999998</ele><time>2026-03-30T14:18:48.706Z</time></trkpt><trkpt lat="42.5051473" lon="12.3214015"><ele>193.39999999999998</ele><time>2026-03-30T14:18:49.707Z</time></trkpt><trkpt lat="42.5050516" lon="12.3214633"><ele>192.0</ele><time>2026-03-30T14:18:50.707Z</time></trkpt><trkpt lat="42.504947" lon="12.3215232"><ele>192.0</ele><time>2026-03-30T14:18:51.704Z</time></trkpt><trkpt lat="42.5048477" lon="12.3215843"><ele>192.0</ele><time>2026-03-30T14:18:52.715Z</time></trkpt><trkpt lat="42.5047695" lon="12.3216267"><ele>192.0</ele><time>2026-03-30T14:18:53.712Z</time></trkpt><trkpt lat="42.5047053" lon="12.321662"><ele>192.0</ele><time>2026-03-30T14:18:54.711Z</time></trkpt><trkpt lat="42.5046291" lon="12.3217247"><ele>192.0</ele><time>2026-03-30T14:18:56.711Z</time></trkpt><trkpt lat="42.5046633" lon="12.3218417"><ele>192.0</ele><time>2026-03-30T14:18:59.706Z</time></trkpt><trkpt lat="42.5047141" lon="12.3218939"><ele>192.0</ele><time>2026-03-30T14:19:00.702Z</time></trkpt><trkpt lat="42.5047779" lon="12.3219309"><ele>192.0</ele><time>2026-03-30T14:19:01.711Z</time></trkpt><trkpt lat="42.5048512" lon="12.3219418"><ele>192.0</ele><time>2026-03-30T14:19:02.699Z</time></trkpt><trkpt lat="42.5049261" lon="12.3219256"><ele>192.0</ele><time>2026-03-30T14:19:03.708Z</time></trkpt><trkpt lat="42.5049958" lon="12.3218896"><ele>192.0</ele><time>2026-03-30T14:19:04.711Z</time></trkpt><trkpt lat="42.5051008" lon="12.3218476"><ele>192.0</ele><time>2026-03-30T14:19:06.694Z</time></trkpt><trkpt lat="42.5051643" lon="12.3218294"><ele>192.0</ele><time>2026-03-30T14:19:08.711Z</time></trkpt></trkseg></trk></gpx>